<?xml version="1.0" encoding="UTF-8" standalone="no" ?>
<gpx xmlns="http://www.topografix.com/GPX/1/1" xmlns:xsi="http://www.w3.org/2001/XMLSchema-instance" xsi:schemaLocation="http://www.topografix.com/GPX/1/1 http://www.topografix.com/GPX/1/1/gpx.xsd" version="1.1" creator="VisuGPX - https://www.visugpx.com">
  <metadata>
    <name>Itinéraire prévu Norvège</name>
  </metadata>
  <trk>
    <name><![CDATA[4_Tjøtta-Bodø: 378km]]></name>
    <trkseg>
      <trkpt lat="65.82184" lon="12.42994">
        <ele>3.281812</ele>
        <time>2020-07-15T10:56:40.479Z</time>
      </trkpt>
      <trkpt lat="65.82189" lon="12.42988">
        <ele>3.281812</ele>
        <time>2020-07-15T10:56:41.780Z</time>
      </trkpt>
      <trkpt lat="65.82213" lon="12.42967">
        <ele>3.281812</ele>
        <time>2020-07-15T10:56:48.024Z</time>
      </trkpt>
      <trkpt lat="65.82218" lon="12.4296">
        <ele>3.281812</ele>
        <time>2020-07-15T10:56:49.561Z</time>
      </trkpt>
      <trkpt lat="65.82231" lon="12.4294">
        <ele>3.281812</ele>
        <time>2020-07-15T10:56:53.390Z</time>
      </trkpt>
      <trkpt lat="65.82245" lon="12.42912">
        <ele>3.281812</ele>
        <time>2020-07-15T10:56:58.287Z</time>
      </trkpt>
      <trkpt lat="65.82253" lon="12.42893">
        <ele>3.281812</ele>
        <time>2020-07-15T10:57:01.210Z</time>
      </trkpt>
      <trkpt lat="65.82254" lon="12.42881">
        <ele>3.281812</ele>
        <time>2020-07-15T10:57:02.840Z</time>
      </trkpt>
      <trkpt lat="65.82255" lon="12.42862">
        <ele>3.43447</ele>
        <time>2020-07-15T10:57:05.075Z</time>
      </trkpt>
      <trkpt lat="65.82255" lon="12.42845">
        <ele>3.672023</ele>
        <time>2020-07-15T10:57:07.087Z</time>
      </trkpt>
      <trkpt lat="65.82259" lon="12.4283">
        <ele>3.917898</ele>
        <time>2020-07-15T10:57:09.099Z</time>
      </trkpt>
      <trkpt lat="65.82263" lon="12.42815">
        <ele>4.174087</ele>
        <time>2020-07-15T10:57:11.144Z</time>
      </trkpt>
      <trkpt lat="65.82269" lon="12.42794">
        <ele>4.520036</ele>
        <time>2020-07-15T10:57:14.226Z</time>
      </trkpt>
      <trkpt lat="65.82293" lon="12.42711">
        <ele>5.962453</ele>
        <time>2020-07-15T10:57:26.817Z</time>
      </trkpt>
      <trkpt lat="65.82314" lon="12.42635">
        <ele>7.244346</ele>
        <time>2020-07-15T10:57:38.165Z</time>
      </trkpt>
      <trkpt lat="65.82321" lon="12.4261">
        <ele>7.660702</ele>
        <time>2020-07-15T10:57:41.714Z</time>
      </trkpt>
      <trkpt lat="65.82323" lon="12.42599">
        <ele>7.831532</ele>
        <time>2020-07-15T10:57:43.145Z</time>
      </trkpt>
      <trkpt lat="65.82327" lon="12.42583">
        <ele>8.097335</ele>
        <time>2020-07-15T10:57:45.608Z</time>
      </trkpt>
      <trkpt lat="65.82334" lon="12.4256">
        <ele>8.486901</ele>
        <time>2020-07-15T10:57:49.078Z</time>
      </trkpt>
      <trkpt lat="65.8235" lon="12.42494">
        <ele>9.513675</ele>
        <time>2020-07-15T10:57:58.183Z</time>
      </trkpt>
      <trkpt lat="65.82434" lon="12.4215">
        <ele>12.896775</ele>
        <time>2020-07-15T10:58:38.715Z</time>
      </trkpt>
      <trkpt lat="65.82459" lon="12.42048">
        <ele>13.096829</ele>
        <time>2020-07-15T10:58:48.220Z</time>
      </trkpt>
      <trkpt lat="65.82492" lon="12.41917">
        <ele>13.029073</ele>
        <time>2020-07-15T10:58:59.766Z</time>
      </trkpt>
      <trkpt lat="65.82494" lon="12.41906">
        <ele>13.023234</ele>
        <time>2020-07-15T10:59:00.712Z</time>
      </trkpt>
      <trkpt lat="65.82551" lon="12.41686">
        <ele>12.297841</ele>
        <time>2020-07-15T10:59:17.489Z</time>
      </trkpt>
      <trkpt lat="65.82598" lon="12.41538">
        <ele>10.730607</ele>
        <time>2020-07-15T10:59:28.179Z</time>
      </trkpt>
      <trkpt lat="65.82613" lon="12.41496">
        <ele>10.261501</ele>
        <time>2020-07-15T10:59:31.298Z</time>
      </trkpt>
      <trkpt lat="65.82668" lon="12.41343">
        <ele>8.40356</ele>
        <time>2020-07-15T10:59:42.501Z</time>
      </trkpt>
      <trkpt lat="65.82784" lon="12.41024">
        <ele>4.405505</ele>
        <time>2020-07-15T11:00:06.262Z</time>
      </trkpt>
      <trkpt lat="65.82944" lon="12.4058">
        <ele>1.798092</ele>
        <time>2020-07-15T11:00:43.816Z</time>
      </trkpt>
      <trkpt lat="65.82989" lon="12.40473">
        <ele>1.37808</ele>
        <time>2020-07-15T11:00:54.401Z</time>
      </trkpt>
      <trkpt lat="65.83054" lon="12.40376">
        <ele>1.159479</ele>
        <time>2020-07-15T11:01:07.496Z</time>
      </trkpt>
      <trkpt lat="65.83217" lon="12.40179">
        <ele>1.022011</ele>
        <time>2020-07-15T11:01:39.719Z</time>
      </trkpt>
      <trkpt lat="65.83251" lon="12.40137">
        <ele>1.015363</ele>
        <time>2020-07-15T11:01:46.577Z</time>
      </trkpt>
      <trkpt lat="65.83499" lon="12.39831">
        <ele>1</ele>
        <time>2020-07-15T11:02:36.106Z</time>
      </trkpt>
      <trkpt lat="65.83523" lon="12.39802">
        <ele>1</ele>
        <time>2020-07-15T11:02:40.872Z</time>
      </trkpt>
      <trkpt lat="65.83567" lon="12.39749">
        <ele>1</ele>
        <time>2020-07-15T11:02:49.603Z</time>
      </trkpt>
      <trkpt lat="65.83626" lon="12.39689">
        <ele>1</ele>
        <time>2020-07-15T11:03:00.991Z</time>
      </trkpt>
      <trkpt lat="65.83673" lon="12.39658">
        <ele>1</ele>
        <time>2020-07-15T11:03:09.728Z</time>
      </trkpt>
      <trkpt lat="65.84174" lon="12.39422">
        <ele>1</ele>
        <time>2020-07-15T11:04:40.771Z</time>
      </trkpt>
      <trkpt lat="65.84248" lon="12.3942">
        <ele>1</ele>
        <time>2020-07-15T11:04:53.931Z</time>
      </trkpt>
      <trkpt lat="65.84405" lon="12.39495">
        <ele>1</ele>
        <time>2020-07-15T11:05:22.478Z</time>
      </trkpt>
      <trkpt lat="65.84481" lon="12.39532">
        <ele>1</ele>
        <time>2020-07-15T11:05:36.320Z</time>
      </trkpt>
      <trkpt lat="65.84519" lon="12.3955">
        <ele>1</ele>
        <time>2020-07-15T11:05:43.258Z</time>
      </trkpt>
      <trkpt lat="65.84554" lon="12.3957">
        <ele>1</ele>
        <time>2020-07-15T11:05:49.620Z</time>
      </trkpt>
      <trkpt lat="65.84564" lon="12.39575">
        <ele>1</ele>
        <time>2020-07-15T11:05:51.525Z</time>
      </trkpt>
      <trkpt lat="65.84602" lon="12.39605">
        <ele>1</ele>
        <time>2020-07-15T11:05:58.541Z</time>
      </trkpt>
      <trkpt lat="65.84646" lon="12.39657">
        <ele>1</ele>
        <time>2020-07-15T11:06:07.257Z</time>
      </trkpt>
      <trkpt lat="65.84674" lon="12.39703">
        <ele>1</ele>
        <time>2020-07-15T11:06:13.314Z</time>
      </trkpt>
      <trkpt lat="65.84703" lon="12.39769">
        <ele>1</ele>
        <time>2020-07-15T11:06:20.435Z</time>
      </trkpt>
      <trkpt lat="65.84728" lon="12.39852">
        <ele>1</ele>
        <time>2020-07-15T11:06:27.945Z</time>
      </trkpt>
      <trkpt lat="65.84841" lon="12.40332">
        <ele>1</ele>
        <time>2020-07-15T11:07:08.373Z</time>
      </trkpt>
      <trkpt lat="65.84873" lon="12.40448">
        <ele>1</ele>
        <time>2020-07-15T11:07:18.597Z</time>
      </trkpt>
      <trkpt lat="65.85382" lon="12.41966">
        <ele>0.978721</ele>
        <time>2020-07-15T11:09:41.927Z</time>
      </trkpt>
      <trkpt lat="65.85427" lon="12.42075">
        <ele>0.954705</ele>
        <time>2020-07-15T11:09:53.294Z</time>
      </trkpt>
      <trkpt lat="65.85493" lon="12.42187">
        <ele>0.894825</ele>
        <time>2020-07-15T11:10:07.380Z</time>
      </trkpt>
      <trkpt lat="65.85509" lon="12.4221">
        <ele>0.859916</ele>
        <time>2020-07-15T11:10:10.704Z</time>
      </trkpt>
      <trkpt lat="65.85521" lon="12.42228">
        <ele>0.834513</ele>
        <time>2020-07-15T11:10:13.078Z</time>
      </trkpt>
      <trkpt lat="65.85569" lon="12.42296">
        <ele>0.730857</ele>
        <time>2020-07-15T11:10:22.807Z</time>
      </trkpt>
      <trkpt lat="65.8559" lon="12.42328">
        <ele>0.685575</ele>
        <time>2020-07-15T11:10:26.998Z</time>
      </trkpt>
      <trkpt lat="65.85628" lon="12.42418">
        <ele>0.590706</ele>
        <time>2020-07-15T11:10:36.023Z</time>
      </trkpt>
      <trkpt lat="65.85642" lon="12.42478">
        <ele>0.55018</ele>
        <time>2020-07-15T11:10:40.875Z</time>
      </trkpt>
      <trkpt lat="65.85656" lon="12.42573">
        <ele>0.491645</ele>
        <time>2020-07-15T11:10:47.922Z</time>
      </trkpt>
      <trkpt lat="65.85679" lon="12.42784">
        <ele>0.365376</ele>
        <time>2020-07-15T11:11:03.476Z</time>
      </trkpt>
      <trkpt lat="65.85684" lon="12.42829">
        <ele>0.35115</ele>
        <time>2020-07-15T11:11:06.854Z</time>
      </trkpt>
      <trkpt lat="65.85687" lon="12.42863">
        <ele>0.373393</ele>
        <time>2020-07-15T11:11:09.439Z</time>
      </trkpt>
      <trkpt lat="65.85702" lon="12.4297">
        <ele>0.44529</ele>
        <time>2020-07-15T11:11:17.921Z</time>
      </trkpt>
      <trkpt lat="65.85719" lon="12.43046">
        <ele>0.500617</ele>
        <time>2020-07-15T11:11:24.518Z</time>
      </trkpt>
      <trkpt lat="65.85766" lon="12.43159">
        <ele>0.603422</ele>
        <time>2020-07-15T11:11:36.907Z</time>
      </trkpt>
      <trkpt lat="65.85789" lon="12.43196">
        <ele>0.650744</ele>
        <time>2020-07-15T11:11:42.104Z</time>
      </trkpt>
      <trkpt lat="65.85799" lon="12.43212">
        <ele>0.672636</ele>
        <time>2020-07-15T11:11:44.268Z</time>
      </trkpt>
      <trkpt lat="65.85923" lon="12.43415">
        <ele>0.950506</ele>
        <time>2020-07-15T11:12:11.695Z</time>
      </trkpt>
      <trkpt lat="65.86152" lon="12.43966">
        <ele>1</ele>
        <time>2020-07-15T11:13:09.024Z</time>
      </trkpt>
      <trkpt lat="65.86384" lon="12.44604">
        <ele>1</ele>
        <time>2020-07-15T11:14:11.394Z</time>
      </trkpt>
      <trkpt lat="65.86444" lon="12.44769">
        <ele>1</ele>
        <time>2020-07-15T11:14:27.495Z</time>
      </trkpt>
      <trkpt lat="65.86573" lon="12.45126">
        <ele>1</ele>
        <time>2020-07-15T11:15:02.273Z</time>
      </trkpt>
      <trkpt lat="65.86706" lon="12.4549">
        <ele>1.02373</ele>
        <time>2020-07-15T11:15:37.935Z</time>
      </trkpt>
      <trkpt lat="65.86712" lon="12.45506">
        <ele>1.026695</ele>
        <time>2020-07-15T11:15:39.524Z</time>
      </trkpt>
      <trkpt lat="65.86729" lon="12.45551">
        <ele>1.034966</ele>
        <time>2020-07-15T11:15:43.970Z</time>
      </trkpt>
      <trkpt lat="65.86818" lon="12.45796">
        <ele>1.182545</ele>
        <time>2020-07-15T11:16:08.223Z</time>
      </trkpt>
      <trkpt lat="65.86882" lon="12.45969">
        <ele>1.380212</ele>
        <time>2020-07-15T11:16:25.961Z</time>
      </trkpt>
      <trkpt lat="65.86941" lon="12.46153">
        <ele>1.799362</ele>
        <time>2020-07-15T11:16:44.240Z</time>
      </trkpt>
      <trkpt lat="65.86948" lon="12.46181">
        <ele>1.868793</ele>
        <time>2020-07-15T11:16:46.824Z</time>
      </trkpt>
      <trkpt lat="65.86955" lon="12.46211">
        <ele>1.941769</ele>
        <time>2020-07-15T11:16:49.559Z</time>
      </trkpt>
      <trkpt lat="65.86991" lon="12.46438">
        <ele>2.476288</ele>
        <time>2020-07-15T11:17:09.443Z</time>
      </trkpt>
      <trkpt lat="65.8701" lon="12.46581">
        <ele>2.84943</ele>
        <time>2020-07-15T11:17:21.840Z</time>
      </trkpt>
      <trkpt lat="65.87039" lon="12.46792">
        <ele>3.398448</ele>
        <time>2020-07-15T11:17:39.703Z</time>
      </trkpt>
      <trkpt lat="65.87058" lon="12.46939">
        <ele>3.595791</ele>
        <time>2020-07-15T11:17:52.040Z</time>
      </trkpt>
      <trkpt lat="65.87107" lon="12.47297">
        <ele>3.859547</ele>
        <time>2020-07-15T11:18:20.143Z</time>
      </trkpt>
      <trkpt lat="65.87108" lon="12.47303">
        <ele>3.853483</ele>
        <time>2020-07-15T11:18:20.615Z</time>
      </trkpt>
      <trkpt lat="65.87142" lon="12.47548">
        <ele>3.611879</ele>
        <time>2020-07-15T11:18:38.887Z</time>
      </trkpt>
      <trkpt lat="65.87157" lon="12.47649">
        <ele>3.51164</ele>
        <time>2020-07-15T11:18:46.247Z</time>
      </trkpt>
      <trkpt lat="65.87167" lon="12.47714">
        <ele>3.376444</ele>
        <time>2020-07-15T11:18:50.922Z</time>
      </trkpt>
      <trkpt lat="65.87181" lon="12.47788">
        <ele>3.218173</ele>
        <time>2020-07-15T11:18:56.393Z</time>
      </trkpt>
      <trkpt lat="65.87192" lon="12.47842">
        <ele>3.100337</ele>
        <time>2020-07-15T11:19:00.457Z</time>
      </trkpt>
      <trkpt lat="65.87218" lon="12.47944">
        <ele>2.868351</ele>
        <time>2020-07-15T11:19:08.492Z</time>
      </trkpt>
      <trkpt lat="65.87234" lon="12.48001">
        <ele>2.733397</ele>
        <time>2020-07-15T11:19:13.223Z</time>
      </trkpt>
      <trkpt lat="65.87238" lon="12.48014">
        <ele>2.701964</ele>
        <time>2020-07-15T11:19:14.296Z</time>
      </trkpt>
      <trkpt lat="65.8728" lon="12.48154">
        <ele>2.485385</ele>
        <time>2020-07-15T11:19:26.221Z</time>
      </trkpt>
      <trkpt lat="65.87365" lon="12.48438">
        <ele>2.105795</ele>
        <time>2020-07-15T11:19:50.934Z</time>
      </trkpt>
      <trkpt lat="65.8759" lon="12.49151">
        <ele>1.40124</ele>
        <time>2020-07-15T11:20:54.504Z</time>
      </trkpt>
      <trkpt lat="65.87647" lon="12.49348">
        <ele>1.22005</ele>
        <time>2020-07-15T11:21:11.587Z</time>
      </trkpt>
      <trkpt lat="65.87716" lon="12.49634">
        <ele>1.067555</ele>
        <time>2020-07-15T11:21:35.412Z</time>
      </trkpt>
      <trkpt lat="65.87784" lon="12.49915">
        <ele>1</ele>
        <time>2020-07-15T11:21:59.053Z</time>
      </trkpt>
      <trkpt lat="65.87838" lon="12.50114">
        <ele>1</ele>
        <time>2020-07-15T11:22:16.540Z</time>
      </trkpt>
      <trkpt lat="65.87873" lon="12.50218">
        <ele>1</ele>
        <time>2020-07-15T11:22:26.412Z</time>
      </trkpt>
      <trkpt lat="65.87897" lon="12.50279">
        <ele>1</ele>
        <time>2020-07-15T11:22:32.520Z</time>
      </trkpt>
      <trkpt lat="65.87916" lon="12.50324">
        <ele>1</ele>
        <time>2020-07-15T11:22:37.231Z</time>
      </trkpt>
      <trkpt lat="65.87984" lon="12.50461">
        <ele>1</ele>
        <time>2020-07-15T11:22:53.035Z</time>
      </trkpt>
      <trkpt lat="65.88084" lon="12.50627">
        <ele>1</ele>
        <time>2020-07-15T11:23:14.478Z</time>
      </trkpt>
      <trkpt lat="65.88233" lon="12.50872">
        <ele>1</ele>
        <time>2020-07-15T11:23:46.577Z</time>
      </trkpt>
      <trkpt lat="65.88401" lon="12.51145">
        <ele>1</ele>
        <time>2020-07-15T11:24:22.639Z</time>
      </trkpt>
      <trkpt lat="65.88452" lon="12.51215">
        <ele>1</ele>
        <time>2020-07-15T11:24:32.962Z</time>
      </trkpt>
      <trkpt lat="65.88503" lon="12.51265">
        <ele>1</ele>
        <time>2020-07-15T11:24:42.826Z</time>
      </trkpt>
      <trkpt lat="65.88663" lon="12.51351">
        <ele>1</ele>
        <time>2020-07-15T11:25:12.070Z</time>
      </trkpt>
      <trkpt lat="65.88729" lon="12.51404">
        <ele>1</ele>
        <time>2020-07-15T11:25:24.476Z</time>
      </trkpt>
      <trkpt lat="65.88795" lon="12.51491">
        <ele>1</ele>
        <time>2020-07-15T11:25:37.746Z</time>
      </trkpt>
      <trkpt lat="65.88889" lon="12.51677">
        <ele>1</ele>
        <time>2020-07-15T11:25:59.406Z</time>
      </trkpt>
      <trkpt lat="65.88951" lon="12.5182">
        <ele>1</ele>
        <time>2020-07-15T11:26:14.613Z</time>
      </trkpt>
      <trkpt lat="65.88998" lon="12.51951">
        <ele>1</ele>
        <time>2020-07-15T11:26:27.389Z</time>
      </trkpt>
      <trkpt lat="65.89109" lon="12.5234">
        <ele>1</ele>
        <time>2020-07-15T11:27:01.955Z</time>
      </trkpt>
      <trkpt lat="65.89389" lon="12.53244">
        <ele>1.016388</ele>
        <time>2020-07-15T11:28:24.628Z</time>
      </trkpt>
      <trkpt lat="65.89427" lon="12.53336">
        <ele>1.03645</ele>
        <time>2020-07-15T11:28:34.172Z</time>
      </trkpt>
      <trkpt lat="65.89478" lon="12.53413">
        <ele>1.058707</ele>
        <time>2020-07-15T11:28:44.744Z</time>
      </trkpt>
      <trkpt lat="65.89674" lon="12.53601">
        <ele>1.740833</ele>
        <time>2020-07-15T11:29:23.818Z</time>
      </trkpt>
      <trkpt lat="65.89714" lon="12.53623">
        <ele>2.540644</ele>
        <time>2020-07-15T11:29:32.773Z</time>
      </trkpt>
      <trkpt lat="65.89758" lon="12.5362">
        <ele>3.366332</ele>
        <time>2020-07-15T11:29:42.759Z</time>
      </trkpt>
      <trkpt lat="65.89787" lon="12.536">
        <ele>3.94884</ele>
        <time>2020-07-15T11:29:50.193Z</time>
      </trkpt>
      <trkpt lat="65.8982" lon="12.5356">
        <ele>4.646791</ele>
        <time>2020-07-15T11:29:59.601Z</time>
      </trkpt>
      <trkpt lat="65.90077" lon="12.53177">
        <ele>15.22621</ele>
        <time>2020-07-15T11:31:28.982Z</time>
      </trkpt>
      <trkpt lat="65.90091" lon="12.53151">
        <ele>15.860372</ele>
        <time>2020-07-15T11:31:34.654Z</time>
      </trkpt>
      <trkpt lat="65.90101" lon="12.5313">
        <ele>16.34681</ele>
        <time>2020-07-15T11:31:38.335Z</time>
      </trkpt>
      <trkpt lat="65.90108" lon="12.53114">
        <ele>16.684591</ele>
        <time>2020-07-15T11:31:40.974Z</time>
      </trkpt>
      <trkpt lat="65.90114" lon="12.53098">
        <ele>16.999738</ele>
        <time>2020-07-15T11:31:43.557Z</time>
      </trkpt>
      <trkpt lat="65.90117" lon="12.53088">
        <ele>17.202648</ele>
        <time>2020-07-15T11:31:45.677Z</time>
      </trkpt>
      <trkpt lat="65.90138" lon="12.53009">
        <ele>18.260179</ele>
        <time>2020-07-15T11:31:56.880Z</time>
      </trkpt>
      <trkpt lat="65.90152" lon="12.52929">
        <ele>18.704011</ele>
        <time>2020-07-15T11:32:06.720Z</time>
      </trkpt>
      <trkpt lat="65.90187" lon="12.52688">
        <ele>20.027514</ele>
        <time>2020-07-15T11:32:29.009Z</time>
      </trkpt>
      <trkpt lat="65.90188" lon="12.52682">
        <ele>20.06147</ele>
        <time>2020-07-15T11:32:29.430Z</time>
      </trkpt>
      <trkpt lat="65.90204" lon="12.52576">
        <ele>19.664158</ele>
        <time>2020-07-15T11:32:36.429Z</time>
      </trkpt>
      <trkpt lat="65.9021" lon="12.52539">
        <ele>19.185152</ele>
        <time>2020-07-15T11:32:38.793Z</time>
      </trkpt>
      <trkpt lat="65.90221" lon="12.52468">
        <ele>18.267447</ele>
        <time>2020-07-15T11:32:43.038Z</time>
      </trkpt>
      <trkpt lat="65.90263" lon="12.5216">
        <ele>14.331462</ele>
        <time>2020-07-15T11:32:59.708Z</time>
      </trkpt>
      <trkpt lat="65.90267" lon="12.52029">
        <ele>12.721055</ele>
        <time>2020-07-15T11:33:06.412Z</time>
      </trkpt>
      <trkpt lat="65.90261" lon="12.51896">
        <ele>11.086226</ele>
        <time>2020-07-15T11:33:13.823Z</time>
      </trkpt>
      <trkpt lat="65.90258" lon="12.51863">
        <ele>10.674431</ele>
        <time>2020-07-15T11:33:15.570Z</time>
      </trkpt>
      <trkpt lat="65.90252" lon="12.51804">
        <ele>9.929751</ele>
        <time>2020-07-15T11:33:19.306Z</time>
      </trkpt>
      <trkpt lat="65.90225" lon="12.51581">
        <ele>9.54703</ele>
        <time>2020-07-15T11:33:33.994Z</time>
      </trkpt>
      <trkpt lat="65.90211" lon="12.51301">
        <ele>9.862874</ele>
        <time>2020-07-15T11:33:57.452Z</time>
      </trkpt>
      <trkpt lat="65.90197" lon="12.50922">
        <ele>12.998189</ele>
        <time>2020-07-15T11:34:35.643Z</time>
      </trkpt>
      <trkpt lat="65.90205" lon="12.50642">
        <ele>15.951825</ele>
        <time>2020-07-15T11:35:08.226Z</time>
      </trkpt>
      <trkpt lat="65.90204" lon="12.50507">
        <ele>17.386343</ele>
        <time>2020-07-15T11:35:23.642Z</time>
      </trkpt>
      <trkpt lat="65.90163" lon="12.49808">
        <ele>16.395198</ele>
        <time>2020-07-15T11:36:16.637Z</time>
      </trkpt>
      <trkpt lat="65.90145" lon="12.49418">
        <ele>11.622241</ele>
        <time>2020-07-15T11:36:36.144Z</time>
      </trkpt>
      <trkpt lat="65.90146" lon="12.49406">
        <ele>11.426884</ele>
        <time>2020-07-15T11:36:36.692Z</time>
      </trkpt>
      <trkpt lat="65.90143" lon="12.49369">
        <ele>10.845756</ele>
        <time>2020-07-15T11:36:38.603Z</time>
      </trkpt>
      <trkpt lat="65.90106" lon="12.48733">
        <ele>4.394744</ele>
        <time>2020-07-15T11:37:15.116Z</time>
      </trkpt>
      <trkpt lat="65.90095" lon="12.48566">
        <ele>4.859468</ele>
        <time>2020-07-15T11:37:28.904Z</time>
      </trkpt>
      <trkpt lat="65.90085" lon="12.48404">
        <ele>5.377278</ele>
        <time>2020-07-15T11:37:43.628Z</time>
      </trkpt>
      <trkpt lat="65.90081" lon="12.48355">
        <ele>5.530939</ele>
        <time>2020-07-15T11:37:48.198Z</time>
      </trkpt>
      <trkpt lat="65.90078" lon="12.48328">
        <ele>5.61819</ele>
        <time>2020-07-15T11:37:50.735Z</time>
      </trkpt>
      <trkpt lat="65.90077" lon="12.48268">
        <ele>5.833336</ele>
        <time>2020-07-15T11:37:56.470Z</time>
      </trkpt>
      <trkpt lat="65.90057" lon="12.48052">
        <ele>6.766082</ele>
        <time>2020-07-15T11:38:16.860Z</time>
      </trkpt>
      <trkpt lat="65.90031" lon="12.47893">
        <ele>7.486376</ele>
        <time>2020-07-15T11:38:31.433Z</time>
      </trkpt>
      <trkpt lat="65.89957" lon="12.47526">
        <ele>6.850762</ele>
        <time>2020-07-15T11:38:59.190Z</time>
      </trkpt>
      <trkpt lat="65.89859" lon="12.46998">
        <ele>4.48882</ele>
        <time>2020-07-15T11:39:35.087Z</time>
      </trkpt>
      <trkpt lat="65.89698" lon="12.463">
        <ele>2.31331</ele>
        <time>2020-07-15T11:40:28.158Z</time>
      </trkpt>
      <trkpt lat="65.8968" lon="12.46184">
        <ele>2.236652</ele>
        <time>2020-07-15T11:40:36.875Z</time>
      </trkpt>
      <trkpt lat="65.89674" lon="12.46102">
        <ele>2.184576</ele>
        <time>2020-07-15T11:40:42.942Z</time>
      </trkpt>
      <trkpt lat="65.89673" lon="12.4609">
        <ele>2.177325</ele>
        <time>2020-07-15T11:40:43.727Z</time>
      </trkpt>
      <trkpt lat="65.89673" lon="12.46073">
        <ele>2.166146</ele>
        <time>2020-07-15T11:40:45.212Z</time>
      </trkpt>
      <trkpt lat="65.89675" lon="12.45907">
        <ele>2.06289</ele>
        <time>2020-07-15T11:40:57.355Z</time>
      </trkpt>
      <trkpt lat="65.897" lon="12.45532">
        <ele>1.807657</ele>
        <time>2020-07-15T11:41:24.165Z</time>
      </trkpt>
      <trkpt lat="65.89704" lon="12.45374">
        <ele>2.115204</ele>
        <time>2020-07-15T11:41:35.065Z</time>
      </trkpt>
      <trkpt lat="65.89702" lon="12.4533">
        <ele>2.363729</ele>
        <time>2020-07-15T11:41:38.033Z</time>
      </trkpt>
      <trkpt lat="65.89698" lon="12.45227">
        <ele>2.951497</ele>
        <time>2020-07-15T11:41:47.020Z</time>
      </trkpt>
      <trkpt lat="65.89696" lon="12.45168">
        <ele>3.282504</ele>
        <time>2020-07-15T11:41:52.302Z</time>
      </trkpt>
      <trkpt lat="65.89697" lon="12.45029">
        <ele>4.070833</ele>
        <time>2020-07-15T11:42:06.703Z</time>
      </trkpt>
      <trkpt lat="65.89706" lon="12.44938">
        <ele>5.256401</ele>
        <time>2020-07-15T11:42:17.113Z</time>
      </trkpt>
      <trkpt lat="65.8971" lon="12.44913">
        <ele>5.687386</ele>
        <time>2020-07-15T11:42:20.443Z</time>
      </trkpt>
      <trkpt lat="65.89712" lon="12.44888">
        <ele>6.092649</ele>
        <time>2020-07-15T11:42:24.088Z</time>
      </trkpt>
      <trkpt lat="65.89767" lon="12.44598">
        <ele>11.167506</ele>
        <time>2020-07-15T11:43:05.567Z</time>
      </trkpt>
      <trkpt lat="65.89794" lon="12.44412">
        <ele>12.904153</ele>
        <time>2020-07-15T11:43:28.647Z</time>
      </trkpt>
      <trkpt lat="65.898" lon="12.44315">
        <ele>13.7611</ele>
        <time>2020-07-15T11:43:38.275Z</time>
      </trkpt>
      <trkpt lat="65.89799" lon="12.44211">
        <ele>14.661302</ele>
        <time>2020-07-15T11:43:47.239Z</time>
      </trkpt>
      <trkpt lat="65.89786" lon="12.44064">
        <ele>14.500389</ele>
        <time>2020-07-15T11:43:58.079Z</time>
      </trkpt>
      <trkpt lat="65.89755" lon="12.43911">
        <ele>13.601103</ele>
        <time>2020-07-15T11:44:08.489Z</time>
      </trkpt>
      <trkpt lat="65.8971" lon="12.43782">
        <ele>12.675025</ele>
        <time>2020-07-15T11:44:18.184Z</time>
      </trkpt>
      <trkpt lat="65.8966" lon="12.43687">
        <ele>11.231987</ele>
        <time>2020-07-15T11:44:26.633Z</time>
      </trkpt>
      <trkpt lat="65.89515" lon="12.43442">
        <ele>8.139321</ele>
        <time>2020-07-15T11:44:51.139Z</time>
      </trkpt>
      <trkpt lat="65.89481" lon="12.43373">
        <ele>7.811004</ele>
        <time>2020-07-15T11:44:58.225Z</time>
      </trkpt>
      <trkpt lat="65.89451" lon="12.43295">
        <ele>7.486395</ele>
        <time>2020-07-15T11:45:05.997Z</time>
      </trkpt>
      <trkpt lat="65.8942" lon="12.43172">
        <ele>7.610894</ele>
        <time>2020-07-15T11:45:18.067Z</time>
      </trkpt>
      <trkpt lat="65.89358" lon="12.4279">
        <ele>9.564431</ele>
        <time>2020-07-15T11:45:55.957Z</time>
      </trkpt>
      <trkpt lat="65.8932" lon="12.42655">
        <ele>10.060002</ele>
        <time>2020-07-15T11:46:09.572Z</time>
      </trkpt>
      <trkpt lat="65.89252" lon="12.42452">
        <ele>10.921105</ele>
        <time>2020-07-15T11:46:30.272Z</time>
      </trkpt>
      <trkpt lat="65.89228" lon="12.42355">
        <ele>11.50397</ele>
        <time>2020-07-15T11:46:39.034Z</time>
      </trkpt>
      <trkpt lat="65.89111" lon="12.4159">
        <ele>17.092666</ele>
        <time>2020-07-15T11:47:56.544Z</time>
      </trkpt>
      <trkpt lat="65.89096" lon="12.41455">
        <ele>18.675243</ele>
        <time>2020-07-15T11:48:13.049Z</time>
      </trkpt>
      <trkpt lat="65.89089" lon="12.41339">
        <ele>19.989114</ele>
        <time>2020-07-15T11:48:26.613Z</time>
      </trkpt>
      <trkpt lat="65.89089" lon="12.41222">
        <ele>21.211936</ele>
        <time>2020-07-15T11:48:39.934Z</time>
      </trkpt>
      <trkpt lat="65.89104" lon="12.41081">
        <ele>21.547084</ele>
        <time>2020-07-15T11:48:54.473Z</time>
      </trkpt>
      <trkpt lat="65.89137" lon="12.40938">
        <ele>21.929098</ele>
        <time>2020-07-15T11:49:06.743Z</time>
      </trkpt>
      <trkpt lat="65.89183" lon="12.40828">
        <ele>21.893192</ele>
        <time>2020-07-15T11:49:16.718Z</time>
      </trkpt>
      <trkpt lat="65.89196" lon="12.40807">
        <ele>21.581565</ele>
        <time>2020-07-15T11:49:18.870Z</time>
      </trkpt>
      <trkpt lat="65.8922" lon="12.40778">
        <ele>21.054764</ele>
        <time>2020-07-15T11:49:22.720Z</time>
      </trkpt>
      <trkpt lat="65.89276" lon="12.40738">
        <ele>19.896581</ele>
        <time>2020-07-15T11:49:30.888Z</time>
      </trkpt>
      <trkpt lat="65.89446" lon="12.40699">
        <ele>15.57947</ele>
        <time>2020-07-15T11:49:54.231Z</time>
      </trkpt>
      <trkpt lat="65.89494" lon="12.40676">
        <ele>14.196037</ele>
        <time>2020-07-15T11:50:00.643Z</time>
      </trkpt>
      <trkpt lat="65.89503" lon="12.40668">
        <ele>13.921888</ele>
        <time>2020-07-15T11:50:01.814Z</time>
      </trkpt>
      <trkpt lat="65.89518" lon="12.40656">
        <ele>13.468418</ele>
        <time>2020-07-15T11:50:03.821Z</time>
      </trkpt>
      <trkpt lat="65.89562" lon="12.40605">
        <ele>11.797642</ele>
        <time>2020-07-15T11:50:10.166Z</time>
      </trkpt>
      <trkpt lat="65.89592" lon="12.40565">
        <ele>10.624422</ele>
        <time>2020-07-15T11:50:14.559Z</time>
      </trkpt>
      <trkpt lat="65.89603" lon="12.4055">
        <ele>10.191993</ele>
        <time>2020-07-15T11:50:16.077Z</time>
      </trkpt>
      <trkpt lat="65.89735" lon="12.40384">
        <ele>5.954815</ele>
        <time>2020-07-15T11:50:35.566Z</time>
      </trkpt>
      <trkpt lat="65.89778" lon="12.40342">
        <ele>4.981023</ele>
        <time>2020-07-15T11:50:42.027Z</time>
      </trkpt>
      <trkpt lat="65.89822" lon="12.40319">
        <ele>4.01354</ele>
        <time>2020-07-15T11:50:48.626Z</time>
      </trkpt>
      <trkpt lat="65.89888" lon="12.40314">
        <ele>3.453447</ele>
        <time>2020-07-15T11:50:58.701Z</time>
      </trkpt>
      <trkpt lat="65.89915" lon="12.40324">
        <ele>3.415199</ele>
        <time>2020-07-15T11:51:03.071Z</time>
      </trkpt>
      <trkpt lat="65.89935" lon="12.40336">
        <ele>3.385631</ele>
        <time>2020-07-15T11:51:06.592Z</time>
      </trkpt>
      <trkpt lat="65.90003" lon="12.40399">
        <ele>3.283988</ele>
        <time>2020-07-15T11:51:20.063Z</time>
      </trkpt>
      <trkpt lat="65.90009" lon="12.40405">
        <ele>3.274487</ele>
        <time>2020-07-15T11:51:21.490Z</time>
      </trkpt>
      <trkpt lat="65.90025" lon="12.40422">
        <ele>3.392302</ele>
        <time>2020-07-15T11:51:25.019Z</time>
      </trkpt>
      <trkpt lat="65.90118" lon="12.40513">
        <ele>5.290244</ele>
        <time>2020-07-15T11:51:48.700Z</time>
      </trkpt>
      <trkpt lat="65.90124" lon="12.40515">
        <ele>5.392206</ele>
        <time>2020-07-15T11:51:50.076Z</time>
      </trkpt>
      <trkpt lat="65.9014" lon="12.40532">
        <ele>5.716743</ele>
        <time>2020-07-15T11:51:54.647Z</time>
      </trkpt>
      <trkpt lat="65.90207" lon="12.406">
        <ele>7.230909</ele>
        <time>2020-07-15T11:52:13.431Z</time>
      </trkpt>
      <trkpt lat="65.90236" lon="12.4064">
        <ele>8.057068</ele>
        <time>2020-07-15T11:52:22.253Z</time>
      </trkpt>
      <trkpt lat="65.90338" lon="12.40846">
        <ele>11.3146</ele>
        <time>2020-07-15T11:52:56.150Z</time>
      </trkpt>
      <trkpt lat="65.90388" lon="12.40926">
        <ele>12.681706</ele>
        <time>2020-07-15T11:53:11.195Z</time>
      </trkpt>
      <trkpt lat="65.90442" lon="12.40989">
        <ele>14.035625</ele>
        <time>2020-07-15T11:53:25.675Z</time>
      </trkpt>
      <trkpt lat="65.90472" lon="12.41037">
        <ele>14.843639</ele>
        <time>2020-07-15T11:53:34.065Z</time>
      </trkpt>
      <trkpt lat="65.90588" lon="12.41282">
        <ele>19.711466</ele>
        <time>2020-07-15T11:54:16.712Z</time>
      </trkpt>
      <trkpt lat="65.9059" lon="12.41285">
        <ele>19.790598</ele>
        <time>2020-07-15T11:54:17.635Z</time>
      </trkpt>
      <trkpt lat="65.90605" lon="12.41315">
        <ele>20.421917</ele>
        <time>2020-07-15T11:54:23.453Z</time>
      </trkpt>
      <trkpt lat="65.90665" lon="12.41418">
        <ele>22.811183</ele>
        <time>2020-07-15T11:54:46.252Z</time>
      </trkpt>
      <trkpt lat="65.90997" lon="12.41907">
        <ele>31.208993</ele>
        <time>2020-07-15T11:56:30.983Z</time>
      </trkpt>
      <trkpt lat="65.9105" lon="12.42007">
        <ele>30.497731</ele>
        <time>2020-07-15T11:56:39.487Z</time>
      </trkpt>
      <trkpt lat="65.91126" lon="12.42232">
        <ele>26.56796</ele>
        <time>2020-07-15T11:56:53.980Z</time>
      </trkpt>
      <trkpt lat="65.91131" lon="12.42242">
        <ele>26.325773</ele>
        <time>2020-07-15T11:56:54.598Z</time>
      </trkpt>
      <trkpt lat="65.9114" lon="12.4228">
        <ele>25.571546</ele>
        <time>2020-07-15T11:56:57.189Z</time>
      </trkpt>
      <trkpt lat="65.91185" lon="12.42425">
        <ele>22.683461</ele>
        <time>2020-07-15T11:57:06.899Z</time>
      </trkpt>
      <trkpt lat="65.91236" lon="12.42549">
        <ele>21.803845</ele>
        <time>2020-07-15T11:57:17.219Z</time>
      </trkpt>
      <trkpt lat="65.91423" lon="12.42868">
        <ele>20.291248</ele>
        <time>2020-07-15T11:57:54.988Z</time>
      </trkpt>
      <trkpt lat="65.91452" lon="12.42936">
        <ele>20.208462</ele>
        <time>2020-07-15T11:58:02.134Z</time>
      </trkpt>
      <trkpt lat="65.91481" lon="12.43021">
        <ele>20.488792</ele>
        <time>2020-07-15T11:58:10.806Z</time>
      </trkpt>
      <trkpt lat="65.91586" lon="12.43271">
        <ele>21.938127</ele>
        <time>2020-07-15T11:58:42.562Z</time>
      </trkpt>
      <trkpt lat="65.91812" lon="12.43635">
        <ele>24.77502</ele>
        <time>2020-07-15T11:59:42.621Z</time>
      </trkpt>
      <trkpt lat="65.91877" lon="12.43773">
        <ele>25.14537</ele>
        <time>2020-07-15T11:59:57.259Z</time>
      </trkpt>
      <trkpt lat="65.91905" lon="12.43869">
        <ele>24.732117</ele>
        <time>2020-07-15T12:00:04.836Z</time>
      </trkpt>
      <trkpt lat="65.91933" lon="12.43993">
        <ele>24.13615</ele>
        <time>2020-07-15T12:00:13.500Z</time>
      </trkpt>
      <trkpt lat="65.9199" lon="12.44339">
        <ele>22.69074</ele>
        <time>2020-07-15T12:00:36.846Z</time>
      </trkpt>
      <trkpt lat="65.92006" lon="12.44457">
        <ele>22.256789</ele>
        <time>2020-07-15T12:00:44.906Z</time>
      </trkpt>
      <trkpt lat="65.92012" lon="12.4454">
        <ele>21.959904</ele>
        <time>2020-07-15T12:00:50.434Z</time>
      </trkpt>
      <trkpt lat="65.92019" lon="12.44702">
        <ele>21.445118</ele>
        <time>2020-07-15T12:01:01.313Z</time>
      </trkpt>
      <trkpt lat="65.92028" lon="12.44822">
        <ele>21.07888</ele>
        <time>2020-07-15T12:01:09.369Z</time>
      </trkpt>
      <trkpt lat="65.92032" lon="12.44847">
        <ele>20.99909</ele>
        <time>2020-07-15T12:01:11.151Z</time>
      </trkpt>
      <trkpt lat="65.92037" lon="12.44887">
        <ele>20.872832</ele>
        <time>2020-07-15T12:01:13.762Z</time>
      </trkpt>
      <trkpt lat="65.92051" lon="12.44961">
        <ele>20.627428</ele>
        <time>2020-07-15T12:01:19.551Z</time>
      </trkpt>
      <trkpt lat="65.92078" lon="12.45066">
        <ele>19.784578</ele>
        <time>2020-07-15T12:01:27.765Z</time>
      </trkpt>
      <trkpt lat="65.92151" lon="12.45306">
        <ele>16.691868</ele>
        <time>2020-07-15T12:01:44.359Z</time>
      </trkpt>
      <trkpt lat="65.92175" lon="12.45368">
        <ele>15.755258</ele>
        <time>2020-07-15T12:01:48.758Z</time>
      </trkpt>
      <trkpt lat="65.92187" lon="12.45391">
        <ele>15.102478</ele>
        <time>2020-07-15T12:01:50.613Z</time>
      </trkpt>
      <trkpt lat="65.92196" lon="12.45411">
        <ele>14.582816</ele>
        <time>2020-07-15T12:01:52.042Z</time>
      </trkpt>
      <trkpt lat="65.92265" lon="12.45524">
        <ele>10.999574</ele>
        <time>2020-07-15T12:02:02.347Z</time>
      </trkpt>
      <trkpt lat="65.9229" lon="12.45552">
        <ele>9.805817</ele>
        <time>2020-07-15T12:02:05.644Z</time>
      </trkpt>
      <trkpt lat="65.92308" lon="12.45569">
        <ele>8.946505</ele>
        <time>2020-07-15T12:02:08.139Z</time>
      </trkpt>
      <trkpt lat="65.92315" lon="12.45575">
        <ele>8.637624</ele>
        <time>2020-07-15T12:02:08.960Z</time>
      </trkpt>
      <trkpt lat="65.92383" lon="12.45633">
        <ele>6.45023</ele>
        <time>2020-07-15T12:02:18.147Z</time>
      </trkpt>
      <trkpt lat="65.92396" lon="12.45645">
        <ele>6.06582</ele>
        <time>2020-07-15T12:02:19.920Z</time>
      </trkpt>
      <trkpt lat="65.924" lon="12.4565">
        <ele>5.923376</ele>
        <time>2020-07-15T12:02:20.650Z</time>
      </trkpt>
      <trkpt lat="65.92407" lon="12.45657">
        <ele>5.731071</ele>
        <time>2020-07-15T12:02:21.603Z</time>
      </trkpt>
      <trkpt lat="65.92412" lon="12.45663">
        <ele>5.581708</ele>
        <time>2020-07-15T12:02:22.281Z</time>
      </trkpt>
      <trkpt lat="65.92427" lon="12.45682">
        <ele>5.110507</ele>
        <time>2020-07-15T12:02:24.461Z</time>
      </trkpt>
      <trkpt lat="65.92429" lon="12.45669">
        <ele>4.950883</ele>
        <time>2020-07-15T12:02:25.332Z</time>
      </trkpt>
      <trkpt lat="65.92429" lon="12.45666">
        <ele>4.916407</ele>
        <time>2020-07-15T12:02:25.531Z</time>
      </trkpt>
      <trkpt lat="65.92432" lon="12.45635">
        <ele>4.551346</ele>
        <time>2020-07-15T12:02:27.471Z</time>
      </trkpt>
      <trkpt lat="65.92433" lon="12.45627">
        <ele>4.454523</ele>
        <time>2020-07-15T12:02:27.953Z</time>
      </trkpt>
      <trkpt lat="65.92438" lon="12.45638">
        <ele>4.252869</ele>
        <time>2020-07-15T12:02:28.954Z</time>
      </trkpt>
      <trkpt lat="65.9248" lon="12.45747">
        <ele>3.055464</ele>
        <time>2020-07-15T12:02:38.506Z</time>
      </trkpt>
      <trkpt lat="65.92614" lon="12.4603">
        <ele>2.81459</ele>
        <time>2020-07-15T12:03:10.606Z</time>
      </trkpt>
      <trkpt lat="65.92666" lon="12.46133">
        <ele>3.60795</ele>
        <time>2020-07-15T12:03:25.793Z</time>
      </trkpt>
      <trkpt lat="65.92756" lon="12.46286">
        <ele>4.765549</ele>
        <time>2020-07-15T12:03:52.247Z</time>
      </trkpt>
      <trkpt lat="65.92762" lon="12.46295">
        <ele>4.777009</ele>
        <time>2020-07-15T12:03:54.018Z</time>
      </trkpt>
      <trkpt lat="65.92781" lon="12.46324">
        <ele>4.814125</ele>
        <time>2020-07-15T12:03:58.786Z</time>
      </trkpt>
      <trkpt lat="65.92783" lon="12.46328">
        <ele>4.818176</ele>
        <time>2020-07-15T12:03:59.171Z</time>
      </trkpt>
      <trkpt lat="65.92789" lon="12.46342">
        <ele>4.831679</ele>
        <time>2020-07-15T12:04:00.829Z</time>
      </trkpt>
      <trkpt lat="65.92792" lon="12.46358">
        <ele>4.843046</ele>
        <time>2020-07-15T12:04:02.554Z</time>
      </trkpt>
      <trkpt lat="65.92793" lon="12.46374">
        <ele>4.854195</ele>
        <time>2020-07-15T12:04:04.208Z</time>
      </trkpt>
      <trkpt lat="65.92793" lon="12.46379">
        <ele>4.857512</ele>
        <time>2020-07-15T12:04:04.684Z</time>
      </trkpt>
      <trkpt lat="65.92807" lon="12.46397">
        <ele>4.882984</ele>
        <time>2020-07-15T12:04:07.156Z</time>
      </trkpt>
      <trkpt lat="65.92812" lon="12.46404">
        <ele>4.892351</ele>
        <time>2020-07-15T12:04:08.460Z</time>
      </trkpt>
      <trkpt lat="65.92831" lon="12.46425">
        <ele>4.9265</ele>
        <time>2020-07-15T12:04:12.847Z</time>
      </trkpt>
      <trkpt lat="65.92844" lon="12.46436">
        <ele>4.948576</ele>
        <time>2020-07-15T12:04:14.858Z</time>
      </trkpt>
      <trkpt lat="65.92861" lon="12.46455">
        <ele>4.979006</ele>
        <time>2020-07-15T12:04:18.856Z</time>
      </trkpt>
      <trkpt lat="65.92868" lon="12.46463">
        <ele>4.992169</ele>
        <time>2020-07-15T12:04:19.998Z</time>
      </trkpt>
      <trkpt lat="65.92894" lon="12.46495">
        <ele>5.010516</ele>
        <time>2020-07-15T12:04:25.413Z</time>
      </trkpt>
      <trkpt lat="65.92898" lon="12.465">
        <ele>4.954525</ele>
        <time>2020-07-15T12:04:26.003Z</time>
      </trkpt>
      <trkpt lat="65.92901" lon="12.46504">
        <ele>4.907498</ele>
        <time>2020-07-15T12:04:26.458Z</time>
      </trkpt>
      <trkpt lat="65.92951" lon="12.4656">
        <ele>4.192971</ele>
        <time>2020-07-15T12:04:34.768Z</time>
      </trkpt>
      <trkpt lat="65.92966" lon="12.46562">
        <ele>3.996965</ele>
        <time>2020-07-15T12:04:37.015Z</time>
      </trkpt>
      <trkpt lat="65.9297" lon="12.4656">
        <ele>3.938555</ele>
        <time>2020-07-15T12:04:37.573Z</time>
      </trkpt>
      <trkpt lat="65.92991" lon="12.46544">
        <ele>3.648592</ele>
        <time>2020-07-15T12:04:41.194Z</time>
      </trkpt>
      <trkpt lat="65.92995" lon="12.46542">
        <ele>3.600559</ele>
        <time>2020-07-15T12:04:41.831Z</time>
      </trkpt>
      <trkpt lat="65.93052" lon="12.46564">
        <ele>2.838064</ele>
        <time>2020-07-15T12:04:50.685Z</time>
      </trkpt>
      <trkpt lat="65.93137" lon="12.46564">
        <ele>2.381813</ele>
        <time>2020-07-15T12:05:05.231Z</time>
      </trkpt>
      <trkpt lat="65.9314" lon="12.46555">
        <ele>2.363806</ele>
        <time>2020-07-15T12:05:06.054Z</time>
      </trkpt>
      <trkpt lat="65.93142" lon="12.46552">
        <ele>2.354056</ele>
        <time>2020-07-15T12:05:06.484Z</time>
      </trkpt>
      <trkpt lat="65.93145" lon="12.46551">
        <ele>2.343768</ele>
        <time>2020-07-15T12:05:06.944Z</time>
      </trkpt>
      <trkpt lat="65.93191" lon="12.46546">
        <ele>2.157857</ele>
        <time>2020-07-15T12:05:15.409Z</time>
      </trkpt>
      <trkpt lat="65.93305" lon="12.46527">
        <ele>1.981618</ele>
        <time>2020-07-15T12:05:36.266Z</time>
      </trkpt>
      <trkpt lat="65.93382" lon="12.46514">
        <ele>2.015804</ele>
        <time>2020-07-15T12:05:50.663Z</time>
      </trkpt>
      <trkpt lat="65.93461" lon="12.46499">
        <ele>2.213153</ele>
        <time>2020-07-15T12:06:05.864Z</time>
      </trkpt>
      <trkpt lat="65.93504" lon="12.46491">
        <ele>2.411712</ele>
        <time>2020-07-15T12:06:14.592Z</time>
      </trkpt>
      <trkpt lat="65.93599" lon="12.46457">
        <ele>2.85355</ele>
        <time>2020-07-15T12:06:34.302Z</time>
      </trkpt>
      <trkpt lat="65.93617" lon="12.46446">
        <ele>2.97793</ele>
        <time>2020-07-15T12:06:38.034Z</time>
      </trkpt>
      <trkpt lat="65.93641" lon="12.46428">
        <ele>3.15541</ele>
        <time>2020-07-15T12:06:43.209Z</time>
      </trkpt>
      <trkpt lat="65.93725" lon="12.46331">
        <ele>3.815645</ele>
        <time>2020-07-15T12:07:02.817Z</time>
      </trkpt>
      <trkpt lat="65.93804" lon="12.46201">
        <ele>4.393445</ele>
        <time>2020-07-15T12:07:22.696Z</time>
      </trkpt>
      <trkpt lat="65.93811" lon="12.46187">
        <ele>4.444364</ele>
        <time>2020-07-15T12:07:24.704Z</time>
      </trkpt>
      <trkpt lat="65.93824" lon="12.46164">
        <ele>4.528443</ele>
        <time>2020-07-15T12:07:27.957Z</time>
      </trkpt>
      <trkpt lat="65.93831" lon="12.46154">
        <ele>4.571061</ele>
        <time>2020-07-15T12:07:29.569Z</time>
      </trkpt>
      <trkpt lat="65.93854" lon="12.46115">
        <ele>4.720111</ele>
        <time>2020-07-15T12:07:35.307Z</time>
      </trkpt>
      <trkpt lat="65.93975" lon="12.45917">
        <ele>5.287929</ele>
        <time>2020-07-15T12:08:03.587Z</time>
      </trkpt>
      <trkpt lat="65.94022" lon="12.45863">
        <ele>5.427049</ele>
        <time>2020-07-15T12:08:13.471Z</time>
      </trkpt>
      <trkpt lat="65.94059" lon="12.45838">
        <ele>5.529183</ele>
        <time>2020-07-15T12:08:20.916Z</time>
      </trkpt>
      <trkpt lat="65.94073" lon="12.45831">
        <ele>5.585609</ele>
        <time>2020-07-15T12:08:23.517Z</time>
      </trkpt>
      <trkpt lat="65.94093" lon="12.45826">
        <ele>5.833971</ele>
        <time>2020-07-15T12:08:27.844Z</time>
      </trkpt>
      <trkpt lat="65.94142" lon="12.45827">
        <ele>6.414843</ele>
        <time>2020-07-15T12:08:37.438Z</time>
      </trkpt>
      <trkpt lat="65.94212" lon="12.45837">
        <ele>7.263534</ele>
        <time>2020-07-15T12:08:52.925Z</time>
      </trkpt>
      <trkpt lat="65.94286" lon="12.45849">
        <ele>9.232403</ele>
        <time>2020-07-15T12:09:12.435Z</time>
      </trkpt>
      <trkpt lat="65.94312" lon="12.45853">
        <ele>10.318873</ele>
        <time>2020-07-15T12:09:20.811Z</time>
      </trkpt>
      <trkpt lat="65.94335" lon="12.45858">
        <ele>11.285817</ele>
        <time>2020-07-15T12:09:27.387Z</time>
      </trkpt>
      <trkpt lat="65.94402" lon="12.45899">
        <ele>14.212338</ele>
        <time>2020-07-15T12:09:51.401Z</time>
      </trkpt>
      <trkpt lat="65.94412" lon="12.45913">
        <ele>14.705553</ele>
        <time>2020-07-15T12:09:55.545Z</time>
      </trkpt>
      <trkpt lat="65.94414" lon="12.45917">
        <ele>14.826155</ele>
        <time>2020-07-15T12:09:57.618Z</time>
      </trkpt>
      <trkpt lat="65.94618" lon="12.46102">
        <ele>24.468192</ele>
        <time>2020-07-15T12:11:15.414Z</time>
      </trkpt>
      <trkpt lat="65.94625" lon="12.46101">
        <ele>24.469082</ele>
        <time>2020-07-15T12:11:18.906Z</time>
      </trkpt>
      <trkpt lat="65.94626" lon="12.46093">
        <ele>24.469536</ele>
        <time>2020-07-15T12:11:19.469Z</time>
      </trkpt>
      <trkpt lat="65.94628" lon="12.46078">
        <ele>24.470418</ele>
        <time>2020-07-15T12:11:20.713Z</time>
      </trkpt>
      <trkpt lat="65.94863" lon="12.4629">
        <ele>22.126032</ele>
        <time>2020-07-15T12:11:56.993Z</time>
      </trkpt>
      <trkpt lat="65.94934" lon="12.46355">
        <ele>20.58684</ele>
        <time>2020-07-15T12:12:07.065Z</time>
      </trkpt>
      <trkpt lat="65.94982" lon="12.46402">
        <ele>19.807973</ele>
        <time>2020-07-15T12:12:14.136Z</time>
      </trkpt>
      <trkpt lat="65.94994" lon="12.46413">
        <ele>19.612309</ele>
        <time>2020-07-15T12:12:15.932Z</time>
      </trkpt>
      <trkpt lat="65.95026" lon="12.46447">
        <ele>19.081515</ele>
        <time>2020-07-15T12:12:21.158Z</time>
      </trkpt>
      <trkpt lat="65.95063" lon="12.46481">
        <ele>18.485377</ele>
        <time>2020-07-15T12:12:27.353Z</time>
      </trkpt>
      <trkpt lat="65.95109" lon="12.46531">
        <ele>18.036992</ele>
        <time>2020-07-15T12:12:35.778Z</time>
      </trkpt>
      <trkpt lat="65.95139" lon="12.46565">
        <ele>18.1019</ele>
        <time>2020-07-15T12:12:41.666Z</time>
      </trkpt>
      <trkpt lat="65.95169" lon="12.46595">
        <ele>18.164241</ele>
        <time>2020-07-15T12:12:47.691Z</time>
      </trkpt>
      <trkpt lat="65.95235" lon="12.46669">
        <ele>18.307689</ele>
        <time>2020-07-15T12:13:02.044Z</time>
      </trkpt>
      <trkpt lat="65.95245" lon="12.46681">
        <ele>18.32905</ele>
        <time>2020-07-15T12:13:04.300Z</time>
      </trkpt>
      <trkpt lat="65.95276" lon="12.46714">
        <ele>18.297212</ele>
        <time>2020-07-15T12:13:10.879Z</time>
      </trkpt>
      <trkpt lat="65.95283" lon="12.46722">
        <ele>18.276543</ele>
        <time>2020-07-15T12:13:12.434Z</time>
      </trkpt>
      <trkpt lat="65.95291" lon="12.46732">
        <ele>18.251919</ele>
        <time>2020-07-15T12:13:13.967Z</time>
      </trkpt>
      <trkpt lat="65.95467" lon="12.46927">
        <ele>17.677679</ele>
        <time>2020-07-15T12:13:45.749Z</time>
      </trkpt>
      <trkpt lat="65.95574" lon="12.47075">
        <ele>17.218922</ele>
        <time>2020-07-15T12:14:06.196Z</time>
      </trkpt>
      <trkpt lat="65.95836" lon="12.47532">
        <ele>17.178891</ele>
        <time>2020-07-15T12:15:04.093Z</time>
      </trkpt>
      <trkpt lat="65.9594" lon="12.47686">
        <ele>17.034876</ele>
        <time>2020-07-15T12:15:25.002Z</time>
      </trkpt>
      <trkpt lat="65.95952" lon="12.47696">
        <ele>17.013506</ele>
        <time>2020-07-15T12:15:26.886Z</time>
      </trkpt>
      <trkpt lat="65.95966" lon="12.47716">
        <ele>16.984937</ele>
        <time>2020-07-15T12:15:30.129Z</time>
      </trkpt>
      <trkpt lat="65.95989" lon="12.47738">
        <ele>16.943626</ele>
        <time>2020-07-15T12:15:34.054Z</time>
      </trkpt>
      <trkpt lat="65.9601" lon="12.47761">
        <ele>16.90478</ele>
        <time>2020-07-15T12:15:38.203Z</time>
      </trkpt>
      <trkpt lat="65.96014" lon="12.47766">
        <ele>16.896217</ele>
        <time>2020-07-15T12:15:38.955Z</time>
      </trkpt>
      <trkpt lat="65.9602" lon="12.47768">
        <ele>16.88647</ele>
        <time>2020-07-15T12:15:39.901Z</time>
      </trkpt>
      <trkpt lat="65.96034" lon="12.47783">
        <ele>16.859836</ele>
        <time>2020-07-15T12:15:42.986Z</time>
      </trkpt>
      <trkpt lat="65.96063" lon="12.47813">
        <ele>17.022969</ele>
        <time>2020-07-15T12:15:48.556Z</time>
      </trkpt>
      <trkpt lat="65.96225" lon="12.48019">
        <ele>18.754562</ele>
        <time>2020-07-15T12:16:24.501Z</time>
      </trkpt>
      <trkpt lat="65.96241" lon="12.48047">
        <ele>19.312312</ele>
        <time>2020-07-15T12:16:28.887Z</time>
      </trkpt>
      <trkpt lat="65.9625" lon="12.48065">
        <ele>19.651822</ele>
        <time>2020-07-15T12:16:31.872Z</time>
      </trkpt>
      <trkpt lat="65.96294" lon="12.48175">
        <ele>21.438843</ele>
        <time>2020-07-15T12:16:48.098Z</time>
      </trkpt>
      <trkpt lat="65.96469" lon="12.48722">
        <ele>36.006436</ele>
        <time>2020-07-15T12:18:27.689Z</time>
      </trkpt>
      <trkpt lat="65.96494" lon="12.48819">
        <ele>39.09142</ele>
        <time>2020-07-15T12:18:47.265Z</time>
      </trkpt>
      <trkpt lat="65.96513" lon="12.48926">
        <ele>42.236171</ele>
        <time>2020-07-15T12:19:06.563Z</time>
      </trkpt>
      <trkpt lat="65.96517" lon="12.48965">
        <ele>43.329284</ele>
        <time>2020-07-15T12:19:13.693Z</time>
      </trkpt>
      <trkpt lat="65.96521" lon="12.49009">
        <ele>44.524947</ele>
        <time>2020-07-15T12:19:20.679Z</time>
      </trkpt>
      <trkpt lat="65.96524" lon="12.49184">
        <ele>48.231388</ele>
        <time>2020-07-15T12:19:48.649Z</time>
      </trkpt>
      <trkpt lat="65.96503" lon="12.49488">
        <ele>54.142364</ele>
        <time>2020-07-15T12:20:29.098Z</time>
      </trkpt>
      <trkpt lat="65.96501" lon="12.49579">
        <ele>54.778023</ele>
        <time>2020-07-15T12:20:38.150Z</time>
      </trkpt>
      <trkpt lat="65.96501" lon="12.49596">
        <ele>54.893687</ele>
        <time>2020-07-15T12:20:40.006Z</time>
      </trkpt>
      <trkpt lat="65.96503" lon="12.49648">
        <ele>55.259037</ele>
        <time>2020-07-15T12:20:44.666Z</time>
      </trkpt>
      <trkpt lat="65.96513" lon="12.49764">
        <ele>56.084029</ele>
        <time>2020-07-15T12:20:55.225Z</time>
      </trkpt>
      <trkpt lat="65.96536" lon="12.49901">
        <ele>56.895827</ele>
        <time>2020-07-15T12:21:06.839Z</time>
      </trkpt>
      <trkpt lat="65.96564" lon="12.49997">
        <ele>56.828788</ele>
        <time>2020-07-15T12:21:15.393Z</time>
      </trkpt>
      <trkpt lat="65.96606" lon="12.50103">
        <ele>56.745019</ele>
        <time>2020-07-15T12:21:25.711Z</time>
      </trkpt>
      <trkpt lat="65.96735" lon="12.50399">
        <ele>55.852946</ele>
        <time>2020-07-15T12:21:55.143Z</time>
      </trkpt>
      <trkpt lat="65.96764" lon="12.50465">
        <ele>55.581395</ele>
        <time>2020-07-15T12:22:01.154Z</time>
      </trkpt>
      <trkpt lat="65.96805" lon="12.50571">
        <ele>55.10274</ele>
        <time>2020-07-15T12:22:10.141Z</time>
      </trkpt>
      <trkpt lat="65.96841" lon="12.50689">
        <ele>54.578968</ele>
        <time>2020-07-15T12:22:19.292Z</time>
      </trkpt>
      <trkpt lat="65.96848" lon="12.50716">
        <ele>54.467007</ele>
        <time>2020-07-15T12:22:21.177Z</time>
      </trkpt>
      <trkpt lat="65.9686" lon="12.50763">
        <ele>54.270519</ele>
        <time>2020-07-15T12:22:24.722Z</time>
      </trkpt>
      <trkpt lat="65.96943" lon="12.51092">
        <ele>54.779945</ele>
        <time>2020-07-15T12:22:52.138Z</time>
      </trkpt>
      <trkpt lat="65.9698" lon="12.51202">
        <ele>55.271398</ele>
        <time>2020-07-15T12:23:05.688Z</time>
      </trkpt>
      <trkpt lat="65.97022" lon="12.51298">
        <ele>57.997979</ele>
        <time>2020-07-15T12:23:21.478Z</time>
      </trkpt>
      <trkpt lat="65.97078" lon="12.51407">
        <ele>62.188526</ele>
        <time>2020-07-15T12:23:46.910Z</time>
      </trkpt>
      <trkpt lat="65.97112" lon="12.51472">
        <ele>64.709826</ele>
        <time>2020-07-15T12:24:04.924Z</time>
      </trkpt>
      <trkpt lat="65.97408" lon="12.52034">
        <ele>98.538993</ele>
        <time>2020-07-15T12:27:10.888Z</time>
      </trkpt>
      <trkpt lat="65.9744" lon="12.52097">
        <ele>98.144831</ele>
        <time>2020-07-15T12:27:21.305Z</time>
      </trkpt>
      <trkpt lat="65.97471" lon="12.52154">
        <ele>97.129902</ele>
        <time>2020-07-15T12:27:27.952Z</time>
      </trkpt>
      <trkpt lat="65.97658" lon="12.52508">
        <ele>86.169469</ele>
        <time>2020-07-15T12:27:55.197Z</time>
      </trkpt>
      <trkpt lat="65.9766" lon="12.52512">
        <ele>86.018183</ele>
        <time>2020-07-15T12:27:55.463Z</time>
      </trkpt>
      <trkpt lat="65.97725" lon="12.52634">
        <ele>82.11819</ele>
        <time>2020-07-15T12:28:05.209Z</time>
      </trkpt>
      <trkpt lat="65.97755" lon="12.52694">
        <ele>81.070313</ele>
        <time>2020-07-15T12:28:10.248Z</time>
      </trkpt>
      <trkpt lat="65.97773" lon="12.52733">
        <ele>80.435404</ele>
        <time>2020-07-15T12:28:13.498Z</time>
      </trkpt>
      <trkpt lat="65.9778" lon="12.5275">
        <ele>80.172198</ele>
        <time>2020-07-15T12:28:14.842Z</time>
      </trkpt>
      <trkpt lat="65.97794" lon="12.52788">
        <ele>79.611487</ele>
        <time>2020-07-15T12:28:17.887Z</time>
      </trkpt>
      <trkpt lat="65.97814" lon="12.52852">
        <ele>78.720672</ele>
        <time>2020-07-15T12:28:22.965Z</time>
      </trkpt>
      <trkpt lat="65.97868" lon="12.53033">
        <ele>77.870316</ele>
        <time>2020-07-15T12:28:39.505Z</time>
      </trkpt>
      <trkpt lat="65.97888" lon="12.53093">
        <ele>77.721908</ele>
        <time>2020-07-15T12:28:44.812Z</time>
      </trkpt>
      <trkpt lat="65.97976" lon="12.53323">
        <ele>77.228351</ele>
        <time>2020-07-15T12:29:05.097Z</time>
      </trkpt>
      <trkpt lat="65.98026" lon="12.53452">
        <ele>77.04964</ele>
        <time>2020-07-15T12:29:17.054Z</time>
      </trkpt>
      <trkpt lat="65.98046" lon="12.53508">
        <ele>76.974124</ele>
        <time>2020-07-15T12:29:22.548Z</time>
      </trkpt>
      <trkpt lat="65.98216" lon="12.54014">
        <ele>80.158498</ele>
        <time>2020-07-15T12:30:19.519Z</time>
      </trkpt>
      <trkpt lat="65.98245" lon="12.54094">
        <ele>81.139935</ele>
        <time>2020-07-15T12:30:30.246Z</time>
      </trkpt>
      <trkpt lat="65.98324" lon="12.5432">
        <ele>83.960207</ele>
        <time>2020-07-15T12:31:04.724Z</time>
      </trkpt>
      <trkpt lat="65.98404" lon="12.54545">
        <ele>86.88502</ele>
        <time>2020-07-15T12:31:36.928Z</time>
      </trkpt>
      <trkpt lat="65.98452" lon="12.54672">
        <ele>85.936162</ele>
        <time>2020-07-15T12:31:49.605Z</time>
      </trkpt>
      <trkpt lat="65.98535" lon="12.54834">
        <ele>83.821732</ele>
        <time>2020-07-15T12:32:03.357Z</time>
      </trkpt>
      <trkpt lat="65.98576" lon="12.54903">
        <ele>82.608871</ele>
        <time>2020-07-15T12:32:09.600Z</time>
      </trkpt>
      <trkpt lat="65.98579" lon="12.54908">
        <ele>82.514657</ele>
        <time>2020-07-15T12:32:10.066Z</time>
      </trkpt>
      <trkpt lat="65.98595" lon="12.54934">
        <ele>82.016505</ele>
        <time>2020-07-15T12:32:12.553Z</time>
      </trkpt>
      <trkpt lat="65.9867" lon="12.5508">
        <ele>79.529739</ele>
        <time>2020-07-15T12:32:25.205Z</time>
      </trkpt>
      <trkpt lat="65.9873" lon="12.55231">
        <ele>79.640301</ele>
        <time>2020-07-15T12:32:40.599Z</time>
      </trkpt>
      <trkpt lat="65.98763" lon="12.55328">
        <ele>80.304067</ele>
        <time>2020-07-15T12:32:51.724Z</time>
      </trkpt>
      <trkpt lat="65.98861" lon="12.55615">
        <ele>84.628458</ele>
        <time>2020-07-15T12:33:33.860Z</time>
      </trkpt>
      <trkpt lat="65.98948" lon="12.55872">
        <ele>90.287475</ele>
        <time>2020-07-15T12:34:20.018Z</time>
      </trkpt>
      <trkpt lat="65.99049" lon="12.56145">
        <ele>96.500765</ele>
        <time>2020-07-15T12:35:09.276Z</time>
      </trkpt>
      <trkpt lat="65.99174" lon="12.56409">
        <ele>97.797857</ele>
        <time>2020-07-15T12:35:42.474Z</time>
      </trkpt>
      <trkpt lat="65.99198" lon="12.56456">
        <ele>96.787521</ele>
        <time>2020-07-15T12:35:46.676Z</time>
      </trkpt>
      <trkpt lat="65.99261" lon="12.5658">
        <ele>93.66103</ele>
        <time>2020-07-15T12:35:56.655Z</time>
      </trkpt>
      <trkpt lat="65.99296" lon="12.5666">
        <ele>91.786497</ele>
        <time>2020-07-15T12:36:02.464Z</time>
      </trkpt>
      <trkpt lat="65.99326" lon="12.56746">
        <ele>90.093828</ele>
        <time>2020-07-15T12:36:08.002Z</time>
      </trkpt>
      <trkpt lat="65.9934" lon="12.56796">
        <ele>89.248875</ele>
        <time>2020-07-15T12:36:11.000Z</time>
      </trkpt>
      <trkpt lat="65.99378" lon="12.56937">
        <ele>86.926164</ele>
        <time>2020-07-15T12:36:19.684Z</time>
      </trkpt>
      <trkpt lat="65.9937" lon="12.56952">
        <ele>86.591825</ele>
        <time>2020-07-15T12:36:21.583Z</time>
      </trkpt>
      <trkpt lat="65.99369" lon="12.56985">
        <ele>86.126047</ele>
        <time>2020-07-15T12:36:24.114Z</time>
      </trkpt>
      <trkpt lat="65.99393" lon="12.57047">
        <ele>84.967146</ele>
        <time>2020-07-15T12:36:30.848Z</time>
      </trkpt>
      <trkpt lat="65.99371" lon="12.57105">
        <ele>84.83254</ele>
        <time>2020-07-15T12:36:37.674Z</time>
      </trkpt>
      <trkpt lat="65.99362" lon="12.57126">
        <ele>84.884866</ele>
        <time>2020-07-15T12:36:40.587Z</time>
      </trkpt>
      <trkpt lat="65.99371" lon="12.57105">
        <ele>84.937192</ele>
        <time>2020-07-15T12:36:44.082Z</time>
      </trkpt>
      <trkpt lat="65.99393" lon="12.57047">
        <ele>85.067002</ele>
        <time>2020-07-15T12:36:52.095Z</time>
      </trkpt>
      <trkpt lat="65.99369" lon="12.56985">
        <ele>85.206528</ele>
        <time>2020-07-15T12:37:00.789Z</time>
      </trkpt>
      <trkpt lat="65.9937" lon="12.56952">
        <ele>85.262605</ele>
        <time>2020-07-15T12:37:04.601Z</time>
      </trkpt>
      <trkpt lat="65.99378" lon="12.56937">
        <ele>85.302858</ele>
        <time>2020-07-15T12:37:07.230Z</time>
      </trkpt>
      <trkpt lat="65.99408" lon="12.57047">
        <ele>85.580397</ele>
        <time>2020-07-15T12:37:19.319Z</time>
      </trkpt>
      <trkpt lat="65.99423" lon="12.57098">
        <ele>85.788498</ele>
        <time>2020-07-15T12:37:25.316Z</time>
      </trkpt>
      <trkpt lat="65.99628" lon="12.57694">
        <ele>87.890739</ele>
        <time>2020-07-15T12:38:28.133Z</time>
      </trkpt>
      <trkpt lat="65.99675" lon="12.57833">
        <ele>87.898045</ele>
        <time>2020-07-15T12:38:41.471Z</time>
      </trkpt>
      <trkpt lat="65.99677" lon="12.57828">
        <ele>87.89783</ele>
        <time>2020-07-15T12:38:42.087Z</time>
      </trkpt>
      <trkpt lat="65.99687" lon="12.57812">
        <ele>87.896922</ele>
        <time>2020-07-15T12:38:44.333Z</time>
      </trkpt>
      <trkpt lat="65.99697" lon="12.57815">
        <ele>87.89618</ele>
        <time>2020-07-15T12:38:46.151Z</time>
      </trkpt>
      <trkpt lat="65.99704" lon="12.5788">
        <ele>87.894142</ele>
        <time>2020-07-15T12:38:51.141Z</time>
      </trkpt>
      <trkpt lat="65.99712" lon="12.57915">
        <ele>87.892884</ele>
        <time>2020-07-15T12:38:54.161Z</time>
      </trkpt>
      <trkpt lat="65.99728" lon="12.57962">
        <ele>87.891015</ele>
        <time>2020-07-15T12:38:58.490Z</time>
      </trkpt>
      <trkpt lat="65.99757" lon="12.58046">
        <ele>87.632002</ele>
        <time>2020-07-15T12:39:06.407Z</time>
      </trkpt>
      <trkpt lat="65.99768" lon="12.58077">
        <ele>87.489319</ele>
        <time>2020-07-15T12:39:09.340Z</time>
      </trkpt>
      <trkpt lat="65.99873" lon="12.58374">
        <ele>85.898456</ele>
        <time>2020-07-15T12:39:35.386Z</time>
      </trkpt>
      <trkpt lat="65.99932" lon="12.58529">
        <ele>84.487789</ele>
        <time>2020-07-15T12:39:47.996Z</time>
      </trkpt>
      <trkpt lat="65.99934" lon="12.58557">
        <ele>84.303821</ele>
        <time>2020-07-15T12:39:49.724Z</time>
      </trkpt>
      <trkpt lat="65.99932" lon="12.58561">
        <ele>84.259616</ele>
        <time>2020-07-15T12:39:50.067Z</time>
      </trkpt>
      <trkpt lat="65.99984" lon="12.58699">
        <ele>83.380886</ele>
        <time>2020-07-15T12:40:01.519Z</time>
      </trkpt>
      <trkpt lat="66.00039" lon="12.5884">
        <ele>83.318954</ele>
        <time>2020-07-15T12:40:14.691Z</time>
      </trkpt>
      <trkpt lat="66.00126" lon="12.59081">
        <ele>82.967119</ele>
        <time>2020-07-15T12:40:41.797Z</time>
      </trkpt>
      <trkpt lat="66.00202" lon="12.59337">
        <ele>82.132374</ele>
        <time>2020-07-15T12:41:03.156Z</time>
      </trkpt>
      <trkpt lat="66.00256" lon="12.59561">
        <ele>77.25509</ele>
        <time>2020-07-15T12:41:16.221Z</time>
      </trkpt>
      <trkpt lat="66.00283" lon="12.59672">
        <ele>74.831724</ele>
        <time>2020-07-15T12:41:22.380Z</time>
      </trkpt>
      <trkpt lat="66.00336" lon="12.59885">
        <ele>70.030396</ele>
        <time>2020-07-15T12:41:34.393Z</time>
      </trkpt>
      <trkpt lat="66.00339" lon="12.59896">
        <ele>69.777538</ele>
        <time>2020-07-15T12:41:35.034Z</time>
      </trkpt>
      <trkpt lat="66.00347" lon="12.59926">
        <ele>69.08404</ele>
        <time>2020-07-15T12:41:36.785Z</time>
      </trkpt>
      <trkpt lat="66.00403" lon="12.60106">
        <ele>65.109782</ele>
        <time>2020-07-15T12:41:48.509Z</time>
      </trkpt>
      <trkpt lat="66.00438" lon="12.60193">
        <ele>64.08458</ele>
        <time>2020-07-15T12:41:55.466Z</time>
      </trkpt>
      <trkpt lat="66.00457" lon="12.60237">
        <ele>63.539258</ele>
        <time>2020-07-15T12:41:59.295Z</time>
      </trkpt>
      <trkpt lat="66.00549" lon="12.60411">
        <ele>61.254053</ele>
        <time>2020-07-15T12:42:16.318Z</time>
      </trkpt>
      <trkpt lat="66.00585" lon="12.60466">
        <ele>60.593206</ele>
        <time>2020-07-15T12:42:22.318Z</time>
      </trkpt>
      <trkpt lat="66.00621" lon="12.60515">
        <ele>59.94045</ele>
        <time>2020-07-15T12:42:28.318Z</time>
      </trkpt>
      <trkpt lat="66.00621" lon="12.60525">
        <ele>59.87946</ele>
        <time>2020-07-15T12:42:28.880Z</time>
      </trkpt>
      <trkpt lat="66.00619" lon="12.60568">
        <ele>59.600102</ele>
        <time>2020-07-15T12:42:31.723Z</time>
      </trkpt>
      <trkpt lat="66.0062" lon="12.60582">
        <ele>59.507326</ele>
        <time>2020-07-15T12:42:32.627Z</time>
      </trkpt>
      <trkpt lat="66.00621" lon="12.60596">
        <ele>59.417164</ele>
        <time>2020-07-15T12:42:33.437Z</time>
      </trkpt>
      <trkpt lat="66.00628" lon="12.60628">
        <ele>59.182812</ele>
        <time>2020-07-15T12:42:35.750Z</time>
      </trkpt>
      <trkpt lat="66.00666" lon="12.60714">
        <ele>58.578786</ele>
        <time>2020-07-15T12:42:43.910Z</time>
      </trkpt>
      <trkpt lat="66.00678" lon="12.60745">
        <ele>58.425544</ele>
        <time>2020-07-15T12:42:46.550Z</time>
      </trkpt>
      <trkpt lat="66.00686" lon="12.60762">
        <ele>58.326435</ele>
        <time>2020-07-15T12:42:48.442Z</time>
      </trkpt>
      <trkpt lat="66.00704" lon="12.60804">
        <ele>58.10205</ele>
        <time>2020-07-15T12:42:52.376Z</time>
      </trkpt>
      <trkpt lat="66.00716" lon="12.60776">
        <ele>57.953418</ele>
        <time>2020-07-15T12:42:55.191Z</time>
      </trkpt>
      <trkpt lat="66.00728" lon="12.60747">
        <ele>57.807997</ele>
        <time>2020-07-15T12:42:57.752Z</time>
      </trkpt>
      <trkpt lat="66.0074" lon="12.60752">
        <ele>57.696179</ele>
        <time>2020-07-15T12:42:59.887Z</time>
      </trkpt>
      <trkpt lat="66.00815" lon="12.6092">
        <ele>57.1081</ele>
        <time>2020-07-15T12:43:17.532Z</time>
      </trkpt>
      <trkpt lat="66.00831" lon="12.60935">
        <ele>57.060852</ele>
        <time>2020-07-15T12:43:20.846Z</time>
      </trkpt>
      <trkpt lat="66.00837" lon="12.6093">
        <ele>57.046138</ele>
        <time>2020-07-15T12:43:21.846Z</time>
      </trkpt>
      <trkpt lat="66.00849" lon="12.60896">
        <ele>56.997562</ele>
        <time>2020-07-15T12:43:25.223Z</time>
      </trkpt>
      <trkpt lat="66.00859" lon="12.60888">
        <ele>56.968781</ele>
        <time>2020-07-15T12:43:27.227Z</time>
      </trkpt>
      <trkpt lat="66.00901" lon="12.60971">
        <ele>56.825911</ele>
        <time>2020-07-15T12:43:36.954Z</time>
      </trkpt>
      <trkpt lat="66.00916" lon="12.60991">
        <ele>56.781974</ele>
        <time>2020-07-15T12:43:39.952Z</time>
      </trkpt>
      <trkpt lat="66.00918" lon="12.60998">
        <ele>56.772392</ele>
        <time>2020-07-15T12:43:40.590Z</time>
      </trkpt>
      <trkpt lat="66.00918" lon="12.61013">
        <ele>56.743961</ele>
        <time>2020-07-15T12:43:41.632Z</time>
      </trkpt>
      <trkpt lat="66.00947" lon="12.61117">
        <ele>56.463493</ele>
        <time>2020-07-15T12:43:50.693Z</time>
      </trkpt>
      <trkpt lat="66.00948" lon="12.61138">
        <ele>56.416065</ele>
        <time>2020-07-15T12:43:52.214Z</time>
      </trkpt>
      <trkpt lat="66.00939" lon="12.6122">
        <ele>56.225774</ele>
        <time>2020-07-15T12:43:58.182Z</time>
      </trkpt>
      <trkpt lat="66.00927" lon="12.61249">
        <ele>56.133376</ele>
        <time>2020-07-15T12:44:00.949Z</time>
      </trkpt>
      <trkpt lat="66.00931" lon="12.61284">
        <ele>56.054</ele>
        <time>2020-07-15T12:44:03.486Z</time>
      </trkpt>
      <trkpt lat="66.00948" lon="12.61374">
        <ele>55.83126</ele>
        <time>2020-07-15T12:44:10.341Z</time>
      </trkpt>
      <trkpt lat="66.00946" lon="12.61386">
        <ele>55.804102</ele>
        <time>2020-07-15T12:44:11.125Z</time>
      </trkpt>
      <trkpt lat="66.00956" lon="12.61415">
        <ele>55.612933</ele>
        <time>2020-07-15T12:44:13.659Z</time>
      </trkpt>
      <trkpt lat="66.00962" lon="12.61426">
        <ele>55.49288</ele>
        <time>2020-07-15T12:44:15.002Z</time>
      </trkpt>
      <trkpt lat="66.00966" lon="12.61439">
        <ele>55.395349</ele>
        <time>2020-07-15T12:44:16.094Z</time>
      </trkpt>
      <trkpt lat="66.00974" lon="12.61459">
        <ele>55.211652</ele>
        <time>2020-07-15T12:44:17.903Z</time>
      </trkpt>
      <trkpt lat="66.0101" lon="12.61546">
        <ele>54.432548</ele>
        <time>2020-07-15T12:44:25.935Z</time>
      </trkpt>
      <trkpt lat="66.01075" lon="12.61669">
        <ele>53.167174</ele>
        <time>2020-07-15T12:44:38.123Z</time>
      </trkpt>
      <trkpt lat="66.01087" lon="12.6169">
        <ele>52.890216</ele>
        <time>2020-07-15T12:44:40.149Z</time>
      </trkpt>
      <trkpt lat="66.011" lon="12.61712">
        <ele>52.445483</ele>
        <time>2020-07-15T12:44:42.530Z</time>
      </trkpt>
      <trkpt lat="66.01126" lon="12.61761">
        <ele>51.51869</ele>
        <time>2020-07-15T12:44:47.290Z</time>
      </trkpt>
      <trkpt lat="66.01135" lon="12.6178">
        <ele>51.190189</ele>
        <time>2020-07-15T12:44:48.995Z</time>
      </trkpt>
      <trkpt lat="66.0114" lon="12.61791">
        <ele>50.992863</ele>
        <time>2020-07-15T12:44:49.906Z</time>
      </trkpt>
      <trkpt lat="66.0119" lon="12.6194">
        <ele>48.775953</ele>
        <time>2020-07-15T12:45:00.821Z</time>
      </trkpt>
      <trkpt lat="66.0123" lon="12.61995">
        <ele>47.153551</ele>
        <time>2020-07-15T12:45:07.021Z</time>
      </trkpt>
      <trkpt lat="66.01251" lon="12.62037">
        <ele>45.778244</ele>
        <time>2020-07-15T12:45:10.784Z</time>
      </trkpt>
      <trkpt lat="66.0126" lon="12.6205">
        <ele>45.255959</ele>
        <time>2020-07-15T12:45:12.126Z</time>
      </trkpt>
      <trkpt lat="66.01264" lon="12.62045">
        <ele>45.037499</ele>
        <time>2020-07-15T12:45:12.744Z</time>
      </trkpt>
      <trkpt lat="66.01285" lon="12.62019">
        <ele>43.867251</ele>
        <time>2020-07-15T12:45:15.963Z</time>
      </trkpt>
      <trkpt lat="66.01314" lon="12.62105">
        <ele>41.572439</ele>
        <time>2020-07-15T12:45:21.350Z</time>
      </trkpt>
      <trkpt lat="66.01328" lon="12.62146">
        <ele>40.468713</ele>
        <time>2020-07-15T12:45:24.018Z</time>
      </trkpt>
      <trkpt lat="66.01365" lon="12.62244">
        <ele>37.193528</ele>
        <time>2020-07-15T12:45:30.171Z</time>
      </trkpt>
      <trkpt lat="66.01375" lon="12.62268">
        <ele>36.191476</ele>
        <time>2020-07-15T12:45:31.752Z</time>
      </trkpt>
      <trkpt lat="66.01399" lon="12.6233">
        <ele>33.583082</ele>
        <time>2020-07-15T12:45:35.727Z</time>
      </trkpt>
      <trkpt lat="66.01412" lon="12.62363">
        <ele>32.207338</ele>
        <time>2020-07-15T12:45:37.768Z</time>
      </trkpt>
      <trkpt lat="66.01475" lon="12.62525">
        <ele>25.40341</ele>
        <time>2020-07-15T12:45:48.115Z</time>
      </trkpt>
      <trkpt lat="66.01571" lon="12.62762">
        <ele>17.219918</ele>
        <time>2020-07-15T12:46:04.043Z</time>
      </trkpt>
      <trkpt lat="66.01652" lon="12.62921">
        <ele>12.52231</ele>
        <time>2020-07-15T12:46:16.645Z</time>
      </trkpt>
      <trkpt lat="66.0166" lon="12.62937">
        <ele>12.156614</ele>
        <time>2020-07-15T12:46:17.920Z</time>
      </trkpt>
      <trkpt lat="66.01707" lon="12.63018">
        <ele>10.200682</ele>
        <time>2020-07-15T12:46:25.243Z</time>
      </trkpt>
      <trkpt lat="66.01707" lon="12.63019">
        <ele>10.180873</ele>
        <time>2020-07-15T12:46:25.299Z</time>
      </trkpt>
      <trkpt lat="66.0175" lon="12.63096">
        <ele>8.477354</ele>
        <time>2020-07-15T12:46:33.171Z</time>
      </trkpt>
      <trkpt lat="66.01755" lon="12.6311">
        <ele>8.641367</ele>
        <time>2020-07-15T12:46:34.416Z</time>
      </trkpt>
      <trkpt lat="66.01769" lon="12.63151">
        <ele>9.102206</ele>
        <time>2020-07-15T12:46:37.736Z</time>
      </trkpt>
      <trkpt lat="66.01772" lon="12.63182">
        <ele>9.382771</ele>
        <time>2020-07-15T12:46:40.221Z</time>
      </trkpt>
      <trkpt lat="66.01772" lon="12.63185">
        <ele>9.410305</ele>
        <time>2020-07-15T12:46:40.412Z</time>
      </trkpt>
      <trkpt lat="66.01772" lon="12.63192">
        <ele>9.467323</ele>
        <time>2020-07-15T12:46:40.855Z</time>
      </trkpt>
      <trkpt lat="66.01771" lon="12.632">
        <ele>9.548923</ele>
        <time>2020-07-15T12:46:41.858Z</time>
      </trkpt>
      <trkpt lat="66.0176" lon="12.63291">
        <ele>10.37755</ele>
        <time>2020-07-15T12:46:50.168Z</time>
      </trkpt>
      <trkpt lat="66.0176" lon="12.63303">
        <ele>10.482157</ele>
        <time>2020-07-15T12:46:51.053Z</time>
      </trkpt>
      <trkpt lat="66.01758" lon="12.63328">
        <ele>10.698629</ele>
        <time>2020-07-15T12:46:53.375Z</time>
      </trkpt>
      <trkpt lat="66.01755" lon="12.6335">
        <ele>10.901059</ele>
        <time>2020-07-15T12:46:56.284Z</time>
      </trkpt>
      <trkpt lat="66.01725" lon="12.63541">
        <ele>13.452334</ele>
        <time>2020-07-15T12:47:23.806Z</time>
      </trkpt>
      <trkpt lat="66.01713" lon="12.63586">
        <ele>14.845463</ele>
        <time>2020-07-15T12:47:32.698Z</time>
      </trkpt>
      <trkpt lat="66.01685" lon="12.63691">
        <ele>18.062623</ele>
        <time>2020-07-15T12:47:52.915Z</time>
      </trkpt>
      <trkpt lat="66.01672" lon="12.63745">
        <ele>19.693633</ele>
        <time>2020-07-15T12:48:02.330Z</time>
      </trkpt>
      <trkpt lat="66.01664" lon="12.63777">
        <ele>20.660936</ele>
        <time>2020-07-15T12:48:08.574Z</time>
      </trkpt>
      <trkpt lat="66.01654" lon="12.63831">
        <ele>22.193508</ele>
        <time>2020-07-15T12:48:18.107Z</time>
      </trkpt>
      <trkpt lat="66.0165" lon="12.63858">
        <ele>22.926956</ele>
        <time>2020-07-15T12:48:22.863Z</time>
      </trkpt>
      <trkpt lat="66.01645" lon="12.63837">
        <ele>23.555271</ele>
        <time>2020-07-15T12:48:27.640Z</time>
      </trkpt>
      <trkpt lat="66.0164" lon="12.63881">
        <ele>24.673674</ele>
        <time>2020-07-15T12:48:35.362Z</time>
      </trkpt>
      <trkpt lat="66.01635" lon="12.63947">
        <ele>26.317753</ele>
        <time>2020-07-15T12:48:46.087Z</time>
      </trkpt>
      <trkpt lat="66.0163" lon="12.64075">
        <ele>29.455539</ele>
        <time>2020-07-15T12:49:08.159Z</time>
      </trkpt>
      <trkpt lat="66.01627" lon="12.64124">
        <ele>30.647331</ele>
        <time>2020-07-15T12:49:15.307Z</time>
      </trkpt>
      <trkpt lat="66.01618" lon="12.64326">
        <ele>34.848466</ele>
        <time>2020-07-15T12:49:43.837Z</time>
      </trkpt>
      <trkpt lat="66.01618" lon="12.64345">
        <ele>35.006939</ele>
        <time>2020-07-15T12:49:47.216Z</time>
      </trkpt>
      <trkpt lat="66.01627" lon="12.64347">
        <ele>35.185755</ele>
        <time>2020-07-15T12:49:49.543Z</time>
      </trkpt>
      <trkpt lat="66.01625" lon="12.6437">
        <ele>35.373821</ele>
        <time>2020-07-15T12:49:52.291Z</time>
      </trkpt>
      <trkpt lat="66.0162" lon="12.64514">
        <ele>36.553077</ele>
        <time>2020-07-15T12:50:07.471Z</time>
      </trkpt>
      <trkpt lat="66.01617" lon="12.64607">
        <ele>37.317176</ele>
        <time>2020-07-15T12:50:15.103Z</time>
      </trkpt>
      <trkpt lat="66.01616" lon="12.64621">
        <ele>37.427208</ele>
        <time>2020-07-15T12:50:15.918Z</time>
      </trkpt>
      <trkpt lat="66.01618" lon="12.64679">
        <ele>37.902338</ele>
        <time>2020-07-15T12:50:20.929Z</time>
      </trkpt>
      <trkpt lat="66.01631" lon="12.64803">
        <ele>37.694611</ele>
        <time>2020-07-15T12:50:28.586Z</time>
      </trkpt>
      <trkpt lat="66.0166" lon="12.65071">
        <ele>36.703885</ele>
        <time>2020-07-15T12:50:45.318Z</time>
      </trkpt>
      <trkpt lat="66.01675" lon="12.65206">
        <ele>37.17673</ele>
        <time>2020-07-15T12:50:55.405Z</time>
      </trkpt>
      <trkpt lat="66.01678" lon="12.65237">
        <ele>37.4494</ele>
        <time>2020-07-15T12:50:58.051Z</time>
      </trkpt>
      <trkpt lat="66.01697" lon="12.65411">
        <ele>38.955325</ele>
        <time>2020-07-15T12:51:15.318Z</time>
      </trkpt>
      <trkpt lat="66.01721" lon="12.65581">
        <ele>40.828366</ele>
        <time>2020-07-15T12:51:37.442Z</time>
      </trkpt>
      <trkpt lat="66.01756" lon="12.65747">
        <ele>44.544453</ele>
        <time>2020-07-15T12:52:03.865Z</time>
      </trkpt>
      <trkpt lat="66.01842" lon="12.66093">
        <ele>49.683414</ele>
        <time>2020-07-15T12:53:00.103Z</time>
      </trkpt>
      <trkpt lat="66.01877" lon="12.66233">
        <ele>50.280926</ele>
        <time>2020-07-15T12:53:13.854Z</time>
      </trkpt>
      <trkpt lat="66.02003" lon="12.66738">
        <ele>39.171512</ele>
        <time>2020-07-15T12:53:42.429Z</time>
      </trkpt>
      <trkpt lat="66.02079" lon="12.67045">
        <ele>29.694888</ele>
        <time>2020-07-15T12:53:59.179Z</time>
      </trkpt>
      <trkpt lat="66.02137" lon="12.67276">
        <ele>24.960886</ele>
        <time>2020-07-15T12:54:12.659Z</time>
      </trkpt>
      <trkpt lat="66.0219" lon="12.67491">
        <ele>21.189218</ele>
        <time>2020-07-15T12:54:26.352Z</time>
      </trkpt>
      <trkpt lat="66.02267" lon="12.67826">
        <ele>17.468199</ele>
        <time>2020-07-15T12:54:48.679Z</time>
      </trkpt>
      <trkpt lat="66.02335" lon="12.68183">
        <ele>10.999416</ele>
        <time>2020-07-15T12:55:08.715Z</time>
      </trkpt>
      <trkpt lat="66.02358" lon="12.68307">
        <ele>8.735772</ele>
        <time>2020-07-15T12:55:15.445Z</time>
      </trkpt>
      <trkpt lat="66.02379" lon="12.6842">
        <ele>6.695546</ele>
        <time>2020-07-15T12:55:21.589Z</time>
      </trkpt>
      <trkpt lat="66.024" lon="12.68536">
        <ele>4.589793</ele>
        <time>2020-07-15T12:55:28.059Z</time>
      </trkpt>
      <trkpt lat="66.02428" lon="12.68699">
        <ele>2.463544</ele>
        <time>2020-07-15T12:55:37.525Z</time>
      </trkpt>
      <trkpt lat="66.02433" lon="12.68731">
        <ele>2.310127</ele>
        <time>2020-07-15T12:55:39.462Z</time>
      </trkpt>
      <trkpt lat="66.02443" lon="12.68817">
        <ele>1.90226</ele>
        <time>2020-07-15T12:55:45.084Z</time>
      </trkpt>
      <trkpt lat="66.02481" lon="12.69203">
        <ele>0.702169</ele>
        <time>2020-07-15T12:56:12.749Z</time>
      </trkpt>
      <trkpt lat="66.02511" lon="12.69335">
        <ele>0.650254</ele>
        <time>2020-07-15T12:56:23.690Z</time>
      </trkpt>
      <trkpt lat="66.02542" lon="12.69409">
        <ele>0.61372</ele>
        <time>2020-07-15T12:56:31.386Z</time>
      </trkpt>
      <trkpt lat="66.02581" lon="12.69463">
        <ele>0.571103</ele>
        <time>2020-07-15T12:56:39.494Z</time>
      </trkpt>
      <trkpt lat="66.02629" lon="12.69492">
        <ele>0.522729</ele>
        <time>2020-07-15T12:56:48.166Z</time>
      </trkpt>
      <trkpt lat="66.02745" lon="12.69479">
        <ele>0.400103</ele>
        <time>2020-07-15T12:57:08.479Z</time>
      </trkpt>
      <trkpt lat="66.02789" lon="12.69497">
        <ele>0.332135</ele>
        <time>2020-07-15T12:57:16.059Z</time>
      </trkpt>
      <trkpt lat="66.02827" lon="12.69537">
        <ele>0.267695</ele>
        <time>2020-07-15T12:57:23.279Z</time>
      </trkpt>
      <trkpt lat="66.02851" lon="12.69577">
        <ele>0.22308</ele>
        <time>2020-07-15T12:57:28.283Z</time>
      </trkpt>
      <trkpt lat="66.02878" lon="12.69642">
        <ele>0.164446</ele>
        <time>2020-07-15T12:57:34.889Z</time>
      </trkpt>
      <trkpt lat="66.02906" lon="12.69736">
        <ele>0.122813</ele>
        <time>2020-07-15T12:57:43.110Z</time>
      </trkpt>
      <trkpt lat="66.0292" lon="12.69794">
        <ele>0.105493</ele>
        <time>2020-07-15T12:57:47.929Z</time>
      </trkpt>
      <trkpt lat="66.02998" lon="12.70148">
        <ele>0.02325</ele>
        <time>2020-07-15T12:58:16.898Z</time>
      </trkpt>
      <trkpt lat="66.03144" lon="12.70822">
        <ele>2.3</ele>
        <time>2020-07-15T12:59:12.353Z</time>
      </trkpt>
      <trkpt lat="66.0324" lon="12.71267">
        <ele>1.8</ele>
        <time>2020-07-15T12:59:48.892Z</time>
      </trkpt>
      <trkpt lat="66.03259" lon="12.71388">
        <ele>1.7</ele>
        <time>2020-07-15T12:59:58.305Z</time>
      </trkpt>
      <trkpt lat="66.0327" lon="12.71482">
        <ele>2</ele>
        <time>2020-07-15T13:00:05.430Z</time>
      </trkpt>
      <trkpt lat="66.03277" lon="12.71609">
        <ele>4</ele>
        <time>2020-07-15T13:00:14.665Z</time>
      </trkpt>
      <trkpt lat="66.03278" lon="12.71919">
        <ele>7.9</ele>
        <time>2020-07-15T13:00:37.198Z</time>
      </trkpt>
      <trkpt lat="66.03284" lon="12.71976">
        <ele>7.8</ele>
        <time>2020-07-15T13:00:41.482Z</time>
      </trkpt>
      <trkpt lat="66.033" lon="12.72054">
        <ele>9.9</ele>
        <time>2020-07-15T13:00:47.829Z</time>
      </trkpt>
      <trkpt lat="66.03309" lon="12.72083">
        <ele>10.1</ele>
        <time>2020-07-15T13:00:50.495Z</time>
      </trkpt>
      <trkpt lat="66.03321" lon="12.72111">
        <ele>5.8</ele>
        <time>2020-07-15T13:00:53.365Z</time>
      </trkpt>
      <trkpt lat="66.03346" lon="12.72158">
        <ele>1.7</ele>
        <time>2020-07-15T13:00:58.983Z</time>
      </trkpt>
      <trkpt lat="66.03378" lon="12.72192">
        <ele>1</ele>
        <time>2020-07-15T13:01:05.172Z</time>
      </trkpt>
      <trkpt lat="66.0341" lon="12.72207">
        <ele>1</ele>
        <time>2020-07-15T13:01:11.010Z</time>
      </trkpt>
      <trkpt lat="66.0344" lon="12.72204">
        <ele>1</ele>
        <time>2020-07-15T13:01:16.399Z</time>
      </trkpt>
      <trkpt lat="66.03454" lon="12.72198">
        <ele>1</ele>
        <time>2020-07-15T13:01:18.928Z</time>
      </trkpt>
      <trkpt lat="66.03783" lon="12.72027">
        <ele>0.045459</ele>
        <time>2020-07-15T13:02:18.998Z</time>
      </trkpt>
      <trkpt lat="66.03938" lon="12.71946">
        <ele>1.572785</ele>
        <time>2020-07-15T13:02:47.775Z</time>
      </trkpt>
      <trkpt lat="66.04152" lon="12.71833">
        <ele>10.166726</ele>
        <time>2020-07-15T13:03:51.032Z</time>
      </trkpt>
      <trkpt lat="66.04169" lon="12.71825">
        <ele>10.997145</ele>
        <time>2020-07-15T13:03:59.628Z</time>
      </trkpt>
      <trkpt lat="66.04198" lon="12.71815">
        <ele>14.02084</ele>
        <time>2020-07-15T13:04:16.608Z</time>
      </trkpt>
      <trkpt lat="66.04241" lon="12.71819">
        <ele>18.639797</ele>
        <time>2020-07-15T13:04:40.611Z</time>
      </trkpt>
      <trkpt lat="66.04276" lon="12.71836">
        <ele>22.487245</ele>
        <time>2020-07-15T13:05:01.077Z</time>
      </trkpt>
      <trkpt lat="66.04309" lon="12.71873">
        <ele>26.35925</ele>
        <time>2020-07-15T13:05:21.836Z</time>
      </trkpt>
      <trkpt lat="66.04313" lon="12.71878">
        <ele>26.850604</ele>
        <time>2020-07-15T13:05:26.035Z</time>
      </trkpt>
      <trkpt lat="66.04319" lon="12.71887">
        <ele>27.65796</ele>
        <time>2020-07-15T13:05:30.149Z</time>
      </trkpt>
      <trkpt lat="66.04368" lon="12.71986">
        <ele>31.893863</ele>
        <time>2020-07-15T13:05:57.346Z</time>
      </trkpt>
      <trkpt lat="66.04398" lon="12.72098">
        <ele>33.943242</ele>
        <time>2020-07-15T13:06:18.573Z</time>
      </trkpt>
      <trkpt lat="66.04529" lon="12.72915">
        <ele>35.970053</ele>
        <time>2020-07-15T13:07:16.780Z</time>
      </trkpt>
      <trkpt lat="66.04554" lon="12.73027">
        <ele>35.825295</ele>
        <time>2020-07-15T13:07:25.314Z</time>
      </trkpt>
      <trkpt lat="66.04589" lon="12.7314">
        <ele>35.689279</ele>
        <time>2020-07-15T13:07:36.391Z</time>
      </trkpt>
      <trkpt lat="66.04598" lon="12.73162">
        <ele>35.673459</ele>
        <time>2020-07-15T13:07:38.941Z</time>
      </trkpt>
      <trkpt lat="66.04613" lon="12.73195">
        <ele>35.648863</ele>
        <time>2020-07-15T13:07:42.757Z</time>
      </trkpt>
      <trkpt lat="66.04622" lon="12.73213">
        <ele>35.634157</ele>
        <time>2020-07-15T13:07:44.984Z</time>
      </trkpt>
      <trkpt lat="66.04646" lon="12.73257">
        <ele>35.596429</ele>
        <time>2020-07-15T13:07:50.624Z</time>
      </trkpt>
      <trkpt lat="66.0466" lon="12.73278">
        <ele>35.576132</ele>
        <time>2020-07-15T13:07:53.940Z</time>
      </trkpt>
      <trkpt lat="66.04712" lon="12.7334">
        <ele>35.502857</ele>
        <time>2020-07-15T13:08:04.333Z</time>
      </trkpt>
      <trkpt lat="66.04852" lon="12.73414">
        <ele>31.910653</ele>
        <time>2020-07-15T13:08:24.238Z</time>
      </trkpt>
      <trkpt lat="66.04925" lon="12.73486">
        <ele>29.548776</ele>
        <time>2020-07-15T13:08:33.826Z</time>
      </trkpt>
      <trkpt lat="66.04957" lon="12.73537">
        <ele>28.232114</ele>
        <time>2020-07-15T13:08:38.554Z</time>
      </trkpt>
      <trkpt lat="66.04998" lon="12.73626">
        <ele>26.372011</ele>
        <time>2020-07-15T13:08:45.434Z</time>
      </trkpt>
      <trkpt lat="66.05032" lon="12.73728">
        <ele>24.553021</ele>
        <time>2020-07-15T13:08:52.750Z</time>
      </trkpt>
      <trkpt lat="66.05062" lon="12.7385">
        <ele>24.602742</ele>
        <time>2020-07-15T13:09:02.236Z</time>
      </trkpt>
      <trkpt lat="66.05127" lon="12.74149">
        <ele>25.339404</ele>
        <time>2020-07-15T13:09:32.219Z</time>
      </trkpt>
      <trkpt lat="66.0513" lon="12.74161">
        <ele>25.415811</ele>
        <time>2020-07-15T13:09:33.446Z</time>
      </trkpt>
      <trkpt lat="66.05174" lon="12.74366">
        <ele>26.757642</ele>
        <time>2020-07-15T13:09:54.196Z</time>
      </trkpt>
      <trkpt lat="66.05188" lon="12.7444">
        <ele>27.230309</ele>
        <time>2020-07-15T13:10:01.179Z</time>
      </trkpt>
      <trkpt lat="66.05224" lon="12.7462">
        <ele>29.381937</ele>
        <time>2020-07-15T13:10:20.470Z</time>
      </trkpt>
      <trkpt lat="66.05246" lon="12.74774">
        <ele>31.827518</ele>
        <time>2020-07-15T13:10:39.941Z</time>
      </trkpt>
      <trkpt lat="66.05276" lon="12.75011">
        <ele>35.757275</ele>
        <time>2020-07-15T13:11:14.421Z</time>
      </trkpt>
      <trkpt lat="66.05281" lon="12.75055">
        <ele>36.577922</ele>
        <time>2020-07-15T13:11:21.417Z</time>
      </trkpt>
      <trkpt lat="66.05288" lon="12.75096">
        <ele>37.35738</ele>
        <time>2020-07-15T13:11:26.960Z</time>
      </trkpt>
      <trkpt lat="66.05293" lon="12.75127">
        <ele>37.969673</ele>
        <time>2020-07-15T13:11:32.245Z</time>
      </trkpt>
      <trkpt lat="66.05314" lon="12.75232">
        <ele>40.057511</ele>
        <time>2020-07-15T13:11:47.727Z</time>
      </trkpt>
      <trkpt lat="66.05369" lon="12.75494">
        <ele>43.348781</ele>
        <time>2020-07-15T13:12:20.225Z</time>
      </trkpt>
      <trkpt lat="66.05407" lon="12.75667">
        <ele>44.573226</ele>
        <time>2020-07-15T13:12:37.159Z</time>
      </trkpt>
      <trkpt lat="66.05447" lon="12.75857">
        <ele>44.158039</ele>
        <time>2020-07-15T13:12:52.591Z</time>
      </trkpt>
      <trkpt lat="66.05481" lon="12.76016">
        <ele>43.001113</ele>
        <time>2020-07-15T13:13:03.375Z</time>
      </trkpt>
      <trkpt lat="66.05504" lon="12.76139">
        <ele>42.010972</ele>
        <time>2020-07-15T13:13:10.699Z</time>
      </trkpt>
      <trkpt lat="66.05543" lon="12.76392">
        <ele>37.392609</ele>
        <time>2020-07-15T13:13:24.130Z</time>
      </trkpt>
      <trkpt lat="66.05561" lon="12.76514">
        <ele>35.181714</ele>
        <time>2020-07-15T13:13:30.569Z</time>
      </trkpt>
      <trkpt lat="66.05584" lon="12.76657">
        <ele>34.061991</ele>
        <time>2020-07-15T13:13:38.693Z</time>
      </trkpt>
      <trkpt lat="66.05599" lon="12.7675">
        <ele>33.600177</ele>
        <time>2020-07-15T13:13:44.294Z</time>
      </trkpt>
      <trkpt lat="66.05609" lon="12.76804">
        <ele>33.324181</ele>
        <time>2020-07-15T13:13:47.787Z</time>
      </trkpt>
      <trkpt lat="66.0561" lon="12.76806">
        <ele>33.313873</ele>
        <time>2020-07-15T13:13:48.380Z</time>
      </trkpt>
      <trkpt lat="66.05662" lon="12.77042">
        <ele>33.766821</ele>
        <time>2020-07-15T13:14:13.028Z</time>
      </trkpt>
      <trkpt lat="66.05754" lon="12.77527">
        <ele>38.58364</ele>
        <time>2020-07-15T13:15:14.051Z</time>
      </trkpt>
      <trkpt lat="66.05804" lon="12.77867">
        <ele>39.928337</ele>
        <time>2020-07-15T13:15:40.642Z</time>
      </trkpt>
      <trkpt lat="66.05819" lon="12.77948">
        <ele>39.865158</ele>
        <time>2020-07-15T13:15:46.168Z</time>
      </trkpt>
      <trkpt lat="66.05852" lon="12.78095">
        <ele>39.748263</ele>
        <time>2020-07-15T13:15:57.331Z</time>
      </trkpt>
      <trkpt lat="66.05889" lon="12.78256">
        <ele>40.304075</ele>
        <time>2020-07-15T13:16:12.447Z</time>
      </trkpt>
      <trkpt lat="66.0592" lon="12.78406">
        <ele>41.159771</ele>
        <time>2020-07-15T13:16:27.921Z</time>
      </trkpt>
      <trkpt lat="66.05937" lon="12.78527">
        <ele>41.813637</ele>
        <time>2020-07-15T13:16:42.135Z</time>
      </trkpt>
      <trkpt lat="66.05991" lon="12.79118">
        <ele>42.000635</ele>
        <time>2020-07-15T13:17:26.734Z</time>
      </trkpt>
      <trkpt lat="66.06004" lon="12.79257">
        <ele>41.490734</ele>
        <time>2020-07-15T13:17:34.851Z</time>
      </trkpt>
      <trkpt lat="66.06016" lon="12.79377">
        <ele>41.045677</ele>
        <time>2020-07-15T13:17:42.553Z</time>
      </trkpt>
      <trkpt lat="66.06043" lon="12.7958">
        <ele>42.309196</ele>
        <time>2020-07-15T13:17:56.464Z</time>
      </trkpt>
      <trkpt lat="66.06171" lon="12.80263">
        <ele>52.430512</ele>
        <time>2020-07-15T13:19:28.884Z</time>
      </trkpt>
      <trkpt lat="66.06203" lon="12.80468">
        <ele>56.215295</ele>
        <time>2020-07-15T13:20:00.765Z</time>
      </trkpt>
      <trkpt lat="66.06213" lon="12.80543">
        <ele>57.561226</ele>
        <time>2020-07-15T13:20:11.362Z</time>
      </trkpt>
      <trkpt lat="66.06278" lon="12.81105">
        <ele>63.74551</ele>
        <time>2020-07-15T13:21:10.619Z</time>
      </trkpt>
      <trkpt lat="66.06308" lon="12.81354">
        <ele>65.309746</ele>
        <time>2020-07-15T13:21:35.819Z</time>
      </trkpt>
      <trkpt lat="66.06317" lon="12.81426">
        <ele>65.764286</ele>
        <time>2020-07-15T13:21:43.341Z</time>
      </trkpt>
      <trkpt lat="66.06369" lon="12.81727">
        <ele>64.027554</ele>
        <time>2020-07-15T13:22:06.161Z</time>
      </trkpt>
      <trkpt lat="66.06393" lon="12.8186">
        <ele>62.759155</ele>
        <time>2020-07-15T13:22:13.588Z</time>
      </trkpt>
      <trkpt lat="66.06443" lon="12.82137">
        <ele>56.197774</ele>
        <time>2020-07-15T13:22:28.050Z</time>
      </trkpt>
      <trkpt lat="66.06526" lon="12.82545">
        <ele>47.60831</ele>
        <time>2020-07-15T13:22:49.863Z</time>
      </trkpt>
      <trkpt lat="66.06552" lon="12.82901">
        <ele>45.412237</ele>
        <time>2020-07-15T13:23:15.103Z</time>
      </trkpt>
      <trkpt lat="66.06567" lon="12.83179">
        <ele>45.98472</ele>
        <time>2020-07-15T13:23:40.389Z</time>
      </trkpt>
      <trkpt lat="66.06578" lon="12.83376">
        <ele>45.932187</ele>
        <time>2020-07-15T13:23:56.046Z</time>
      </trkpt>
      <trkpt lat="66.0661" lon="12.83819">
        <ele>45.320429</ele>
        <time>2020-07-15T13:24:24.669Z</time>
      </trkpt>
      <trkpt lat="66.06637" lon="12.84141">
        <ele>44.156244</ele>
        <time>2020-07-15T13:24:47.738Z</time>
      </trkpt>
      <trkpt lat="66.06652" lon="12.84327">
        <ele>43.093834</ele>
        <time>2020-07-15T13:24:59.376Z</time>
      </trkpt>
      <trkpt lat="66.06671" lon="12.84593">
        <ele>41.769177</ele>
        <time>2020-07-15T13:25:14.170Z</time>
      </trkpt>
      <trkpt lat="66.0668" lon="12.84704">
        <ele>41.294375</ele>
        <time>2020-07-15T13:25:20.872Z</time>
      </trkpt>
      <trkpt lat="66.0669" lon="12.84842">
        <ele>40.711224</ele>
        <time>2020-07-15T13:25:30.400Z</time>
      </trkpt>
      <trkpt lat="66.06695" lon="12.84912">
        <ele>40.589416</ele>
        <time>2020-07-15T13:25:35.982Z</time>
      </trkpt>
      <trkpt lat="66.06713" lon="12.85157">
        <ele>42.586826</ele>
        <time>2020-07-15T13:26:00.230Z</time>
      </trkpt>
      <trkpt lat="66.06755" lon="12.8577">
        <ele>48.671567</ele>
        <time>2020-07-15T13:27:07.529Z</time>
      </trkpt>
      <trkpt lat="66.06812" lon="12.86457">
        <ele>52.480856</ele>
        <time>2020-07-15T13:28:10.383Z</time>
      </trkpt>
      <trkpt lat="66.0683" lon="12.86682">
        <ele>53.400427</ele>
        <time>2020-07-15T13:28:28.951Z</time>
      </trkpt>
      <trkpt lat="66.06834" lon="12.86747">
        <ele>53.617553</ele>
        <time>2020-07-15T13:28:34.257Z</time>
      </trkpt>
      <trkpt lat="66.06837" lon="12.86811">
        <ele>53.830447</ele>
        <time>2020-07-15T13:28:39.383Z</time>
      </trkpt>
      <trkpt lat="66.06838" lon="12.86835">
        <ele>53.909928</ele>
        <time>2020-07-15T13:28:41.370Z</time>
      </trkpt>
      <trkpt lat="66.06838" lon="12.86979">
        <ele>54.382942</ele>
        <time>2020-07-15T13:28:52.925Z</time>
      </trkpt>
      <trkpt lat="66.06833" lon="12.87461">
        <ele>57.059418</ele>
        <time>2020-07-15T13:29:36.522Z</time>
      </trkpt>
      <trkpt lat="66.06831" lon="12.87572">
        <ele>57.828539</ele>
        <time>2020-07-15T13:29:47.625Z</time>
      </trkpt>
      <trkpt lat="66.06828" lon="12.8789">
        <ele>60.363762</ele>
        <time>2020-07-15T13:30:19.512Z</time>
      </trkpt>
      <trkpt lat="66.06824" lon="12.88187">
        <ele>62.105771</ele>
        <time>2020-07-15T13:30:47.407Z</time>
      </trkpt>
      <trkpt lat="66.06823" lon="12.88224">
        <ele>62.294775</ele>
        <time>2020-07-15T13:30:50.684Z</time>
      </trkpt>
      <trkpt lat="66.06822" lon="12.88351">
        <ele>62.944297</ele>
        <time>2020-07-15T13:31:01.577Z</time>
      </trkpt>
      <trkpt lat="66.06822" lon="12.88442">
        <ele>63.238604</ele>
        <time>2020-07-15T13:31:09.174Z</time>
      </trkpt>
      <trkpt lat="66.06823" lon="12.88755">
        <ele>63.047618</ele>
        <time>2020-07-15T13:31:32.164Z</time>
      </trkpt>
      <trkpt lat="66.06824" lon="12.89293">
        <ele>60.652555</ele>
        <time>2020-07-15T13:32:04.919Z</time>
      </trkpt>
      <trkpt lat="66.06824" lon="12.89303">
        <ele>60.591835</ele>
        <time>2020-07-15T13:32:05.477Z</time>
      </trkpt>
      <trkpt lat="66.06825" lon="12.89516">
        <ele>59.094451</ele>
        <time>2020-07-15T13:32:17.845Z</time>
      </trkpt>
      <trkpt lat="66.06825" lon="12.89613">
        <ele>58.40594</ele>
        <time>2020-07-15T13:32:23.515Z</time>
      </trkpt>
      <trkpt lat="66.06825" lon="12.89722">
        <ele>57.643518</ele>
        <time>2020-07-15T13:32:29.817Z</time>
      </trkpt>
      <trkpt lat="66.06822" lon="12.89871">
        <ele>56.708974</ele>
        <time>2020-07-15T13:32:38.716Z</time>
      </trkpt>
      <trkpt lat="66.06819" lon="12.89919">
        <ele>56.418786</ele>
        <time>2020-07-15T13:32:41.496Z</time>
      </trkpt>
      <trkpt lat="66.06809" lon="12.90125">
        <ele>55.153562</ele>
        <time>2020-07-15T13:32:54.014Z</time>
      </trkpt>
      <trkpt lat="66.06798" lon="12.90343">
        <ele>54.072364</ele>
        <time>2020-07-15T13:33:07.356Z</time>
      </trkpt>
      <trkpt lat="66.06784" lon="12.9063">
        <ele>52.79771</ele>
        <time>2020-07-15T13:33:25.565Z</time>
      </trkpt>
      <trkpt lat="66.06776" lon="12.90777">
        <ele>52.493455</ele>
        <time>2020-07-15T13:33:35.262Z</time>
      </trkpt>
      <trkpt lat="66.06749" lon="12.91285">
        <ele>51.693147</ele>
        <time>2020-07-15T13:34:10.402Z</time>
      </trkpt>
      <trkpt lat="66.06729" lon="12.9168">
        <ele>51.079247</ele>
        <time>2020-07-15T13:34:38.597Z</time>
      </trkpt>
      <trkpt lat="66.06709" lon="12.92079">
        <ele>48.801891</ele>
        <time>2020-07-15T13:35:04.578Z</time>
      </trkpt>
      <trkpt lat="66.06708" lon="12.92097">
        <ele>48.586435</ele>
        <time>2020-07-15T13:35:05.549Z</time>
      </trkpt>
      <trkpt lat="66.06701" lon="12.92224">
        <ele>47.02934</ele>
        <time>2020-07-15T13:35:12.482Z</time>
      </trkpt>
      <trkpt lat="66.06693" lon="12.92369">
        <ele>45.255999</ele>
        <time>2020-07-15T13:35:19.876Z</time>
      </trkpt>
      <trkpt lat="66.06652" lon="12.92905">
        <ele>31.666061</ele>
        <time>2020-07-15T13:35:45.647Z</time>
      </trkpt>
      <trkpt lat="66.0664" lon="12.93009">
        <ele>28.871156</ele>
        <time>2020-07-15T13:35:50.703Z</time>
      </trkpt>
      <trkpt lat="66.06617" lon="12.93133">
        <ele>25.382502</ele>
        <time>2020-07-15T13:35:57.159Z</time>
      </trkpt>
      <trkpt lat="66.06589" lon="12.93263">
        <ele>21.8652</ele>
        <time>2020-07-15T13:36:04.151Z</time>
      </trkpt>
      <trkpt lat="66.06582" lon="12.93255">
        <ele>21.49237</ele>
        <time>2020-07-15T13:36:05.172Z</time>
      </trkpt>
      <trkpt lat="66.0658" lon="12.93268">
        <ele>21.213164</ele>
        <time>2020-07-15T13:36:05.909Z</time>
      </trkpt>
      <trkpt lat="66.06543" lon="12.93422">
        <ele>17.863978</ele>
        <time>2020-07-15T13:36:15.131Z</time>
      </trkpt>
      <trkpt lat="66.06537" lon="12.93439">
        <ele>17.432156</ele>
        <time>2020-07-15T13:36:16.321Z</time>
      </trkpt>
      <trkpt lat="66.06535" lon="12.93461">
        <ele>16.996065</ele>
        <time>2020-07-15T13:36:17.514Z</time>
      </trkpt>
      <trkpt lat="66.06525" lon="12.93528">
        <ele>15.67135</ele>
        <time>2020-07-15T13:36:21.308Z</time>
      </trkpt>
      <trkpt lat="66.06509" lon="12.93607">
        <ele>14.071512</ele>
        <time>2020-07-15T13:36:26.223Z</time>
      </trkpt>
      <trkpt lat="66.06474" lon="12.93768">
        <ele>11.906507</ele>
        <time>2020-07-15T13:36:36.396Z</time>
      </trkpt>
      <trkpt lat="66.06466" lon="12.93809">
        <ele>11.369548</ele>
        <time>2020-07-15T13:36:38.902Z</time>
      </trkpt>
      <trkpt lat="66.06455" lon="12.93857">
        <ele>10.708585</ele>
        <time>2020-07-15T13:36:42.126Z</time>
      </trkpt>
      <trkpt lat="66.06443" lon="12.93917">
        <ele>9.906961</ele>
        <time>2020-07-15T13:36:46.011Z</time>
      </trkpt>
      <trkpt lat="66.06433" lon="12.93972">
        <ele>9.197613</ele>
        <time>2020-07-15T13:36:49.445Z</time>
      </trkpt>
      <trkpt lat="66.06417" lon="12.94091">
        <ele>8.322667</ele>
        <time>2020-07-15T13:36:56.913Z</time>
      </trkpt>
      <trkpt lat="66.06413" lon="12.94135">
        <ele>8.049277</ele>
        <time>2020-07-15T13:36:59.564Z</time>
      </trkpt>
      <trkpt lat="66.06402" lon="12.9425">
        <ele>7.345311</ele>
        <time>2020-07-15T13:37:06.860Z</time>
      </trkpt>
      <trkpt lat="66.06399" lon="12.94286">
        <ele>7.123458</ele>
        <time>2020-07-15T13:37:09.191Z</time>
      </trkpt>
      <trkpt lat="66.06398" lon="12.94309">
        <ele>6.98403</ele>
        <time>2020-07-15T13:37:10.604Z</time>
      </trkpt>
      <trkpt lat="66.06402" lon="12.94307">
        <ele>6.929418</ele>
        <time>2020-07-15T13:37:11.281Z</time>
      </trkpt>
      <trkpt lat="66.06405" lon="12.94307">
        <ele>6.880523</ele>
        <time>2020-07-15T13:37:11.924Z</time>
      </trkpt>
      <trkpt lat="66.06404" lon="12.94329">
        <ele>6.746225</ele>
        <time>2020-07-15T13:37:13.420Z</time>
      </trkpt>
      <trkpt lat="66.06401" lon="12.94371">
        <ele>6.493746</ele>
        <time>2020-07-15T13:37:16.066Z</time>
      </trkpt>
      <trkpt lat="66.06401" lon="12.94421">
        <ele>6.308347</ele>
        <time>2020-07-15T13:37:19.562Z</time>
      </trkpt>
      <trkpt lat="66.06402" lon="12.94448">
        <ele>6.352148</ele>
        <time>2020-07-15T13:37:21.338Z</time>
      </trkpt>
      <trkpt lat="66.06402" lon="12.94466">
        <ele>6.381599</ele>
        <time>2020-07-15T13:37:22.483Z</time>
      </trkpt>
      <trkpt lat="66.06403" lon="12.94493">
        <ele>6.425804</ele>
        <time>2020-07-15T13:37:24.692Z</time>
      </trkpt>
      <trkpt lat="66.06404" lon="12.94504">
        <ele>6.442867</ele>
        <time>2020-07-15T13:37:25.420Z</time>
      </trkpt>
      <trkpt lat="66.06407" lon="12.94542">
        <ele>6.505879</ele>
        <time>2020-07-15T13:37:28.274Z</time>
      </trkpt>
      <trkpt lat="66.06407" lon="12.94552">
        <ele>6.520571</ele>
        <time>2020-07-15T13:37:28.873Z</time>
      </trkpt>
      <trkpt lat="66.0641" lon="12.94583">
        <ele>6.573078</ele>
        <time>2020-07-15T13:37:31.607Z</time>
      </trkpt>
      <trkpt lat="66.06427" lon="12.9468">
        <ele>6.743099</ele>
        <time>2020-07-15T13:37:40.053Z</time>
      </trkpt>
      <trkpt lat="66.06454" lon="12.94789">
        <ele>6.948605</ele>
        <time>2020-07-15T13:37:50.762Z</time>
      </trkpt>
      <trkpt lat="66.06517" lon="12.9503">
        <ele>7.782017</ele>
        <time>2020-07-15T13:38:15.484Z</time>
      </trkpt>
      <trkpt lat="66.06519" lon="12.95036">
        <ele>7.802152</ele>
        <time>2020-07-15T13:38:16.055Z</time>
      </trkpt>
      <trkpt lat="66.06593" lon="12.95317">
        <ele>8.445567</ele>
        <time>2020-07-15T13:38:41.904Z</time>
      </trkpt>
      <trkpt lat="66.06624" lon="12.95438">
        <ele>8.529497</ele>
        <time>2020-07-15T13:38:52.070Z</time>
      </trkpt>
      <trkpt lat="66.06627" lon="12.95449">
        <ele>8.537298</ele>
        <time>2020-07-15T13:38:53.018Z</time>
      </trkpt>
      <trkpt lat="66.06682" lon="12.95684">
        <ele>8.798054</ele>
        <time>2020-07-15T13:39:13.311Z</time>
      </trkpt>
      <trkpt lat="66.06707" lon="12.95802">
        <ele>8.975367</ele>
        <time>2020-07-15T13:39:23.512Z</time>
      </trkpt>
      <trkpt lat="66.06709" lon="12.95813">
        <ele>8.990959</ele>
        <time>2020-07-15T13:39:24.432Z</time>
      </trkpt>
      <trkpt lat="66.06715" lon="12.95841">
        <ele>9.031748</ele>
        <time>2020-07-15T13:39:26.832Z</time>
      </trkpt>
      <trkpt lat="66.06732" lon="12.95939">
        <ele>9.173394</ele>
        <time>2020-07-15T13:39:35.130Z</time>
      </trkpt>
      <trkpt lat="66.06773" lon="12.9619">
        <ele>10.352285</ele>
        <time>2020-07-15T13:39:56.815Z</time>
      </trkpt>
      <trkpt lat="66.0679" lon="12.96299">
        <ele>10.894328</ele>
        <time>2020-07-15T13:40:07.077Z</time>
      </trkpt>
      <trkpt lat="66.06829" lon="12.96549">
        <ele>13.297075</ele>
        <time>2020-07-15T13:40:35.366Z</time>
      </trkpt>
      <trkpt lat="66.06861" lon="12.96749">
        <ele>15.590391</ele>
        <time>2020-07-15T13:40:59.092Z</time>
      </trkpt>
      <trkpt lat="66.06877" lon="12.96855">
        <ele>16.517004</ele>
        <time>2020-07-15T13:41:11.260Z</time>
      </trkpt>
      <trkpt lat="66.06895" lon="12.96998">
        <ele>17.56193</ele>
        <time>2020-07-15T13:41:26.848Z</time>
      </trkpt>
      <trkpt lat="66.06902" lon="12.97073">
        <ele>18.104289</ele>
        <time>2020-07-15T13:41:34.026Z</time>
      </trkpt>
      <trkpt lat="66.06944" lon="12.97626">
        <ele>19.618492</ele>
        <time>2020-07-15T13:42:17.746Z</time>
      </trkpt>
      <trkpt lat="66.06951" lon="12.97751">
        <ele>18.888579</ele>
        <time>2020-07-15T13:42:26.663Z</time>
      </trkpt>
      <trkpt lat="66.06953" lon="12.97841">
        <ele>18.24046</ele>
        <time>2020-07-15T13:42:32.613Z</time>
      </trkpt>
      <trkpt lat="66.06955" lon="12.9811">
        <ele>16.0353</ele>
        <time>2020-07-15T13:42:47.426Z</time>
      </trkpt>
      <trkpt lat="66.06957" lon="12.98245">
        <ele>13.377818</ele>
        <time>2020-07-15T13:42:54.136Z</time>
      </trkpt>
      <trkpt lat="66.06959" lon="12.98312">
        <ele>12.057898</ele>
        <time>2020-07-15T13:42:57.370Z</time>
      </trkpt>
      <trkpt lat="66.06965" lon="12.98438">
        <ele>9.567352</ele>
        <time>2020-07-15T13:43:03.533Z</time>
      </trkpt>
      <trkpt lat="66.06971" lon="12.98526">
        <ele>7.81095</ele>
        <time>2020-07-15T13:43:07.848Z</time>
      </trkpt>
      <trkpt lat="66.06982" lon="12.98633">
        <ele>6.213358</ele>
        <time>2020-07-15T13:43:13.177Z</time>
      </trkpt>
      <trkpt lat="66.06995" lon="12.98738">
        <ele>4.636426</ele>
        <time>2020-07-15T13:43:18.766Z</time>
      </trkpt>
      <trkpt lat="66.07005" lon="12.98809">
        <ele>3.561946</ele>
        <time>2020-07-15T13:43:22.730Z</time>
      </trkpt>
      <trkpt lat="66.07027" lon="12.98937">
        <ele>1.576231</ele>
        <time>2020-07-15T13:43:30.654Z</time>
      </trkpt>
      <trkpt lat="66.07036" lon="12.9898">
        <ele>1.310103</ele>
        <time>2020-07-15T13:43:33.519Z</time>
      </trkpt>
      <trkpt lat="66.07047" lon="12.9903">
        <ele>1.192472</ele>
        <time>2020-07-15T13:43:37.247Z</time>
      </trkpt>
      <trkpt lat="66.07066" lon="12.99126">
        <ele>0.977115</ele>
        <time>2020-07-15T13:43:44.186Z</time>
      </trkpt>
      <trkpt lat="66.0712" lon="12.99493">
        <ele>0.747474</ele>
        <time>2020-07-15T13:44:12.592Z</time>
      </trkpt>
      <trkpt lat="66.07233" lon="12.99935">
        <ele>2.054353</ele>
        <time>2020-07-15T13:44:55.036Z</time>
      </trkpt>
      <trkpt lat="66.07244" lon="12.99987">
        <ele>2.254499</ele>
        <time>2020-07-15T13:45:00.277Z</time>
      </trkpt>
      <trkpt lat="66.07249" lon="13.00011">
        <ele>2.344696</ele>
        <time>2020-07-15T13:45:02.718Z</time>
      </trkpt>
      <trkpt lat="66.07255" lon="13.00045">
        <ele>2.467459</ele>
        <time>2020-07-15T13:45:05.221Z</time>
      </trkpt>
      <trkpt lat="66.07255" lon="13.00046">
        <ele>2.4734</ele>
        <time>2020-07-15T13:45:05.852Z</time>
      </trkpt>
      <trkpt lat="66.07289" lon="13.0027">
        <ele>3.071254</ele>
        <time>2020-07-15T13:45:25.678Z</time>
      </trkpt>
      <trkpt lat="66.07296" lon="13.00316">
        <ele>3.165671</ele>
        <time>2020-07-15T13:45:29.782Z</time>
      </trkpt>
      <trkpt lat="66.07313" lon="13.00411">
        <ele>3.364314</ele>
        <time>2020-07-15T13:45:37.964Z</time>
      </trkpt>
      <trkpt lat="66.07327" lon="13.00489">
        <ele>3.530102</ele>
        <time>2020-07-15T13:45:44.540Z</time>
      </trkpt>
      <trkpt lat="66.07337" lon="13.0054">
        <ele>3.637613</ele>
        <time>2020-07-15T13:45:48.513Z</time>
      </trkpt>
      <trkpt lat="66.07361" lon="13.00667">
        <ele>3.569918</ele>
        <time>2020-07-15T13:45:58.082Z</time>
      </trkpt>
      <trkpt lat="66.07431" lon="13.01034">
        <ele>4.126809</ele>
        <time>2020-07-15T13:46:26.546Z</time>
      </trkpt>
      <trkpt lat="66.07449" lon="13.0116">
        <ele>5.136053</ele>
        <time>2020-07-15T13:46:38.768Z</time>
      </trkpt>
      <trkpt lat="66.07455" lon="13.01211">
        <ele>5.532607</ele>
        <time>2020-07-15T13:46:43.860Z</time>
      </trkpt>
      <trkpt lat="66.07461" lon="13.01288">
        <ele>6.124619</ele>
        <time>2020-07-15T13:46:52.370Z</time>
      </trkpt>
      <trkpt lat="66.07472" lon="13.0139">
        <ele>7.239176</ele>
        <time>2020-07-15T13:47:04.819Z</time>
      </trkpt>
      <trkpt lat="66.07489" lon="13.01466">
        <ele>9.001475</ele>
        <time>2020-07-15T13:47:15.891Z</time>
      </trkpt>
      <trkpt lat="66.07573" lon="13.01704">
        <ele>15.444689</ele>
        <time>2020-07-15T13:48:01.624Z</time>
      </trkpt>
      <trkpt lat="66.07596" lon="13.01787">
        <ele>17.533556</ele>
        <time>2020-07-15T13:48:15.764Z</time>
      </trkpt>
      <trkpt lat="66.07601" lon="13.01812">
        <ele>18.138109</ele>
        <time>2020-07-15T13:48:20.760Z</time>
      </trkpt>
      <trkpt lat="66.07625" lon="13.01939">
        <ele>21.106569</ele>
        <time>2020-07-15T13:48:39.229Z</time>
      </trkpt>
      <trkpt lat="66.07639" lon="13.02006">
        <ele>22.73199</ele>
        <time>2020-07-15T13:48:49.657Z</time>
      </trkpt>
      <trkpt lat="66.07649" lon="13.02045">
        <ele>23.702266</ele>
        <time>2020-07-15T13:48:56.734Z</time>
      </trkpt>
      <trkpt lat="66.07725" lon="13.02318">
        <ele>30.275408</ele>
        <time>2020-07-15T13:49:42.246Z</time>
      </trkpt>
      <trkpt lat="66.07771" lon="13.02481">
        <ele>34.020422</ele>
        <time>2020-07-15T13:50:08.988Z</time>
      </trkpt>
      <trkpt lat="66.07773" lon="13.02489">
        <ele>34.140102</ele>
        <time>2020-07-15T13:50:10.376Z</time>
      </trkpt>
      <trkpt lat="66.07847" lon="13.02753">
        <ele>37.815717</ele>
        <time>2020-07-15T13:50:46.841Z</time>
      </trkpt>
      <trkpt lat="66.07901" lon="13.02952">
        <ele>39.259572</ele>
        <time>2020-07-15T13:51:06.918Z</time>
      </trkpt>
      <trkpt lat="66.07927" lon="13.0308">
        <ele>39.57663</ele>
        <time>2020-07-15T13:51:18.020Z</time>
      </trkpt>
      <trkpt lat="66.07936" lon="13.03143">
        <ele>39.725296</ele>
        <time>2020-07-15T13:51:23.072Z</time>
      </trkpt>
      <trkpt lat="66.07959" lon="13.03316">
        <ele>39.961701</ele>
        <time>2020-07-15T13:51:36.440Z</time>
      </trkpt>
      <trkpt lat="66.08008" lon="13.03691">
        <ele>40.111276</ele>
        <time>2020-07-15T13:52:05.318Z</time>
      </trkpt>
      <trkpt lat="66.08015" lon="13.03742">
        <ele>40.127452</ele>
        <time>2020-07-15T13:52:09.404Z</time>
      </trkpt>
      <trkpt lat="66.08033" lon="13.03832">
        <ele>40.157357</ele>
        <time>2020-07-15T13:52:16.962Z</time>
      </trkpt>
      <trkpt lat="66.08045" lon="13.03869">
        <ele>40.171215</ele>
        <time>2020-07-15T13:52:20.466Z</time>
      </trkpt>
      <trkpt lat="66.08054" lon="13.0389">
        <ele>40.180099</ele>
        <time>2020-07-15T13:52:22.819Z</time>
      </trkpt>
      <trkpt lat="66.08131" lon="13.04024">
        <ele>40.148849</ele>
        <time>2020-07-15T13:52:39.680Z</time>
      </trkpt>
      <trkpt lat="66.08189" lon="13.04115">
        <ele>39.923045</ele>
        <time>2020-07-15T13:52:50.989Z</time>
      </trkpt>
      <trkpt lat="66.08298" lon="13.04286">
        <ele>39.852347</ele>
        <time>2020-07-15T13:53:12.492Z</time>
      </trkpt>
      <trkpt lat="66.08573" lon="13.04725">
        <ele>41.992684</ele>
        <time>2020-07-15T13:54:19.615Z</time>
      </trkpt>
      <trkpt lat="66.08617" lon="13.04795">
        <ele>42.139108</ele>
        <time>2020-07-15T13:54:29.816Z</time>
      </trkpt>
      <trkpt lat="66.08645" lon="13.04839">
        <ele>42.231636</ele>
        <time>2020-07-15T13:54:35.969Z</time>
      </trkpt>
      <trkpt lat="66.08689" lon="13.04911">
        <ele>42.380265</ele>
        <time>2020-07-15T13:54:45.455Z</time>
      </trkpt>
      <trkpt lat="66.0872" lon="13.0496">
        <ele>42.482806</ele>
        <time>2020-07-15T13:54:51.944Z</time>
      </trkpt>
      <trkpt lat="66.08794" lon="13.05078">
        <ele>42.741117</ele>
        <time>2020-07-15T13:55:07.754Z</time>
      </trkpt>
      <trkpt lat="66.08893" lon="13.05234">
        <ele>43.296633</ele>
        <time>2020-07-15T13:55:30.839Z</time>
      </trkpt>
      <trkpt lat="66.09109" lon="13.05578">
        <ele>45.817715</ele>
        <time>2020-07-15T13:56:25.577Z</time>
      </trkpt>
      <trkpt lat="66.09157" lon="13.05647">
        <ele>46.383605</ele>
        <time>2020-07-15T13:56:37.166Z</time>
      </trkpt>
      <trkpt lat="66.09219" lon="13.05707">
        <ele>47.015345</ele>
        <time>2020-07-15T13:56:50.834Z</time>
      </trkpt>
      <trkpt lat="66.0992" lon="13.06182">
        <ele>54.034925</ele>
        <time>2020-07-15T13:59:22.449Z</time>
      </trkpt>
      <trkpt lat="66.09991" lon="13.06241">
        <ele>55.018131</ele>
        <time>2020-07-15T13:59:39.994Z</time>
      </trkpt>
      <trkpt lat="66.10064" lon="13.06327">
        <ele>55.796574</ele>
        <time>2020-07-15T13:59:57.967Z</time>
      </trkpt>
      <trkpt lat="66.1022" lon="13.06551">
        <ele>56.515103</ele>
        <time>2020-07-15T14:00:31.641Z</time>
      </trkpt>
      <trkpt lat="66.10496" lon="13.06948">
        <ele>55.808265</ele>
        <time>2020-07-15T14:01:26.424Z</time>
      </trkpt>
      <trkpt lat="66.10533" lon="13.07">
        <ele>55.56502</ele>
        <time>2020-07-15T14:01:33.460Z</time>
      </trkpt>
      <trkpt lat="66.10567" lon="13.07044">
        <ele>55.34076</ele>
        <time>2020-07-15T14:01:39.307Z</time>
      </trkpt>
      <trkpt lat="66.10652" lon="13.07142">
        <ele>54.782023</ele>
        <time>2020-07-15T14:01:54.648Z</time>
      </trkpt>
      <trkpt lat="66.10693" lon="13.07188">
        <ele>54.778326</ele>
        <time>2020-07-15T14:02:01.868Z</time>
      </trkpt>
      <trkpt lat="66.10709" lon="13.07201">
        <ele>54.80378</ele>
        <time>2020-07-15T14:02:04.821Z</time>
      </trkpt>
      <trkpt lat="66.10744" lon="13.07222">
        <ele>54.860637</ele>
        <time>2020-07-15T14:02:11.392Z</time>
      </trkpt>
      <trkpt lat="66.10881" lon="13.07252">
        <ele>55.324697</ele>
        <time>2020-07-15T14:02:38.633Z</time>
      </trkpt>
      <trkpt lat="66.10935" lon="13.07278">
        <ele>55.706334</ele>
        <time>2020-07-15T14:02:49.724Z</time>
      </trkpt>
      <trkpt lat="66.10972" lon="13.07315">
        <ele>55.986328</ele>
        <time>2020-07-15T14:02:57.724Z</time>
      </trkpt>
      <trkpt lat="66.11101" lon="13.0749">
        <ele>57.105086</ele>
        <time>2020-07-15T14:03:27.178Z</time>
      </trkpt>
      <trkpt lat="66.11195" lon="13.07574">
        <ele>58.19221</ele>
        <time>2020-07-15T14:03:48.003Z</time>
      </trkpt>
      <trkpt lat="66.11277" lon="13.0764">
        <ele>59.805455</ele>
        <time>2020-07-15T14:04:06.253Z</time>
      </trkpt>
      <trkpt lat="66.11313" lon="13.07667">
        <ele>60.507494</ele>
        <time>2020-07-15T14:04:16.434Z</time>
      </trkpt>
      <trkpt lat="66.11343" lon="13.07677">
        <ele>61.133834</ele>
        <time>2020-07-15T14:04:25.441Z</time>
      </trkpt>
      <trkpt lat="66.1137" lon="13.07667">
        <ele>62.224858</ele>
        <time>2020-07-15T14:04:33.846Z</time>
      </trkpt>
      <trkpt lat="66.11395" lon="13.07631">
        <ele>63.412454</ele>
        <time>2020-07-15T14:04:41.887Z</time>
      </trkpt>
      <trkpt lat="66.11411" lon="13.07577">
        <ele>64.503468</ele>
        <time>2020-07-15T14:04:49.939Z</time>
      </trkpt>
      <trkpt lat="66.11413" lon="13.07561">
        <ele>64.789067</ele>
        <time>2020-07-15T14:04:52.166Z</time>
      </trkpt>
      <trkpt lat="66.11416" lon="13.07542">
        <ele>65.129865</ele>
        <time>2020-07-15T14:04:55.936Z</time>
      </trkpt>
      <trkpt lat="66.11422" lon="13.07447">
        <ele>66.707487</ele>
        <time>2020-07-15T14:05:08.859Z</time>
      </trkpt>
      <trkpt lat="66.11425" lon="13.07251">
        <ele>69.56535</ele>
        <time>2020-07-15T14:05:32.710Z</time>
      </trkpt>
      <trkpt lat="66.11436" lon="13.07147">
        <ele>70.930534</ele>
        <time>2020-07-15T14:05:45.734Z</time>
      </trkpt>
      <trkpt lat="66.11444" lon="13.07107">
        <ele>71.497949</ele>
        <time>2020-07-15T14:05:51.027Z</time>
      </trkpt>
      <trkpt lat="66.11451" lon="13.07077">
        <ele>71.937612</ele>
        <time>2020-07-15T14:05:53.857Z</time>
      </trkpt>
      <trkpt lat="66.11491" lon="13.0697">
        <ele>73.792728</ele>
        <time>2020-07-15T14:06:08.749Z</time>
      </trkpt>
      <trkpt lat="66.11758" lon="13.06481">
        <ele>84.57733</ele>
        <time>2020-07-15T14:07:38.336Z</time>
      </trkpt>
      <trkpt lat="66.11804" lon="13.06419">
        <ele>87.022746</ele>
        <time>2020-07-15T14:07:59.402Z</time>
      </trkpt>
      <trkpt lat="66.11851" lon="13.0638">
        <ele>90.052945</ele>
        <time>2020-07-15T14:08:19.948Z</time>
      </trkpt>
      <trkpt lat="66.11921" lon="13.0636">
        <ele>94.34227</ele>
        <time>2020-07-15T14:08:48.915Z</time>
      </trkpt>
      <trkpt lat="66.12022" lon="13.06393">
        <ele>97.550402</ele>
        <time>2020-07-15T14:09:19.626Z</time>
      </trkpt>
      <trkpt lat="66.12149" lon="13.06513">
        <ele>98.831001</ele>
        <time>2020-07-15T14:09:42.688Z</time>
      </trkpt>
      <trkpt lat="66.12186" lon="13.06535">
        <ele>98.531668</ele>
        <time>2020-07-15T14:09:48.247Z</time>
      </trkpt>
      <trkpt lat="66.12483" lon="13.06606">
        <ele>96.246164</ele>
        <time>2020-07-15T14:10:36.391Z</time>
      </trkpt>
      <trkpt lat="66.12546" lon="13.06601">
        <ele>95.055522</ele>
        <time>2020-07-15T14:10:45.831Z</time>
      </trkpt>
      <trkpt lat="66.12916" lon="13.065">
        <ele>86.70677</ele>
        <time>2020-07-15T14:11:36.508Z</time>
      </trkpt>
      <trkpt lat="66.12957" lon="13.06509">
        <ele>85.956779</ele>
        <time>2020-07-15T14:11:42.250Z</time>
      </trkpt>
      <trkpt lat="66.13308" lon="13.06656">
        <ele>82.366761</ele>
        <time>2020-07-15T14:12:37.984Z</time>
      </trkpt>
      <trkpt lat="66.13515" lon="13.06644">
        <ele>81.219029</ele>
        <time>2020-07-15T14:13:13.083Z</time>
      </trkpt>
      <trkpt lat="66.13557" lon="13.0665">
        <ele>81.009241</ele>
        <time>2020-07-15T14:13:19.575Z</time>
      </trkpt>
      <trkpt lat="66.13589" lon="13.06679">
        <ele>81.008835</ele>
        <time>2020-07-15T14:13:24.893Z</time>
      </trkpt>
      <trkpt lat="66.13623" lon="13.06737">
        <ele>81.03651</ele>
        <time>2020-07-15T14:13:31.186Z</time>
      </trkpt>
      <trkpt lat="66.13745" lon="13.0707">
        <ele>82.29451</ele>
        <time>2020-07-15T14:14:08.321Z</time>
      </trkpt>
      <trkpt lat="66.13776" lon="13.07212">
        <ele>83.346027</ele>
        <time>2020-07-15T14:14:26.558Z</time>
      </trkpt>
      <trkpt lat="66.13778" lon="13.07228">
        <ele>83.456886</ele>
        <time>2020-07-15T14:14:28.965Z</time>
      </trkpt>
      <trkpt lat="66.1378" lon="13.07246">
        <ele>83.574292</ele>
        <time>2020-07-15T14:14:32.314Z</time>
      </trkpt>
      <trkpt lat="66.13828" lon="13.07888">
        <ele>75.484439</ele>
        <time>2020-07-15T14:15:15.202Z</time>
      </trkpt>
      <trkpt lat="66.1384" lon="13.07944">
        <ele>72.148846</ele>
        <time>2020-07-15T14:15:17.853Z</time>
      </trkpt>
      <trkpt lat="66.13855" lon="13.07988">
        <ele>69.061661</ele>
        <time>2020-07-15T14:15:20.287Z</time>
      </trkpt>
      <trkpt lat="66.13876" lon="13.08025">
        <ele>65.683394</ele>
        <time>2020-07-15T14:15:22.939Z</time>
      </trkpt>
      <trkpt lat="66.13906" lon="13.08052">
        <ele>61.580307</ele>
        <time>2020-07-15T14:15:26.127Z</time>
      </trkpt>
      <trkpt lat="66.13956" lon="13.08082">
        <ele>51.692617</ele>
        <time>2020-07-15T14:15:31.376Z</time>
      </trkpt>
      <trkpt lat="66.13963" lon="13.08086">
        <ele>50.112058</ele>
        <time>2020-07-15T14:15:32.108Z</time>
      </trkpt>
      <trkpt lat="66.1406" lon="13.08144">
        <ele>28.487642</ele>
        <time>2020-07-15T14:15:42.196Z</time>
      </trkpt>
      <trkpt lat="66.14119" lon="13.08184">
        <ele>18.12523</ele>
        <time>2020-07-15T14:15:48.502Z</time>
      </trkpt>
      <trkpt lat="66.1415" lon="13.08218">
        <ele>14.991489</ele>
        <time>2020-07-15T14:15:52.088Z</time>
      </trkpt>
      <trkpt lat="66.1416" lon="13.08232">
        <ele>13.894882</ele>
        <time>2020-07-15T14:15:53.316Z</time>
      </trkpt>
      <trkpt lat="66.14178" lon="13.08265">
        <ele>11.797606</ele>
        <time>2020-07-15T14:15:55.868Z</time>
      </trkpt>
      <trkpt lat="66.14263" lon="13.08475">
        <ele>3.116163</ele>
        <time>2020-07-15T14:16:10.354Z</time>
      </trkpt>
      <trkpt lat="66.14395" lon="13.08849">
        <ele>1.234179</ele>
        <time>2020-07-15T14:16:45.151Z</time>
      </trkpt>
      <trkpt lat="66.14437" lon="13.08935">
        <ele>1.350819</ele>
        <time>2020-07-15T14:16:55.140Z</time>
      </trkpt>
      <trkpt lat="66.14493" lon="13.09003">
        <ele>1.48495</ele>
        <time>2020-07-15T14:17:06.792Z</time>
      </trkpt>
      <trkpt lat="66.14693" lon="13.09172">
        <ele>4.30075</ele>
        <time>2020-07-15T14:17:50.987Z</time>
      </trkpt>
      <trkpt lat="66.14733" lon="13.09196">
        <ele>6.081495</ele>
        <time>2020-07-15T14:18:01.878Z</time>
      </trkpt>
      <trkpt lat="66.14883" lon="13.09247">
        <ele>14.082223</ele>
        <time>2020-07-15T14:18:55.587Z</time>
      </trkpt>
      <trkpt lat="66.14935" lon="13.09289">
        <ele>18.714423</ele>
        <time>2020-07-15T14:19:20.805Z</time>
      </trkpt>
      <trkpt lat="66.14999" lon="13.09365">
        <ele>24.785505</ele>
        <time>2020-07-15T14:19:55.676Z</time>
      </trkpt>
      <trkpt lat="66.15042" lon="13.09437">
        <ele>29.277068</ele>
        <time>2020-07-15T14:20:22.724Z</time>
      </trkpt>
      <trkpt lat="66.15245" lon="13.09856">
        <ele>46.625308</ele>
        <time>2020-07-15T14:22:19.179Z</time>
      </trkpt>
      <trkpt lat="66.15362" lon="13.10139">
        <ele>42.170187</ele>
        <time>2020-07-15T14:22:40.152Z</time>
      </trkpt>
      <trkpt lat="66.15383" lon="13.10189">
        <ele>40.147856</ele>
        <time>2020-07-15T14:22:43.429Z</time>
      </trkpt>
      <trkpt lat="66.15391" lon="13.10208">
        <ele>39.407127</ele>
        <time>2020-07-15T14:22:44.544Z</time>
      </trkpt>
      <trkpt lat="66.15395" lon="13.10196">
        <ele>38.97595</ele>
        <time>2020-07-15T14:22:45.206Z</time>
      </trkpt>
      <trkpt lat="66.15402" lon="13.10156">
        <ele>37.743049</ele>
        <time>2020-07-15T14:22:47.315Z</time>
      </trkpt>
      <trkpt lat="66.15403" lon="13.10144">
        <ele>37.390765</ele>
        <time>2020-07-15T14:22:47.847Z</time>
      </trkpt>
      <trkpt lat="66.15405" lon="13.10133">
        <ele>37.080738</ele>
        <time>2020-07-15T14:22:48.309Z</time>
      </trkpt>
      <trkpt lat="66.15431" lon="13.09806">
        <ele>21.792965</ele>
        <time>2020-07-15T14:23:02.642Z</time>
      </trkpt>
      <trkpt lat="66.15434" lon="13.09758">
        <ele>19.520681</ele>
        <time>2020-07-15T14:23:04.683Z</time>
      </trkpt>
      <trkpt lat="66.15444" lon="13.09629">
        <ele>14.533373</ele>
        <time>2020-07-15T14:23:10.742Z</time>
      </trkpt>
      <trkpt lat="66.15458" lon="13.09445">
        <ele>9.788996</ele>
        <time>2020-07-15T14:23:19.422Z</time>
      </trkpt>
      <trkpt lat="66.15462" lon="13.09399">
        <ele>8.595326</ele>
        <time>2020-07-15T14:23:21.577Z</time>
      </trkpt>
      <trkpt lat="66.15474" lon="13.09241">
        <ele>4.588739</ele>
        <time>2020-07-15T14:23:29.857Z</time>
      </trkpt>
      <trkpt lat="66.15482" lon="13.09102">
        <ele>3.447748</ele>
        <time>2020-07-15T14:23:37.536Z</time>
      </trkpt>
      <trkpt lat="66.15482" lon="13.09068">
        <ele>3.172099</ele>
        <time>2020-07-15T14:23:39.292Z</time>
      </trkpt>
      <trkpt lat="66.15482" lon="13.0906">
        <ele>3.101982</ele>
        <time>2020-07-15T14:23:39.759Z</time>
      </trkpt>
      <trkpt lat="66.15481" lon="13.08983">
        <ele>2.478256</ele>
        <time>2020-07-15T14:23:44.188Z</time>
      </trkpt>
      <trkpt lat="66.15477" lon="13.08886">
        <ele>1.678586</ele>
        <time>2020-07-15T14:23:50.167Z</time>
      </trkpt>
      <trkpt lat="66.15464" lon="13.0877">
        <ele>0.946383</ele>
        <time>2020-07-15T14:23:57.855Z</time>
      </trkpt>
      <trkpt lat="66.1539" lon="13.08328">
        <ele>0.287112</ele>
        <time>2020-07-15T14:24:30.894Z</time>
      </trkpt>
      <trkpt lat="66.15374" lon="13.08236">
        <ele>0.239461</ele>
        <time>2020-07-15T14:24:37.958Z</time>
      </trkpt>
      <trkpt lat="66.15365" lon="13.08191">
        <ele>0.215006</ele>
        <time>2020-07-15T14:24:41.581Z</time>
      </trkpt>
      <trkpt lat="66.15337" lon="13.08057">
        <ele>0.142732</ele>
        <time>2020-07-15T14:24:52.303Z</time>
      </trkpt>
      <trkpt lat="66.1533" lon="13.07944">
        <ele>0.098028</ele>
        <time>2020-07-15T14:25:00.418Z</time>
      </trkpt>
      <trkpt lat="66.15323" lon="13.07897">
        <ele>0.08588</ele>
        <time>2020-07-15T14:25:04.011Z</time>
      </trkpt>
      <trkpt lat="66.15313" lon="13.0786">
        <ele>0.075156</ele>
        <time>2020-07-15T14:25:07.186Z</time>
      </trkpt>
      <trkpt lat="66.153" lon="13.07768">
        <ele>0.051394</ele>
        <time>2020-07-15T14:25:12.714Z</time>
      </trkpt>
      <trkpt lat="66.15301" lon="13.07696">
        <ele>0.033877</ele>
        <time>2020-07-15T14:25:16.789Z</time>
      </trkpt>
      <trkpt lat="66.15322" lon="13.07629">
        <ele>0.013518</ele>
        <time>2020-07-15T14:25:21.522Z</time>
      </trkpt>
      <trkpt lat="66.15336" lon="13.07601">
        <ele>0.002509</ele>
        <time>2020-07-15T14:25:24.077Z</time>
      </trkpt>
      <trkpt lat="66.15359" lon="13.07582">
        <ele>0.000126</ele>
        <time>2020-07-15T14:25:27.396Z</time>
      </trkpt>
      <trkpt lat="66.15381" lon="13.07581">
        <ele>0.000109</ele>
        <time>2020-07-15T14:25:30.443Z</time>
      </trkpt>
      <trkpt lat="66.15688" lon="13.07788">
        <time>2020-07-15T14:26:14.870Z</time>
      </trkpt>
      <trkpt lat="66.15763" lon="13.07823">
        <time>2020-07-15T14:26:25.493Z</time>
      </trkpt>
      <trkpt lat="66.15823" lon="13.07819">
        <time>2020-07-15T14:26:33.858Z</time>
      </trkpt>
      <trkpt lat="66.15883" lon="13.07753">
        <time>2020-07-15T14:26:42.976Z</time>
      </trkpt>
      <trkpt lat="66.15954" lon="13.07565">
        <time>2020-07-15T14:26:57.524Z</time>
      </trkpt>
      <trkpt lat="66.16135" lon="13.06588">
        <time>2020-07-15T14:27:58.120Z</time>
      </trkpt>
      <trkpt lat="66.16271" lon="13.05905">
        <time>2020-07-15T14:28:41.017Z</time>
      </trkpt>
      <trkpt lat="66.16413" lon="13.05258">
        <time>2020-07-15T14:29:22.524Z</time>
      </trkpt>
      <trkpt lat="66.16637" lon="13.04185">
        <time>2020-07-15T14:30:30.653Z</time>
      </trkpt>
      <trkpt lat="66.168" lon="13.03354">
        <time>2020-07-15T14:31:22.675Z</time>
      </trkpt>
      <trkpt lat="66.17109" lon="13.01513">
        <time>2020-07-15T14:33:15.090Z</time>
      </trkpt>
      <trkpt lat="66.17279" lon="13.00644">
        <time>2020-07-15T14:34:09.506Z</time>
      </trkpt>
      <trkpt lat="66.17331" lon="13.00498">
        <time>2020-07-15T14:34:20.534Z</time>
      </trkpt>
      <trkpt lat="66.1739" lon="13.0042">
        <time>2020-07-15T14:34:29.858Z</time>
      </trkpt>
      <trkpt lat="66.17489" lon="13.00363">
        <time>2020-07-15T14:34:43.949Z</time>
      </trkpt>
      <trkpt lat="66.17668" lon="13.00295">
        <time>2020-07-15T14:35:09.175Z</time>
      </trkpt>
      <trkpt lat="66.17908" lon="13.0018">
        <time>2020-07-15T14:35:43.286Z</time>
      </trkpt>
      <trkpt lat="66.18362" lon="13.00026">
        <time>2020-07-15T14:36:47.221Z</time>
      </trkpt>
      <trkpt lat="66.1877" lon="12.99902">
        <time>2020-07-15T14:37:44.502Z</time>
      </trkpt>
      <trkpt lat="66.18978" lon="12.99903">
        <time>2020-07-15T14:38:13.435Z</time>
      </trkpt>
      <trkpt lat="66.19295" lon="13.00029">
        <time>2020-07-15T14:38:58.238Z</time>
      </trkpt>
      <trkpt lat="66.19705" lon="13.00254">
        <time>2020-07-15T14:39:56.754Z</time>
      </trkpt>
      <trkpt lat="66.19859" lon="13.0036">
        <time>2020-07-15T14:40:18.954Z</time>
      </trkpt>
      <trkpt lat="66.20004" lon="13.00489">
        <ele>0.034313</ele>
        <time>2020-07-15T14:40:40.502Z</time>
      </trkpt>
      <trkpt lat="66.20053" lon="13.00551">
        <ele>0.054509</ele>
        <time>2020-07-15T14:40:48.086Z</time>
      </trkpt>
      <trkpt lat="66.20084" lon="13.00612">
        <ele>0.080691</ele>
        <time>2020-07-15T14:40:53.645Z</time>
      </trkpt>
      <trkpt lat="66.20098" lon="13.00648">
        <ele>0.12154</ele>
        <time>2020-07-15T14:40:56.473Z</time>
      </trkpt>
      <trkpt lat="66.20112" lon="13.00723">
        <ele>0.189313</ele>
        <time>2020-07-15T14:41:01.154Z</time>
      </trkpt>
      <trkpt lat="66.20113" lon="13.00846">
        <ele>0.289989</ele>
        <time>2020-07-15T14:41:08.119Z</time>
      </trkpt>
      <trkpt lat="66.20108" lon="13.00923">
        <ele>0.353165</ele>
        <time>2020-07-15T14:41:12.484Z</time>
      </trkpt>
      <trkpt lat="66.20097" lon="13.01001">
        <ele>0.420817</ele>
        <time>2020-07-15T14:41:17.164Z</time>
      </trkpt>
      <trkpt lat="66.20072" lon="13.01131">
        <ele>0.50352</ele>
        <time>2020-07-15T14:41:25.274Z</time>
      </trkpt>
      <trkpt lat="66.2006" lon="13.01183">
        <ele>0.536142</ele>
        <time>2020-07-15T14:41:29.614Z</time>
      </trkpt>
      <trkpt lat="66.20058" lon="13.01196">
        <ele>0.544525</ele>
        <time>2020-07-15T14:41:30.750Z</time>
      </trkpt>
      <trkpt lat="66.20025" lon="13.01398">
        <ele>0.665118</ele>
        <time>2020-07-15T14:41:46.766Z</time>
      </trkpt>
      <trkpt lat="66.20009" lon="13.01414">
        <ele>0.663414</ele>
        <time>2020-07-15T14:41:49.800Z</time>
      </trkpt>
      <trkpt lat="66.19998" lon="13.01491">
        <ele>0.610061</ele>
        <time>2020-07-15T14:41:55.648Z</time>
      </trkpt>
      <trkpt lat="66.19995" lon="13.01572">
        <ele>0.557259</ele>
        <time>2020-07-15T14:42:01.337Z</time>
      </trkpt>
      <trkpt lat="66.20014" lon="13.01803">
        <ele>0.404206</ele>
        <time>2020-07-15T14:42:17.604Z</time>
      </trkpt>
      <trkpt lat="66.20015" lon="13.01821">
        <ele>0.39255</ele>
        <time>2020-07-15T14:42:18.787Z</time>
      </trkpt>
      <trkpt lat="66.20013" lon="13.01895">
        <ele>0.340613</ele>
        <time>2020-07-15T14:42:24.007Z</time>
      </trkpt>
      <trkpt lat="66.19997" lon="13.0198">
        <ele>0.274483</ele>
        <time>2020-07-15T14:42:30.530Z</time>
      </trkpt>
      <trkpt lat="66.19986" lon="13.02063">
        <ele>0.212555</ele>
        <time>2020-07-15T14:42:36.661Z</time>
      </trkpt>
      <trkpt lat="66.19996" lon="13.022">
        <ele>0.114691</ele>
        <time>2020-07-15T14:42:46.344Z</time>
      </trkpt>
      <trkpt lat="66.20008" lon="13.02334">
        <ele>0.060575</ele>
        <time>2020-07-15T14:42:56.055Z</time>
      </trkpt>
      <trkpt lat="66.20014" lon="13.02397">
        <ele>0.049771</ele>
        <time>2020-07-15T14:43:00.769Z</time>
      </trkpt>
      <trkpt lat="66.2002" lon="13.02462">
        <ele>0.03892</ele>
        <time>2020-07-15T14:43:05.504Z</time>
      </trkpt>
      <trkpt lat="66.20027" lon="13.02574">
        <ele>0.020186</ele>
        <time>2020-07-15T14:43:13.688Z</time>
      </trkpt>
      <trkpt lat="66.2003" lon="13.02829">
        <ele>0.000492</ele>
        <time>2020-07-15T14:43:32.078Z</time>
      </trkpt>
      <trkpt lat="66.2003" lon="13.02844">
        <ele>0.000548</ele>
        <time>2020-07-15T14:43:33.163Z</time>
      </trkpt>
      <trkpt lat="66.20032" lon="13.02974">
        <ele>0.001032</ele>
        <time>2020-07-15T14:43:42.560Z</time>
      </trkpt>
      <trkpt lat="66.20026" lon="13.02976">
        <ele>0.001087</ele>
        <time>2020-07-15T14:43:43.665Z</time>
      </trkpt>
      <trkpt lat="66.20027" lon="13.02989">
        <ele>0.001135</ele>
        <time>2020-07-15T14:43:44.642Z</time>
      </trkpt>
      <trkpt lat="66.20037" lon="13.03199">
        <ele>0.019363</ele>
        <time>2020-07-15T14:44:00.497Z</time>
      </trkpt>
      <trkpt lat="66.2005" lon="13.03294">
        <ele>0.04428</ele>
        <time>2020-07-15T14:44:08.092Z</time>
      </trkpt>
      <trkpt lat="66.20081" lon="13.03452">
        <ele>0.087839</ele>
        <time>2020-07-15T14:44:21.451Z</time>
      </trkpt>
      <trkpt lat="66.20085" lon="13.03444">
        <ele>0.090876</ele>
        <time>2020-07-15T14:44:22.382Z</time>
      </trkpt>
      <trkpt lat="66.20092" lon="13.03431">
        <ele>0.096585</ele>
        <time>2020-07-15T14:44:24.137Z</time>
      </trkpt>
      <trkpt lat="66.2013" lon="13.03517">
        <ele>0.153374</ele>
        <time>2020-07-15T14:44:33.474Z</time>
      </trkpt>
      <trkpt lat="66.20346" lon="13.03867">
        <ele>0.563194</ele>
        <time>2020-07-15T14:45:20.972Z</time>
      </trkpt>
      <trkpt lat="66.20351" lon="13.03875">
        <ele>0.572588</ele>
        <time>2020-07-15T14:45:22.094Z</time>
      </trkpt>
      <trkpt lat="66.20568" lon="13.04192">
        <ele>0.862744</ele>
        <time>2020-07-15T14:46:08.012Z</time>
      </trkpt>
      <trkpt lat="66.20604" lon="13.04261">
        <ele>0.835934</ele>
        <time>2020-07-15T14:46:16.056Z</time>
      </trkpt>
      <trkpt lat="66.20652" lon="13.04374">
        <ele>0.796947</ele>
        <time>2020-07-15T14:46:27.699Z</time>
      </trkpt>
      <trkpt lat="66.20658" lon="13.0439">
        <ele>0.791442</ele>
        <time>2020-07-15T14:46:29.301Z</time>
      </trkpt>
      <trkpt lat="66.20848" lon="13.04861">
        <ele>0.701757</ele>
        <time>2020-07-15T14:47:16.456Z</time>
      </trkpt>
      <trkpt lat="66.20895" lon="13.05025">
        <ele>0.851709</ele>
        <time>2020-07-15T14:47:31.522Z</time>
      </trkpt>
      <trkpt lat="66.20918" lon="13.05087">
        <ele>0.9143</ele>
        <time>2020-07-15T14:47:37.949Z</time>
      </trkpt>
      <trkpt lat="66.2097" lon="13.05161">
        <ele>1.083103</ele>
        <time>2020-07-15T14:47:49.403Z</time>
      </trkpt>
      <trkpt lat="66.21177" lon="13.05388">
        <ele>1.775574</ele>
        <time>2020-07-15T14:48:32.606Z</time>
      </trkpt>
      <trkpt lat="66.2141" lon="13.05692">
        <ele>1.778697</ele>
        <time>2020-07-15T14:49:18.773Z</time>
      </trkpt>
      <trkpt lat="66.21456" lon="13.05758">
        <ele>1.792274</ele>
        <time>2020-07-15T14:49:28.433Z</time>
      </trkpt>
      <trkpt lat="66.21488" lon="13.05832">
        <ele>1.832111</ele>
        <time>2020-07-15T14:49:36.377Z</time>
      </trkpt>
      <trkpt lat="66.21507" lon="13.05906">
        <ele>1.864767</ele>
        <time>2020-07-15T14:49:42.922Z</time>
      </trkpt>
      <trkpt lat="66.21547" lon="13.06116">
        <ele>1.883156</ele>
        <time>2020-07-15T14:49:59.896Z</time>
      </trkpt>
      <trkpt lat="66.21572" lon="13.062">
        <ele>1.799375</ele>
        <time>2020-07-15T14:50:07.150Z</time>
      </trkpt>
      <trkpt lat="66.21707" lon="13.06462">
        <ele>1.4951</ele>
        <time>2020-07-15T14:50:36.347Z</time>
      </trkpt>
      <trkpt lat="66.2174" lon="13.06571">
        <ele>1.423956</ele>
        <time>2020-07-15T14:50:45.798Z</time>
      </trkpt>
      <trkpt lat="66.21846" lon="13.0702">
        <ele>1.434452</ele>
        <time>2020-07-15T14:51:23.646Z</time>
      </trkpt>
      <trkpt lat="66.21861" lon="13.07116">
        <ele>1.470345</ele>
        <time>2020-07-15T14:51:31.250Z</time>
      </trkpt>
      <trkpt lat="66.21896" lon="13.07424">
        <ele>1.827704</ele>
        <time>2020-07-15T14:51:55.486Z</time>
      </trkpt>
      <trkpt lat="66.21917" lon="13.07529">
        <ele>1.958859</ele>
        <time>2020-07-15T14:52:04.427Z</time>
      </trkpt>
      <trkpt lat="66.21947" lon="13.07622">
        <ele>2.08086</ele>
        <time>2020-07-15T14:52:13.512Z</time>
      </trkpt>
      <trkpt lat="66.22152" lon="13.08144">
        <ele>2.811875</ele>
        <time>2020-07-15T14:53:07.954Z</time>
      </trkpt>
      <trkpt lat="66.22185" lon="13.08232">
        <ele>3.005757</ele>
        <time>2020-07-15T14:53:17.094Z</time>
      </trkpt>
      <trkpt lat="66.2219" lon="13.08247">
        <ele>3.045227</ele>
        <time>2020-07-15T14:53:18.617Z</time>
      </trkpt>
      <trkpt lat="66.2244" lon="13.08922">
        <ele>5.295769</ele>
        <time>2020-07-15T14:54:31.584Z</time>
      </trkpt>
      <trkpt lat="66.22498" lon="13.09081">
        <ele>6.116994</ele>
        <time>2020-07-15T14:54:49.892Z</time>
      </trkpt>
      <trkpt lat="66.2255" lon="13.09212">
        <ele>6.89612</ele>
        <time>2020-07-15T14:55:05.930Z</time>
      </trkpt>
      <trkpt lat="66.22618" lon="13.09352">
        <ele>7.951849</ele>
        <time>2020-07-15T14:55:24.940Z</time>
      </trkpt>
      <trkpt lat="66.22749" lon="13.09568">
        <ele>9.932751</ele>
        <time>2020-07-15T14:55:59.241Z</time>
      </trkpt>
      <trkpt lat="66.23069" lon="13.10077">
        <ele>14.442265</ele>
        <time>2020-07-15T14:57:23.476Z</time>
      </trkpt>
      <trkpt lat="66.23075" lon="13.10088">
        <ele>14.509471</ele>
        <time>2020-07-15T14:57:24.939Z</time>
      </trkpt>
      <trkpt lat="66.23081" lon="13.10097">
        <ele>14.571025</ele>
        <time>2020-07-15T14:57:26.275Z</time>
      </trkpt>
      <trkpt lat="66.23085" lon="13.10103">
        <ele>14.610729</ele>
        <time>2020-07-15T14:57:26.994Z</time>
      </trkpt>
      <trkpt lat="66.2315" lon="13.10216">
        <ele>15.10328</ele>
        <time>2020-07-15T14:57:41.246Z</time>
      </trkpt>
      <trkpt lat="66.23236" lon="13.10434">
        <ele>15.492963</ele>
        <time>2020-07-15T14:58:03.999Z</time>
      </trkpt>
      <trkpt lat="66.2328" lon="13.10514">
        <ele>15.893228</ele>
        <time>2020-07-15T14:58:15.107Z</time>
      </trkpt>
      <trkpt lat="66.2338" lon="13.10672">
        <ele>17.148196</ele>
        <time>2020-07-15T14:58:40.617Z</time>
      </trkpt>
      <trkpt lat="66.23457" lon="13.10763">
        <ele>18.344433</ele>
        <time>2020-07-15T14:58:59.420Z</time>
      </trkpt>
      <trkpt lat="66.2351" lon="13.10839">
        <ele>19.338425</ele>
        <time>2020-07-15T14:59:13.726Z</time>
      </trkpt>
      <trkpt lat="66.23548" lon="13.10947">
        <ele>20.270334</ele>
        <time>2020-07-15T14:59:27.663Z</time>
      </trkpt>
      <trkpt lat="66.23628" lon="13.11289">
        <ele>22.172946</ele>
        <time>2020-07-15T15:00:04.435Z</time>
      </trkpt>
      <trkpt lat="66.23854" lon="13.12006">
        <ele>18.958546</ele>
        <time>2020-07-15T15:01:02.326Z</time>
      </trkpt>
      <trkpt lat="66.23921" lon="13.1216">
        <ele>16.035425</ele>
        <time>2020-07-15T15:01:13.917Z</time>
      </trkpt>
      <trkpt lat="66.23964" lon="13.12225">
        <ele>14.178565</ele>
        <time>2020-07-15T15:01:20.275Z</time>
      </trkpt>
      <trkpt lat="66.24009" lon="13.12273">
        <ele>12.382244</ele>
        <time>2020-07-15T15:01:26.391Z</time>
      </trkpt>
      <trkpt lat="66.24055" lon="13.12334">
        <ele>11.018327</ele>
        <time>2020-07-15T15:01:33.075Z</time>
      </trkpt>
      <trkpt lat="66.24085" lon="13.12423">
        <ele>9.878682</ele>
        <time>2020-07-15T15:01:39.213Z</time>
      </trkpt>
      <trkpt lat="66.24166" lon="13.1282">
        <ele>7.275618</ele>
        <time>2020-07-15T15:02:06.145Z</time>
      </trkpt>
      <trkpt lat="66.24201" lon="13.13077">
        <ele>6.938596</ele>
        <time>2020-07-15T15:02:26.789Z</time>
      </trkpt>
      <trkpt lat="66.24227" lon="13.1326">
        <ele>7.296841</ele>
        <time>2020-07-15T15:02:42.100Z</time>
      </trkpt>
      <trkpt lat="66.24244" lon="13.13342">
        <ele>7.467003</ele>
        <time>2020-07-15T15:02:49.378Z</time>
      </trkpt>
      <trkpt lat="66.24271" lon="13.13424">
        <ele>7.663792</ele>
        <time>2020-07-15T15:02:57.686Z</time>
      </trkpt>
      <trkpt lat="66.2439" lon="13.13661">
        <ele>8.303184</ele>
        <time>2020-07-15T15:03:26.203Z</time>
      </trkpt>
      <trkpt lat="66.24446" lon="13.13805">
        <ele>8.852079</ele>
        <time>2020-07-15T15:03:42.497Z</time>
      </trkpt>
      <trkpt lat="66.24508" lon="13.13964">
        <ele>9.582321</ele>
        <time>2020-07-15T15:04:01.278Z</time>
      </trkpt>
      <trkpt lat="66.24659" lon="13.14278">
        <ele>11.005485</ele>
        <time>2020-07-15T15:04:41.327Z</time>
      </trkpt>
      <trkpt lat="66.24734" lon="13.14457">
        <ele>10.970437</ele>
        <time>2020-07-15T15:05:00.817Z</time>
      </trkpt>
      <trkpt lat="66.24809" lon="13.14691">
        <ele>10.48169</ele>
        <time>2020-07-15T15:05:20.388Z</time>
      </trkpt>
      <trkpt lat="66.24938" lon="13.15192">
        <ele>7.937596</ele>
        <time>2020-07-15T15:05:56.379Z</time>
      </trkpt>
      <trkpt lat="66.24948" lon="13.15231">
        <ele>7.776486</ele>
        <time>2020-07-15T15:05:59.263Z</time>
      </trkpt>
      <trkpt lat="66.2499" lon="13.15404">
        <ele>7.070633</ele>
        <time>2020-07-15T15:06:12.649Z</time>
      </trkpt>
      <trkpt lat="66.25023" lon="13.15498">
        <ele>6.934581</ele>
        <time>2020-07-15T15:06:21.376Z</time>
      </trkpt>
      <trkpt lat="66.25113" lon="13.15705">
        <ele>6.600181</ele>
        <time>2020-07-15T15:06:42.594Z</time>
      </trkpt>
      <trkpt lat="66.25234" lon="13.15942">
        <ele>5.709253</ele>
        <time>2020-07-15T15:07:07.632Z</time>
      </trkpt>
      <trkpt lat="66.25297" lon="13.16113">
        <ele>5.50186</ele>
        <time>2020-07-15T15:07:22.520Z</time>
      </trkpt>
      <trkpt lat="66.25303" lon="13.16129">
        <ele>5.498061</ele>
        <time>2020-07-15T15:07:23.913Z</time>
      </trkpt>
      <trkpt lat="66.25357" lon="13.16277">
        <ele>5.462618</ele>
        <time>2020-07-15T15:07:38.195Z</time>
      </trkpt>
      <trkpt lat="66.25535" lon="13.1677">
        <ele>7.999301</ele>
        <time>2020-07-15T15:08:35.772Z</time>
      </trkpt>
      <trkpt lat="66.25638" lon="13.17056">
        <ele>9.239161</ele>
        <time>2020-07-15T15:09:08.267Z</time>
      </trkpt>
      <trkpt lat="66.25712" lon="13.17259">
        <ele>9.353061</ele>
        <time>2020-07-15T15:09:28.601Z</time>
      </trkpt>
      <trkpt lat="66.25756" lon="13.1738">
        <ele>9.028118</ele>
        <time>2020-07-15T15:09:39.054Z</time>
      </trkpt>
      <trkpt lat="66.25807" lon="13.17515">
        <ele>8.103452</ele>
        <time>2020-07-15T15:09:50.176Z</time>
      </trkpt>
      <trkpt lat="66.25879" lon="13.17652">
        <ele>7.019587</ele>
        <time>2020-07-15T15:10:03.463Z</time>
      </trkpt>
      <trkpt lat="66.25924" lon="13.17763">
        <ele>6.344955</ele>
        <time>2020-07-15T15:10:13.067Z</time>
      </trkpt>
      <trkpt lat="66.25977" lon="13.1789">
        <ele>5.568592</ele>
        <time>2020-07-15T15:10:24.420Z</time>
      </trkpt>
      <trkpt lat="66.25998" lon="13.17931">
        <ele>5.280894</ele>
        <time>2020-07-15T15:10:28.769Z</time>
      </trkpt>
      <trkpt lat="66.26019" lon="13.17966">
        <ele>5.220758</ele>
        <time>2020-07-15T15:10:32.842Z</time>
      </trkpt>
      <trkpt lat="66.26046" lon="13.18005">
        <ele>5.156254</ele>
        <time>2020-07-15T15:10:38.192Z</time>
      </trkpt>
      <trkpt lat="66.26074" lon="13.1804">
        <ele>5.093594</ele>
        <time>2020-07-15T15:10:43.557Z</time>
      </trkpt>
      <trkpt lat="66.26159" lon="13.18139">
        <ele>4.908932</ele>
        <time>2020-07-15T15:10:59.662Z</time>
      </trkpt>
      <trkpt lat="66.2616" lon="13.1814">
        <ele>4.917558</ele>
        <time>2020-07-15T15:10:59.849Z</time>
      </trkpt>
      <trkpt lat="66.26274" lon="13.18269">
        <ele>6.014213</ele>
        <time>2020-07-15T15:11:25.117Z</time>
      </trkpt>
      <trkpt lat="66.2631" lon="13.18311">
        <ele>6.363148</ele>
        <time>2020-07-15T15:11:34.103Z</time>
      </trkpt>
      <trkpt lat="66.2637" lon="13.18394">
        <ele>7.663196</ele>
        <time>2020-07-15T15:11:50.141Z</time>
      </trkpt>
      <trkpt lat="66.26483" lon="13.18613">
        <ele>10.868088</ele>
        <time>2020-07-15T15:12:26.041Z</time>
      </trkpt>
      <trkpt lat="66.26597" lon="13.18885">
        <ele>15.603912</ele>
        <time>2020-07-15T15:13:10.835Z</time>
      </trkpt>
      <trkpt lat="66.26621" lon="13.18942">
        <ele>16.238927</ele>
        <time>2020-07-15T15:13:19.850Z</time>
      </trkpt>
      <trkpt lat="66.26683" lon="13.19053">
        <ele>17.608052</ele>
        <time>2020-07-15T15:13:38.787Z</time>
      </trkpt>
      <trkpt lat="66.2669" lon="13.19066">
        <ele>17.762583</ele>
        <time>2020-07-15T15:13:40.820Z</time>
      </trkpt>
      <trkpt lat="66.26695" lon="13.19075">
        <ele>17.864362</ele>
        <time>2020-07-15T15:13:42.089Z</time>
      </trkpt>
      <trkpt lat="66.26733" lon="13.1916">
        <ele>18.773082</ele>
        <time>2020-07-15T15:13:53.276Z</time>
      </trkpt>
      <trkpt lat="66.26828" lon="13.19478">
        <ele>18.722489</ele>
        <time>2020-07-15T15:14:20.669Z</time>
      </trkpt>
      <trkpt lat="66.26876" lon="13.19604">
        <ele>18.386762</ele>
        <time>2020-07-15T15:14:32.086Z</time>
      </trkpt>
      <trkpt lat="66.26941" lon="13.19775">
        <ele>17.710484</ele>
        <time>2020-07-15T15:14:47.363Z</time>
      </trkpt>
      <trkpt lat="66.27007" lon="13.20093">
        <ele>16.57857</ele>
        <time>2020-07-15T15:15:09.965Z</time>
      </trkpt>
      <trkpt lat="66.27039" lon="13.20168">
        <ele>16.223308</ele>
        <time>2020-07-15T15:15:16.800Z</time>
      </trkpt>
      <trkpt lat="66.27241" lon="13.20553">
        <ele>15.555581</ele>
        <time>2020-07-15T15:15:58.337Z</time>
      </trkpt>
      <trkpt lat="66.27258" lon="13.20599">
        <ele>15.910376</ele>
        <time>2020-07-15T15:16:03.244Z</time>
      </trkpt>
      <trkpt lat="66.27272" lon="13.20659">
        <ele>16.304532</ele>
        <time>2020-07-15T15:16:08.922Z</time>
      </trkpt>
      <trkpt lat="66.27279" lon="13.20732">
        <ele>16.731778</ele>
        <time>2020-07-15T15:16:15.388Z</time>
      </trkpt>
      <trkpt lat="66.27279" lon="13.20799">
        <ele>17.114757</ele>
        <time>2020-07-15T15:16:21.440Z</time>
      </trkpt>
      <trkpt lat="66.27239" lon="13.21533">
        <ele>33.554346</ele>
        <time>2020-07-15T15:18:01.652Z</time>
      </trkpt>
      <trkpt lat="66.27222" lon="13.21792">
        <ele>42.987668</ele>
        <time>2020-07-15T15:18:59.604Z</time>
      </trkpt>
      <trkpt lat="66.27205" lon="13.21863">
        <ele>46.966073</ele>
        <time>2020-07-15T15:19:20.264Z</time>
      </trkpt>
      <trkpt lat="66.27153" lon="13.22007">
        <ele>56.307693</ele>
        <time>2020-07-15T15:20:08.263Z</time>
      </trkpt>
      <trkpt lat="66.27137" lon="13.22063">
        <ele>59.540003</ele>
        <time>2020-07-15T15:20:23.242Z</time>
      </trkpt>
      <trkpt lat="66.27109" lon="13.22256">
        <ele>66.726685</ele>
        <time>2020-07-15T15:21:00.384Z</time>
      </trkpt>
      <trkpt lat="66.271" lon="13.22373">
        <ele>70.164701</ele>
        <time>2020-07-15T15:21:20.264Z</time>
      </trkpt>
      <trkpt lat="66.27104" lon="13.22456">
        <ele>72.561748</ele>
        <time>2020-07-15T15:21:32.912Z</time>
      </trkpt>
      <trkpt lat="66.27128" lon="13.22681">
        <ele>78.705128</ele>
        <time>2020-07-15T15:22:05.123Z</time>
      </trkpt>
      <trkpt lat="66.27128" lon="13.22893">
        <ele>83.841559</ele>
        <time>2020-07-15T15:22:35.630Z</time>
      </trkpt>
      <trkpt lat="66.27132" lon="13.22916">
        <ele>84.421473</ele>
        <time>2020-07-15T15:22:40.153Z</time>
      </trkpt>
      <trkpt lat="66.27138" lon="13.22942">
        <ele>85.135866</ele>
        <time>2020-07-15T15:22:44.822Z</time>
      </trkpt>
      <trkpt lat="66.27143" lon="13.22956">
        <ele>85.607223</ele>
        <time>2020-07-15T15:22:47.272Z</time>
      </trkpt>
      <trkpt lat="66.27151" lon="13.22968">
        <ele>86.145322</ele>
        <time>2020-07-15T15:22:50.642Z</time>
      </trkpt>
      <trkpt lat="66.2716" lon="13.22976">
        <ele>86.869492</ele>
        <time>2020-07-15T15:22:55.877Z</time>
      </trkpt>
      <trkpt lat="66.27182" lon="13.22982">
        <ele>88.795857</ele>
        <time>2020-07-15T15:23:03.952Z</time>
      </trkpt>
      <trkpt lat="66.27242" lon="13.22954">
        <ele>94.123743</ele>
        <time>2020-07-15T15:23:31.979Z</time>
      </trkpt>
      <trkpt lat="66.27264" lon="13.22928">
        <ele>96.248391</ele>
        <time>2020-07-15T15:23:44.371Z</time>
      </trkpt>
      <trkpt lat="66.27304" lon="13.22854">
        <ele>100.551771</ele>
        <time>2020-07-15T15:24:08.428Z</time>
      </trkpt>
      <trkpt lat="66.27326" lon="13.22841">
        <ele>102.588107</ele>
        <time>2020-07-15T15:24:19.043Z</time>
      </trkpt>
      <trkpt lat="66.27342" lon="13.22849">
        <ele>104.070864</ele>
        <time>2020-07-15T15:24:26.638Z</time>
      </trkpt>
      <trkpt lat="66.27361" lon="13.22884">
        <ele>106.186258</ele>
        <time>2020-07-15T15:24:37.573Z</time>
      </trkpt>
      <trkpt lat="66.27398" lon="13.23056">
        <ele>113.274206</ele>
        <time>2020-07-15T15:25:14.836Z</time>
      </trkpt>
      <trkpt lat="66.27476" lon="13.23287">
        <ele>123.503812</ele>
        <time>2020-07-15T15:26:10.535Z</time>
      </trkpt>
      <trkpt lat="66.27498" lon="13.23326">
        <ele>125.655423</ele>
        <time>2020-07-15T15:26:22.369Z</time>
      </trkpt>
      <trkpt lat="66.2754" lon="13.23361">
        <ele>129.114323</ele>
        <time>2020-07-15T15:26:40.807Z</time>
      </trkpt>
      <trkpt lat="66.27553" lon="13.23395">
        <ele>130.599126</ele>
        <time>2020-07-15T15:26:48.564Z</time>
      </trkpt>
      <trkpt lat="66.27553" lon="13.23436">
        <ele>131.905935</ele>
        <time>2020-07-15T15:26:55.340Z</time>
      </trkpt>
      <trkpt lat="66.27538" lon="13.23466">
        <ele>133.334609</ele>
        <time>2020-07-15T15:27:02.985Z</time>
      </trkpt>
      <trkpt lat="66.27439" lon="13.23504">
        <ele>140.550916</ele>
        <time>2020-07-15T15:27:42.474Z</time>
      </trkpt>
      <trkpt lat="66.27408" lon="13.23533">
        <ele>142.931775</ele>
        <time>2020-07-15T15:27:55.836Z</time>
      </trkpt>
      <trkpt lat="66.27383" lon="13.23602">
        <ele>145.642072</ele>
        <time>2020-07-15T15:28:11.575Z</time>
      </trkpt>
      <trkpt lat="66.27368" lon="13.23692">
        <ele>149.497131</ele>
        <time>2020-07-15T15:28:29.046Z</time>
      </trkpt>
      <trkpt lat="66.27368" lon="13.23844">
        <ele>155.518051</ele>
        <time>2020-07-15T15:28:58.542Z</time>
      </trkpt>
      <trkpt lat="66.27354" lon="13.23974">
        <ele>160.828382</ele>
        <time>2020-07-15T15:29:26.625Z</time>
      </trkpt>
      <trkpt lat="66.27352" lon="13.24057">
        <ele>164.378392</ele>
        <time>2020-07-15T15:29:45.094Z</time>
      </trkpt>
      <trkpt lat="66.27371" lon="13.24201">
        <ele>171.94319</ele>
        <time>2020-07-15T15:30:19.903Z</time>
      </trkpt>
      <trkpt lat="66.27429" lon="13.24465">
        <ele>186.892838</ele>
        <time>2020-07-15T15:31:31.835Z</time>
      </trkpt>
      <trkpt lat="66.27444" lon="13.24562">
        <ele>191.374997</ele>
        <time>2020-07-15T15:31:56.384Z</time>
      </trkpt>
      <trkpt lat="66.27446" lon="13.24656">
        <ele>195.403533</ele>
        <time>2020-07-15T15:32:18.100Z</time>
      </trkpt>
      <trkpt lat="66.27433" lon="13.24878">
        <ele>204.986099</ele>
        <time>2020-07-15T15:33:01.783Z</time>
      </trkpt>
      <trkpt lat="66.27438" lon="13.24917">
        <ele>205.818708</ele>
        <time>2020-07-15T15:33:08.203Z</time>
      </trkpt>
      <trkpt lat="66.27441" lon="13.24928">
        <ele>206.090164</ele>
        <time>2020-07-15T15:33:12.952Z</time>
      </trkpt>
      <trkpt lat="66.27446" lon="13.24935">
        <ele>206.35457</ele>
        <time>2020-07-15T15:33:13.621Z</time>
      </trkpt>
      <trkpt lat="66.27461" lon="13.24944">
        <ele>207.137528</ele>
        <time>2020-07-15T15:33:18.827Z</time>
      </trkpt>
      <trkpt lat="66.27527" lon="13.24904">
        <ele>210.51218</ele>
        <time>2020-07-15T15:33:41.263Z</time>
      </trkpt>
      <trkpt lat="66.27603" lon="13.24898">
        <ele>214.342294</ele>
        <time>2020-07-15T15:34:03.051Z</time>
      </trkpt>
      <trkpt lat="66.2763" lon="13.24904">
        <ele>215.67976</ele>
        <time>2020-07-15T15:34:09.589Z</time>
      </trkpt>
      <trkpt lat="66.2769" lon="13.24945">
        <ele>218.895687</ele>
        <time>2020-07-15T15:34:27.280Z</time>
      </trkpt>
      <trkpt lat="66.27718" lon="13.24947">
        <ele>220.303994</ele>
        <time>2020-07-15T15:34:36.661Z</time>
      </trkpt>
      <trkpt lat="66.27743" lon="13.24929">
        <ele>221.618876</ele>
        <time>2020-07-15T15:34:47.752Z</time>
      </trkpt>
      <trkpt lat="66.27766" lon="13.24894">
        <ele>222.987848</ele>
        <time>2020-07-15T15:34:59.784Z</time>
      </trkpt>
      <trkpt lat="66.27783" lon="13.24846">
        <ele>225.349314</ele>
        <time>2020-07-15T15:35:12.044Z</time>
      </trkpt>
      <trkpt lat="66.27798" lon="13.24779">
        <ele>228.193989</ele>
        <time>2020-07-15T15:35:26.809Z</time>
      </trkpt>
      <trkpt lat="66.27808" lon="13.24704">
        <ele>231.14316</ele>
        <time>2020-07-15T15:35:42.487Z</time>
      </trkpt>
      <trkpt lat="66.27821" lon="13.24618">
        <ele>234.591325</ele>
        <time>2020-07-15T15:36:00.708Z</time>
      </trkpt>
      <trkpt lat="66.27832" lon="13.24589">
        <ele>236.039468</ele>
        <time>2020-07-15T15:36:08.288Z</time>
      </trkpt>
      <trkpt lat="66.27851" lon="13.24577">
        <ele>237.871155</ele>
        <time>2020-07-15T15:36:17.727Z</time>
      </trkpt>
      <trkpt lat="66.27863" lon="13.24589">
        <ele>239.069175</ele>
        <time>2020-07-15T15:36:23.937Z</time>
      </trkpt>
      <trkpt lat="66.27871" lon="13.24622">
        <ele>240.37988</ele>
        <time>2020-07-15T15:36:31.452Z</time>
      </trkpt>
      <trkpt lat="66.27864" lon="13.24777">
        <ele>245.096613</ele>
        <time>2020-07-15T15:37:01.158Z</time>
      </trkpt>
      <trkpt lat="66.27866" lon="13.24987">
        <ele>251.456177</ele>
        <time>2020-07-15T15:37:33.252Z</time>
      </trkpt>
      <trkpt lat="66.27857" lon="13.25232">
        <ele>259.306205</ele>
        <time>2020-07-15T15:38:11.088Z</time>
      </trkpt>
      <trkpt lat="66.27869" lon="13.25328">
        <ele>262.59755</ele>
        <time>2020-07-15T15:38:30.191Z</time>
      </trkpt>
      <trkpt lat="66.2791" lon="13.25482">
        <ele>268.719416</ele>
        <time>2020-07-15T15:39:05.889Z</time>
      </trkpt>
      <trkpt lat="66.2793" lon="13.25587">
        <ele>272.994469</ele>
        <time>2020-07-15T15:39:28.782Z</time>
      </trkpt>
      <trkpt lat="66.2794" lon="13.25647">
        <ele>275.364587</ele>
        <time>2020-07-15T15:39:41.286Z</time>
      </trkpt>
      <trkpt lat="66.27954" lon="13.25705">
        <ele>277.838805</ele>
        <time>2020-07-15T15:39:54.328Z</time>
      </trkpt>
      <trkpt lat="66.27976" lon="13.25767">
        <ele>280.932715</ele>
        <time>2020-07-15T15:40:10.517Z</time>
      </trkpt>
      <trkpt lat="66.2812" lon="13.26089">
        <ele>297.295283</ele>
        <time>2020-07-15T15:41:35.799Z</time>
      </trkpt>
      <trkpt lat="66.28136" lon="13.26142">
        <ele>299.506349</ele>
        <time>2020-07-15T15:41:47.506Z</time>
      </trkpt>
      <trkpt lat="66.28147" lon="13.26189">
        <ele>301.441599</ele>
        <time>2020-07-15T15:41:57.469Z</time>
      </trkpt>
      <trkpt lat="66.28164" lon="13.26305">
        <ele>305.927127</ele>
        <time>2020-07-15T15:42:19.855Z</time>
      </trkpt>
      <trkpt lat="66.28173" lon="13.26458">
        <ele>311.530677</ele>
        <time>2020-07-15T15:42:50.067Z</time>
      </trkpt>
      <trkpt lat="66.28169" lon="13.26549">
        <ele>314.811961</ele>
        <time>2020-07-15T15:43:08.407Z</time>
      </trkpt>
      <trkpt lat="66.28157" lon="13.26616">
        <ele>317.194313</ele>
        <time>2020-07-15T15:43:21.970Z</time>
      </trkpt>
      <trkpt lat="66.28111" lon="13.26757">
        <ele>322.913468</ele>
        <time>2020-07-15T15:43:54.551Z</time>
      </trkpt>
      <trkpt lat="66.28093" lon="13.26818">
        <ele>325.32386</ele>
        <time>2020-07-15T15:44:07.730Z</time>
      </trkpt>
      <trkpt lat="66.28085" lon="13.26858">
        <ele>326.717454</ele>
        <time>2020-07-15T15:44:14.965Z</time>
      </trkpt>
      <trkpt lat="66.28078" lon="13.26929">
        <ele>329.008456</ele>
        <time>2020-07-15T15:44:26.612Z</time>
      </trkpt>
      <trkpt lat="66.28082" lon="13.26986">
        <ele>330.167779</ele>
        <time>2020-07-15T15:44:35.754Z</time>
      </trkpt>
      <trkpt lat="66.28093" lon="13.2704">
        <ele>331.183747</ele>
        <time>2020-07-15T15:44:44.658Z</time>
      </trkpt>
      <trkpt lat="66.28293" lon="13.27654">
        <ele>342.482124</ele>
        <time>2020-07-15T15:46:14.467Z</time>
      </trkpt>
      <trkpt lat="66.2837" lon="13.27987">
        <ele>344.996565</ele>
        <time>2020-07-15T15:46:51.319Z</time>
      </trkpt>
      <trkpt lat="66.28412" lon="13.28175">
        <ele>344.163272</ele>
        <time>2020-07-15T15:47:06.813Z</time>
      </trkpt>
      <trkpt lat="66.28511" lon="13.28598">
        <ele>337.227875</ele>
        <time>2020-07-15T15:47:32.417Z</time>
      </trkpt>
      <trkpt lat="66.28541" lon="13.287">
        <ele>334.289311</ele>
        <time>2020-07-15T15:47:38.258Z</time>
      </trkpt>
      <trkpt lat="66.2859" lon="13.288">
        <ele>330.172675</ele>
        <time>2020-07-15T15:47:45.413Z</time>
      </trkpt>
      <trkpt lat="66.28681" lon="13.28893">
        <ele>321.210106</ele>
        <time>2020-07-15T15:47:56.330Z</time>
      </trkpt>
      <trkpt lat="66.28706" lon="13.28939">
        <ele>318.410766</ele>
        <time>2020-07-15T15:47:59.732Z</time>
      </trkpt>
      <trkpt lat="66.28735" lon="13.29027">
        <ele>314.045107</ele>
        <time>2020-07-15T15:48:04.752Z</time>
      </trkpt>
      <trkpt lat="66.28758" lon="13.29124">
        <ele>308.735957</ele>
        <time>2020-07-15T15:48:09.710Z</time>
      </trkpt>
      <trkpt lat="66.28775" lon="13.29239">
        <ele>302.982027</ele>
        <time>2020-07-15T15:48:15.047Z</time>
      </trkpt>
      <trkpt lat="66.28778" lon="13.2931">
        <ele>299.600811</ele>
        <time>2020-07-15T15:48:18.164Z</time>
      </trkpt>
      <trkpt lat="66.28769" lon="13.29574">
        <ele>285.86758</ele>
        <time>2020-07-15T15:48:29.265Z</time>
      </trkpt>
      <trkpt lat="66.28772" lon="13.2963">
        <ele>282.726573</ele>
        <time>2020-07-15T15:48:31.616Z</time>
      </trkpt>
      <trkpt lat="66.28788" lon="13.29724">
        <ele>277.052598</ele>
        <time>2020-07-15T15:48:35.907Z</time>
      </trkpt>
      <trkpt lat="66.28801" lon="13.29774">
        <ele>273.782028</ele>
        <time>2020-07-15T15:48:38.361Z</time>
      </trkpt>
      <trkpt lat="66.28823" lon="13.2987">
        <ele>268.727913</ele>
        <time>2020-07-15T15:48:43.210Z</time>
      </trkpt>
      <trkpt lat="66.28859" lon="13.30023">
        <ele>266.612485</ele>
        <time>2020-07-15T15:48:51.248Z</time>
      </trkpt>
      <trkpt lat="66.28916" lon="13.30263">
        <ele>264.686111</ele>
        <time>2020-07-15T15:49:15.691Z</time>
      </trkpt>
      <trkpt lat="66.29137" lon="13.31226">
        <ele>296.506761</ele>
        <time>2020-07-15T15:52:27.778Z</time>
      </trkpt>
      <trkpt lat="66.29159" lon="13.31344">
        <ele>299.943427</ele>
        <time>2020-07-15T15:52:46.784Z</time>
      </trkpt>
      <trkpt lat="66.2917" lon="13.31472">
        <ele>302.458986</ele>
        <time>2020-07-15T15:53:04.108Z</time>
      </trkpt>
      <trkpt lat="66.29165" lon="13.31787">
        <ele>306.072178</ele>
        <time>2020-07-15T15:53:37.171Z</time>
      </trkpt>
      <trkpt lat="66.29174" lon="13.31907">
        <ele>307.271714</ele>
        <time>2020-07-15T15:53:47.860Z</time>
      </trkpt>
      <trkpt lat="66.29227" lon="13.32261">
        <ele>310.17771</ele>
        <time>2020-07-15T15:54:23.666Z</time>
      </trkpt>
      <trkpt lat="66.29283" lon="13.3248">
        <ele>312.813556</ele>
        <time>2020-07-15T15:54:51.956Z</time>
      </trkpt>
      <trkpt lat="66.29296" lon="13.32549">
        <ele>313.599739</ele>
        <time>2020-07-15T15:55:00.665Z</time>
      </trkpt>
      <trkpt lat="66.2938" lon="13.3312">
        <ele>318.435796</ele>
        <time>2020-07-15T15:56:00.544Z</time>
      </trkpt>
      <trkpt lat="66.29444" lon="13.33458">
        <ele>318.975977</ele>
        <time>2020-07-15T15:56:27.554Z</time>
      </trkpt>
      <trkpt lat="66.29504" lon="13.33863">
        <ele>319.160124</ele>
        <time>2020-07-15T15:56:58.905Z</time>
      </trkpt>
      <trkpt lat="66.29625" lon="13.35054">
        <ele>317.35792</ele>
        <time>2020-07-15T15:58:27.061Z</time>
      </trkpt>
      <trkpt lat="66.29688" lon="13.35598">
        <ele>309.906818</ele>
        <time>2020-07-15T15:58:55.679Z</time>
      </trkpt>
      <trkpt lat="66.29775" lon="13.36272">
        <ele>298.642041</ele>
        <time>2020-07-15T15:59:31.565Z</time>
      </trkpt>
      <trkpt lat="66.29788" lon="13.36422">
        <ele>296.28585</ele>
        <time>2020-07-15T15:59:39.528Z</time>
      </trkpt>
      <trkpt lat="66.2979" lon="13.36641">
        <ele>292.209249</ele>
        <time>2020-07-15T15:59:50.695Z</time>
      </trkpt>
      <trkpt lat="66.29769" lon="13.37209">
        <ele>279.481589</ele>
        <time>2020-07-15T16:00:17.892Z</time>
      </trkpt>
      <trkpt lat="66.29784" lon="13.37518">
        <ele>271.713597</ele>
        <time>2020-07-15T16:00:32.438Z</time>
      </trkpt>
      <trkpt lat="66.29793" lon="13.37891">
        <ele>261.908414</ele>
        <time>2020-07-15T16:00:49.970Z</time>
      </trkpt>
      <trkpt lat="66.29785" lon="13.38288">
        <ele>250.610202</ele>
        <time>2020-07-15T16:01:08.397Z</time>
      </trkpt>
      <trkpt lat="66.29812" lon="13.40207">
        <ele>180.694248</ele>
        <time>2020-07-15T16:02:33.975Z</time>
      </trkpt>
      <trkpt lat="66.29825" lon="13.40349">
        <ele>174.282935</ele>
        <time>2020-07-15T16:02:40.250Z</time>
      </trkpt>
      <trkpt lat="66.29846" lon="13.40471">
        <ele>168.430647</ele>
        <time>2020-07-15T16:02:45.945Z</time>
      </trkpt>
      <trkpt lat="66.29958" lon="13.40844">
        <ele>148.521938</ele>
        <time>2020-07-15T16:03:06.148Z</time>
      </trkpt>
      <trkpt lat="66.29978" lon="13.40923">
        <ele>146.078266</ele>
        <time>2020-07-15T16:03:10.359Z</time>
      </trkpt>
      <trkpt lat="66.29993" lon="13.41015">
        <ele>144.035603</ele>
        <time>2020-07-15T16:03:15.022Z</time>
      </trkpt>
      <trkpt lat="66.30004" lon="13.41119">
        <ele>141.822148</ele>
        <time>2020-07-15T16:03:20.284Z</time>
      </trkpt>
      <trkpt lat="66.30009" lon="13.41231">
        <ele>139.48806</ele>
        <time>2020-07-15T16:03:26.166Z</time>
      </trkpt>
      <trkpt lat="66.30007" lon="13.41634">
        <ele>135.596834</ele>
        <time>2020-07-15T16:03:49.376Z</time>
      </trkpt>
      <trkpt lat="66.29986" lon="13.41895">
        <ele>133.217613</ele>
        <time>2020-07-15T16:04:04.865Z</time>
      </trkpt>
      <trkpt lat="66.2994" lon="13.42212">
        <ele>129.249817</ele>
        <time>2020-07-15T16:04:23.252Z</time>
      </trkpt>
      <trkpt lat="66.2991" lon="13.42388">
        <ele>124.805402</ele>
        <time>2020-07-15T16:04:32.679Z</time>
      </trkpt>
      <trkpt lat="66.29876" lon="13.42508">
        <ele>121.394908</ele>
        <time>2020-07-15T16:04:39.496Z</time>
      </trkpt>
      <trkpt lat="66.29844" lon="13.42574">
        <ele>118.053486</ele>
        <time>2020-07-15T16:04:44.141Z</time>
      </trkpt>
      <trkpt lat="66.29803" lon="13.42624">
        <ele>113.076005</ele>
        <time>2020-07-15T16:04:49.130Z</time>
      </trkpt>
      <trkpt lat="66.2977" lon="13.42643">
        <ele>109.358584</ele>
        <time>2020-07-15T16:04:52.797Z</time>
      </trkpt>
      <trkpt lat="66.2966" lon="13.42669">
        <ele>97.878625</ele>
        <time>2020-07-15T16:05:04.418Z</time>
      </trkpt>
      <trkpt lat="66.2962" lon="13.42703">
        <ele>93.996982</ele>
        <time>2020-07-15T16:05:09.080Z</time>
      </trkpt>
      <trkpt lat="66.29586" lon="13.4275">
        <ele>90.561426</ele>
        <time>2020-07-15T16:05:13.310Z</time>
      </trkpt>
      <trkpt lat="66.29577" lon="13.42766">
        <ele>89.549208</ele>
        <time>2020-07-15T16:05:14.509Z</time>
      </trkpt>
      <trkpt lat="66.29563" lon="13.42796">
        <ele>87.905468</ele>
        <time>2020-07-15T16:05:16.726Z</time>
      </trkpt>
      <trkpt lat="66.29559" lon="13.42807">
        <ele>87.33716</ele>
        <time>2020-07-15T16:05:17.476Z</time>
      </trkpt>
      <trkpt lat="66.29543" lon="13.42851">
        <ele>85.192632</ele>
        <time>2020-07-15T16:05:20.228Z</time>
      </trkpt>
      <trkpt lat="66.29537" lon="13.42872">
        <ele>84.271957</ele>
        <time>2020-07-15T16:05:21.503Z</time>
      </trkpt>
      <trkpt lat="66.29532" lon="13.42892">
        <ele>84.012807</ele>
        <time>2020-07-15T16:05:22.608Z</time>
      </trkpt>
      <trkpt lat="66.29523" lon="13.42927">
        <ele>83.693254</ele>
        <time>2020-07-15T16:05:24.791Z</time>
      </trkpt>
      <trkpt lat="66.29515" lon="13.42981">
        <ele>83.25824</ele>
        <time>2020-07-15T16:05:27.545Z</time>
      </trkpt>
      <trkpt lat="66.29509" lon="13.43128">
        <ele>82.121891</ele>
        <time>2020-07-15T16:05:36.513Z</time>
      </trkpt>
      <trkpt lat="66.29515" lon="13.43275">
        <ele>80.989916</ele>
        <time>2020-07-15T16:05:48.726Z</time>
      </trkpt>
      <trkpt lat="66.2953" lon="13.43403">
        <ele>80.619009</ele>
        <time>2020-07-15T16:05:57.480Z</time>
      </trkpt>
      <trkpt lat="66.29573" lon="13.43607">
        <ele>80.330942</ele>
        <time>2020-07-15T16:06:13.664Z</time>
      </trkpt>
      <trkpt lat="66.29581" lon="13.43645">
        <ele>80.277169</ele>
        <time>2020-07-15T16:06:16.208Z</time>
      </trkpt>
      <trkpt lat="66.29584" lon="13.43657">
        <ele>80.260505</ele>
        <time>2020-07-15T16:06:17.496Z</time>
      </trkpt>
      <trkpt lat="66.29596" lon="13.43732">
        <ele>79.893771</ele>
        <time>2020-07-15T16:06:22.635Z</time>
      </trkpt>
      <trkpt lat="66.29603" lon="13.4381">
        <ele>78.84931</ele>
        <time>2020-07-15T16:06:27.641Z</time>
      </trkpt>
      <trkpt lat="66.29605" lon="13.43904">
        <ele>77.621046</ele>
        <time>2020-07-15T16:06:33.461Z</time>
      </trkpt>
      <trkpt lat="66.29599" lon="13.43994">
        <ele>76.429315</ele>
        <time>2020-07-15T16:06:39.013Z</time>
      </trkpt>
      <trkpt lat="66.29579" lon="13.44113">
        <ele>74.740164</ele>
        <time>2020-07-15T16:06:45.361Z</time>
      </trkpt>
      <trkpt lat="66.29517" lon="13.4433">
        <ele>63.541271</ele>
        <time>2020-07-15T16:06:57.068Z</time>
      </trkpt>
      <trkpt lat="66.29512" lon="13.44358">
        <ele>62.151284</ele>
        <time>2020-07-15T16:06:58.359Z</time>
      </trkpt>
      <trkpt lat="66.2951" lon="13.44374">
        <ele>61.363936</ele>
        <time>2020-07-15T16:06:59.114Z</time>
      </trkpt>
      <trkpt lat="66.29508" lon="13.44388">
        <ele>60.729225</ele>
        <time>2020-07-15T16:06:59.681Z</time>
      </trkpt>
      <trkpt lat="66.29505" lon="13.44507">
        <ele>55.262817</ele>
        <time>2020-07-15T16:07:04.773Z</time>
      </trkpt>
      <trkpt lat="66.29518" lon="13.44616">
        <ele>50.062548</ele>
        <time>2020-07-15T16:07:09.601Z</time>
      </trkpt>
      <trkpt lat="66.29543" lon="13.44699">
        <ele>45.419498</ele>
        <time>2020-07-15T16:07:13.936Z</time>
      </trkpt>
      <trkpt lat="66.29611" lon="13.44827">
        <ele>35.936704</ele>
        <time>2020-07-15T16:07:23.160Z</time>
      </trkpt>
      <trkpt lat="66.29632" lon="13.44882">
        <ele>33.399515</ele>
        <time>2020-07-15T16:07:26.704Z</time>
      </trkpt>
      <trkpt lat="66.29647" lon="13.44959">
        <ele>32.307582</ele>
        <time>2020-07-15T16:07:30.886Z</time>
      </trkpt>
      <trkpt lat="66.29671" lon="13.45173">
        <ele>29.461911</ele>
        <time>2020-07-15T16:07:43.224Z</time>
      </trkpt>
      <trkpt lat="66.29696" lon="13.45266">
        <ele>28.027469</ele>
        <time>2020-07-15T16:07:50.545Z</time>
      </trkpt>
      <trkpt lat="66.2973" lon="13.45331">
        <ele>26.606076</ele>
        <time>2020-07-15T16:07:57.816Z</time>
      </trkpt>
      <trkpt lat="66.29768" lon="13.45367">
        <ele>25.268832</ele>
        <time>2020-07-15T16:08:03.178Z</time>
      </trkpt>
      <trkpt lat="66.29893" lon="13.45382">
        <ele>20.437106</ele>
        <time>2020-07-15T16:08:18.610Z</time>
      </trkpt>
      <trkpt lat="66.29901" lon="13.45385">
        <ele>19.952889</ele>
        <time>2020-07-15T16:08:19.510Z</time>
      </trkpt>
      <trkpt lat="66.29909" lon="13.4539">
        <ele>19.475158</ele>
        <time>2020-07-15T16:08:20.419Z</time>
      </trkpt>
      <trkpt lat="66.29941" lon="13.45427">
        <ele>17.352666</ele>
        <time>2020-07-15T16:08:24.607Z</time>
      </trkpt>
      <trkpt lat="66.29963" lon="13.45479">
        <ele>15.570381</ele>
        <time>2020-07-15T16:08:28.122Z</time>
      </trkpt>
      <trkpt lat="66.29979" lon="13.4555">
        <ele>13.649766</ele>
        <time>2020-07-15T16:08:31.918Z</time>
      </trkpt>
      <trkpt lat="66.2999" lon="13.45648">
        <ele>11.381142</ele>
        <time>2020-07-15T16:08:36.678Z</time>
      </trkpt>
      <trkpt lat="66.30003" lon="13.45792">
        <ele>9.90348</ele>
        <time>2020-07-15T16:08:44.224Z</time>
      </trkpt>
      <trkpt lat="66.30003" lon="13.45793">
        <ele>9.889208</ele>
        <time>2020-07-15T16:08:44.286Z</time>
      </trkpt>
      <trkpt lat="66.30027" lon="13.4605">
        <ele>7.243725</ele>
        <time>2020-07-15T16:08:59.676Z</time>
      </trkpt>
      <trkpt lat="66.3003" lon="13.46106">
        <ele>7.181517</ele>
        <time>2020-07-15T16:09:03.406Z</time>
      </trkpt>
      <trkpt lat="66.30034" lon="13.4617">
        <ele>7.541321</ele>
        <time>2020-07-15T16:09:08.351Z</time>
      </trkpt>
      <trkpt lat="66.30035" lon="13.46214">
        <ele>7.787528</ele>
        <time>2020-07-15T16:09:12.884Z</time>
      </trkpt>
      <trkpt lat="66.30038" lon="13.46513">
        <ele>9.457384</ele>
        <time>2020-07-15T16:09:41.755Z</time>
      </trkpt>
      <trkpt lat="66.30039" lon="13.46534">
        <ele>9.608811</ele>
        <time>2020-07-15T16:09:44.240Z</time>
      </trkpt>
      <trkpt lat="66.30041" lon="13.46553">
        <ele>9.767236</ele>
        <time>2020-07-15T16:09:46.586Z</time>
      </trkpt>
      <trkpt lat="66.30056" lon="13.46688">
        <ele>10.902494</ele>
        <time>2020-07-15T16:10:00.140Z</time>
      </trkpt>
      <trkpt lat="66.30116" lon="13.47064">
        <ele>14.370392</ele>
        <time>2020-07-15T16:10:39.259Z</time>
      </trkpt>
      <trkpt lat="66.30153" lon="13.4738">
        <ele>17.497402</ele>
        <time>2020-07-15T16:11:13.629Z</time>
      </trkpt>
      <trkpt lat="66.30176" lon="13.47578">
        <ele>19.347582</ele>
        <time>2020-07-15T16:11:35.588Z</time>
      </trkpt>
      <trkpt lat="66.30189" lon="13.47684">
        <ele>20.333801</ele>
        <time>2020-07-15T16:11:46.638Z</time>
      </trkpt>
      <trkpt lat="66.30201" lon="13.47789">
        <ele>21.31057</ele>
        <time>2020-07-15T16:11:57.141Z</time>
      </trkpt>
      <trkpt lat="66.30207" lon="13.47834">
        <ele>21.46444</ele>
        <time>2020-07-15T16:12:01.502Z</time>
      </trkpt>
      <trkpt lat="66.30216" lon="13.4789">
        <ele>21.580765</ele>
        <time>2020-07-15T16:12:06.659Z</time>
      </trkpt>
      <trkpt lat="66.30226" lon="13.47955">
        <ele>21.716306</ele>
        <time>2020-07-15T16:12:12.358Z</time>
      </trkpt>
      <trkpt lat="66.3024" lon="13.48048">
        <ele>21.910114</ele>
        <time>2020-07-15T16:12:19.999Z</time>
      </trkpt>
      <trkpt lat="66.30269" lon="13.48332">
        <ele>21.971028</ele>
        <time>2020-07-15T16:12:40.343Z</time>
      </trkpt>
      <trkpt lat="66.30274" lon="13.48393">
        <ele>21.809804</ele>
        <time>2020-07-15T16:12:44.620Z</time>
      </trkpt>
      <trkpt lat="66.30275" lon="13.48402">
        <ele>21.786231</ele>
        <time>2020-07-15T16:12:45.234Z</time>
      </trkpt>
      <trkpt lat="66.3029" lon="13.48587">
        <ele>21.302056</ele>
        <time>2020-07-15T16:12:57.439Z</time>
      </trkpt>
      <trkpt lat="66.3029" lon="13.48593">
        <ele>21.285543</ele>
        <time>2020-07-15T16:12:57.790Z</time>
      </trkpt>
      <trkpt lat="66.30341" lon="13.49127">
        <ele>18.262182</ele>
        <time>2020-07-15T16:13:30.502Z</time>
      </trkpt>
      <trkpt lat="66.30357" lon="13.49289">
        <ele>16.910555</ele>
        <time>2020-07-15T16:13:40.151Z</time>
      </trkpt>
      <trkpt lat="66.30358" lon="13.49294">
        <ele>16.868074</ele>
        <time>2020-07-15T16:13:40.388Z</time>
      </trkpt>
      <trkpt lat="66.30401" lon="13.49733">
        <ele>13.801732</ele>
        <time>2020-07-15T16:14:05.736Z</time>
      </trkpt>
      <trkpt lat="66.30403" lon="13.49763">
        <ele>13.641378</ele>
        <time>2020-07-15T16:14:07.512Z</time>
      </trkpt>
      <trkpt lat="66.30404" lon="13.49771">
        <ele>13.598372</ele>
        <time>2020-07-15T16:14:08.008Z</time>
      </trkpt>
      <trkpt lat="66.30409" lon="13.49833">
        <ele>13.262372</ele>
        <time>2020-07-15T16:14:12.050Z</time>
      </trkpt>
      <trkpt lat="66.30416" lon="13.49951">
        <ele>12.633475</ele>
        <time>2020-07-15T16:14:19.861Z</time>
      </trkpt>
      <trkpt lat="66.3041" lon="13.50046">
        <ele>12.794083</ele>
        <time>2020-07-15T16:14:26.743Z</time>
      </trkpt>
      <trkpt lat="66.30405" lon="13.50072">
        <ele>12.884672</ele>
        <time>2020-07-15T16:14:28.795Z</time>
      </trkpt>
      <trkpt lat="66.30401" lon="13.50096">
        <ele>12.966729</ele>
        <time>2020-07-15T16:14:30.901Z</time>
      </trkpt>
      <trkpt lat="66.30389" lon="13.50155">
        <ele>13.178027</ele>
        <time>2020-07-15T16:14:35.971Z</time>
      </trkpt>
      <trkpt lat="66.30375" lon="13.5022">
        <ele>13.412241</ele>
        <time>2020-07-15T16:14:42.477Z</time>
      </trkpt>
      <trkpt lat="66.30328" lon="13.50453">
        <ele>14.385358</ele>
        <time>2020-07-15T16:15:06.189Z</time>
      </trkpt>
      <trkpt lat="66.30311" lon="13.50542">
        <ele>14.864208</ele>
        <time>2020-07-15T16:15:15.142Z</time>
      </trkpt>
      <trkpt lat="66.30288" lon="13.50691">
        <ele>15.634984</ele>
        <time>2020-07-15T16:15:28.920Z</time>
      </trkpt>
      <trkpt lat="66.30264" lon="13.50979">
        <ele>16.719639</ele>
        <time>2020-07-15T16:15:53.191Z</time>
      </trkpt>
      <trkpt lat="66.30249" lon="13.51088">
        <ele>17.073622</ele>
        <time>2020-07-15T16:16:02.382Z</time>
      </trkpt>
      <trkpt lat="66.30198" lon="13.51336">
        <ele>17.924732</ele>
        <time>2020-07-15T16:16:25.153Z</time>
      </trkpt>
      <trkpt lat="66.30168" lon="13.51447">
        <ele>18.325064</ele>
        <time>2020-07-15T16:16:35.958Z</time>
      </trkpt>
      <trkpt lat="66.30161" lon="13.51469">
        <ele>18.413076</ele>
        <time>2020-07-15T16:16:38.358Z</time>
      </trkpt>
      <trkpt lat="66.30154" lon="13.51486">
        <ele>18.484385</ele>
        <time>2020-07-15T16:16:40.332Z</time>
      </trkpt>
      <trkpt lat="66.30133" lon="13.51536">
        <ele>18.700651</ele>
        <time>2020-07-15T16:16:46.127Z</time>
      </trkpt>
      <trkpt lat="66.30126" lon="13.51553">
        <ele>18.773543</ele>
        <time>2020-07-15T16:16:48.110Z</time>
      </trkpt>
      <trkpt lat="66.30106" lon="13.51601">
        <ele>18.963476</ele>
        <time>2020-07-15T16:16:53.849Z</time>
      </trkpt>
      <trkpt lat="66.30057" lon="13.51728">
        <ele>19.397019</ele>
        <time>2020-07-15T16:17:08.130Z</time>
      </trkpt>
      <trkpt lat="66.30016" lon="13.51863">
        <ele>19.812632</ele>
        <time>2020-07-15T16:17:21.433Z</time>
      </trkpt>
      <trkpt lat="66.30003" lon="13.5191">
        <ele>19.953177</ele>
        <time>2020-07-15T16:17:25.810Z</time>
      </trkpt>
      <trkpt lat="66.29991" lon="13.5196">
        <ele>20.020899</ele>
        <time>2020-07-15T16:17:30.216Z</time>
      </trkpt>
      <trkpt lat="66.2995" lon="13.52143">
        <ele>20.250987</ele>
        <time>2020-07-15T16:17:46.082Z</time>
      </trkpt>
      <trkpt lat="66.29926" lon="13.52252">
        <ele>20.387927</ele>
        <time>2020-07-15T16:17:55.469Z</time>
      </trkpt>
      <trkpt lat="66.29921" lon="13.52275">
        <ele>20.416838</ele>
        <time>2020-07-15T16:17:57.408Z</time>
      </trkpt>
      <trkpt lat="66.29888" lon="13.52427">
        <ele>20.409234</ele>
        <time>2020-07-15T16:18:09.970Z</time>
      </trkpt>
      <trkpt lat="66.29859" lon="13.52552">
        <ele>20.364979</ele>
        <time>2020-07-15T16:18:20.198Z</time>
      </trkpt>
      <trkpt lat="66.29849" lon="13.52588">
        <ele>20.352001</ele>
        <time>2020-07-15T16:18:23.135Z</time>
      </trkpt>
      <trkpt lat="66.29832" lon="13.52649">
        <ele>20.328929</ele>
        <time>2020-07-15T16:18:28.387Z</time>
      </trkpt>
      <trkpt lat="66.29817" lon="13.52701">
        <ele>20.278413</ele>
        <time>2020-07-15T16:18:32.731Z</time>
      </trkpt>
      <trkpt lat="66.29797" lon="13.52799">
        <ele>20.061769</ele>
        <time>2020-07-15T16:18:40.337Z</time>
      </trkpt>
      <trkpt lat="66.29795" lon="13.52815">
        <ele>20.02932</ele>
        <time>2020-07-15T16:18:41.441Z</time>
      </trkpt>
      <trkpt lat="66.29786" lon="13.52809">
        <ele>19.985525</ele>
        <time>2020-07-15T16:18:43.034Z</time>
      </trkpt>
      <trkpt lat="66.29786" lon="13.52816">
        <ele>19.972065</ele>
        <time>2020-07-15T16:18:43.515Z</time>
      </trkpt>
      <trkpt lat="66.29783" lon="13.52924">
        <ele>19.760108</ele>
        <time>2020-07-15T16:18:51.002Z</time>
      </trkpt>
      <trkpt lat="66.29782" lon="13.53176">
        <ele>18.997061</ele>
        <time>2020-07-15T16:19:08.085Z</time>
      </trkpt>
      <trkpt lat="66.29781" lon="13.53244">
        <ele>18.656095</ele>
        <time>2020-07-15T16:19:12.416Z</time>
      </trkpt>
      <trkpt lat="66.29774" lon="13.53471">
        <ele>17.510281</ele>
        <time>2020-07-15T16:19:26.713Z</time>
      </trkpt>
      <trkpt lat="66.29773" lon="13.53482">
        <ele>17.452482</ele>
        <time>2020-07-15T16:19:27.366Z</time>
      </trkpt>
      <trkpt lat="66.29767" lon="13.53539">
        <ele>17.153155</ele>
        <time>2020-07-15T16:19:30.964Z</time>
      </trkpt>
      <trkpt lat="66.29706" lon="13.54002">
        <ele>14.677087</ele>
        <time>2020-07-15T16:20:01.230Z</time>
      </trkpt>
      <trkpt lat="66.29626" lon="13.54625">
        <ele>15.005021</ele>
        <time>2020-07-15T16:20:51.158Z</time>
      </trkpt>
      <trkpt lat="66.29591" lon="13.54903">
        <ele>15.901231</ele>
        <time>2020-07-15T16:21:17.047Z</time>
      </trkpt>
      <trkpt lat="66.29586" lon="13.54957">
        <ele>16.171122</ele>
        <time>2020-07-15T16:21:22.235Z</time>
      </trkpt>
      <trkpt lat="66.29587" lon="13.54961">
        <ele>16.19909</ele>
        <time>2020-07-15T16:21:22.756Z</time>
      </trkpt>
      <trkpt lat="66.2959" lon="13.54964">
        <ele>16.232407</ele>
        <time>2020-07-15T16:21:23.378Z</time>
      </trkpt>
      <trkpt lat="66.29598" lon="13.54971">
        <ele>16.330067</ele>
        <time>2020-07-15T16:21:25.200Z</time>
      </trkpt>
      <trkpt lat="66.29599" lon="13.54962">
        <ele>16.374347</ele>
        <time>2020-07-15T16:21:26.221Z</time>
      </trkpt>
      <trkpt lat="66.29605" lon="13.54935">
        <ele>16.525581</ele>
        <time>2020-07-15T16:21:29.072Z</time>
      </trkpt>
      <trkpt lat="66.29614" lon="13.54925">
        <ele>16.640084</ele>
        <time>2020-07-15T16:21:31.232Z</time>
      </trkpt>
      <trkpt lat="66.29683" lon="13.5493">
        <ele>17.466453</ele>
        <time>2020-07-15T16:21:46.888Z</time>
      </trkpt>
      <trkpt lat="66.29756" lon="13.54938">
        <ele>17.983546</ele>
        <time>2020-07-15T16:22:02.740Z</time>
      </trkpt>
      <trkpt lat="66.29779" lon="13.54942">
        <ele>18.133982</ele>
        <time>2020-07-15T16:22:07.562Z</time>
      </trkpt>
      <trkpt lat="66.29788" lon="13.54945">
        <ele>18.188215</ele>
        <time>2020-07-15T16:22:09.333Z</time>
      </trkpt>
      <trkpt lat="66.29788" lon="13.54933">
        <ele>18.217439</ele>
        <time>2020-07-15T16:22:10.472Z</time>
      </trkpt>
      <trkpt lat="66.29788" lon="13.54926">
        <ele>18.235202</ele>
        <time>2020-07-15T16:22:11.142Z</time>
      </trkpt>
      <trkpt lat="66.29803" lon="13.54931">
        <ele>18.326727</ele>
        <time>2020-07-15T16:22:13.961Z</time>
      </trkpt>
      <trkpt lat="66.29813" lon="13.54935">
        <ele>18.391457</ele>
        <time>2020-07-15T16:22:15.967Z</time>
      </trkpt>
      <trkpt lat="66.29823" lon="13.5494">
        <ele>18.454325</ele>
        <time>2020-07-15T16:22:17.859Z</time>
      </trkpt>
      <trkpt lat="66.29871" lon="13.54969">
        <ele>18.700868</ele>
        <time>2020-07-15T16:22:27.254Z</time>
      </trkpt>
      <trkpt lat="66.29933" lon="13.55024">
        <ele>18.454752</ele>
        <time>2020-07-15T16:22:39.359Z</time>
      </trkpt>
      <trkpt lat="66.30296" lon="13.55435">
        <ele>15.544975</ele>
        <time>2020-07-15T16:23:44.747Z</time>
      </trkpt>
      <trkpt lat="66.30304" lon="13.55446">
        <ele>15.390413</ele>
        <time>2020-07-15T16:23:46.134Z</time>
      </trkpt>
      <trkpt lat="66.30318" lon="13.55462">
        <ele>15.136603</ele>
        <time>2020-07-15T16:23:48.006Z</time>
      </trkpt>
      <trkpt lat="66.30325" lon="13.55473">
        <ele>15.002742</ele>
        <time>2020-07-15T16:23:49.145Z</time>
      </trkpt>
      <trkpt lat="66.30331" lon="13.55482">
        <ele>14.886775</ele>
        <time>2020-07-15T16:23:50.177Z</time>
      </trkpt>
      <trkpt lat="66.30337" lon="13.55493">
        <ele>14.760345</ele>
        <time>2020-07-15T16:23:51.242Z</time>
      </trkpt>
      <trkpt lat="66.30346" lon="13.55513">
        <ele>14.564119</ele>
        <time>2020-07-15T16:23:52.643Z</time>
      </trkpt>
      <trkpt lat="66.30366" lon="13.55577">
        <ele>14.075892</ele>
        <time>2020-07-15T16:23:56.839Z</time>
      </trkpt>
      <trkpt lat="66.30381" lon="13.55682">
        <ele>13.422867</ele>
        <time>2020-07-15T16:24:02.606Z</time>
      </trkpt>
      <trkpt lat="66.30383" lon="13.55766">
        <ele>12.927681</ele>
        <time>2020-07-15T16:24:07.377Z</time>
      </trkpt>
      <trkpt lat="66.30379" lon="13.56004">
        <ele>12.185235</ele>
        <time>2020-07-15T16:24:24.908Z</time>
      </trkpt>
      <trkpt lat="66.30379" lon="13.56025">
        <ele>12.360258</ele>
        <time>2020-07-15T16:24:26.642Z</time>
      </trkpt>
      <trkpt lat="66.30379" lon="13.56078">
        <ele>12.817071</ele>
        <time>2020-07-15T16:24:32.417Z</time>
      </trkpt>
      <trkpt lat="66.30372" lon="13.56402">
        <ele>15.588664</ele>
        <time>2020-07-15T16:25:08.023Z</time>
      </trkpt>
      <trkpt lat="66.30377" lon="13.56503">
        <ele>15.71438</ele>
        <time>2020-07-15T16:25:17.280Z</time>
      </trkpt>
      <trkpt lat="66.3039" lon="13.56574">
        <ele>15.791511</ele>
        <time>2020-07-15T16:25:23.073Z</time>
      </trkpt>
      <trkpt lat="66.30411" lon="13.56635">
        <ele>15.869813</ele>
        <time>2020-07-15T16:25:28.654Z</time>
      </trkpt>
      <trkpt lat="66.30438" lon="13.56682">
        <ele>15.948654</ele>
        <time>2020-07-15T16:25:34.029Z</time>
      </trkpt>
      <trkpt lat="66.30462" lon="13.56704">
        <ele>16.012298</ele>
        <time>2020-07-15T16:25:38.731Z</time>
      </trkpt>
      <trkpt lat="66.30465" lon="13.56705">
        <ele>16.018728</ele>
        <time>2020-07-15T16:25:39.024Z</time>
      </trkpt>
      <trkpt lat="66.30479" lon="13.56709">
        <ele>16.052894</ele>
        <time>2020-07-15T16:25:41.278Z</time>
      </trkpt>
      <trkpt lat="66.30509" lon="13.56707">
        <ele>15.735245</ele>
        <time>2020-07-15T16:25:46.031Z</time>
      </trkpt>
      <trkpt lat="66.30552" lon="13.56681">
        <ele>15.250713</ele>
        <time>2020-07-15T16:25:52.678Z</time>
      </trkpt>
      <trkpt lat="66.30626" lon="13.56621">
        <ele>14.387663</ele>
        <time>2020-07-15T16:26:04.666Z</time>
      </trkpt>
      <trkpt lat="66.30712" lon="13.56551">
        <ele>12.281088</ele>
        <time>2020-07-15T16:26:18.359Z</time>
      </trkpt>
      <trkpt lat="66.30772" lon="13.56487">
        <ele>10.397408</ele>
        <time>2020-07-15T16:26:26.565Z</time>
      </trkpt>
      <trkpt lat="66.30779" lon="13.56477">
        <ele>10.167002</ele>
        <time>2020-07-15T16:26:27.608Z</time>
      </trkpt>
      <trkpt lat="66.30793" lon="13.56454">
        <ele>9.701849</ele>
        <time>2020-07-15T16:26:29.597Z</time>
      </trkpt>
      <trkpt lat="66.30823" lon="13.56391">
        <ele>8.668485</ele>
        <time>2020-07-15T16:26:34.692Z</time>
      </trkpt>
      <trkpt lat="66.30837" lon="13.56356">
        <ele>8.289066</ele>
        <time>2020-07-15T16:26:37.325Z</time>
      </trkpt>
      <trkpt lat="66.30849" lon="13.56319">
        <ele>7.920376</ele>
        <time>2020-07-15T16:26:39.801Z</time>
      </trkpt>
      <trkpt lat="66.30855" lon="13.56299">
        <ele>7.731142</ele>
        <time>2020-07-15T16:26:41.184Z</time>
      </trkpt>
      <trkpt lat="66.3086" lon="13.56281">
        <ele>7.562088</ele>
        <time>2020-07-15T16:26:42.315Z</time>
      </trkpt>
      <trkpt lat="66.30869" lon="13.56248">
        <ele>7.253571</ele>
        <time>2020-07-15T16:26:44.459Z</time>
      </trkpt>
      <trkpt lat="66.30873" lon="13.56231">
        <ele>7.108597</ele>
        <time>2020-07-15T16:26:45.510Z</time>
      </trkpt>
      <trkpt lat="66.30876" lon="13.5622">
        <ele>7.003066</ele>
        <time>2020-07-15T16:26:46.262Z</time>
      </trkpt>
      <trkpt lat="66.30877" lon="13.56214">
        <ele>6.951411</ele>
        <time>2020-07-15T16:26:46.838Z</time>
      </trkpt>
      <trkpt lat="66.30899" lon="13.56086">
        <ele>5.883175</ele>
        <time>2020-07-15T16:26:54.726Z</time>
      </trkpt>
      <trkpt lat="66.30928" lon="13.55788">
        <ele>6.887576</ele>
        <time>2020-07-15T16:27:22.879Z</time>
      </trkpt>
      <trkpt lat="66.30952" lon="13.55652">
        <ele>7.749519</ele>
        <time>2020-07-15T16:27:37.528Z</time>
      </trkpt>
      <trkpt lat="66.30958" lon="13.55625">
        <ele>7.926426</ele>
        <time>2020-07-15T16:27:40.767Z</time>
      </trkpt>
      <trkpt lat="66.30968" lon="13.55585">
        <ele>8.110362</ele>
        <time>2020-07-15T16:27:45.149Z</time>
      </trkpt>
      <trkpt lat="66.31047" lon="13.5532">
        <ele>8.919963</ele>
        <time>2020-07-15T16:28:12.662Z</time>
      </trkpt>
      <trkpt lat="66.31049" lon="13.55314">
        <ele>8.93811</ele>
        <time>2020-07-15T16:28:13.333Z</time>
      </trkpt>
      <trkpt lat="66.31057" lon="13.5527">
        <ele>9.059212</ele>
        <time>2020-07-15T16:28:16.393Z</time>
      </trkpt>
      <trkpt lat="66.31083" lon="13.55081">
        <ele>8.504851</ele>
        <time>2020-07-15T16:28:28.703Z</time>
      </trkpt>
      <trkpt lat="66.31096" lon="13.54964">
        <ele>8.040111</ele>
        <time>2020-07-15T16:28:36.076Z</time>
      </trkpt>
      <trkpt lat="66.31105" lon="13.54884">
        <ele>7.719816</ele>
        <time>2020-07-15T16:28:41.099Z</time>
      </trkpt>
      <trkpt lat="66.31128" lon="13.54751">
        <ele>7.472613</ele>
        <time>2020-07-15T16:28:50.382Z</time>
      </trkpt>
      <trkpt lat="66.31162" lon="13.54652">
        <ele>7.569364</ele>
        <time>2020-07-15T16:28:59.049Z</time>
      </trkpt>
      <trkpt lat="66.31246" lon="13.54452">
        <ele>7.849493</ele>
        <time>2020-07-15T16:29:22.898Z</time>
      </trkpt>
      <trkpt lat="66.31308" lon="13.54306">
        <ele>8.344612</ele>
        <time>2020-07-15T16:29:40.493Z</time>
      </trkpt>
      <trkpt lat="66.31323" lon="13.54269">
        <ele>8.467005</ele>
        <time>2020-07-15T16:29:44.854Z</time>
      </trkpt>
      <trkpt lat="66.31334" lon="13.54243">
        <ele>8.552784</ele>
        <time>2020-07-15T16:29:47.587Z</time>
      </trkpt>
      <trkpt lat="66.31372" lon="13.54123">
        <ele>8.763824</ele>
        <time>2020-07-15T16:29:58.874Z</time>
      </trkpt>
      <trkpt lat="66.31413" lon="13.53919">
        <ele>8.599495</ele>
        <time>2020-07-15T16:30:14.520Z</time>
      </trkpt>
      <trkpt lat="66.31435" lon="13.53792">
        <ele>8.499368</ele>
        <time>2020-07-15T16:30:23.623Z</time>
      </trkpt>
      <trkpt lat="66.31438" lon="13.53773">
        <ele>8.484603</ele>
        <time>2020-07-15T16:30:25.207Z</time>
      </trkpt>
      <trkpt lat="66.31463" lon="13.53618">
        <ele>8.751602</ele>
        <time>2020-07-15T16:30:37.210Z</time>
      </trkpt>
      <trkpt lat="66.31476" lon="13.5344">
        <ele>9.078723</ele>
        <time>2020-07-15T16:30:51.299Z</time>
      </trkpt>
      <trkpt lat="66.31479" lon="13.53403">
        <ele>9.146968</ele>
        <time>2020-07-15T16:30:54.581Z</time>
      </trkpt>
      <trkpt lat="66.31484" lon="13.53362">
        <ele>9.22337</ele>
        <time>2020-07-15T16:30:57.947Z</time>
      </trkpt>
      <trkpt lat="66.31583" lon="13.52849">
        <ele>13.652234</ele>
        <time>2020-07-15T16:31:48.766Z</time>
      </trkpt>
      <trkpt lat="66.31614" lon="13.5272">
        <ele>16.799303</ele>
        <time>2020-07-15T16:32:06.211Z</time>
      </trkpt>
      <trkpt lat="66.31653" lon="13.52616">
        <ele>19.808186</ele>
        <time>2020-07-15T16:32:30.185Z</time>
      </trkpt>
      <trkpt lat="66.31719" lon="13.52518">
        <ele>25.597413</ele>
        <time>2020-07-15T16:33:06.806Z</time>
      </trkpt>
      <trkpt lat="66.31754" lon="13.52477">
        <ele>28.944125</ele>
        <time>2020-07-15T16:33:25.877Z</time>
      </trkpt>
      <trkpt lat="66.31779" lon="13.52449">
        <ele>31.322726</ele>
        <time>2020-07-15T16:33:40.125Z</time>
      </trkpt>
      <trkpt lat="66.31905" lon="13.523">
        <ele>38.086211</ele>
        <time>2020-07-15T16:34:37.318Z</time>
      </trkpt>
      <trkpt lat="66.31947" lon="13.52227">
        <ele>38.876257</ele>
        <time>2020-07-15T16:34:46.298Z</time>
      </trkpt>
      <trkpt lat="66.31952" lon="13.52215">
        <ele>38.982544</ele>
        <time>2020-07-15T16:34:47.283Z</time>
      </trkpt>
      <trkpt lat="66.31962" lon="13.52186">
        <ele>39.217083</ele>
        <time>2020-07-15T16:34:49.288Z</time>
      </trkpt>
      <trkpt lat="66.31981" lon="13.52111">
        <ele>39.28502</ele>
        <time>2020-07-15T16:34:53.824Z</time>
      </trkpt>
      <trkpt lat="66.31994" lon="13.52003">
        <ele>35.92055</ele>
        <time>2020-07-15T16:34:59.003Z</time>
      </trkpt>
      <trkpt lat="66.31995" lon="13.51891">
        <ele>32.54499</ele>
        <time>2020-07-15T16:35:04.050Z</time>
      </trkpt>
      <trkpt lat="66.31986" lon="13.5177">
        <ele>28.868357</ele>
        <time>2020-07-15T16:35:09.508Z</time>
      </trkpt>
      <trkpt lat="66.3198" lon="13.51711">
        <ele>27.046283</ele>
        <time>2020-07-15T16:35:12.240Z</time>
      </trkpt>
      <trkpt lat="66.31972" lon="13.51623">
        <ele>24.665558</ele>
        <time>2020-07-15T16:35:16.396Z</time>
      </trkpt>
      <trkpt lat="66.31968" lon="13.51534">
        <ele>22.456427</ele>
        <time>2020-07-15T16:35:20.517Z</time>
      </trkpt>
      <trkpt lat="66.31968" lon="13.51497">
        <ele>21.525146</ele>
        <time>2020-07-15T16:35:22.227Z</time>
      </trkpt>
      <trkpt lat="66.3197" lon="13.51464">
        <ele>20.712148</ele>
        <time>2020-07-15T16:35:23.771Z</time>
      </trkpt>
      <trkpt lat="66.31982" lon="13.51371">
        <ele>18.282983</ele>
        <time>2020-07-15T16:35:28.339Z</time>
      </trkpt>
      <trkpt lat="66.32007" lon="13.51276">
        <ele>15.466375</ele>
        <time>2020-07-15T16:35:33.970Z</time>
      </trkpt>
      <trkpt lat="66.32008" lon="13.51271">
        <ele>15.320984</ele>
        <time>2020-07-15T16:35:34.260Z</time>
      </trkpt>
      <trkpt lat="66.32012" lon="13.51258">
        <ele>15.007878</ele>
        <time>2020-07-15T16:35:35.050Z</time>
      </trkpt>
      <trkpt lat="66.32018" lon="13.51238">
        <ele>14.633654</ele>
        <time>2020-07-15T16:35:36.515Z</time>
      </trkpt>
      <trkpt lat="66.32023" lon="13.51216">
        <ele>14.262422</ele>
        <time>2020-07-15T16:35:37.904Z</time>
      </trkpt>
      <trkpt lat="66.32028" lon="13.51192">
        <ele>13.854004</ele>
        <time>2020-07-15T16:35:39.217Z</time>
      </trkpt>
      <trkpt lat="66.32056" lon="13.50941">
        <ele>9.963513</ele>
        <time>2020-07-15T16:35:52.568Z</time>
      </trkpt>
      <trkpt lat="66.32086" lon="13.50801">
        <ele>7.966571</ele>
        <time>2020-07-15T16:36:00.868Z</time>
      </trkpt>
      <trkpt lat="66.32088" lon="13.50786">
        <ele>7.827645</ele>
        <time>2020-07-15T16:36:01.668Z</time>
      </trkpt>
      <trkpt lat="66.32091" lon="13.50771">
        <ele>7.695828</ele>
        <time>2020-07-15T16:36:02.494Z</time>
      </trkpt>
      <trkpt lat="66.321" lon="13.50686">
        <ele>6.950457</ele>
        <time>2020-07-15T16:36:07.319Z</time>
      </trkpt>
      <trkpt lat="66.32102" lon="13.50665">
        <ele>6.771343</ele>
        <time>2020-07-15T16:36:08.498Z</time>
      </trkpt>
      <trkpt lat="66.32103" lon="13.50641">
        <ele>6.572931</ele>
        <time>2020-07-15T16:36:09.943Z</time>
      </trkpt>
      <trkpt lat="66.32103" lon="13.50567">
        <ele>5.951633</ele>
        <time>2020-07-15T16:36:14.025Z</time>
      </trkpt>
      <trkpt lat="66.32102" lon="13.50477">
        <ele>5.192318</ele>
        <time>2020-07-15T16:36:19.223Z</time>
      </trkpt>
      <trkpt lat="66.32101" lon="13.50383">
        <ele>5.261742</ele>
        <time>2020-07-15T16:36:24.826Z</time>
      </trkpt>
      <trkpt lat="66.32103" lon="13.50203">
        <ele>8.271359</ele>
        <time>2020-07-15T16:36:41.862Z</time>
      </trkpt>
      <trkpt lat="66.32111" lon="13.50107">
        <ele>9.903956</ele>
        <time>2020-07-15T16:36:52.034Z</time>
      </trkpt>
      <trkpt lat="66.32124" lon="13.50017">
        <ele>11.496228</ele>
        <time>2020-07-15T16:37:07.185Z</time>
      </trkpt>
      <trkpt lat="66.32127" lon="13.50005">
        <ele>11.734072</ele>
        <time>2020-07-15T16:37:10.002Z</time>
      </trkpt>
      <trkpt lat="66.32134" lon="13.49974">
        <ele>12.916486</ele>
        <time>2020-07-15T16:37:18.620Z</time>
      </trkpt>
      <trkpt lat="66.32165" lon="13.49873">
        <ele>22.986778</ele>
        <time>2020-07-15T16:37:50.313Z</time>
      </trkpt>
      <trkpt lat="66.32197" lon="13.49806">
        <ele>31.159201</ele>
        <time>2020-07-15T16:38:22.393Z</time>
      </trkpt>
      <trkpt lat="66.3221" lon="13.49784">
        <ele>34.336661</ele>
        <time>2020-07-15T16:38:37.149Z</time>
      </trkpt>
      <trkpt lat="66.32235" lon="13.49755">
        <ele>39.769884</ele>
        <time>2020-07-15T16:39:02.449Z</time>
      </trkpt>
      <trkpt lat="66.32304" lon="13.4971">
        <ele>55.346941</ele>
        <time>2020-07-15T16:40:07.134Z</time>
      </trkpt>
      <trkpt lat="66.32345" lon="13.49695">
        <ele>65.819953</ele>
        <time>2020-07-15T16:40:45.575Z</time>
      </trkpt>
      <trkpt lat="66.32455" lon="13.49679">
        <ele>93.207825</ele>
        <time>2020-07-15T16:42:26.992Z</time>
      </trkpt>
      <trkpt lat="66.34414" lon="13.49643">
        <ele>297.482958</ele>
        <time>2020-07-15T16:59:43.061Z</time>
      </trkpt>
      <trkpt lat="66.34496" lon="13.49616">
        <ele>262.863647</ele>
        <time>2020-07-15T16:59:51.695Z</time>
      </trkpt>
      <trkpt lat="66.34535" lon="13.49583">
        <ele>241.198901</ele>
        <time>2020-07-15T16:59:56.227Z</time>
      </trkpt>
      <trkpt lat="66.34586" lon="13.49531">
        <ele>212.431053</ele>
        <time>2020-07-15T17:00:02.912Z</time>
      </trkpt>
      <trkpt lat="66.34663" lon="13.49395">
        <ele>150.143405</ele>
        <time>2020-07-15T17:00:14.260Z</time>
      </trkpt>
      <trkpt lat="66.34681" lon="13.49359">
        <ele>134.108872</ele>
        <time>2020-07-15T17:00:17.021Z</time>
      </trkpt>
      <trkpt lat="66.34691" lon="13.49331">
        <ele>123.804495</ele>
        <time>2020-07-15T17:00:18.768Z</time>
      </trkpt>
      <trkpt lat="66.34712" lon="13.49262">
        <ele>99.767119</ele>
        <time>2020-07-15T17:00:22.766Z</time>
      </trkpt>
      <trkpt lat="66.34729" lon="13.4917">
        <ele>76.242613</ele>
        <time>2020-07-15T17:00:27.309Z</time>
      </trkpt>
      <trkpt lat="66.34735" lon="13.49012">
        <ele>56.669592</ele>
        <time>2020-07-15T17:00:34.137Z</time>
      </trkpt>
      <trkpt lat="66.34734" lon="13.48991">
        <ele>54.077119</ele>
        <time>2020-07-15T17:00:35.032Z</time>
      </trkpt>
      <trkpt lat="66.34733" lon="13.48965">
        <ele>50.898841</ele>
        <time>2020-07-15T17:00:36.122Z</time>
      </trkpt>
      <trkpt lat="66.3472" lon="13.48874">
        <ele>39.060138</ele>
        <time>2020-07-15T17:00:40.129Z</time>
      </trkpt>
      <trkpt lat="66.34709" lon="13.48813">
        <ele>30.871467</ele>
        <time>2020-07-15T17:00:42.900Z</time>
      </trkpt>
      <trkpt lat="66.34702" lon="13.48777">
        <ele>25.970461</ele>
        <time>2020-07-15T17:00:44.674Z</time>
      </trkpt>
      <trkpt lat="66.34693" lon="13.48714">
        <ele>23.169858</ele>
        <time>2020-07-15T17:00:47.483Z</time>
      </trkpt>
      <trkpt lat="66.34692" lon="13.48702">
        <ele>22.841494</ele>
        <time>2020-07-15T17:00:48.052Z</time>
      </trkpt>
      <trkpt lat="66.34691" lon="13.48691">
        <ele>22.526047</ele>
        <time>2020-07-15T17:00:48.599Z</time>
      </trkpt>
      <trkpt lat="66.34685" lon="13.48431">
        <ele>15.532456</ele>
        <time>2020-07-15T17:01:01.006Z</time>
      </trkpt>
      <trkpt lat="66.34678" lon="13.48347">
        <ele>13.234248</ele>
        <time>2020-07-15T17:01:05.495Z</time>
      </trkpt>
      <trkpt lat="66.34658" lon="13.48241">
        <ele>11.497643</ele>
        <time>2020-07-15T17:01:11.560Z</time>
      </trkpt>
      <trkpt lat="66.34605" lon="13.48033">
        <ele>8.506042</ele>
        <time>2020-07-15T17:01:24.668Z</time>
      </trkpt>
      <trkpt lat="66.34598" lon="13.4801">
        <ele>8.153318</ele>
        <time>2020-07-15T17:01:26.266Z</time>
      </trkpt>
      <trkpt lat="66.34592" lon="13.47993">
        <ele>7.892196</ele>
        <time>2020-07-15T17:01:27.587Z</time>
      </trkpt>
      <trkpt lat="66.3459" lon="13.47987">
        <ele>7.800772</ele>
        <time>2020-07-15T17:01:27.924Z</time>
      </trkpt>
      <trkpt lat="66.34471" lon="13.47688">
        <ele>4.300686</ele>
        <time>2020-07-15T17:01:51.639Z</time>
      </trkpt>
      <trkpt lat="66.34432" lon="13.47559">
        <ele>3.534793</ele>
        <time>2020-07-15T17:02:01.601Z</time>
      </trkpt>
      <trkpt lat="66.34405" lon="13.47419">
        <ele>3.205109</ele>
        <time>2020-07-15T17:02:11.647Z</time>
      </trkpt>
      <trkpt lat="66.3431" lon="13.46849">
        <ele>3.024467</ele>
        <time>2020-07-15T17:02:55.462Z</time>
      </trkpt>
      <trkpt lat="66.34307" lon="13.46824">
        <ele>3.040992</ele>
        <time>2020-07-15T17:02:57.778Z</time>
      </trkpt>
      <trkpt lat="66.34306" lon="13.46821">
        <ele>3.043021</ele>
        <time>2020-07-15T17:02:57.928Z</time>
      </trkpt>
      <trkpt lat="66.3429" lon="13.46646">
        <ele>4.192723</ele>
        <time>2020-07-15T17:03:13.892Z</time>
      </trkpt>
      <trkpt lat="66.34291" lon="13.46518">
        <ele>5.035001</ele>
        <time>2020-07-15T17:03:26.386Z</time>
      </trkpt>
      <trkpt lat="66.34294" lon="13.46476">
        <ele>5.323207</ele>
        <time>2020-07-15T17:03:31.072Z</time>
      </trkpt>
      <trkpt lat="66.34305" lon="13.46383">
        <ele>5.963772</ele>
        <time>2020-07-15T17:03:40.674Z</time>
      </trkpt>
      <trkpt lat="66.34333" lon="13.4626">
        <ele>6.573954</ele>
        <time>2020-07-15T17:03:54.037Z</time>
      </trkpt>
      <trkpt lat="66.34356" lon="13.46194">
        <ele>6.937933</ele>
        <time>2020-07-15T17:04:02.044Z</time>
      </trkpt>
      <trkpt lat="66.34366" lon="13.4617">
        <ele>7.086347</ele>
        <time>2020-07-15T17:04:05.342Z</time>
      </trkpt>
      <trkpt lat="66.34391" lon="13.46123">
        <ele>7.407191</ele>
        <time>2020-07-15T17:04:12.124Z</time>
      </trkpt>
      <trkpt lat="66.34405" lon="13.46098">
        <ele>7.591253</ele>
        <time>2020-07-15T17:04:15.083Z</time>
      </trkpt>
      <trkpt lat="66.34435" lon="13.4605">
        <ele>7.785242</ele>
        <time>2020-07-15T17:04:21.054Z</time>
      </trkpt>
      <trkpt lat="66.34447" lon="13.46032">
        <ele>7.585985</ele>
        <time>2020-07-15T17:04:23.377Z</time>
      </trkpt>
      <trkpt lat="66.34462" lon="13.46005">
        <ele>7.303028</ele>
        <time>2020-07-15T17:04:26.257Z</time>
      </trkpt>
      <trkpt lat="66.34471" lon="13.45988">
        <ele>7.1356</ele>
        <time>2020-07-15T17:04:28.136Z</time>
      </trkpt>
      <trkpt lat="66.3448" lon="13.45968">
        <ele>6.962108</ele>
        <time>2020-07-15T17:04:29.917Z</time>
      </trkpt>
      <trkpt lat="66.34499" lon="13.45917">
        <ele>6.543826</ele>
        <time>2020-07-15T17:04:33.911Z</time>
      </trkpt>
      <trkpt lat="66.34504" lon="13.45897">
        <ele>6.403974</ele>
        <time>2020-07-15T17:04:35.344Z</time>
      </trkpt>
      <trkpt lat="66.34509" lon="13.45877">
        <ele>6.263447</ele>
        <time>2020-07-15T17:04:36.592Z</time>
      </trkpt>
      <trkpt lat="66.34544" lon="13.4566">
        <ele>4.828343</ele>
        <time>2020-07-15T17:04:49.824Z</time>
      </trkpt>
      <trkpt lat="66.34555" lon="13.45545">
        <ele>4.030458</ele>
        <time>2020-07-15T17:04:56.454Z</time>
      </trkpt>
      <trkpt lat="66.34556" lon="13.45516">
        <ele>3.838545</ele>
        <time>2020-07-15T17:04:58.312Z</time>
      </trkpt>
      <trkpt lat="66.34556" lon="13.45491">
        <ele>3.667733</ele>
        <time>2020-07-15T17:04:59.664Z</time>
      </trkpt>
      <trkpt lat="66.34548" lon="13.45388">
        <ele>2.962583</ele>
        <time>2020-07-15T17:05:05.751Z</time>
      </trkpt>
      <trkpt lat="66.34519" lon="13.45238">
        <ele>2.164784</ele>
        <time>2020-07-15T17:05:16.005Z</time>
      </trkpt>
      <trkpt lat="66.34517" lon="13.45227">
        <ele>2.155137</ele>
        <time>2020-07-15T17:05:16.632Z</time>
      </trkpt>
      <trkpt lat="66.34512" lon="13.45195">
        <ele>2.127387</ele>
        <time>2020-07-15T17:05:19.282Z</time>
      </trkpt>
      <trkpt lat="66.34505" lon="13.45108">
        <ele>2.055965</ele>
        <time>2020-07-15T17:05:24.937Z</time>
      </trkpt>
      <trkpt lat="66.34506" lon="13.45006">
        <ele>1.973579</ele>
        <time>2020-07-15T17:05:32.301Z</time>
      </trkpt>
      <trkpt lat="66.3451" lon="13.44924">
        <ele>1.907022</ele>
        <time>2020-07-15T17:05:38.466Z</time>
      </trkpt>
      <trkpt lat="66.34514" lon="13.44862">
        <ele>1.856359</ele>
        <time>2020-07-15T17:05:43.168Z</time>
      </trkpt>
      <trkpt lat="66.34522" lon="13.44772">
        <ele>2.081387</ele>
        <time>2020-07-15T17:05:50.873Z</time>
      </trkpt>
      <trkpt lat="66.34538" lon="13.44672">
        <ele>2.393154</ele>
        <time>2020-07-15T17:05:59.674Z</time>
      </trkpt>
      <trkpt lat="66.34612" lon="13.44411">
        <ele>3.419897</ele>
        <time>2020-07-15T17:06:25.515Z</time>
      </trkpt>
      <trkpt lat="66.34633" lon="13.44306">
        <ele>3.948763</ele>
        <time>2020-07-15T17:06:35.199Z</time>
      </trkpt>
      <trkpt lat="66.34645" lon="13.4423">
        <ele>4.319581</ele>
        <time>2020-07-15T17:06:42.029Z</time>
      </trkpt>
      <trkpt lat="66.34648" lon="13.44213">
        <ele>4.403379</ele>
        <time>2020-07-15T17:06:43.969Z</time>
      </trkpt>
      <trkpt lat="66.34675" lon="13.44098">
        <ele>5.004088</ele>
        <time>2020-07-15T17:06:55.539Z</time>
      </trkpt>
      <trkpt lat="66.34712" lon="13.44007">
        <ele>5.862209</ele>
        <time>2020-07-15T17:07:07.550Z</time>
      </trkpt>
      <trkpt lat="66.34757" lon="13.43938">
        <ele>6.837328</ele>
        <time>2020-07-15T17:07:20.535Z</time>
      </trkpt>
      <trkpt lat="66.34863" lon="13.43813">
        <ele>8.64025</ele>
        <time>2020-07-15T17:07:49.318Z</time>
      </trkpt>
      <trkpt lat="66.34891" lon="13.43777">
        <ele>8.77735</ele>
        <time>2020-07-15T17:07:55.850Z</time>
      </trkpt>
      <trkpt lat="66.34901" lon="13.43764">
        <ele>8.826979</ele>
        <time>2020-07-15T17:07:58.243Z</time>
      </trkpt>
      <trkpt lat="66.3492" lon="13.43734">
        <ele>8.923807</ele>
        <time>2020-07-15T17:08:02.483Z</time>
      </trkpt>
      <trkpt lat="66.34926" lon="13.43723">
        <ele>8.954337</ele>
        <time>2020-07-15T17:08:04.145Z</time>
      </trkpt>
      <trkpt lat="66.34934" lon="13.43706">
        <ele>9.001437</ele>
        <time>2020-07-15T17:08:05.879Z</time>
      </trkpt>
      <trkpt lat="66.3496" lon="13.43639">
        <ele>9.162951</ele>
        <time>2020-07-15T17:08:12.330Z</time>
      </trkpt>
      <trkpt lat="66.34985" lon="13.43525">
        <ele>8.972385</ele>
        <time>2020-07-15T17:08:20.692Z</time>
      </trkpt>
      <trkpt lat="66.34995" lon="13.43418">
        <ele>8.22024</ele>
        <time>2020-07-15T17:08:27.326Z</time>
      </trkpt>
      <trkpt lat="66.34996" lon="13.43321">
        <ele>7.563695</ele>
        <time>2020-07-15T17:08:32.779Z</time>
      </trkpt>
      <trkpt lat="66.34995" lon="13.43288">
        <ele>7.341378</ele>
        <time>2020-07-15T17:08:34.611Z</time>
      </trkpt>
      <trkpt lat="66.34991" lon="13.43218">
        <ele>6.857073</ele>
        <time>2020-07-15T17:08:38.650Z</time>
      </trkpt>
      <trkpt lat="66.34977" lon="13.43042">
        <ele>5.528551</ele>
        <time>2020-07-15T17:08:48.560Z</time>
      </trkpt>
      <trkpt lat="66.34951" lon="13.42912">
        <ele>4.352255</ele>
        <time>2020-07-15T17:08:56.885Z</time>
      </trkpt>
      <trkpt lat="66.34947" lon="13.42896">
        <ele>4.193702</ele>
        <time>2020-07-15T17:08:57.925Z</time>
      </trkpt>
      <trkpt lat="66.34939" lon="13.42871">
        <ele>3.942189</ele>
        <time>2020-07-15T17:08:59.677Z</time>
      </trkpt>
      <trkpt lat="66.34929" lon="13.42845">
        <ele>3.654969</ele>
        <time>2020-07-15T17:09:01.930Z</time>
      </trkpt>
      <trkpt lat="66.3492" lon="13.42823">
        <ele>3.403684</ele>
        <time>2020-07-15T17:09:03.621Z</time>
      </trkpt>
      <trkpt lat="66.34917" lon="13.42815">
        <ele>3.312306</ele>
        <time>2020-07-15T17:09:04.224Z</time>
      </trkpt>
      <trkpt lat="66.34882" lon="13.42752">
        <ele>2.524079</ele>
        <time>2020-07-15T17:09:10.559Z</time>
      </trkpt>
      <trkpt lat="66.34849" lon="13.42712">
        <ele>2.104613</ele>
        <time>2020-07-15T17:09:15.822Z</time>
      </trkpt>
      <trkpt lat="66.34828" lon="13.42688">
        <ele>1.844331</ele>
        <time>2020-07-15T17:09:19.090Z</time>
      </trkpt>
      <trkpt lat="66.34741" lon="13.42595">
        <ele>0.759688</ele>
        <time>2020-07-15T17:09:33.853Z</time>
      </trkpt>
      <trkpt lat="66.34733" lon="13.42587">
        <ele>0.660755</ele>
        <time>2020-07-15T17:09:35.261Z</time>
      </trkpt>
      <trkpt lat="66.34554" lon="13.42384">
        <ele>0.109563</ele>
        <time>2020-07-15T17:10:09.070Z</time>
      </trkpt>
      <trkpt lat="66.34535" lon="13.42361">
        <ele>0.132394</ele>
        <time>2020-07-15T17:10:12.835Z</time>
      </trkpt>
      <trkpt lat="66.34512" lon="13.42331">
        <ele>0.160896</ele>
        <time>2020-07-15T17:10:17.570Z</time>
      </trkpt>
      <trkpt lat="66.34422" lon="13.42192">
        <ele>0.276009</ele>
        <time>2020-07-15T17:10:37.044Z</time>
      </trkpt>
      <trkpt lat="66.34129" lon="13.4159">
        <ele>1.375807</ele>
        <time>2020-07-15T17:11:48.748Z</time>
      </trkpt>
      <trkpt lat="66.34123" lon="13.41575">
        <ele>1.354534</ele>
        <time>2020-07-15T17:11:50.406Z</time>
      </trkpt>
      <trkpt lat="66.34109" lon="13.4154">
        <ele>1.304849</ele>
        <time>2020-07-15T17:11:53.895Z</time>
      </trkpt>
      <trkpt lat="66.33925" lon="13.41063">
        <ele>0.905954</ele>
        <time>2020-07-15T17:12:38.574Z</time>
      </trkpt>
      <trkpt lat="66.33762" lon="13.40753">
        <ele>2.29824</ele>
        <time>2020-07-15T17:13:18.919Z</time>
      </trkpt>
      <trkpt lat="66.33746" lon="13.40718">
        <ele>2.509892</ele>
        <time>2020-07-15T17:13:23.884Z</time>
      </trkpt>
      <trkpt lat="66.3374" lon="13.40704">
        <ele>2.591069</ele>
        <time>2020-07-15T17:13:26.267Z</time>
      </trkpt>
      <trkpt lat="66.337" lon="13.40579">
        <ele>3.992919</ele>
        <time>2020-07-15T17:13:42.422Z</time>
      </trkpt>
      <trkpt lat="66.33671" lon="13.40418">
        <ele>5.659627</ele>
        <time>2020-07-15T17:14:01.643Z</time>
      </trkpt>
      <trkpt lat="66.33568" lon="13.39255">
        <ele>14.607813</ele>
        <time>2020-07-15T17:15:57.174Z</time>
      </trkpt>
      <trkpt lat="66.33568" lon="13.39157">
        <ele>14.98142</ele>
        <time>2020-07-15T17:16:04.947Z</time>
      </trkpt>
      <trkpt lat="66.33573" lon="13.3906">
        <ele>15.356015</ele>
        <time>2020-07-15T17:16:12.466Z</time>
      </trkpt>
      <trkpt lat="66.3365" lon="13.38427">
        <ele>14.849806</ele>
        <time>2020-07-15T17:17:00.702Z</time>
      </trkpt>
      <trkpt lat="66.3366" lon="13.38251">
        <ele>13.542599</ele>
        <time>2020-07-15T17:17:10.682Z</time>
      </trkpt>
      <trkpt lat="66.33661" lon="13.38115">
        <ele>12.542</ele>
        <time>2020-07-15T17:17:17.909Z</time>
      </trkpt>
      <trkpt lat="66.33662" lon="13.38026">
        <ele>11.301923</ele>
        <time>2020-07-15T17:17:22.506Z</time>
      </trkpt>
      <trkpt lat="66.33662" lon="13.37972">
        <ele>10.500372</ele>
        <time>2020-07-15T17:17:25.227Z</time>
      </trkpt>
      <trkpt lat="66.33662" lon="13.37972">
        <ele>10.497403</ele>
        <time>2020-07-15T17:17:25.239Z</time>
      </trkpt>
      <trkpt lat="66.33661" lon="13.37931">
        <ele>9.881986</ele>
        <time>2020-07-15T17:17:27.473Z</time>
      </trkpt>
      <trkpt lat="66.33659" lon="13.37875">
        <ele>9.048095</ele>
        <time>2020-07-15T17:17:30.247Z</time>
      </trkpt>
      <trkpt lat="66.33647" lon="13.37628">
        <ele>5.550117</ele>
        <time>2020-07-15T17:17:42.746Z</time>
      </trkpt>
      <trkpt lat="66.33644" lon="13.37145">
        <ele>2.00512</ele>
        <time>2020-07-15T17:18:10.510Z</time>
      </trkpt>
      <trkpt lat="66.33644" lon="13.37072">
        <ele>2.039595</ele>
        <time>2020-07-15T17:18:15.155Z</time>
      </trkpt>
      <trkpt lat="66.33643" lon="13.37022">
        <ele>2.062928</ele>
        <time>2020-07-15T17:18:19.332Z</time>
      </trkpt>
      <trkpt lat="66.33633" lon="13.36904">
        <ele>2.119756</ele>
        <time>2020-07-15T17:18:28.446Z</time>
      </trkpt>
      <trkpt lat="66.33629" lon="13.3688">
        <ele>2.131879</ele>
        <time>2020-07-15T17:18:30.335Z</time>
      </trkpt>
      <trkpt lat="66.33624" lon="13.36853">
        <ele>2.145762</ele>
        <time>2020-07-15T17:18:33.347Z</time>
      </trkpt>
      <trkpt lat="66.33619" lon="13.36831">
        <ele>2.157516</ele>
        <time>2020-07-15T17:18:35.272Z</time>
      </trkpt>
      <trkpt lat="66.33617" lon="13.36823">
        <ele>2.162001</ele>
        <time>2020-07-15T17:18:35.981Z</time>
      </trkpt>
      <trkpt lat="66.33615" lon="13.36812">
        <ele>2.168264</ele>
        <time>2020-07-15T17:18:36.965Z</time>
      </trkpt>
      <trkpt lat="66.33608" lon="13.36785">
        <ele>2.183565</ele>
        <time>2020-07-15T17:18:39.988Z</time>
      </trkpt>
      <trkpt lat="66.33587" lon="13.36723">
        <ele>2.645821</ele>
        <time>2020-07-15T17:18:47.117Z</time>
      </trkpt>
      <trkpt lat="66.33585" lon="13.36718">
        <ele>2.684271</ele>
        <time>2020-07-15T17:18:47.947Z</time>
      </trkpt>
      <trkpt lat="66.33581" lon="13.36709">
        <ele>2.764007</ele>
        <time>2020-07-15T17:18:49.723Z</time>
      </trkpt>
      <trkpt lat="66.33539" lon="13.36637">
        <ele>3.524194</ele>
        <time>2020-07-15T17:19:01.327Z</time>
      </trkpt>
      <trkpt lat="66.33471" lon="13.36566">
        <ele>4.612586</ele>
        <time>2020-07-15T17:19:18.084Z</time>
      </trkpt>
      <trkpt lat="66.33444" lon="13.3654">
        <ele>4.995039</ele>
        <time>2020-07-15T17:19:24.786Z</time>
      </trkpt>
      <trkpt lat="66.33392" lon="13.3649">
        <ele>5.60707</ele>
        <time>2020-07-15T17:19:36.147Z</time>
      </trkpt>
      <trkpt lat="66.33324" lon="13.36423">
        <ele>6.421434</ele>
        <time>2020-07-15T17:19:51.977Z</time>
      </trkpt>
      <trkpt lat="66.3327" lon="13.36372">
        <ele>7.051226</ele>
        <time>2020-07-15T17:20:03.841Z</time>
      </trkpt>
      <trkpt lat="66.33227" lon="13.36328">
        <ele>7.571067</ele>
        <time>2020-07-15T17:20:13.903Z</time>
      </trkpt>
      <trkpt lat="66.3317" lon="13.36273">
        <ele>8.244156</ele>
        <time>2020-07-15T17:20:27.694Z</time>
      </trkpt>
      <trkpt lat="66.33099" lon="13.3618">
        <ele>8.914258</ele>
        <time>2020-07-15T17:20:44.625Z</time>
      </trkpt>
      <trkpt lat="66.3308" lon="13.36143">
        <ele>8.98986</ele>
        <time>2020-07-15T17:20:49.245Z</time>
      </trkpt>
      <trkpt lat="66.33064" lon="13.36111">
        <ele>9.053309</ele>
        <time>2020-07-15T17:20:52.807Z</time>
      </trkpt>
      <trkpt lat="66.32994" lon="13.35962">
        <ele>9.340261</ele>
        <time>2020-07-15T17:21:09.585Z</time>
      </trkpt>
      <trkpt lat="66.32958" lon="13.35882">
        <ele>9.545038</ele>
        <time>2020-07-15T17:21:18.209Z</time>
      </trkpt>
      <trkpt lat="66.32949" lon="13.3586">
        <ele>9.607202</ele>
        <time>2020-07-15T17:21:20.562Z</time>
      </trkpt>
      <trkpt lat="66.32928" lon="13.35809">
        <ele>9.746687</ele>
        <time>2020-07-15T17:21:25.686Z</time>
      </trkpt>
      <trkpt lat="66.32921" lon="13.35791">
        <ele>9.795143</ele>
        <time>2020-07-15T17:21:27.655Z</time>
      </trkpt>
      <trkpt lat="66.32858" lon="13.35595">
        <ele>10.36337</ele>
        <time>2020-07-15T17:21:47.424Z</time>
      </trkpt>
      <trkpt lat="66.32815" lon="13.35416">
        <ele>11.995891</ele>
        <time>2020-07-15T17:22:07.260Z</time>
      </trkpt>
      <trkpt lat="66.32803" lon="13.35356">
        <ele>12.523101</ele>
        <time>2020-07-15T17:22:14.094Z</time>
      </trkpt>
      <trkpt lat="66.32784" lon="13.3525">
        <ele>13.440844</ele>
        <time>2020-07-15T17:22:25.984Z</time>
      </trkpt>
      <trkpt lat="66.32764" lon="13.35136">
        <ele>14.490122</ele>
        <time>2020-07-15T17:22:38.999Z</time>
      </trkpt>
      <trkpt lat="66.32762" lon="13.35126">
        <ele>14.587526</ele>
        <time>2020-07-15T17:22:40.410Z</time>
      </trkpt>
      <trkpt lat="66.32435" lon="13.3324">
        <ele>32.045773</ele>
        <time>2020-07-15T17:26:04.314Z</time>
      </trkpt>
      <trkpt lat="66.3241" lon="13.33126">
        <ele>32.729849</ele>
        <time>2020-07-15T17:26:15.593Z</time>
      </trkpt>
      <trkpt lat="66.3238" lon="13.33023">
        <ele>32.743156</ele>
        <time>2020-07-15T17:26:25.362Z</time>
      </trkpt>
      <trkpt lat="66.32317" lon="13.32867">
        <ele>32.766185</ele>
        <time>2020-07-15T17:26:41.402Z</time>
      </trkpt>
      <trkpt lat="66.32301" lon="13.32835">
        <ele>32.771598</ele>
        <time>2020-07-15T17:26:44.585Z</time>
      </trkpt>
      <trkpt lat="66.32284" lon="13.32803">
        <ele>32.302251</ele>
        <time>2020-07-15T17:26:47.786Z</time>
      </trkpt>
      <trkpt lat="66.32248" lon="13.32736">
        <ele>31.024116</ele>
        <time>2020-07-15T17:26:54.237Z</time>
      </trkpt>
      <trkpt lat="66.32207" lon="13.32652">
        <ele>29.537884</ele>
        <time>2020-07-15T17:27:01.262Z</time>
      </trkpt>
      <trkpt lat="66.32167" lon="13.32547">
        <ele>27.887596</ele>
        <time>2020-07-15T17:27:08.712Z</time>
      </trkpt>
      <trkpt lat="66.32142" lon="13.32468">
        <ele>26.215332</ele>
        <time>2020-07-15T17:27:13.650Z</time>
      </trkpt>
      <trkpt lat="66.32102" lon="13.32303">
        <ele>22.771973</ele>
        <time>2020-07-15T17:27:23.041Z</time>
      </trkpt>
      <trkpt lat="66.32066" lon="13.32109">
        <ele>19.293052</ele>
        <time>2020-07-15T17:27:33.645Z</time>
      </trkpt>
      <trkpt lat="66.31901" lon="13.31084">
        <ele>9.415819</ele>
        <time>2020-07-15T17:28:35.043Z</time>
      </trkpt>
      <trkpt lat="66.31893" lon="13.31019">
        <ele>9.04167</ele>
        <time>2020-07-15T17:28:39.219Z</time>
      </trkpt>
      <trkpt lat="66.31875" lon="13.30869">
        <ele>8.406987</ele>
        <time>2020-07-15T17:28:49.976Z</time>
      </trkpt>
      <trkpt lat="66.31831" lon="13.30564">
        <ele>9.272535</ele>
        <time>2020-07-15T17:29:16.839Z</time>
      </trkpt>
      <trkpt lat="66.31784" lon="13.30302">
        <ele>9.554045</ele>
        <time>2020-07-15T17:29:40.592Z</time>
      </trkpt>
      <trkpt lat="66.31721" lon="13.30014">
        <ele>9.295849</ele>
        <time>2020-07-15T17:30:02.219Z</time>
      </trkpt>
      <trkpt lat="66.31606" lon="13.29559">
        <ele>7.419124</ele>
        <time>2020-07-15T17:30:35.147Z</time>
      </trkpt>
      <trkpt lat="66.31558" lon="13.29323">
        <ele>6.852304</ele>
        <time>2020-07-15T17:30:53.097Z</time>
      </trkpt>
      <trkpt lat="66.31455" lon="13.28687">
        <ele>7.711773</ele>
        <time>2020-07-15T17:31:46.636Z</time>
      </trkpt>
      <trkpt lat="66.31435" lon="13.28568">
        <ele>7.803474</ele>
        <time>2020-07-15T17:31:56.325Z</time>
      </trkpt>
      <trkpt lat="66.31416" lon="13.28462">
        <ele>7.81632</ele>
        <time>2020-07-15T17:32:04.215Z</time>
      </trkpt>
      <trkpt lat="66.31397" lon="13.28367">
        <ele>7.346911</ele>
        <time>2020-07-15T17:32:11.075Z</time>
      </trkpt>
      <trkpt lat="66.31378" lon="13.28269">
        <ele>6.860911</ele>
        <time>2020-07-15T17:32:17.900Z</time>
      </trkpt>
      <trkpt lat="66.31359" lon="13.28176">
        <ele>6.394659</ele>
        <time>2020-07-15T17:32:24.066Z</time>
      </trkpt>
      <trkpt lat="66.31322" lon="13.2798">
        <ele>5.450114</ele>
        <time>2020-07-15T17:32:36.672Z</time>
      </trkpt>
      <trkpt lat="66.31289" lon="13.27761">
        <ele>4.458524</ele>
        <time>2020-07-15T17:32:50.873Z</time>
      </trkpt>
      <trkpt lat="66.31034" lon="13.25877">
        <ele>2.593026</ele>
        <time>2020-07-15T17:35:09.410Z</time>
      </trkpt>
      <trkpt lat="66.30912" lon="13.25039">
        <ele>1.915011</ele>
        <time>2020-07-15T17:36:11.117Z</time>
      </trkpt>
      <trkpt lat="66.30896" lon="13.24928">
        <ele>1.818864</ele>
        <time>2020-07-15T17:36:19.562Z</time>
      </trkpt>
      <trkpt lat="66.30894" lon="13.24911">
        <ele>1.804668</ele>
        <time>2020-07-15T17:36:20.821Z</time>
      </trkpt>
      <trkpt lat="66.30891" lon="13.24893">
        <ele>1.788948</ele>
        <time>2020-07-15T17:36:22.093Z</time>
      </trkpt>
      <trkpt lat="66.30733" lon="13.23816">
        <ele>0.90971</ele>
        <time>2020-07-15T17:37:41.417Z</time>
      </trkpt>
      <trkpt lat="66.30627" lon="13.22713">
        <ele>2.093548</ele>
        <time>2020-07-15T17:39:04.841Z</time>
      </trkpt>
      <trkpt lat="66.30611" lon="13.22466">
        <ele>3.041374</ele>
        <time>2020-07-15T17:39:27.688Z</time>
      </trkpt>
      <trkpt lat="66.30601" lon="13.22227">
        <ele>4.485937</ele>
        <time>2020-07-15T17:39:50.362Z</time>
      </trkpt>
      <trkpt lat="66.30561" lon="13.20902">
        <ele>13.536063</ele>
        <time>2020-07-15T17:41:44.936Z</time>
      </trkpt>
      <trkpt lat="66.30561" lon="13.20749">
        <ele>16.239793</ele>
        <time>2020-07-15T17:42:09.262Z</time>
      </trkpt>
      <trkpt lat="66.30563" lon="13.20688">
        <ele>20.045134</ele>
        <time>2020-07-15T17:42:21.311Z</time>
      </trkpt>
      <trkpt lat="66.30567" lon="13.20639">
        <ele>23.087438</ele>
        <time>2020-07-15T17:42:31.830Z</time>
      </trkpt>
      <trkpt lat="66.30577" lon="13.20546">
        <ele>29.081628</ele>
        <time>2020-07-15T17:42:54.811Z</time>
      </trkpt>
      <trkpt lat="66.30581" lon="13.20515">
        <ele>31.063845</ele>
        <time>2020-07-15T17:43:03.472Z</time>
      </trkpt>
      <trkpt lat="66.30632" lon="13.20143">
        <ele>63.684202</ele>
        <time>2020-07-15T17:45:20.075Z</time>
      </trkpt>
      <trkpt lat="66.30728" lon="13.196">
        <ele>132.786471</ele>
        <time>2020-07-15T17:48:59.994Z</time>
      </trkpt>
      <trkpt lat="66.30805" lon="13.1926">
        <ele>192.32132</ele>
        <time>2020-07-15T17:51:27.891Z</time>
      </trkpt>
      <trkpt lat="66.309" lon="13.18846">
        <ele>279.253861</ele>
        <time>2020-07-15T17:54:32.682Z</time>
      </trkpt>
      <trkpt lat="66.31088" lon="13.18105">
        <ele>451.932339</ele>
        <time>2020-07-15T18:00:20.020Z</time>
      </trkpt>
      <trkpt lat="66.31319" lon="13.17415">
        <ele>557.25943</ele>
        <time>2020-07-15T18:05:53.687Z</time>
      </trkpt>
      <trkpt lat="66.31563" lon="13.16866">
        <ele>543.683195</ele>
        <time>2020-07-15T18:06:46.495Z</time>
      </trkpt>
      <trkpt lat="66.31751" lon="13.16482">
        <ele>427.01067</ele>
        <time>2020-07-15T18:07:13.311Z</time>
      </trkpt>
      <trkpt lat="66.31874" lon="13.16347">
        <ele>326.622864</ele>
        <time>2020-07-15T18:07:29.825Z</time>
      </trkpt>
      <trkpt lat="66.32017" lon="13.16254">
        <ele>221.096083</ele>
        <time>2020-07-15T18:07:47.713Z</time>
      </trkpt>
      <trkpt lat="66.3215" lon="13.16214">
        <ele>141.0731</ele>
        <time>2020-07-15T18:08:02.593Z</time>
      </trkpt>
      <trkpt lat="66.32393" lon="13.16188">
        <ele>49.19851</ele>
        <time>2020-07-15T18:08:28.088Z</time>
      </trkpt>
      <trkpt lat="66.32456" lon="13.16178">
        <ele>29.990664</ele>
        <time>2020-07-15T18:08:34.474Z</time>
      </trkpt>
      <trkpt lat="66.32475" lon="13.16176">
        <ele>23.982523</ele>
        <time>2020-07-15T18:08:36.462Z</time>
      </trkpt>
      <trkpt lat="66.32519" lon="13.16183">
        <ele>18.405826</ele>
        <time>2020-07-15T18:08:40.923Z</time>
      </trkpt>
      <trkpt lat="66.32569" lon="13.16214">
        <ele>12.917731</ele>
        <time>2020-07-15T18:08:46.330Z</time>
      </trkpt>
      <trkpt lat="66.32603" lon="13.16253">
        <ele>8.849148</ele>
        <time>2020-07-15T18:08:50.663Z</time>
      </trkpt>
      <trkpt lat="66.32677" lon="13.16364">
        <ele>2.898544</ele>
        <time>2020-07-15T18:09:02.622Z</time>
      </trkpt>
      <trkpt lat="66.32687" lon="13.16375">
        <ele>2.773006</ele>
        <time>2020-07-15T18:09:04.232Z</time>
      </trkpt>
      <trkpt lat="66.32689" lon="13.16377">
        <ele>2.74437</ele>
        <time>2020-07-15T18:09:04.577Z</time>
      </trkpt>
      <trkpt lat="66.32706" lon="13.16393">
        <ele>2.528739</ele>
        <time>2020-07-15T18:09:07.226Z</time>
      </trkpt>
      <trkpt lat="66.32734" lon="13.16412">
        <ele>2.17397</ele>
        <time>2020-07-15T18:09:11.817Z</time>
      </trkpt>
      <trkpt lat="66.32743" lon="13.16415">
        <ele>2.067162</ele>
        <time>2020-07-15T18:09:13.194Z</time>
      </trkpt>
      <trkpt lat="66.32767" lon="13.1642">
        <ele>1.78524</ele>
        <time>2020-07-15T18:09:17.067Z</time>
      </trkpt>
      <trkpt lat="66.32772" lon="13.1642">
        <ele>1.721612</ele>
        <time>2020-07-15T18:09:17.882Z</time>
      </trkpt>
      <trkpt lat="66.32794" lon="13.16417">
        <ele>1.455999</ele>
        <time>2020-07-15T18:09:21.608Z</time>
      </trkpt>
      <trkpt lat="66.32815" lon="13.16409">
        <ele>1.198202</ele>
        <time>2020-07-15T18:09:25.136Z</time>
      </trkpt>
      <trkpt lat="66.32825" lon="13.16403">
        <ele>1.151739</ele>
        <time>2020-07-15T18:09:27.036Z</time>
      </trkpt>
      <trkpt lat="66.32876" lon="13.16351">
        <ele>1.107468</ele>
        <time>2020-07-15T18:09:36.401Z</time>
      </trkpt>
      <trkpt lat="66.3292" lon="13.16278">
        <ele>1.064616</ele>
        <time>2020-07-15T18:09:45.705Z</time>
      </trkpt>
      <trkpt lat="66.32945" lon="13.16231">
        <ele>1.039002</ele>
        <time>2020-07-15T18:09:51.380Z</time>
      </trkpt>
      <trkpt lat="66.33058" lon="13.16017">
        <ele>1.07862</ele>
        <time>2020-07-15T18:10:17.121Z</time>
      </trkpt>
      <trkpt lat="66.3314" lon="13.1585">
        <ele>1.107879</ele>
        <time>2020-07-15T18:10:36.271Z</time>
      </trkpt>
      <trkpt lat="66.33154" lon="13.15817">
        <ele>1.098864</ele>
        <time>2020-07-15T18:10:39.684Z</time>
      </trkpt>
      <trkpt lat="66.33167" lon="13.15786">
        <ele>1.090433</ele>
        <time>2020-07-15T18:10:42.880Z</time>
      </trkpt>
      <trkpt lat="66.33222" lon="13.15634">
        <ele>1.051228</ele>
        <time>2020-07-15T18:10:57.590Z</time>
      </trkpt>
      <trkpt lat="66.33281" lon="13.15429">
        <ele>0.85951</ele>
        <time>2020-07-15T18:11:14.910Z</time>
      </trkpt>
      <trkpt lat="66.333" lon="13.15349">
        <ele>0.76905</ele>
        <time>2020-07-15T18:11:21.289Z</time>
      </trkpt>
      <trkpt lat="66.33313" lon="13.15287">
        <ele>0.70202</ele>
        <time>2020-07-15T18:11:25.954Z</time>
      </trkpt>
      <trkpt lat="66.33334" lon="13.15166">
        <ele>0.714146</ele>
        <time>2020-07-15T18:11:34.958Z</time>
      </trkpt>
      <trkpt lat="66.33353" lon="13.15009">
        <ele>1.238126</ele>
        <time>2020-07-15T18:11:46.601Z</time>
      </trkpt>
      <trkpt lat="66.33355" lon="13.14979">
        <ele>1.336746</ele>
        <time>2020-07-15T18:11:48.699Z</time>
      </trkpt>
      <trkpt lat="66.3336" lon="13.14908">
        <ele>1.568003</ele>
        <time>2020-07-15T18:11:54.151Z</time>
      </trkpt>
      <trkpt lat="66.33362" lon="13.14842">
        <ele>1.779104</ele>
        <time>2020-07-15T18:11:59.226Z</time>
      </trkpt>
      <trkpt lat="66.33363" lon="13.14777">
        <ele>1.987806</ele>
        <time>2020-07-15T18:12:06.340Z</time>
      </trkpt>
      <trkpt lat="66.33363" lon="13.14749">
        <ele>2.2533</ele>
        <time>2020-07-15T18:12:08.828Z</time>
      </trkpt>
      <trkpt lat="66.33353" lon="13.14575">
        <ele>5.787321</ele>
        <time>2020-07-15T18:12:31.110Z</time>
      </trkpt>
      <trkpt lat="66.33347" lon="13.14533">
        <ele>6.680215</ele>
        <time>2020-07-15T18:12:38.575Z</time>
      </trkpt>
      <trkpt lat="66.33346" lon="13.14522">
        <ele>6.90927</ele>
        <time>2020-07-15T18:12:40.225Z</time>
      </trkpt>
      <trkpt lat="66.33337" lon="13.14475">
        <ele>7.939723</ele>
        <time>2020-07-15T18:12:47.349Z</time>
      </trkpt>
      <trkpt lat="66.33336" lon="13.1447">
        <ele>8.066595</ele>
        <time>2020-07-15T18:12:49.677Z</time>
      </trkpt>
      <trkpt lat="66.33292" lon="13.14323">
        <ele>11.519959</ele>
        <time>2020-07-15T18:13:16.323Z</time>
      </trkpt>
      <trkpt lat="66.33272" lon="13.14278">
        <ele>12.458214</ele>
        <time>2020-07-15T18:13:24.889Z</time>
      </trkpt>
      <trkpt lat="66.33242" lon="13.14222">
        <ele>13.755168</ele>
        <time>2020-07-15T18:13:37.459Z</time>
      </trkpt>
      <trkpt lat="66.33182" lon="13.14113">
        <ele>16.322253</ele>
        <time>2020-07-15T18:13:58.582Z</time>
      </trkpt>
      <trkpt lat="66.33058" lon="13.13884">
        <ele>18.743411</ele>
        <time>2020-07-15T18:14:26.527Z</time>
      </trkpt>
      <trkpt lat="66.33039" lon="13.13845">
        <ele>19.036461</ele>
        <time>2020-07-15T18:14:32.043Z</time>
      </trkpt>
      <trkpt lat="66.33015" lon="13.13793">
        <ele>19.561672</ele>
        <time>2020-07-15T18:14:39.813Z</time>
      </trkpt>
      <trkpt lat="66.32641" lon="13.12918">
        <ele>44.110772</ele>
        <time>2020-07-15T18:17:35.768Z</time>
      </trkpt>
      <trkpt lat="66.326" lon="13.12807">
        <ele>44.985871</ele>
        <time>2020-07-15T18:17:51.290Z</time>
      </trkpt>
      <trkpt lat="66.32587" lon="13.1276">
        <ele>44.897521</ele>
        <time>2020-07-15T18:17:56.765Z</time>
      </trkpt>
      <trkpt lat="66.32577" lon="13.12718">
        <ele>44.823123</ele>
        <time>2020-07-15T18:18:00.409Z</time>
      </trkpt>
      <trkpt lat="66.32558" lon="13.12595">
        <ele>44.622762</ele>
        <time>2020-07-15T18:18:08.377Z</time>
      </trkpt>
      <trkpt lat="66.32543" lon="13.12379">
        <ele>42.482144</ele>
        <time>2020-07-15T18:18:19.737Z</time>
      </trkpt>
      <trkpt lat="66.32536" lon="13.12294">
        <ele>40.859791</ele>
        <time>2020-07-15T18:18:23.941Z</time>
      </trkpt>
      <trkpt lat="66.32532" lon="13.12245">
        <ele>39.908836</ele>
        <time>2020-07-15T18:18:26.359Z</time>
      </trkpt>
      <trkpt lat="66.32511" lon="13.12093">
        <ele>36.886797</ele>
        <time>2020-07-15T18:18:34.075Z</time>
      </trkpt>
      <trkpt lat="66.32445" lon="13.11689">
        <ele>29.355454</ele>
        <time>2020-07-15T18:18:55.516Z</time>
      </trkpt>
      <trkpt lat="66.32431" lon="13.11515">
        <ele>27.699341</ele>
        <time>2020-07-15T18:19:05.413Z</time>
      </trkpt>
      <trkpt lat="66.32427" lon="13.11136">
        <ele>25.529287</ele>
        <time>2020-07-15T18:19:29.714Z</time>
      </trkpt>
      <trkpt lat="66.32421" lon="13.11029">
        <ele>24.742024</ele>
        <time>2020-07-15T18:19:36.575Z</time>
      </trkpt>
      <trkpt lat="66.32402" lon="13.10881">
        <ele>23.605626</ele>
        <time>2020-07-15T18:19:45.309Z</time>
      </trkpt>
      <trkpt lat="66.32371" lon="13.10756">
        <ele>22.525043</ele>
        <time>2020-07-15T18:19:53.290Z</time>
      </trkpt>
      <trkpt lat="66.32329" lon="13.10623">
        <ele>21.128435</ele>
        <time>2020-07-15T18:20:02.468Z</time>
      </trkpt>
      <trkpt lat="66.32235" lon="13.10324">
        <ele>18.613245</ele>
        <time>2020-07-15T18:20:24.401Z</time>
      </trkpt>
      <trkpt lat="66.32196" lon="13.10181">
        <ele>18.15486</ele>
        <time>2020-07-15T18:20:35.947Z</time>
      </trkpt>
      <trkpt lat="66.32166" lon="13.10048">
        <ele>17.756233</ele>
        <time>2020-07-15T18:20:46.427Z</time>
      </trkpt>
      <trkpt lat="66.32128" lon="13.0986">
        <ele>19.160294</ele>
        <time>2020-07-15T18:21:02.702Z</time>
      </trkpt>
      <trkpt lat="66.32045" lon="13.09459">
        <ele>23.990141</ele>
        <time>2020-07-15T18:21:52.737Z</time>
      </trkpt>
      <trkpt lat="66.31991" lon="13.09194">
        <ele>28.00048</ele>
        <time>2020-07-15T18:22:32.119Z</time>
      </trkpt>
      <trkpt lat="66.31918" lon="13.08838">
        <ele>30.54177</ele>
        <time>2020-07-15T18:23:08.907Z</time>
      </trkpt>
      <trkpt lat="66.31855" lon="13.08538">
        <ele>27.369628</ele>
        <time>2020-07-15T18:23:26.919Z</time>
      </trkpt>
      <trkpt lat="66.31817" lon="13.08337">
        <ele>25.623267</ele>
        <time>2020-07-15T18:23:38.699Z</time>
      </trkpt>
      <trkpt lat="66.3181" lon="13.08275">
        <ele>25.199385</ele>
        <time>2020-07-15T18:23:42.371Z</time>
      </trkpt>
      <trkpt lat="66.31805" lon="13.08216">
        <ele>24.806515</ele>
        <time>2020-07-15T18:23:46.009Z</time>
      </trkpt>
      <trkpt lat="66.31805" lon="13.08046">
        <ele>23.698971</ele>
        <time>2020-07-15T18:23:57.033Z</time>
      </trkpt>
      <trkpt lat="66.31839" lon="13.07503">
        <ele>20.929536</ele>
        <time>2020-07-15T18:24:32.037Z</time>
      </trkpt>
      <trkpt lat="66.31873" lon="13.07004">
        <ele>14.729523</ele>
        <time>2020-07-15T18:24:58.235Z</time>
      </trkpt>
      <trkpt lat="66.31895" lon="13.0684">
        <ele>12.351644</ele>
        <time>2020-07-15T18:25:07.098Z</time>
      </trkpt>
      <trkpt lat="66.31928" lon="13.06708">
        <ele>10.250945</ele>
        <time>2020-07-15T18:25:15.270Z</time>
      </trkpt>
      <trkpt lat="66.3197" lon="13.06602">
        <ele>9.060264</ele>
        <time>2020-07-15T18:25:23.260Z</time>
      </trkpt>
      <trkpt lat="66.32147" lon="13.06288">
        <ele>6.725734</ele>
        <time>2020-07-15T18:25:55.486Z</time>
      </trkpt>
      <trkpt lat="66.32213" lon="13.06219">
        <ele>6.724756</ele>
        <time>2020-07-15T18:26:11.436Z</time>
      </trkpt>
      <trkpt lat="66.32249" lon="13.06191">
        <ele>7.657311</ele>
        <time>2020-07-15T18:26:20.929Z</time>
      </trkpt>
      <trkpt lat="66.32252" lon="13.06188">
        <ele>7.759351</ele>
        <time>2020-07-15T18:26:21.818Z</time>
      </trkpt>
      <trkpt lat="66.32262" lon="13.06178">
        <ele>8.096221</ele>
        <time>2020-07-15T18:26:24.396Z</time>
      </trkpt>
      <trkpt lat="66.32273" lon="13.06161">
        <ele>8.504562</ele>
        <time>2020-07-15T18:26:27.607Z</time>
      </trkpt>
      <trkpt lat="66.32275" lon="13.06158">
        <ele>8.585045</ele>
        <time>2020-07-15T18:26:28.833Z</time>
      </trkpt>
      <trkpt lat="66.32365" lon="13.05886">
        <ele>13.056599</ele>
        <time>2020-07-15T18:27:10.834Z</time>
      </trkpt>
      <trkpt lat="66.32384" lon="13.05795">
        <ele>14.32538</ele>
        <time>2020-07-15T18:27:22.980Z</time>
      </trkpt>
      <trkpt lat="66.32398" lon="13.05684">
        <ele>15.749523</ele>
        <time>2020-07-15T18:27:35.955Z</time>
      </trkpt>
      <trkpt lat="66.3244" lon="13.05132">
        <ele>21.295633</ele>
        <time>2020-07-15T18:28:34.106Z</time>
      </trkpt>
      <trkpt lat="66.32464" lon="13.04989">
        <ele>22.022621</ele>
        <time>2020-07-15T18:28:47.637Z</time>
      </trkpt>
      <trkpt lat="66.32495" lon="13.0488">
        <ele>22.263256</ele>
        <time>2020-07-15T18:28:58.455Z</time>
      </trkpt>
      <trkpt lat="66.32606" lon="13.046">
        <ele>22.412979</ele>
        <time>2020-07-15T18:29:25.631Z</time>
      </trkpt>
      <trkpt lat="66.3265" lon="13.04494">
        <ele>22.182242</ele>
        <time>2020-07-15T18:29:35.735Z</time>
      </trkpt>
      <trkpt lat="66.32683" lon="13.04412">
        <ele>22.007769</ele>
        <time>2020-07-15T18:29:43.466Z</time>
      </trkpt>
      <trkpt lat="66.32789" lon="13.04148">
        <ele>21.406987</ele>
        <time>2020-07-15T18:30:08.645Z</time>
      </trkpt>
      <trkpt lat="66.32905" lon="13.03798">
        <ele>20.640913</ele>
        <time>2020-07-15T18:30:39.023Z</time>
      </trkpt>
      <trkpt lat="66.32983" lon="13.03556">
        <ele>19.96419</ele>
        <time>2020-07-15T18:30:59.425Z</time>
      </trkpt>
      <trkpt lat="66.33014" lon="13.03461">
        <ele>19.679751</ele>
        <time>2020-07-15T18:31:07.405Z</time>
      </trkpt>
      <trkpt lat="66.33056" lon="13.03353">
        <ele>19.33391</ele>
        <time>2020-07-15T18:31:17.202Z</time>
      </trkpt>
      <trkpt lat="66.33099" lon="13.03269">
        <ele>19.024602</ele>
        <time>2020-07-15T18:31:26.134Z</time>
      </trkpt>
      <trkpt lat="66.33246" lon="13.03069">
        <ele>18.175396</ele>
        <time>2020-07-15T18:31:53.481Z</time>
      </trkpt>
      <trkpt lat="66.33281" lon="13.03007">
        <ele>17.990851</ele>
        <time>2020-07-15T18:32:00.782Z</time>
      </trkpt>
      <trkpt lat="66.33308" lon="13.02946">
        <ele>17.836792</ele>
        <time>2020-07-15T18:32:06.927Z</time>
      </trkpt>
      <trkpt lat="66.33344" lon="13.02839">
        <ele>17.604537</ele>
        <time>2020-07-15T18:32:16.428Z</time>
      </trkpt>
      <trkpt lat="66.33374" lon="13.02739">
        <ele>17.401537</ele>
        <time>2020-07-15T18:32:25.140Z</time>
      </trkpt>
      <trkpt lat="66.33506" lon="13.02293">
        <ele>15.924867</ele>
        <time>2020-07-15T18:33:01.927Z</time>
      </trkpt>
      <trkpt lat="66.3356" lon="13.02126">
        <ele>15.006641</ele>
        <time>2020-07-15T18:33:14.499Z</time>
      </trkpt>
      <trkpt lat="66.33574" lon="13.02088">
        <ele>14.67723</ele>
        <time>2020-07-15T18:33:17.526Z</time>
      </trkpt>
      <trkpt lat="66.3358" lon="13.02072">
        <ele>14.544344</ele>
        <time>2020-07-15T18:33:18.641Z</time>
      </trkpt>
      <trkpt lat="66.3361" lon="13.01991">
        <ele>13.835671</ele>
        <time>2020-07-15T18:33:25.064Z</time>
      </trkpt>
      <trkpt lat="66.33659" lon="13.01866">
        <ele>12.722531</ele>
        <time>2020-07-15T18:33:35.048Z</time>
      </trkpt>
      <trkpt lat="66.33768" lon="13.01587">
        <ele>11.29305</ele>
        <time>2020-07-15T18:34:00.037Z</time>
      </trkpt>
      <trkpt lat="66.33805" lon="13.01491">
        <ele>10.827377</ele>
        <time>2020-07-15T18:34:08.649Z</time>
      </trkpt>
      <trkpt lat="66.33817" lon="13.0146">
        <ele>10.664198</ele>
        <time>2020-07-15T18:34:11.285Z</time>
      </trkpt>
      <trkpt lat="66.33828" lon="13.01432">
        <ele>10.512749</ele>
        <time>2020-07-15T18:34:13.741Z</time>
      </trkpt>
      <trkpt lat="66.33848" lon="13.01383">
        <ele>10.247557</ele>
        <time>2020-07-15T18:34:18.038Z</time>
      </trkpt>
      <trkpt lat="66.33867" lon="13.01335">
        <ele>9.990086</ele>
        <time>2020-07-15T18:34:22.152Z</time>
      </trkpt>
      <trkpt lat="66.33914" lon="13.01173">
        <ele>9.235262</ele>
        <time>2020-07-15T18:34:34.380Z</time>
      </trkpt>
      <trkpt lat="66.33976" lon="13.00812">
        <ele>9.44056</ele>
        <time>2020-07-15T18:35:01.400Z</time>
      </trkpt>
      <trkpt lat="66.33992" lon="13.00761">
        <ele>9.613227</ele>
        <time>2020-07-15T18:35:07.799Z</time>
      </trkpt>
      <trkpt lat="66.3401" lon="13.00741">
        <ele>10.138068</ele>
        <time>2020-07-15T18:35:12.734Z</time>
      </trkpt>
      <trkpt lat="66.34064" lon="13.00714">
        <ele>11.625626</ele>
        <time>2020-07-15T18:35:27.638Z</time>
      </trkpt>
      <trkpt lat="66.34163" lon="13.00632">
        <ele>14.376565</ele>
        <time>2020-07-15T18:35:57.484Z</time>
      </trkpt>
      <trkpt lat="66.34246" lon="13.00578">
        <ele>15.517677</ele>
        <time>2020-07-15T18:36:18.757Z</time>
      </trkpt>
      <trkpt lat="66.34294" lon="13.00549">
        <ele>16.179564</ele>
        <time>2020-07-15T18:36:29.022Z</time>
      </trkpt>
      <trkpt lat="66.34318" lon="13.00535">
        <ele>16.512427</ele>
        <time>2020-07-15T18:36:33.489Z</time>
      </trkpt>
      <trkpt lat="66.34357" lon="13.00494">
        <ele>16.463457</ele>
        <time>2020-07-15T18:36:40.272Z</time>
      </trkpt>
      <trkpt lat="66.34396" lon="13.00424">
        <ele>16.014083</ele>
        <time>2020-07-15T18:36:47.662Z</time>
      </trkpt>
      <trkpt lat="66.34445" lon="13.00331">
        <ele>15.439853</ele>
        <time>2020-07-15T18:36:56.934Z</time>
      </trkpt>
      <trkpt lat="66.34477" lon="13.00268">
        <ele>15.058111</ele>
        <time>2020-07-15T18:37:03.186Z</time>
      </trkpt>
      <trkpt lat="66.34514" lon="13.00209">
        <ele>14.821496</ele>
        <time>2020-07-15T18:37:10.005Z</time>
      </trkpt>
      <trkpt lat="66.34538" lon="13.00188">
        <ele>14.689602</ele>
        <time>2020-07-15T18:37:14.003Z</time>
      </trkpt>
      <trkpt lat="66.34661" lon="13.00157">
        <ele>14.122051</ele>
        <time>2020-07-15T18:37:35.103Z</time>
      </trkpt>
      <trkpt lat="66.34701" lon="13.00158">
        <ele>14.173513</ele>
        <time>2020-07-15T18:37:42.371Z</time>
      </trkpt>
      <trkpt lat="66.34877" lon="13.00201">
        <ele>14.619814</ele>
        <time>2020-07-15T18:38:14.993Z</time>
      </trkpt>
      <trkpt lat="66.34959" lon="13.00219">
        <ele>15.099267</ele>
        <time>2020-07-15T18:38:31.163Z</time>
      </trkpt>
      <trkpt lat="66.35017" lon="13.00233">
        <ele>15.484211</ele>
        <time>2020-07-15T18:38:43.217Z</time>
      </trkpt>
      <trkpt lat="66.35113" lon="13.00258">
        <ele>16.555382</ele>
        <time>2020-07-15T18:39:04.016Z</time>
      </trkpt>
      <trkpt lat="66.35282" lon="13.00295">
        <ele>18.56574</ele>
        <time>2020-07-15T18:39:40.752Z</time>
      </trkpt>
      <trkpt lat="66.35333" lon="13.00282">
        <ele>19.213775</ele>
        <time>2020-07-15T18:39:51.629Z</time>
      </trkpt>
      <trkpt lat="66.35387" lon="13.0024">
        <ele>20.406072</ele>
        <time>2020-07-15T18:40:04.008Z</time>
      </trkpt>
      <trkpt lat="66.35434" lon="13.00205">
        <ele>22.071157</ele>
        <time>2020-07-15T18:40:15.956Z</time>
      </trkpt>
      <trkpt lat="66.35499" lon="13.00175">
        <ele>24.303591</ele>
        <time>2020-07-15T18:40:34.840Z</time>
      </trkpt>
      <trkpt lat="66.35544" lon="13.00195">
        <ele>25.989334</ele>
        <time>2020-07-15T18:40:49.635Z</time>
      </trkpt>
      <trkpt lat="66.3567" lon="13.00377">
        <ele>37.473038</ele>
        <time>2020-07-15T18:41:52.914Z</time>
      </trkpt>
      <trkpt lat="66.35694" lon="13.00441">
        <ele>40.210466</ele>
        <time>2020-07-15T18:42:10.992Z</time>
      </trkpt>
      <trkpt lat="66.35712" lon="13.00508">
        <ele>42.434595</ele>
        <time>2020-07-15T18:42:26.518Z</time>
      </trkpt>
      <trkpt lat="66.35725" lon="13.00561">
        <ele>44.131619</ele>
        <time>2020-07-15T18:42:38.472Z</time>
      </trkpt>
      <trkpt lat="66.3576" lon="13.00704">
        <ele>48.745993</ele>
        <time>2020-07-15T18:43:05.993Z</time>
      </trkpt>
      <trkpt lat="66.35815" lon="13.00928">
        <ele>52.247306</ele>
        <time>2020-07-15T18:43:37.669Z</time>
      </trkpt>
      <trkpt lat="66.35833" lon="13.01023">
        <ele>52.246572</ele>
        <time>2020-07-15T18:43:44.679Z</time>
      </trkpt>
      <trkpt lat="66.35849" lon="13.01275">
        <ele>51.630239</ele>
        <time>2020-07-15T18:43:58.661Z</time>
      </trkpt>
      <trkpt lat="66.35868" lon="13.01468">
        <ele>49.03809</ele>
        <time>2020-07-15T18:44:09.070Z</time>
      </trkpt>
      <trkpt lat="66.35878" lon="13.01642">
        <ele>46.74053</ele>
        <time>2020-07-15T18:44:18.294Z</time>
      </trkpt>
      <trkpt lat="66.35885" lon="13.01702">
        <ele>45.725406</ele>
        <time>2020-07-15T18:44:21.464Z</time>
      </trkpt>
      <trkpt lat="66.35955" lon="13.01943">
        <ele>40.175884</ele>
        <time>2020-07-15T18:44:36.128Z</time>
      </trkpt>
      <trkpt lat="66.36015" lon="13.02179">
        <ele>33.996328</ele>
        <time>2020-07-15T18:44:49.548Z</time>
      </trkpt>
      <trkpt lat="66.36034" lon="13.0223">
        <ele>32.292167</ele>
        <time>2020-07-15T18:44:52.782Z</time>
      </trkpt>
      <trkpt lat="66.36057" lon="13.02273">
        <ele>30.511001</ele>
        <time>2020-07-15T18:44:56.118Z</time>
      </trkpt>
      <trkpt lat="66.36227" lon="13.02473">
        <ele>20.78347</ele>
        <time>2020-07-15T18:45:18.095Z</time>
      </trkpt>
      <trkpt lat="66.36354" lon="13.0269">
        <ele>17.807291</ele>
        <time>2020-07-15T18:45:40.602Z</time>
      </trkpt>
      <trkpt lat="66.36394" lon="13.02776">
        <ele>17.510006</ele>
        <time>2020-07-15T18:45:51.824Z</time>
      </trkpt>
      <trkpt lat="66.36433" lon="13.02895">
        <ele>17.671537</ele>
        <time>2020-07-15T18:46:05.470Z</time>
      </trkpt>
      <trkpt lat="66.36527" lon="13.03227">
        <ele>18.497515</ele>
        <time>2020-07-15T18:46:38.524Z</time>
      </trkpt>
      <trkpt lat="66.36743" lon="13.03896">
        <ele>15.07742</ele>
        <time>2020-07-15T18:47:30.641Z</time>
      </trkpt>
      <trkpt lat="66.36843" lon="13.04309">
        <ele>13.960169</ele>
        <time>2020-07-15T18:48:02.298Z</time>
      </trkpt>
      <trkpt lat="66.36871" lon="13.0443">
        <ele>13.774387</ele>
        <time>2020-07-15T18:48:11.854Z</time>
      </trkpt>
      <trkpt lat="66.36926" lon="13.04663">
        <ele>13.4329</ele>
        <time>2020-07-15T18:48:30.376Z</time>
      </trkpt>
      <trkpt lat="66.3698" lon="13.04898">
        <ele>13.429039</ele>
        <time>2020-07-15T18:48:49.023Z</time>
      </trkpt>
      <trkpt lat="66.37024" lon="13.05084">
        <ele>13.568539</ele>
        <time>2020-07-15T18:49:05.254Z</time>
      </trkpt>
      <trkpt lat="66.3708" lon="13.05319">
        <ele>14.327499</ele>
        <time>2020-07-15T18:49:27.367Z</time>
      </trkpt>
      <trkpt lat="66.37085" lon="13.0534">
        <ele>14.395747</ele>
        <time>2020-07-15T18:49:29.446Z</time>
      </trkpt>
      <trkpt lat="66.37145" lon="13.05596">
        <ele>15.072314</ele>
        <time>2020-07-15T18:49:54.025Z</time>
      </trkpt>
      <trkpt lat="66.37286" lon="13.06199">
        <ele>15.699543</ele>
        <time>2020-07-15T18:50:45.683Z</time>
      </trkpt>
      <trkpt lat="66.37323" lon="13.06358">
        <ele>15.107999</ele>
        <time>2020-07-15T18:50:57.501Z</time>
      </trkpt>
      <trkpt lat="66.37384" lon="13.06617">
        <ele>14.204922</ele>
        <time>2020-07-15T18:51:15.942Z</time>
      </trkpt>
      <trkpt lat="66.37418" lon="13.06777">
        <ele>14.064622</ele>
        <time>2020-07-15T18:51:27.554Z</time>
      </trkpt>
      <trkpt lat="66.37445" lon="13.06932">
        <ele>13.932903</ele>
        <time>2020-07-15T18:51:39.772Z</time>
      </trkpt>
      <trkpt lat="66.37497" lon="13.07225">
        <ele>15.070148</ele>
        <time>2020-07-15T18:52:06.822Z</time>
      </trkpt>
      <trkpt lat="66.37578" lon="13.07678">
        <ele>17.039805</ele>
        <time>2020-07-15T18:52:51.884Z</time>
      </trkpt>
      <trkpt lat="66.37603" lon="13.0779">
        <ele>17.493303</ele>
        <time>2020-07-15T18:53:01.722Z</time>
      </trkpt>
      <trkpt lat="66.3769" lon="13.08184">
        <ele>15.195623</ele>
        <time>2020-07-15T18:53:28.849Z</time>
      </trkpt>
      <trkpt lat="66.37711" lon="13.08277">
        <ele>14.165646</ele>
        <time>2020-07-15T18:53:34.456Z</time>
      </trkpt>
      <trkpt lat="66.37729" lon="13.08354">
        <ele>13.236752</ele>
        <time>2020-07-15T18:53:39.125Z</time>
      </trkpt>
      <trkpt lat="66.37731" lon="13.08362">
        <ele>13.137176</ele>
        <time>2020-07-15T18:53:39.595Z</time>
      </trkpt>
      <trkpt lat="66.3774" lon="13.08397">
        <ele>12.696118</ele>
        <time>2020-07-15T18:53:41.853Z</time>
      </trkpt>
      <trkpt lat="66.37789" lon="13.08586">
        <ele>10.375321</ele>
        <time>2020-07-15T18:53:53.808Z</time>
      </trkpt>
      <trkpt lat="66.37928" lon="13.09139">
        <ele>7.652599</ele>
        <time>2020-07-15T18:54:34.432Z</time>
      </trkpt>
      <trkpt lat="66.37987" lon="13.09305">
        <ele>7.071391</ele>
        <time>2020-07-15T18:54:49.485Z</time>
      </trkpt>
      <trkpt lat="66.38012" lon="13.09359">
        <ele>6.836452</ele>
        <time>2020-07-15T18:54:54.926Z</time>
      </trkpt>
      <trkpt lat="66.38038" lon="13.0941">
        <ele>6.593266</ele>
        <time>2020-07-15T18:55:00.373Z</time>
      </trkpt>
      <trkpt lat="66.38132" lon="13.09576">
        <ele>5.74586</ele>
        <time>2020-07-15T18:55:18.536Z</time>
      </trkpt>
      <trkpt lat="66.38203" lon="13.09696">
        <ele>5.069105</ele>
        <time>2020-07-15T18:55:31.742Z</time>
      </trkpt>
      <trkpt lat="66.38284" lon="13.09836">
        <ele>4.283546</ele>
        <time>2020-07-15T18:55:47.505Z</time>
      </trkpt>
      <trkpt lat="66.38513" lon="13.10245">
        <ele>3.321996</ele>
        <time>2020-07-15T18:56:35.068Z</time>
      </trkpt>
      <trkpt lat="66.38546" lon="13.10338">
        <ele>3.205146</ele>
        <time>2020-07-15T18:56:43.873Z</time>
      </trkpt>
      <trkpt lat="66.38569" lon="13.10451">
        <ele>3.116293</ele>
        <time>2020-07-15T18:56:52.776Z</time>
      </trkpt>
      <trkpt lat="66.38576" lon="13.10495">
        <ele>3.099296</ele>
        <time>2020-07-15T18:56:56.111Z</time>
      </trkpt>
      <trkpt lat="66.38594" lon="13.10619">
        <ele>3.051802</ele>
        <time>2020-07-15T18:57:05.268Z</time>
      </trkpt>
      <trkpt lat="66.38612" lon="13.10742">
        <ele>3.004346</ele>
        <time>2020-07-15T18:57:14.593Z</time>
      </trkpt>
      <trkpt lat="66.38633" lon="13.10885">
        <ele>2.93519</ele>
        <time>2020-07-15T18:57:25.407Z</time>
      </trkpt>
      <trkpt lat="66.38644" lon="13.10955">
        <ele>2.892815</ele>
        <time>2020-07-15T18:57:30.565Z</time>
      </trkpt>
      <trkpt lat="66.38662" lon="13.11084">
        <ele>2.813965</ele>
        <time>2020-07-15T18:57:40.166Z</time>
      </trkpt>
      <trkpt lat="66.3868" lon="13.11198">
        <ele>2.744196</ele>
        <time>2020-07-15T18:57:48.607Z</time>
      </trkpt>
      <trkpt lat="66.38703" lon="13.11348">
        <ele>2.550424</ele>
        <time>2020-07-15T18:57:59.708Z</time>
      </trkpt>
      <trkpt lat="66.38763" lon="13.11616">
        <ele>2.092992</ele>
        <time>2020-07-15T18:58:20.335Z</time>
      </trkpt>
      <trkpt lat="66.38841" lon="13.1192">
        <ele>1.535614</ele>
        <time>2020-07-15T18:58:44.277Z</time>
      </trkpt>
      <trkpt lat="66.3885" lon="13.11948">
        <ele>1.47966</ele>
        <time>2020-07-15T18:58:46.742Z</time>
      </trkpt>
      <trkpt lat="66.38857" lon="13.11968">
        <ele>1.439029</ele>
        <time>2020-07-15T18:58:48.462Z</time>
      </trkpt>
      <trkpt lat="66.38907" lon="13.12072">
        <ele>1.268114</ele>
        <time>2020-07-15T18:58:59.666Z</time>
      </trkpt>
      <trkpt lat="66.39027" lon="13.12273">
        <ele>1.000422</ele>
        <time>2020-07-15T18:59:24.677Z</time>
      </trkpt>
      <trkpt lat="66.39069" lon="13.12346">
        <ele>0.970512</ele>
        <time>2020-07-15T18:59:33.724Z</time>
      </trkpt>
      <trkpt lat="66.39101" lon="13.12395">
        <ele>0.948827</ele>
        <time>2020-07-15T18:59:40.308Z</time>
      </trkpt>
      <trkpt lat="66.39116" lon="13.12416">
        <ele>0.938818</ele>
        <time>2020-07-15T18:59:43.367Z</time>
      </trkpt>
      <trkpt lat="66.39132" lon="13.12436">
        <ele>0.928453</ele>
        <time>2020-07-15T18:59:46.528Z</time>
      </trkpt>
      <trkpt lat="66.39145" lon="13.12451">
        <ele>0.92007</ele>
        <time>2020-07-15T18:59:49.106Z</time>
      </trkpt>
      <trkpt lat="66.39211" lon="13.12519">
        <ele>0.905592</ele>
        <time>2020-07-15T19:00:01.866Z</time>
      </trkpt>
      <trkpt lat="66.39269" lon="13.12578">
        <ele>0.915104</ele>
        <time>2020-07-15T19:00:13.063Z</time>
      </trkpt>
      <trkpt lat="66.39293" lon="13.12604">
        <ele>0.918998</ele>
        <time>2020-07-15T19:00:17.683Z</time>
      </trkpt>
      <trkpt lat="66.3931" lon="13.12628">
        <ele>0.922085</ele>
        <time>2020-07-15T19:00:21.360Z</time>
      </trkpt>
      <trkpt lat="66.39443" lon="13.1284">
        <ele>0.975708</ele>
        <time>2020-07-15T19:00:49.749Z</time>
      </trkpt>
      <trkpt lat="66.39501" lon="13.12919">
        <ele>1.002395</ele>
        <time>2020-07-15T19:01:01.489Z</time>
      </trkpt>
      <trkpt lat="66.39553" lon="13.12984">
        <ele>1.030243</ele>
        <time>2020-07-15T19:01:11.779Z</time>
      </trkpt>
      <trkpt lat="66.39606" lon="13.13049">
        <ele>1.058772</ele>
        <time>2020-07-15T19:01:22.282Z</time>
      </trkpt>
      <trkpt lat="66.39636" lon="13.13086">
        <ele>1.075084</ele>
        <time>2020-07-15T19:01:28.400Z</time>
      </trkpt>
      <trkpt lat="66.39657" lon="13.13114">
        <ele>1.100337</ele>
        <time>2020-07-15T19:01:32.788Z</time>
      </trkpt>
      <trkpt lat="66.39701" lon="13.13184">
        <ele>1.307168</ele>
        <time>2020-07-15T19:01:42.577Z</time>
      </trkpt>
      <trkpt lat="66.39714" lon="13.13211">
        <ele>1.373568</ele>
        <time>2020-07-15T19:01:45.846Z</time>
      </trkpt>
      <trkpt lat="66.39731" lon="13.13251">
        <ele>1.466396</ele>
        <time>2020-07-15T19:01:50.292Z</time>
      </trkpt>
      <trkpt lat="66.3975" lon="13.13302">
        <ele>1.579801</ele>
        <time>2020-07-15T19:01:55.805Z</time>
      </trkpt>
      <trkpt lat="66.39765" lon="13.13346">
        <ele>1.670135</ele>
        <time>2020-07-15T19:02:00.266Z</time>
      </trkpt>
      <trkpt lat="66.39774" lon="13.13377">
        <ele>1.731553</ele>
        <time>2020-07-15T19:02:03.221Z</time>
      </trkpt>
      <trkpt lat="66.39787" lon="13.13435">
        <ele>1.845397</ele>
        <time>2020-07-15T19:02:08.476Z</time>
      </trkpt>
      <trkpt lat="66.39794" lon="13.13471">
        <ele>1.918936</ele>
        <time>2020-07-15T19:02:11.507Z</time>
      </trkpt>
      <trkpt lat="66.39798" lon="13.13497">
        <ele>1.972519</ele>
        <time>2020-07-15T19:02:13.808Z</time>
      </trkpt>
      <trkpt lat="66.39854" lon="13.13847">
        <ele>2.673817</ele>
        <time>2020-07-15T19:02:42.991Z</time>
      </trkpt>
      <trkpt lat="66.39857" lon="13.13864">
        <ele>2.703086</ele>
        <time>2020-07-15T19:02:44.438Z</time>
      </trkpt>
      <trkpt lat="66.39864" lon="13.13899">
        <ele>2.762067</ele>
        <time>2020-07-15T19:02:47.358Z</time>
      </trkpt>
      <trkpt lat="66.39881" lon="13.13972">
        <ele>2.889318</ele>
        <time>2020-07-15T19:02:53.735Z</time>
      </trkpt>
      <trkpt lat="66.39988" lon="13.14438">
        <ele>3.622036</ele>
        <time>2020-07-15T19:03:34.705Z</time>
      </trkpt>
      <trkpt lat="66.39999" lon="13.14491">
        <ele>3.691647</ele>
        <time>2020-07-15T19:03:39.024Z</time>
      </trkpt>
      <trkpt lat="66.40028" lon="13.14695">
        <ele>3.932979</ele>
        <time>2020-07-15T19:03:55.068Z</time>
      </trkpt>
      <trkpt lat="66.40035" lon="13.14807">
        <ele>4.0481</ele>
        <time>2020-07-15T19:04:03.703Z</time>
      </trkpt>
      <trkpt lat="66.40035" lon="13.14869">
        <ele>4.110201</ele>
        <time>2020-07-15T19:04:08.423Z</time>
      </trkpt>
      <trkpt lat="66.40035" lon="13.14933">
        <ele>4.175146</ele>
        <time>2020-07-15T19:04:13.523Z</time>
      </trkpt>
      <trkpt lat="66.40034" lon="13.14979">
        <ele>4.221598</ele>
        <time>2020-07-15T19:04:16.765Z</time>
      </trkpt>
      <trkpt lat="66.40037" lon="13.15078">
        <ele>4.286759</ele>
        <time>2020-07-15T19:04:24.169Z</time>
      </trkpt>
      <trkpt lat="66.40041" lon="13.1515">
        <ele>4.133795</ele>
        <time>2020-07-15T19:04:29.229Z</time>
      </trkpt>
      <trkpt lat="66.40054" lon="13.15238">
        <ele>3.936191</ele>
        <time>2020-07-15T19:04:35.797Z</time>
      </trkpt>
      <trkpt lat="66.40059" lon="13.15267">
        <ele>3.869237</ele>
        <time>2020-07-15T19:04:38.300Z</time>
      </trkpt>
      <trkpt lat="66.40066" lon="13.15305">
        <ele>3.780998</ele>
        <time>2020-07-15T19:04:40.878Z</time>
      </trkpt>
      <trkpt lat="66.401" lon="13.15478">
        <ele>3.376093</ele>
        <time>2020-07-15T19:04:52.945Z</time>
      </trkpt>
      <trkpt lat="66.40137" lon="13.15613">
        <ele>2.599514</ele>
        <time>2020-07-15T19:05:02.674Z</time>
      </trkpt>
      <trkpt lat="66.40149" lon="13.15645">
        <ele>2.381073</ele>
        <time>2020-07-15T19:05:05.278Z</time>
      </trkpt>
      <trkpt lat="66.40155" lon="13.15659">
        <ele>2.281995</ele>
        <time>2020-07-15T19:05:06.586Z</time>
      </trkpt>
      <trkpt lat="66.40165" lon="13.1568">
        <ele>2.127191</ele>
        <time>2020-07-15T19:05:08.460Z</time>
      </trkpt>
      <trkpt lat="66.4019" lon="13.1572">
        <ele>1.757191</ele>
        <time>2020-07-15T19:05:13.073Z</time>
      </trkpt>
      <trkpt lat="66.40216" lon="13.15744">
        <ele>1.429661</ele>
        <time>2020-07-15T19:05:17.178Z</time>
      </trkpt>
      <trkpt lat="66.40242" lon="13.1576">
        <ele>1.142081</ele>
        <time>2020-07-15T19:05:21.229Z</time>
      </trkpt>
      <trkpt lat="66.40268" lon="13.15775">
        <ele>0.981782</ele>
        <time>2020-07-15T19:05:25.442Z</time>
      </trkpt>
      <trkpt lat="66.40377" lon="13.15843">
        <ele>0.315748</ele>
        <time>2020-07-15T19:05:43.771Z</time>
      </trkpt>
      <trkpt lat="66.40465" lon="13.15895">
        <ele>0.074999</ele>
        <time>2020-07-15T19:05:59.623Z</time>
      </trkpt>
      <trkpt lat="66.40479" lon="13.15904">
        <ele>0.066097</ele>
        <time>2020-07-15T19:06:02.209Z</time>
      </trkpt>
      <trkpt lat="66.40489" lon="13.1591">
        <ele>0.059868</ele>
        <time>2020-07-15T19:06:04.025Z</time>
      </trkpt>
      <trkpt lat="66.40496" lon="13.15914">
        <ele>0.055635</ele>
        <time>2020-07-15T19:06:05.257Z</time>
      </trkpt>
      <trkpt lat="66.40499" lon="13.15916">
        <ele>0.053886</ele>
        <time>2020-07-15T19:06:05.773Z</time>
      </trkpt>
      <trkpt lat="66.4055" lon="13.15946">
        <ele>0.022196</ele>
        <time>2020-07-15T19:06:15.068Z</time>
      </trkpt>
      <trkpt lat="66.40641" lon="13.16016">
        <ele>7.1</ele>
        <time>2020-07-15T19:06:32.199Z</time>
      </trkpt>
      <trkpt lat="66.40656" lon="13.16029">
        <ele>7.3</ele>
        <time>2020-07-15T19:06:35.013Z</time>
      </trkpt>
      <trkpt lat="66.40666" lon="13.16036">
        <ele>7</ele>
        <time>2020-07-15T19:06:36.764Z</time>
      </trkpt>
      <trkpt lat="66.40694" lon="13.16047">
        <ele>7.1</ele>
        <time>2020-07-15T19:06:41.846Z</time>
      </trkpt>
      <trkpt lat="66.40711" lon="13.16049">
        <ele>7.7</ele>
        <time>2020-07-15T19:06:44.902Z</time>
      </trkpt>
      <trkpt lat="66.40712" lon="13.16049">
        <ele>7.8</ele>
        <time>2020-07-15T19:06:45.085Z</time>
      </trkpt>
      <trkpt lat="66.40746" lon="13.16039">
        <ele>8</ele>
        <time>2020-07-15T19:06:51.104Z</time>
      </trkpt>
      <trkpt lat="66.40771" lon="13.16019">
        <ele>8.3</ele>
        <time>2020-07-15T19:06:55.809Z</time>
      </trkpt>
      <trkpt lat="66.40845" lon="13.15897">
        <ele>10.1</ele>
        <time>2020-07-15T19:07:11.605Z</time>
      </trkpt>
      <trkpt lat="66.40867" lon="13.15874">
        <ele>10</ele>
        <time>2020-07-15T19:07:15.952Z</time>
      </trkpt>
      <trkpt lat="66.4093" lon="13.15859">
        <ele>6.3</ele>
        <time>2020-07-15T19:07:27.190Z</time>
      </trkpt>
      <trkpt lat="66.41004" lon="13.15859">
        <ele>4.8</ele>
        <time>2020-07-15T19:07:40.427Z</time>
      </trkpt>
      <trkpt lat="66.4108" lon="13.15864">
        <ele>5.3</ele>
        <time>2020-07-15T19:07:53.958Z</time>
      </trkpt>
      <trkpt lat="66.41102" lon="13.15864">
        <ele>5.4</ele>
        <time>2020-07-15T19:07:57.919Z</time>
      </trkpt>
      <trkpt lat="66.41139" lon="13.15853">
        <ele>5.8</ele>
        <time>2020-07-15T19:08:04.552Z</time>
      </trkpt>
      <trkpt lat="66.41165" lon="13.15832">
        <ele>5.7</ele>
        <time>2020-07-15T19:08:09.371Z</time>
      </trkpt>
      <trkpt lat="66.41283" lon="13.15691">
        <ele>6.5</ele>
        <time>2020-07-15T19:08:32.794Z</time>
      </trkpt>
      <trkpt lat="66.41412" lon="13.1546">
        <ele>8</ele>
        <time>2020-07-15T19:09:01.135Z</time>
      </trkpt>
      <trkpt lat="66.41518" lon="13.15332">
        <ele>6.8</ele>
        <time>2020-07-15T19:09:22.185Z</time>
      </trkpt>
      <trkpt lat="66.41611" lon="13.15313">
        <ele>6.6</ele>
        <time>2020-07-15T19:09:38.698Z</time>
      </trkpt>
      <trkpt lat="66.41767" lon="13.15228">
        <ele>8.8</ele>
        <time>2020-07-15T19:10:07.267Z</time>
      </trkpt>
      <trkpt lat="66.41905" lon="13.15186">
        <ele>7.9</ele>
        <time>2020-07-15T19:10:32.116Z</time>
      </trkpt>
      <trkpt lat="66.42002" lon="13.15133">
        <ele>0.001057</ele>
        <time>2020-07-15T19:10:49.780Z</time>
      </trkpt>
      <trkpt lat="66.42041" lon="13.1513">
        <ele>0.001704</ele>
        <time>2020-07-15T19:10:56.795Z</time>
      </trkpt>
      <trkpt lat="66.42083" lon="13.15146">
        <ele>0.0024</ele>
        <time>2020-07-15T19:11:04.333Z</time>
      </trkpt>
      <trkpt lat="66.42093" lon="13.15149">
        <ele>0.002563</ele>
        <time>2020-07-15T19:11:06.087Z</time>
      </trkpt>
      <trkpt lat="66.42097" lon="13.15149">
        <ele>0.002639</ele>
        <time>2020-07-15T19:11:06.925Z</time>
      </trkpt>
      <trkpt lat="66.42117" lon="13.15141">
        <ele>0.002968</ele>
        <time>2020-07-15T19:11:10.495Z</time>
      </trkpt>
      <trkpt lat="66.42139" lon="13.15111">
        <ele>0.029189</ele>
        <time>2020-07-15T19:11:15.003Z</time>
      </trkpt>
      <trkpt lat="66.42151" lon="13.15087">
        <ele>0.045498</ele>
        <time>2020-07-15T19:11:17.794Z</time>
      </trkpt>
      <trkpt lat="66.42167" lon="13.15062">
        <ele>0.065007</ele>
        <time>2020-07-15T19:11:21.154Z</time>
      </trkpt>
      <trkpt lat="66.4225" lon="13.14982">
        <ele>0.158638</ele>
        <time>2020-07-15T19:11:37.347Z</time>
      </trkpt>
      <trkpt lat="66.42381" lon="13.14751">
        <ele>0.458546</ele>
        <time>2020-07-15T19:12:07.023Z</time>
      </trkpt>
      <trkpt lat="66.42457" lon="13.14691">
        <ele>0.575639</ele>
        <time>2020-07-15T19:12:21.693Z</time>
      </trkpt>
      <trkpt lat="66.42504" lon="13.14613">
        <ele>0.598285</ele>
        <time>2020-07-15T19:12:32.059Z</time>
      </trkpt>
      <trkpt lat="66.42584" lon="13.14527">
        <ele>0.632881</ele>
        <time>2020-07-15T19:12:47.518Z</time>
      </trkpt>
      <trkpt lat="66.42728" lon="13.14318">
        <ele>0.333258</ele>
        <time>2020-07-15T19:13:16.120Z</time>
      </trkpt>
      <trkpt lat="66.42806" lon="13.14265">
        <ele>0.298094</ele>
        <time>2020-07-15T19:13:30.183Z</time>
      </trkpt>
      <trkpt lat="66.42887" lon="13.14236">
        <ele>0.306743</ele>
        <time>2020-07-15T19:13:44.717Z</time>
      </trkpt>
      <trkpt lat="66.4291" lon="13.14224">
        <ele>0.309216</ele>
        <time>2020-07-15T19:13:48.970Z</time>
      </trkpt>
      <trkpt lat="66.42922" lon="13.14218">
        <ele>0.31058</ele>
        <time>2020-07-15T19:13:51.356Z</time>
      </trkpt>
      <trkpt lat="66.42945" lon="13.14213">
        <ele>0.412265</ele>
        <time>2020-07-15T19:13:55.555Z</time>
      </trkpt>
      <trkpt lat="66.42987" lon="13.14235">
        <ele>0.633017</ele>
        <time>2020-07-15T19:14:03.846Z</time>
      </trkpt>
      <trkpt lat="66.43076" lon="13.14345">
        <ele>1.13725</ele>
        <time>2020-07-15T19:14:23.494Z</time>
      </trkpt>
      <trkpt lat="66.4316" lon="13.14417">
        <ele>1.605036</ele>
        <time>2020-07-15T19:14:41.468Z</time>
      </trkpt>
      <trkpt lat="66.43274" lon="13.1465">
        <ele>2.138092</ele>
        <time>2020-07-15T19:15:09.856Z</time>
      </trkpt>
      <trkpt lat="66.43313" lon="13.14716">
        <ele>2.087092</ele>
        <time>2020-07-15T19:15:18.148Z</time>
      </trkpt>
      <trkpt lat="66.43592" lon="13.15093">
        <ele>1.923708</ele>
        <time>2020-07-15T19:16:10.935Z</time>
      </trkpt>
      <trkpt lat="66.43696" lon="13.15228">
        <ele>3.577866</ele>
        <time>2020-07-15T19:16:37.964Z</time>
      </trkpt>
      <trkpt lat="66.43792" lon="13.1535">
        <ele>7.597151</ele>
        <time>2020-07-15T19:17:09.266Z</time>
      </trkpt>
      <trkpt lat="66.43896" lon="13.15471">
        <ele>13.033704</ele>
        <time>2020-07-15T19:17:48.715Z</time>
      </trkpt>
      <trkpt lat="66.43944" lon="13.15505">
        <ele>16.268103</ele>
        <time>2020-07-15T19:18:06.726Z</time>
      </trkpt>
      <trkpt lat="66.43973" lon="13.15505">
        <ele>18.187328</ele>
        <time>2020-07-15T19:18:17.867Z</time>
      </trkpt>
      <trkpt lat="66.43978" lon="13.15503">
        <ele>18.540866</ele>
        <time>2020-07-15T19:18:20.209Z</time>
      </trkpt>
      <trkpt lat="66.43998" lon="13.15491">
        <ele>19.893232</ele>
        <time>2020-07-15T19:18:28.915Z</time>
      </trkpt>
      <trkpt lat="66.44051" lon="13.15435">
        <ele>23.836022</ele>
        <time>2020-07-15T19:18:52.475Z</time>
      </trkpt>
      <trkpt lat="66.44059" lon="13.15422">
        <ele>24.729365</ele>
        <time>2020-07-15T19:18:57.158Z</time>
      </trkpt>
      <trkpt lat="66.44074" lon="13.15394">
        <ele>26.480648</ele>
        <time>2020-07-15T19:19:04.777Z</time>
      </trkpt>
      <trkpt lat="66.44087" lon="13.15364">
        <ele>28.157982</ele>
        <time>2020-07-15T19:19:13.055Z</time>
      </trkpt>
      <trkpt lat="66.44126" lon="13.15266">
        <ele>33.420472</ele>
        <time>2020-07-15T19:19:38.642Z</time>
      </trkpt>
      <trkpt lat="66.44224" lon="13.15033">
        <ele>46.220351</ele>
        <time>2020-07-15T19:20:51.137Z</time>
      </trkpt>
      <trkpt lat="66.44241" lon="13.14997">
        <ele>48.304299</ele>
        <time>2020-07-15T19:21:01.937Z</time>
      </trkpt>
      <trkpt lat="66.44244" lon="13.14992">
        <ele>48.64283</ele>
        <time>2020-07-15T19:21:03.343Z</time>
      </trkpt>
      <trkpt lat="66.44246" lon="13.14989">
        <ele>48.816909</ele>
        <time>2020-07-15T19:21:05.045Z</time>
      </trkpt>
      <trkpt lat="66.44286" lon="13.14919">
        <ele>53.432403</ele>
        <time>2020-07-15T19:21:26.725Z</time>
      </trkpt>
      <trkpt lat="66.44321" lon="13.14894">
        <ele>56.924392</ele>
        <time>2020-07-15T19:21:43.068Z</time>
      </trkpt>
      <trkpt lat="66.44363" lon="13.14895">
        <ele>59.170358</ele>
        <time>2020-07-15T19:22:00.500Z</time>
      </trkpt>
      <trkpt lat="66.44399" lon="13.14936">
        <ele>61.14968</ele>
        <time>2020-07-15T19:22:14.994Z</time>
      </trkpt>
      <trkpt lat="66.4442" lon="13.14986">
        <ele>62.595143</ele>
        <time>2020-07-15T19:22:23.443Z</time>
      </trkpt>
      <trkpt lat="66.44479" lon="13.1517">
        <ele>66.911408</ele>
        <time>2020-07-15T19:22:50.532Z</time>
      </trkpt>
      <trkpt lat="66.44585" lon="13.15355">
        <ele>71.083762</ele>
        <time>2020-07-15T19:23:27.318Z</time>
      </trkpt>
      <trkpt lat="66.44642" lon="13.15492">
        <ele>72.904299</ele>
        <time>2020-07-15T19:23:48.855Z</time>
      </trkpt>
      <trkpt lat="66.44669" lon="13.15574">
        <ele>73.629534</ele>
        <time>2020-07-15T19:23:59.758Z</time>
      </trkpt>
      <trkpt lat="66.44751" lon="13.15878">
        <ele>74.520378</ele>
        <time>2020-07-15T19:24:29.241Z</time>
      </trkpt>
      <trkpt lat="66.44812" lon="13.16039">
        <ele>73.550967</ele>
        <time>2020-07-15T19:24:42.444Z</time>
      </trkpt>
      <trkpt lat="66.44823" lon="13.16119">
        <ele>73.176517</ele>
        <time>2020-07-15T19:24:46.992Z</time>
      </trkpt>
      <trkpt lat="66.44829" lon="13.16314">
        <ele>70.648021</ele>
        <time>2020-07-15T19:24:57.035Z</time>
      </trkpt>
      <trkpt lat="66.44871" lon="13.16649">
        <ele>66.590029</ele>
        <time>2020-07-15T19:25:15.285Z</time>
      </trkpt>
      <trkpt lat="66.44874" lon="13.16704">
        <ele>66.160232</ele>
        <time>2020-07-15T19:25:18.234Z</time>
      </trkpt>
      <trkpt lat="66.44864" lon="13.16783">
        <ele>65.507499</ele>
        <time>2020-07-15T19:25:22.828Z</time>
      </trkpt>
      <trkpt lat="66.44811" lon="13.16963">
        <ele>63.850862</ele>
        <time>2020-07-15T19:25:36.313Z</time>
      </trkpt>
      <trkpt lat="66.44797" lon="13.17087">
        <ele>64.246304</ele>
        <time>2020-07-15T19:25:45.558Z</time>
      </trkpt>
      <trkpt lat="66.44795" lon="13.17295">
        <ele>64.881429</ele>
        <time>2020-07-15T19:26:02.055Z</time>
      </trkpt>
      <trkpt lat="66.44798" lon="13.17396">
        <ele>65.188705</ele>
        <time>2020-07-15T19:26:11.795Z</time>
      </trkpt>
      <trkpt lat="66.44808" lon="13.17452">
        <ele>66.076362</ele>
        <time>2020-07-15T19:26:18.281Z</time>
      </trkpt>
      <trkpt lat="66.44827" lon="13.17502">
        <ele>67.103531</ele>
        <time>2020-07-15T19:26:25.818Z</time>
      </trkpt>
      <trkpt lat="66.44883" lon="13.1761">
        <ele>69.718893</ele>
        <time>2020-07-15T19:26:46.721Z</time>
      </trkpt>
      <trkpt lat="66.44905" lon="13.17652">
        <ele>70.750964</ele>
        <time>2020-07-15T19:26:55.910Z</time>
      </trkpt>
      <trkpt lat="66.44961" lon="13.17784">
        <ele>74.432149</ele>
        <time>2020-07-15T19:27:22.308Z</time>
      </trkpt>
      <trkpt lat="66.45076" lon="13.18236">
        <ele>86.775199</ele>
        <time>2020-07-15T19:28:39.327Z</time>
      </trkpt>
      <trkpt lat="66.45085" lon="13.18323">
        <ele>88.987267</ele>
        <time>2020-07-15T19:28:51.605Z</time>
      </trkpt>
      <trkpt lat="66.45087" lon="13.18573">
        <ele>96.202341</ele>
        <time>2020-07-15T19:29:33.006Z</time>
      </trkpt>
      <trkpt lat="66.45108" lon="13.18726">
        <ele>101.984368</ele>
        <time>2020-07-15T19:30:02.564Z</time>
      </trkpt>
      <trkpt lat="66.4511" lon="13.18745">
        <ele>102.669581</ele>
        <time>2020-07-15T19:30:06.939Z</time>
      </trkpt>
      <trkpt lat="66.45129" lon="13.18894">
        <ele>108.281197</ele>
        <time>2020-07-15T19:30:37.922Z</time>
      </trkpt>
      <trkpt lat="66.45168" lon="13.1921">
        <ele>116.92992</ele>
        <time>2020-07-15T19:31:43.350Z</time>
      </trkpt>
      <trkpt lat="66.45181" lon="13.19299">
        <ele>119.346364</ele>
        <time>2020-07-15T19:31:55.501Z</time>
      </trkpt>
      <trkpt lat="66.45184" lon="13.19319">
        <ele>119.879294</ele>
        <time>2020-07-15T19:31:58.075Z</time>
      </trkpt>
      <trkpt lat="66.45338" lon="13.20199">
        <ele>96.532758</ele>
        <time>2020-07-15T19:32:42.621Z</time>
      </trkpt>
      <trkpt lat="66.45342" lon="13.20221">
        <ele>95.650934</ele>
        <time>2020-07-15T19:32:43.606Z</time>
      </trkpt>
      <trkpt lat="66.45346" lon="13.20245">
        <ele>94.697217</ele>
        <time>2020-07-15T19:32:44.702Z</time>
      </trkpt>
      <trkpt lat="66.45376" lon="13.20339">
        <ele>90.339483</ele>
        <time>2020-07-15T19:32:49.896Z</time>
      </trkpt>
      <trkpt lat="66.45399" lon="13.20381">
        <ele>87.66385</ele>
        <time>2020-07-15T19:32:53.006Z</time>
      </trkpt>
      <trkpt lat="66.45438" lon="13.20427">
        <ele>83.739382</ele>
        <time>2020-07-15T19:32:57.688Z</time>
      </trkpt>
      <trkpt lat="66.45725" lon="13.2071">
        <ele>65.826274</ele>
        <time>2020-07-15T19:33:35.027Z</time>
      </trkpt>
      <trkpt lat="66.45756" lon="13.2073">
        <ele>63.995596</ele>
        <time>2020-07-15T19:33:38.845Z</time>
      </trkpt>
      <trkpt lat="66.45822" lon="13.20742">
        <ele>59.851074</ele>
        <time>2020-07-15T19:33:46.495Z</time>
      </trkpt>
      <trkpt lat="66.45829" lon="13.20753">
        <ele>59.278818</ele>
        <time>2020-07-15T19:33:47.366Z</time>
      </trkpt>
      <trkpt lat="66.45832" lon="13.20761">
        <ele>58.962171</ele>
        <time>2020-07-15T19:33:47.849Z</time>
      </trkpt>
      <trkpt lat="66.45835" lon="13.2079">
        <ele>58.075553</ele>
        <time>2020-07-15T19:33:49.252Z</time>
      </trkpt>
      <trkpt lat="66.45835" lon="13.20803">
        <ele>57.691318</ele>
        <time>2020-07-15T19:33:49.843Z</time>
      </trkpt>
      <trkpt lat="66.45824" lon="13.21086">
        <ele>49.354623</ele>
        <time>2020-07-15T19:34:02.764Z</time>
      </trkpt>
      <trkpt lat="66.45817" lon="13.21226">
        <ele>45.710926</ele>
        <time>2020-07-15T19:34:09.148Z</time>
      </trkpt>
      <trkpt lat="66.4582" lon="13.21317">
        <ele>43.461492</ele>
        <time>2020-07-15T19:34:13.376Z</time>
      </trkpt>
      <trkpt lat="66.45832" lon="13.21414">
        <ele>40.934694</ele>
        <time>2020-07-15T19:34:18.240Z</time>
      </trkpt>
      <trkpt lat="66.45859" lon="13.21532">
        <ele>37.597313</ele>
        <time>2020-07-15T19:34:24.809Z</time>
      </trkpt>
      <trkpt lat="66.459" lon="13.21669">
        <ele>33.274297</ele>
        <time>2020-07-15T19:34:33.006Z</time>
      </trkpt>
      <trkpt lat="66.45977" lon="13.21909">
        <ele>25.460131</ele>
        <time>2020-07-15T19:34:47.241Z</time>
      </trkpt>
      <trkpt lat="66.45981" lon="13.2192">
        <ele>25.152672</ele>
        <time>2020-07-15T19:34:47.826Z</time>
      </trkpt>
      <trkpt lat="66.45999" lon="13.21979">
        <ele>23.486129</ele>
        <time>2020-07-15T19:34:51.357Z</time>
      </trkpt>
      <trkpt lat="66.46002" lon="13.21986">
        <ele>23.265987</ele>
        <time>2020-07-15T19:34:51.779Z</time>
      </trkpt>
      <trkpt lat="66.46005" lon="13.21998">
        <ele>22.928812</ele>
        <time>2020-07-15T19:34:52.421Z</time>
      </trkpt>
      <trkpt lat="66.46081" lon="13.22239">
        <ele>16.098223</ele>
        <time>2020-07-15T19:35:06.983Z</time>
      </trkpt>
      <trkpt lat="66.46144" lon="13.22365">
        <ele>15.40175</ele>
        <time>2020-07-15T19:35:18.482Z</time>
      </trkpt>
      <trkpt lat="66.46146" lon="13.22369">
        <ele>15.394008</ele>
        <time>2020-07-15T19:35:18.867Z</time>
      </trkpt>
      <trkpt lat="66.46149" lon="13.22375">
        <ele>15.382629</ele>
        <time>2020-07-15T19:35:19.976Z</time>
      </trkpt>
      <trkpt lat="66.46182" lon="13.22463">
        <ele>15.236776</ele>
        <time>2020-07-15T19:35:29.368Z</time>
      </trkpt>
      <trkpt lat="66.46187" lon="13.22477">
        <ele>15.215445</ele>
        <time>2020-07-15T19:35:30.716Z</time>
      </trkpt>
      <trkpt lat="66.46188" lon="13.22482">
        <ele>15.208177</ele>
        <time>2020-07-15T19:35:31.300Z</time>
      </trkpt>
      <trkpt lat="66.46192" lon="13.22496">
        <ele>15.186842</ele>
        <time>2020-07-15T19:35:32.905Z</time>
      </trkpt>
      <trkpt lat="66.46196" lon="13.22507">
        <ele>15.168719</ele>
        <time>2020-07-15T19:35:34.434Z</time>
      </trkpt>
      <trkpt lat="66.46202" lon="13.22525">
        <ele>15.141724</ele>
        <time>2020-07-15T19:35:36.600Z</time>
      </trkpt>
      <trkpt lat="66.46206" lon="13.2254">
        <ele>15.119069</ele>
        <time>2020-07-15T19:35:38.024Z</time>
      </trkpt>
      <trkpt lat="66.46211" lon="13.22556">
        <ele>15.094809</ele>
        <time>2020-07-15T19:35:39.972Z</time>
      </trkpt>
      <trkpt lat="66.46213" lon="13.22561">
        <ele>15.086783</ele>
        <time>2020-07-15T19:35:40.648Z</time>
      </trkpt>
      <trkpt lat="66.46216" lon="13.22572">
        <ele>15.162816</ele>
        <time>2020-07-15T19:35:41.808Z</time>
      </trkpt>
      <trkpt lat="66.46219" lon="13.22582">
        <ele>15.353342</ele>
        <time>2020-07-15T19:35:43.626Z</time>
      </trkpt>
      <trkpt lat="66.46231" lon="13.22625">
        <ele>16.112133</ele>
        <time>2020-07-15T19:35:48.549Z</time>
      </trkpt>
      <trkpt lat="66.46237" lon="13.22644">
        <ele>16.44855</ele>
        <time>2020-07-15T19:35:50.908Z</time>
      </trkpt>
      <trkpt lat="66.4624" lon="13.22657">
        <ele>16.677958</ele>
        <time>2020-07-15T19:35:53.124Z</time>
      </trkpt>
      <trkpt lat="66.46268" lon="13.22743">
        <ele>18.279002</ele>
        <time>2020-07-15T19:36:07.409Z</time>
      </trkpt>
      <trkpt lat="66.46296" lon="13.228">
        <ele>19.597925</ele>
        <time>2020-07-15T19:36:19.605Z</time>
      </trkpt>
      <trkpt lat="66.46333" lon="13.22838">
        <ele>21.064087</ele>
        <time>2020-07-15T19:36:31.984Z</time>
      </trkpt>
      <trkpt lat="66.46379" lon="13.22849">
        <ele>22.369878</ele>
        <time>2020-07-15T19:36:44.314Z</time>
      </trkpt>
      <trkpt lat="66.46383" lon="13.22849">
        <ele>22.467484</ele>
        <time>2020-07-15T19:36:45.989Z</time>
      </trkpt>
      <trkpt lat="66.46387" lon="13.22849">
        <ele>22.570095</ele>
        <time>2020-07-15T19:36:48.111Z</time>
      </trkpt>
      <trkpt lat="66.4643" lon="13.22858">
        <ele>23.65476</ele>
        <time>2020-07-15T19:36:58.472Z</time>
      </trkpt>
      <trkpt lat="66.46468" lon="13.2289">
        <ele>24.652299</ele>
        <time>2020-07-15T19:37:06.624Z</time>
      </trkpt>
      <trkpt lat="66.46574" lon="13.2306">
        <ele>28.785117</ele>
        <time>2020-07-15T19:37:40.187Z</time>
      </trkpt>
      <trkpt lat="66.4659" lon="13.23082">
        <ele>29.505672</ele>
        <time>2020-07-15T19:37:44.428Z</time>
      </trkpt>
      <trkpt lat="66.46612" lon="13.2311">
        <ele>30.474653</ele>
        <time>2020-07-15T19:37:52.575Z</time>
      </trkpt>
      <trkpt lat="66.46676" lon="13.23174">
        <ele>33.199524</ele>
        <time>2020-07-15T19:38:16.221Z</time>
      </trkpt>
      <trkpt lat="66.46871" lon="13.23277">
        <ele>44.520697</ele>
        <time>2020-07-15T19:39:32.236Z</time>
      </trkpt>
      <trkpt lat="66.46955" lon="13.23377">
        <ele>47.353115</ele>
        <time>2020-07-15T19:39:58.284Z</time>
      </trkpt>
      <trkpt lat="66.47023" lon="13.23489">
        <ele>49.41383</ele>
        <time>2020-07-15T19:40:17.224Z</time>
      </trkpt>
      <trkpt lat="66.47148" lon="13.23699">
        <ele>49.30503</ele>
        <time>2020-07-15T19:40:44.647Z</time>
      </trkpt>
      <trkpt lat="66.47189" lon="13.23755">
        <ele>47.423999</ele>
        <time>2020-07-15T19:40:51.312Z</time>
      </trkpt>
      <trkpt lat="66.4722" lon="13.23777">
        <ele>45.541758</ele>
        <time>2020-07-15T19:40:55.477Z</time>
      </trkpt>
      <trkpt lat="66.47324" lon="13.23774">
        <ele>39.39207</ele>
        <time>2020-07-15T19:41:07.372Z</time>
      </trkpt>
      <trkpt lat="66.47357" lon="13.23803">
        <ele>36.268882</ele>
        <time>2020-07-15T19:41:11.124Z</time>
      </trkpt>
      <trkpt lat="66.47418" lon="13.2389">
        <ele>28.763768</ele>
        <time>2020-07-15T19:41:18.625Z</time>
      </trkpt>
      <trkpt lat="66.47426" lon="13.239">
        <ele>27.769808</ele>
        <time>2020-07-15T19:41:19.588Z</time>
      </trkpt>
      <trkpt lat="66.47442" lon="13.23917">
        <ele>25.91489</ele>
        <time>2020-07-15T19:41:21.439Z</time>
      </trkpt>
      <trkpt lat="66.47511" lon="13.2397">
        <ele>18.995739</ele>
        <time>2020-07-15T19:41:29.238Z</time>
      </trkpt>
      <trkpt lat="66.47595" lon="13.24001">
        <ele>16.005201</ele>
        <time>2020-07-15T19:41:38.979Z</time>
      </trkpt>
      <trkpt lat="66.47675" lon="13.24108">
        <ele>13.494862</ele>
        <time>2020-07-15T19:41:57.981Z</time>
      </trkpt>
      <trkpt lat="66.47721" lon="13.24141">
        <ele>16.373603</ele>
        <time>2020-07-15T19:42:13.269Z</time>
      </trkpt>
      <trkpt lat="66.47766" lon="13.24147">
        <ele>19.059158</ele>
        <time>2020-07-15T19:42:30.720Z</time>
      </trkpt>
      <trkpt lat="66.47943" lon="13.24126">
        <ele>30.800686</ele>
        <time>2020-07-15T19:43:47.909Z</time>
      </trkpt>
      <trkpt lat="66.47981" lon="13.24136">
        <ele>33.526805</ele>
        <time>2020-07-15T19:44:03.354Z</time>
      </trkpt>
      <trkpt lat="66.48018" lon="13.24173">
        <ele>36.372736</ele>
        <time>2020-07-15T19:44:18.547Z</time>
      </trkpt>
      <trkpt lat="66.48116" lon="13.24321">
        <ele>41.132195</ele>
        <time>2020-07-15T19:44:56.122Z</time>
      </trkpt>
      <trkpt lat="66.48181" lon="13.24369">
        <ele>43.867336</ele>
        <time>2020-07-15T19:45:15.156Z</time>
      </trkpt>
      <trkpt lat="66.48299" lon="13.24384">
        <ele>44.744498</ele>
        <time>2020-07-15T19:45:40.606Z</time>
      </trkpt>
      <trkpt lat="66.4835" lon="13.24376">
        <ele>45.098126</ele>
        <time>2020-07-15T19:45:48.870Z</time>
      </trkpt>
      <trkpt lat="66.48398" lon="13.24333">
        <ele>45.263027</ele>
        <time>2020-07-15T19:45:56.518Z</time>
      </trkpt>
      <trkpt lat="66.48445" lon="13.2425">
        <ele>45.385809</ele>
        <time>2020-07-15T19:46:06.429Z</time>
      </trkpt>
      <trkpt lat="66.48455" lon="13.24224">
        <ele>45.415629</ele>
        <time>2020-07-15T19:46:08.558Z</time>
      </trkpt>
      <trkpt lat="66.48508" lon="13.24077">
        <ele>45.892844</ele>
        <time>2020-07-15T19:46:25.411Z</time>
      </trkpt>
      <trkpt lat="66.48553" lon="13.23985">
        <ele>47.883221</ele>
        <time>2020-07-15T19:46:40.963Z</time>
      </trkpt>
      <trkpt lat="66.48659" lon="13.23876">
        <ele>51.688954</ele>
        <time>2020-07-15T19:47:18.728Z</time>
      </trkpt>
      <trkpt lat="66.48682" lon="13.2384">
        <ele>51.045206</ele>
        <time>2020-07-15T19:47:26.553Z</time>
      </trkpt>
      <trkpt lat="66.48701" lon="13.23796">
        <ele>50.438291</ele>
        <time>2020-07-15T19:47:33.428Z</time>
      </trkpt>
      <trkpt lat="66.48722" lon="13.23738">
        <ele>49.703683</ele>
        <time>2020-07-15T19:47:37.997Z</time>
      </trkpt>
      <trkpt lat="66.48723" lon="13.23736">
        <ele>49.680742</ele>
        <time>2020-07-15T19:47:38.102Z</time>
      </trkpt>
      <trkpt lat="66.48768" lon="13.23611">
        <ele>48.09162</ele>
        <time>2020-07-15T19:47:46.361Z</time>
      </trkpt>
      <trkpt lat="66.48771" lon="13.23603">
        <ele>47.993788</ele>
        <time>2020-07-15T19:47:46.874Z</time>
      </trkpt>
      <trkpt lat="66.48777" lon="13.23588">
        <ele>47.791939</ele>
        <time>2020-07-15T19:47:47.753Z</time>
      </trkpt>
      <trkpt lat="66.48795" lon="13.23539">
        <ele>46.202231</ele>
        <time>2020-07-15T19:47:51.133Z</time>
      </trkpt>
      <trkpt lat="66.48798" lon="13.2353">
        <ele>45.765804</ele>
        <time>2020-07-15T19:47:51.657Z</time>
      </trkpt>
      <trkpt lat="66.48799" lon="13.23527">
        <ele>45.644852</ele>
        <time>2020-07-15T19:47:51.821Z</time>
      </trkpt>
      <trkpt lat="66.48818" lon="13.23462">
        <ele>42.771889</ele>
        <time>2020-07-15T19:47:55.558Z</time>
      </trkpt>
      <trkpt lat="66.48828" lon="13.23382">
        <ele>39.784669</ele>
        <time>2020-07-15T19:47:59.156Z</time>
      </trkpt>
      <trkpt lat="66.48827" lon="13.23295">
        <ele>36.641723</ele>
        <time>2020-07-15T19:48:02.927Z</time>
      </trkpt>
      <trkpt lat="66.48816" lon="13.23212">
        <ele>33.52076</ele>
        <time>2020-07-15T19:48:06.677Z</time>
      </trkpt>
      <trkpt lat="66.48803" lon="13.23162">
        <ele>31.354128</ele>
        <time>2020-07-15T19:48:09.254Z</time>
      </trkpt>
      <trkpt lat="66.48783" lon="13.23116">
        <ele>30.369064</ele>
        <time>2020-07-15T19:48:12.477Z</time>
      </trkpt>
      <trkpt lat="66.48725" lon="13.23055">
        <ele>28.157526</ele>
        <time>2020-07-15T19:48:20.673Z</time>
      </trkpt>
      <trkpt lat="66.487" lon="13.23011">
        <ele>27.076111</ele>
        <time>2020-07-15T19:48:25.560Z</time>
      </trkpt>
      <trkpt lat="66.48684" lon="13.2296">
        <ele>26.161328</ele>
        <time>2020-07-15T19:48:30.518Z</time>
      </trkpt>
      <trkpt lat="66.48674" lon="13.229">
        <ele>25.245529</ele>
        <time>2020-07-15T19:48:34.540Z</time>
      </trkpt>
      <trkpt lat="66.48672" lon="13.22815">
        <ele>23.495211</ele>
        <time>2020-07-15T19:48:39.060Z</time>
      </trkpt>
      <trkpt lat="66.48678" lon="13.22754">
        <ele>22.057345</ele>
        <time>2020-07-15T19:48:42.119Z</time>
      </trkpt>
      <trkpt lat="66.48706" lon="13.22649">
        <ele>19.177524</ele>
        <time>2020-07-15T19:48:48.250Z</time>
      </trkpt>
      <trkpt lat="66.48716" lon="13.22627">
        <ele>18.431019</ele>
        <time>2020-07-15T19:48:49.693Z</time>
      </trkpt>
      <trkpt lat="66.4872" lon="13.22626">
        <ele>18.178685</ele>
        <time>2020-07-15T19:48:50.146Z</time>
      </trkpt>
      <trkpt lat="66.48744" lon="13.22632">
        <ele>16.825915</ele>
        <time>2020-07-15T19:48:53.028Z</time>
      </trkpt>
      <trkpt lat="66.48751" lon="13.22634">
        <ele>16.433717</ele>
        <time>2020-07-15T19:48:53.767Z</time>
      </trkpt>
      <trkpt lat="66.48757" lon="13.22636">
        <ele>16.053461</ele>
        <time>2020-07-15T19:48:54.473Z</time>
      </trkpt>
      <trkpt lat="66.48808" lon="13.22649">
        <ele>12.760715</ele>
        <time>2020-07-15T19:49:00.378Z</time>
      </trkpt>
      <trkpt lat="66.48816" lon="13.22652">
        <ele>12.211343</ele>
        <time>2020-07-15T19:49:01.204Z</time>
      </trkpt>
      <trkpt lat="66.48826" lon="13.22659">
        <ele>11.444353</ele>
        <time>2020-07-15T19:49:02.348Z</time>
      </trkpt>
      <trkpt lat="66.48834" lon="13.22663">
        <ele>10.907611</ele>
        <time>2020-07-15T19:49:03.283Z</time>
      </trkpt>
      <trkpt lat="66.48843" lon="13.22671">
        <ele>10.229865</ele>
        <time>2020-07-15T19:49:04.461Z</time>
      </trkpt>
      <trkpt lat="66.48848" lon="13.22679">
        <ele>9.79712</ele>
        <time>2020-07-15T19:49:05.117Z</time>
      </trkpt>
      <trkpt lat="66.48878" lon="13.22716">
        <ele>7.453561</ele>
        <time>2020-07-15T19:49:08.773Z</time>
      </trkpt>
      <trkpt lat="66.48889" lon="13.22718">
        <ele>6.644722</ele>
        <time>2020-07-15T19:49:09.996Z</time>
      </trkpt>
      <trkpt lat="66.48894" lon="13.22728">
        <ele>6.176948</ele>
        <time>2020-07-15T19:49:10.782Z</time>
      </trkpt>
      <trkpt lat="66.48903" lon="13.22744">
        <ele>5.398953</ele>
        <time>2020-07-15T19:49:12.166Z</time>
      </trkpt>
      <trkpt lat="66.48947" lon="13.22813">
        <ele>1.952625</ele>
        <time>2020-07-15T19:49:19.393Z</time>
      </trkpt>
      <trkpt lat="66.48985" lon="13.22878">
        <ele>1.446156</ele>
        <time>2020-07-15T19:49:25.799Z</time>
      </trkpt>
      <trkpt lat="66.49056" lon="13.22918">
        <ele>0.641565</ele>
        <time>2020-07-15T19:49:35.961Z</time>
      </trkpt>
      <trkpt lat="66.49394" lon="13.22952">
        <time>2020-07-15T19:50:23.005Z</time>
      </trkpt>
      <trkpt lat="66.506" lon="13.23042">
        <time>2020-07-15T19:53:11.249Z</time>
      </trkpt>
      <trkpt lat="66.51257" lon="13.23135">
        <time>2020-07-15T19:54:42.925Z</time>
      </trkpt>
      <trkpt lat="66.51703" lon="13.23038">
        <time>2020-07-15T19:55:45.412Z</time>
      </trkpt>
      <trkpt lat="66.51984" lon="13.22868">
        <time>2020-07-15T19:56:25.629Z</time>
      </trkpt>
      <trkpt lat="66.52808" lon="13.22167">
        <time>2020-07-15T19:58:26.927Z</time>
      </trkpt>
      <trkpt lat="66.54806" lon="13.20352">
        <time>2020-07-15T20:03:23.169Z</time>
      </trkpt>
      <trkpt lat="66.55422" lon="13.19694">
        <time>2020-07-15T20:04:56.528Z</time>
      </trkpt>
      <trkpt lat="66.55729" lon="13.19313">
        <time>2020-07-15T20:05:44.231Z</time>
      </trkpt>
      <trkpt lat="66.56242" lon="13.18625">
        <time>2020-07-15T20:07:05.250Z</time>
      </trkpt>
      <trkpt lat="66.56774" lon="13.17969">
        <time>2020-07-15T20:08:27.826Z</time>
      </trkpt>
      <trkpt lat="66.57032" lon="13.17581">
        <time>2020-07-15T20:09:09.731Z</time>
      </trkpt>
      <trkpt lat="66.57243" lon="13.17436">
        <time>2020-07-15T20:09:40.286Z</time>
      </trkpt>
      <trkpt lat="66.57416" lon="13.17443">
        <time>2020-07-15T20:10:04.451Z</time>
      </trkpt>
      <trkpt lat="66.57684" lon="13.17727">
        <time>2020-07-15T20:10:44.903Z</time>
      </trkpt>
      <trkpt lat="66.59331" lon="13.19635">
        <time>2020-07-15T20:14:57.682Z</time>
      </trkpt>
      <trkpt lat="66.60174" lon="13.20677">
        <time>2020-07-15T20:17:08.729Z</time>
      </trkpt>
      <trkpt lat="66.61198" lon="13.21789">
        <time>2020-07-15T20:19:44.195Z</time>
      </trkpt>
      <trkpt lat="66.6136" lon="13.22076">
        <time>2020-07-15T20:20:11.811Z</time>
      </trkpt>
      <trkpt lat="66.61973" lon="13.23444">
        <time>2020-07-15T20:22:05.926Z</time>
      </trkpt>
      <trkpt lat="66.62672" lon="13.25238">
        <time>2020-07-15T20:24:25.058Z</time>
      </trkpt>
      <trkpt lat="66.62731" lon="13.25514">
        <time>2020-07-15T20:24:42.426Z</time>
      </trkpt>
      <trkpt lat="66.62764" lon="13.25776">
        <time>2020-07-15T20:24:57.639Z</time>
      </trkpt>
      <trkpt lat="66.62781" lon="13.26033">
        <time>2020-07-15T20:25:12.099Z</time>
      </trkpt>
      <trkpt lat="66.6277" lon="13.26237">
        <time>2020-07-15T20:25:23.498Z</time>
      </trkpt>
      <trkpt lat="66.62727" lon="13.26509">
        <time>2020-07-15T20:25:39.686Z</time>
      </trkpt>
      <trkpt lat="66.6251" lon="13.27485">
        <ele>0.122921</ele>
        <time>2020-07-15T20:26:41.588Z</time>
      </trkpt>
      <trkpt lat="66.62438" lon="13.27784">
        <ele>0.586741</ele>
        <time>2020-07-15T20:27:00.953Z</time>
      </trkpt>
      <trkpt lat="66.62405" lon="13.28253">
        <ele>2.292811</ele>
        <time>2020-07-15T20:27:27.323Z</time>
      </trkpt>
      <trkpt lat="66.62414" lon="13.2837">
        <ele>2.825529</ele>
        <time>2020-07-15T20:27:33.920Z</time>
      </trkpt>
      <trkpt lat="66.62428" lon="13.28508">
        <ele>3.461553</ele>
        <time>2020-07-15T20:27:41.799Z</time>
      </trkpt>
      <trkpt lat="66.62434" lon="13.28584">
        <ele>3.807391</ele>
        <time>2020-07-15T20:27:48.553Z</time>
      </trkpt>
      <trkpt lat="66.62437" lon="13.28623">
        <ele>3.785857</ele>
        <time>2020-07-15T20:27:51.191Z</time>
      </trkpt>
      <trkpt lat="66.62438" lon="13.28634">
        <ele>3.780185</ele>
        <time>2020-07-15T20:27:52.193Z</time>
      </trkpt>
      <trkpt lat="66.62435" lon="13.28665">
        <ele>3.762973</ele>
        <time>2020-07-15T20:27:54.842Z</time>
      </trkpt>
      <trkpt lat="66.62431" lon="13.28695">
        <ele>3.745601</ele>
        <time>2020-07-15T20:27:56.871Z</time>
      </trkpt>
      <trkpt lat="66.62427" lon="13.28893">
        <ele>3.638326</ele>
        <time>2020-07-15T20:28:09.768Z</time>
      </trkpt>
      <trkpt lat="66.62433" lon="13.28933">
        <ele>3.615124</ele>
        <time>2020-07-15T20:28:13.003Z</time>
      </trkpt>
      <trkpt lat="66.62418" lon="13.28931">
        <ele>3.594501</ele>
        <time>2020-07-15T20:28:15.226Z</time>
      </trkpt>
      <trkpt lat="66.62384" lon="13.28933">
        <ele>3.688969</ele>
        <time>2020-07-15T20:28:20.977Z</time>
      </trkpt>
      <trkpt lat="66.62374" lon="13.28935">
        <ele>3.802199</ele>
        <time>2020-07-15T20:28:22.307Z</time>
      </trkpt>
      <trkpt lat="66.62374" lon="13.28927">
        <ele>3.841931</ele>
        <time>2020-07-15T20:28:24.673Z</time>
      </trkpt>
      <trkpt lat="66.62363" lon="13.2893">
        <ele>3.966067</ele>
        <time>2020-07-15T20:28:27.182Z</time>
      </trkpt>
      <trkpt lat="66.62311" lon="13.28964">
        <ele>4.609434</ele>
        <time>2020-07-15T20:28:36.570Z</time>
      </trkpt>
      <trkpt lat="66.62274" lon="13.29008">
        <ele>5.094677</ele>
        <time>2020-07-15T20:28:45.115Z</time>
      </trkpt>
      <trkpt lat="66.62239" lon="13.2907">
        <ele>5.599495</ele>
        <time>2020-07-15T20:28:56.447Z</time>
      </trkpt>
      <trkpt lat="66.6217" lon="13.29226">
        <ele>11.158618</ele>
        <time>2020-07-15T20:29:26.509Z</time>
      </trkpt>
      <trkpt lat="66.62162" lon="13.29243">
        <ele>11.810678</ele>
        <time>2020-07-15T20:29:29.889Z</time>
      </trkpt>
      <trkpt lat="66.62166" lon="13.29245">
        <ele>12.040375</ele>
        <time>2020-07-15T20:29:30.979Z</time>
      </trkpt>
      <trkpt lat="66.62159" lon="13.2926">
        <ele>12.629953</ele>
        <time>2020-07-15T20:29:33.961Z</time>
      </trkpt>
      <trkpt lat="66.62122" lon="13.29328">
        <ele>15.578292</ele>
        <time>2020-07-15T20:29:57.645Z</time>
      </trkpt>
      <trkpt lat="66.62121" lon="13.29329">
        <ele>15.636892</ele>
        <time>2020-07-15T20:29:58.349Z</time>
      </trkpt>
      <trkpt lat="66.62113" lon="13.29339">
        <ele>16.188582</ele>
        <time>2020-07-15T20:30:01.456Z</time>
      </trkpt>
      <trkpt lat="66.62104" lon="13.29352">
        <ele>16.874919</ele>
        <time>2020-07-15T20:30:04.907Z</time>
      </trkpt>
      <trkpt lat="66.62098" lon="13.29361">
        <ele>17.357343</ele>
        <time>2020-07-15T20:30:07.647Z</time>
      </trkpt>
      <trkpt lat="66.62096" lon="13.29364">
        <ele>17.679608</ele>
        <time>2020-07-15T20:30:09.888Z</time>
      </trkpt>
      <trkpt lat="66.62069" lon="13.29422">
        <ele>21.965773</ele>
        <time>2020-07-15T20:30:26.898Z</time>
      </trkpt>
      <trkpt lat="66.62055" lon="13.29494">
        <ele>25.833354</ele>
        <time>2020-07-15T20:30:44.562Z</time>
      </trkpt>
      <trkpt lat="66.62053" lon="13.29508">
        <ele>26.534032</ele>
        <time>2020-07-15T20:30:48.694Z</time>
      </trkpt>
      <trkpt lat="66.62053" lon="13.29521">
        <ele>27.176416</ele>
        <time>2020-07-15T20:30:53.587Z</time>
      </trkpt>
      <trkpt lat="66.62054" lon="13.29618">
        <ele>31.84223</ele>
        <time>2020-07-15T20:31:16.507Z</time>
      </trkpt>
      <trkpt lat="66.6207" lon="13.29814">
        <ele>40.78125</ele>
        <time>2020-07-15T20:32:01.851Z</time>
      </trkpt>
      <trkpt lat="66.62073" lon="13.29849">
        <ele>41.971567</ele>
        <time>2020-07-15T20:32:09.275Z</time>
      </trkpt>
      <trkpt lat="66.62074" lon="13.29868">
        <ele>42.583351</ele>
        <time>2020-07-15T20:32:13.844Z</time>
      </trkpt>
      <trkpt lat="66.62074" lon="13.29876">
        <ele>42.873919</ele>
        <time>2020-07-15T20:32:17.142Z</time>
      </trkpt>
      <trkpt lat="66.62074" lon="13.30006">
        <ele>47.177911</ele>
        <time>2020-07-15T20:32:40.179Z</time>
      </trkpt>
      <trkpt lat="66.62062" lon="13.30103">
        <ele>50.494077</ele>
        <time>2020-07-15T20:32:57.188Z</time>
      </trkpt>
      <trkpt lat="66.62045" lon="13.30185">
        <ele>53.593043</ele>
        <time>2020-07-15T20:33:11.236Z</time>
      </trkpt>
      <trkpt lat="66.61993" lon="13.30341">
        <ele>53.742787</ele>
        <time>2020-07-15T20:33:29.009Z</time>
      </trkpt>
      <trkpt lat="66.61984" lon="13.30408">
        <ele>53.588856</ele>
        <time>2020-07-15T20:33:33.260Z</time>
      </trkpt>
      <trkpt lat="66.61985" lon="13.30495">
        <ele>53.401867</ele>
        <time>2020-07-15T20:33:38.046Z</time>
      </trkpt>
      <trkpt lat="66.62008" lon="13.30697">
        <ele>51.577281</ele>
        <time>2020-07-15T20:33:48.521Z</time>
      </trkpt>
      <trkpt lat="66.62007" lon="13.30872">
        <ele>48.822645</ele>
        <time>2020-07-15T20:33:57.310Z</time>
      </trkpt>
      <trkpt lat="66.62007" lon="13.3088">
        <ele>48.692534</ele>
        <time>2020-07-15T20:33:57.651Z</time>
      </trkpt>
      <trkpt lat="66.62006" lon="13.30897">
        <ele>48.431199</ele>
        <time>2020-07-15T20:33:58.560Z</time>
      </trkpt>
      <trkpt lat="66.61998" lon="13.31215">
        <ele>42.317459</ele>
        <time>2020-07-15T20:34:14.678Z</time>
      </trkpt>
      <trkpt lat="66.62" lon="13.31328">
        <ele>39.763594</ele>
        <time>2020-07-15T20:34:19.970Z</time>
      </trkpt>
      <trkpt lat="66.62016" lon="13.31446">
        <ele>36.978266</ele>
        <time>2020-07-15T20:34:25.780Z</time>
      </trkpt>
      <trkpt lat="66.62058" lon="13.31612">
        <ele>30.841244</ele>
        <time>2020-07-15T20:34:34.633Z</time>
      </trkpt>
      <trkpt lat="66.62059" lon="13.31619">
        <ele>30.575645</ele>
        <time>2020-07-15T20:34:34.948Z</time>
      </trkpt>
      <trkpt lat="66.62066" lon="13.31642">
        <ele>29.621353</ele>
        <time>2020-07-15T20:34:36.141Z</time>
      </trkpt>
      <trkpt lat="66.62163" lon="13.32023">
        <ele>15.958119</ele>
        <time>2020-07-15T20:34:56.138Z</time>
      </trkpt>
      <trkpt lat="66.62166" lon="13.32036">
        <ele>15.566768</ele>
        <time>2020-07-15T20:34:56.841Z</time>
      </trkpt>
      <trkpt lat="66.62176" lon="13.32073">
        <ele>14.51933</ele>
        <time>2020-07-15T20:34:58.962Z</time>
      </trkpt>
      <trkpt lat="66.62192" lon="13.32139">
        <ele>12.620137</ele>
        <time>2020-07-15T20:35:02.740Z</time>
      </trkpt>
      <trkpt lat="66.62198" lon="13.32163">
        <ele>11.929523</ele>
        <time>2020-07-15T20:35:04.167Z</time>
      </trkpt>
      <trkpt lat="66.62207" lon="13.32198">
        <ele>10.88979</ele>
        <time>2020-07-15T20:35:06.195Z</time>
      </trkpt>
      <trkpt lat="66.62249" lon="13.32355">
        <ele>8.812299</ele>
        <time>2020-07-15T20:35:15.900Z</time>
      </trkpt>
      <trkpt lat="66.6229" lon="13.32453">
        <ele>8.179255</ele>
        <time>2020-07-15T20:35:24.778Z</time>
      </trkpt>
      <trkpt lat="66.62298" lon="13.32468">
        <ele>8.066615</ele>
        <time>2020-07-15T20:35:26.754Z</time>
      </trkpt>
      <trkpt lat="66.62306" lon="13.32482">
        <ele>7.961366</ele>
        <time>2020-07-15T20:35:28.340Z</time>
      </trkpt>
      <trkpt lat="66.62311" lon="13.32491">
        <ele>7.89142</ele>
        <time>2020-07-15T20:35:29.420Z</time>
      </trkpt>
      <trkpt lat="66.62314" lon="13.32497">
        <ele>7.844959</ele>
        <time>2020-07-15T20:35:30.191Z</time>
      </trkpt>
      <trkpt lat="66.62378" lon="13.32606">
        <ele>7.818089</ele>
        <time>2020-07-15T20:35:45.811Z</time>
      </trkpt>
      <trkpt lat="66.6238" lon="13.32609">
        <ele>7.854106</ele>
        <time>2020-07-15T20:35:46.376Z</time>
      </trkpt>
      <trkpt lat="66.62387" lon="13.3262">
        <ele>7.963313</ele>
        <time>2020-07-15T20:35:48.446Z</time>
      </trkpt>
      <trkpt lat="66.62434" lon="13.32696">
        <ele>8.730941</ele>
        <time>2020-07-15T20:36:00.615Z</time>
      </trkpt>
      <trkpt lat="66.62469" lon="13.32725">
        <ele>9.240304</ele>
        <time>2020-07-15T20:36:09.432Z</time>
      </trkpt>
      <trkpt lat="66.62626" lon="13.32747">
        <ele>11.833727</ele>
        <time>2020-07-15T20:36:45.945Z</time>
      </trkpt>
      <trkpt lat="66.62678" lon="13.32736">
        <ele>12.748142</ele>
        <time>2020-07-15T20:36:57.855Z</time>
      </trkpt>
      <trkpt lat="66.62705" lon="13.32709">
        <ele>13.481759</ele>
        <time>2020-07-15T20:37:04.897Z</time>
      </trkpt>
      <trkpt lat="66.62741" lon="13.32657">
        <ele>14.777747</ele>
        <time>2020-07-15T20:37:15.161Z</time>
      </trkpt>
      <trkpt lat="66.62742" lon="13.32656">
        <ele>14.804109</ele>
        <time>2020-07-15T20:37:15.517Z</time>
      </trkpt>
      <trkpt lat="66.6275" lon="13.32644">
        <ele>15.090615</ele>
        <time>2020-07-15T20:37:18.210Z</time>
      </trkpt>
      <trkpt lat="66.62824" lon="13.32534">
        <ele>17.758563</ele>
        <time>2020-07-15T20:37:42.172Z</time>
      </trkpt>
      <trkpt lat="66.62878" lon="13.32474">
        <ele>20.206531</ele>
        <time>2020-07-15T20:38:01.541Z</time>
      </trkpt>
      <trkpt lat="66.63061" lon="13.32386">
        <ele>28.315013</ele>
        <time>2020-07-15T20:39:06.168Z</time>
      </trkpt>
      <trkpt lat="66.63067" lon="13.32385">
        <ele>28.4337</ele>
        <time>2020-07-15T20:39:09.544Z</time>
      </trkpt>
      <trkpt lat="66.63074" lon="13.32386">
        <ele>28.569409</ele>
        <time>2020-07-15T20:39:11.325Z</time>
      </trkpt>
      <trkpt lat="66.63128" lon="13.32416">
        <ele>29.629035</ele>
        <time>2020-07-15T20:39:24.299Z</time>
      </trkpt>
      <trkpt lat="66.6325" lon="13.32566">
        <ele>29.645662</ele>
        <time>2020-07-15T20:39:46.471Z</time>
      </trkpt>
      <trkpt lat="66.63281" lon="13.3262">
        <ele>28.841301</ele>
        <time>2020-07-15T20:39:51.399Z</time>
      </trkpt>
      <trkpt lat="66.63308" lon="13.32699">
        <ele>27.963186</ele>
        <time>2020-07-15T20:39:56.796Z</time>
      </trkpt>
      <trkpt lat="66.63327" lon="13.32795">
        <ele>26.999191</ele>
        <time>2020-07-15T20:40:02.447Z</time>
      </trkpt>
      <trkpt lat="66.63333" lon="13.32901">
        <ele>25.660936</ele>
        <time>2020-07-15T20:40:08.098Z</time>
      </trkpt>
      <trkpt lat="66.63312" lon="13.3328">
        <ele>21.033987</ele>
        <time>2020-07-15T20:40:27.972Z</time>
      </trkpt>
      <trkpt lat="66.6331" lon="13.33303">
        <ele>20.803306</ele>
        <time>2020-07-15T20:40:29.037Z</time>
      </trkpt>
      <trkpt lat="66.6331" lon="13.3331">
        <ele>20.729204</ele>
        <time>2020-07-15T20:40:29.770Z</time>
      </trkpt>
      <trkpt lat="66.63301" lon="13.33444">
        <ele>19.389775</ele>
        <time>2020-07-15T20:40:37.235Z</time>
      </trkpt>
      <trkpt lat="66.633" lon="13.33472">
        <ele>19.109539</ele>
        <time>2020-07-15T20:40:38.696Z</time>
      </trkpt>
      <trkpt lat="66.63297" lon="13.33506">
        <ele>18.777257</ele>
        <time>2020-07-15T20:40:40.537Z</time>
      </trkpt>
      <trkpt lat="66.63267" lon="13.3399">
        <ele>14.458286</ele>
        <time>2020-07-15T20:41:08.143Z</time>
      </trkpt>
      <trkpt lat="66.63267" lon="13.34114">
        <ele>13.432785</ele>
        <time>2020-07-15T20:41:14.988Z</time>
      </trkpt>
      <trkpt lat="66.63268" lon="13.34141">
        <ele>13.206023</ele>
        <time>2020-07-15T20:41:16.539Z</time>
      </trkpt>
      <trkpt lat="66.63271" lon="13.34166">
        <ele>12.988129</ele>
        <time>2020-07-15T20:41:17.826Z</time>
      </trkpt>
      <trkpt lat="66.63283" lon="13.34233">
        <ele>12.351094</ele>
        <time>2020-07-15T20:41:21.928Z</time>
      </trkpt>
      <trkpt lat="66.63321" lon="13.34373">
        <ele>10.895701</ele>
        <time>2020-07-15T20:41:31.193Z</time>
      </trkpt>
      <trkpt lat="66.63336" lon="13.34453">
        <ele>10.138116</ele>
        <time>2020-07-15T20:41:36.077Z</time>
      </trkpt>
      <trkpt lat="66.63341" lon="13.34546">
        <ele>9.385359</ele>
        <time>2020-07-15T20:41:41.350Z</time>
      </trkpt>
      <trkpt lat="66.63335" lon="13.34657">
        <ele>9.01753</ele>
        <time>2020-07-15T20:41:47.964Z</time>
      </trkpt>
      <trkpt lat="66.63334" lon="13.34665">
        <ele>8.991801</ele>
        <time>2020-07-15T20:41:48.374Z</time>
      </trkpt>
      <trkpt lat="66.63332" lon="13.34681">
        <ele>8.938234</ele>
        <time>2020-07-15T20:41:49.560Z</time>
      </trkpt>
      <trkpt lat="66.63262" lon="13.3511">
        <ele>8.045775</ele>
        <time>2020-07-15T20:42:20.200Z</time>
      </trkpt>
      <trkpt lat="66.6326" lon="13.35131">
        <ele>8.061231</ele>
        <time>2020-07-15T20:42:21.527Z</time>
      </trkpt>
      <trkpt lat="66.63257" lon="13.35153">
        <ele>8.077595</ele>
        <time>2020-07-15T20:42:23.728Z</time>
      </trkpt>
      <trkpt lat="66.63247" lon="13.35264">
        <ele>8.156039</ele>
        <time>2020-07-15T20:42:32.519Z</time>
      </trkpt>
      <trkpt lat="66.63241" lon="13.35406">
        <ele>8.271024</ele>
        <time>2020-07-15T20:42:43.635Z</time>
      </trkpt>
      <trkpt lat="66.63245" lon="13.35993">
        <ele>11.358665</ele>
        <time>2020-07-15T20:43:31.163Z</time>
      </trkpt>
      <trkpt lat="66.63254" lon="13.36158">
        <ele>13.29184</ele>
        <time>2020-07-15T20:43:49.536Z</time>
      </trkpt>
      <trkpt lat="66.63278" lon="13.36387">
        <ele>16.865269</ele>
        <time>2020-07-15T20:44:19.245Z</time>
      </trkpt>
      <trkpt lat="66.63279" lon="13.36392">
        <ele>16.974039</ele>
        <time>2020-07-15T20:44:19.640Z</time>
      </trkpt>
      <trkpt lat="66.63281" lon="13.36408">
        <ele>17.324648</ele>
        <time>2020-07-15T20:44:24.177Z</time>
      </trkpt>
      <trkpt lat="66.63312" lon="13.36618">
        <ele>21.960388</ele>
        <time>2020-07-15T20:44:58.269Z</time>
      </trkpt>
      <trkpt lat="66.63379" lon="13.36916">
        <ele>23.751499</ele>
        <time>2020-07-15T20:45:37.723Z</time>
      </trkpt>
      <trkpt lat="66.63386" lon="13.37002">
        <ele>23.499798</ele>
        <time>2020-07-15T20:45:42.368Z</time>
      </trkpt>
      <trkpt lat="66.63386" lon="13.37084">
        <ele>23.262785</ele>
        <time>2020-07-15T20:45:46.427Z</time>
      </trkpt>
      <trkpt lat="66.63385" lon="13.37101">
        <ele>23.214607</ele>
        <time>2020-07-15T20:45:47.232Z</time>
      </trkpt>
      <trkpt lat="66.63385" lon="13.37106">
        <ele>23.199408</ele>
        <time>2020-07-15T20:45:47.458Z</time>
      </trkpt>
      <trkpt lat="66.63372" lon="13.37191">
        <ele>21.622628</ele>
        <time>2020-07-15T20:45:51.659Z</time>
      </trkpt>
      <trkpt lat="66.63353" lon="13.37259">
        <ele>19.380065</ele>
        <time>2020-07-15T20:45:55.672Z</time>
      </trkpt>
      <trkpt lat="66.63269" lon="13.37413">
        <ele>12.275229</ele>
        <time>2020-07-15T20:46:07.379Z</time>
      </trkpt>
      <trkpt lat="66.6325" lon="13.37463">
        <ele>10.627873</ele>
        <time>2020-07-15T20:46:10.705Z</time>
      </trkpt>
      <trkpt lat="66.63241" lon="13.37509">
        <ele>9.870841</ele>
        <time>2020-07-15T20:46:13.225Z</time>
      </trkpt>
      <trkpt lat="66.63239" lon="13.37518">
        <ele>9.726436</ele>
        <time>2020-07-15T20:46:13.792Z</time>
      </trkpt>
      <trkpt lat="66.63237" lon="13.37541">
        <ele>9.37022</ele>
        <time>2020-07-15T20:46:14.974Z</time>
      </trkpt>
      <trkpt lat="66.63235" lon="13.37602">
        <ele>8.477993</ele>
        <time>2020-07-15T20:46:17.887Z</time>
      </trkpt>
      <trkpt lat="66.63235" lon="13.37607">
        <ele>8.398241</ele>
        <time>2020-07-15T20:46:18.300Z</time>
      </trkpt>
      <trkpt lat="66.63235" lon="13.37623">
        <ele>8.166145</ele>
        <time>2020-07-15T20:46:19.049Z</time>
      </trkpt>
      <trkpt lat="66.63248" lon="13.37747">
        <ele>6.267323</ele>
        <time>2020-07-15T20:46:25.559Z</time>
      </trkpt>
      <trkpt lat="66.63275" lon="13.37885">
        <ele>4.17373</ele>
        <time>2020-07-15T20:46:34.211Z</time>
      </trkpt>
      <trkpt lat="66.63281" lon="13.37906">
        <ele>4.16089</ele>
        <time>2020-07-15T20:46:35.590Z</time>
      </trkpt>
      <trkpt lat="66.63291" lon="13.37934">
        <ele>4.142674</ele>
        <time>2020-07-15T20:46:37.993Z</time>
      </trkpt>
      <trkpt lat="66.63297" lon="13.37952">
        <ele>4.130685</ele>
        <time>2020-07-15T20:46:39.349Z</time>
      </trkpt>
      <trkpt lat="66.63301" lon="13.37961">
        <ele>4.124202</ele>
        <time>2020-07-15T20:46:40.090Z</time>
      </trkpt>
      <trkpt lat="66.6332" lon="13.38004">
        <ele>4.091905</ele>
        <time>2020-07-15T20:46:43.961Z</time>
      </trkpt>
      <trkpt lat="66.63376" lon="13.38096">
        <ele>4.009218</ele>
        <time>2020-07-15T20:46:54.619Z</time>
      </trkpt>
      <trkpt lat="66.63379" lon="13.38101">
        <ele>4.004558</ele>
        <time>2020-07-15T20:46:55.555Z</time>
      </trkpt>
      <trkpt lat="66.63386" lon="13.38113">
        <ele>3.993923</ele>
        <time>2020-07-15T20:46:58.283Z</time>
      </trkpt>
      <trkpt lat="66.63435" lon="13.38205">
        <ele>5.573396</ele>
        <time>2020-07-15T20:47:13.214Z</time>
      </trkpt>
      <trkpt lat="66.6348" lon="13.3833">
        <ele>9.173595</ele>
        <time>2020-07-15T20:47:35.903Z</time>
      </trkpt>
      <trkpt lat="66.63486" lon="13.3835">
        <ele>9.671598</ele>
        <time>2020-07-15T20:47:40.863Z</time>
      </trkpt>
      <trkpt lat="66.63491" lon="13.38369">
        <ele>10.180028</ele>
        <time>2020-07-15T20:47:45.488Z</time>
      </trkpt>
      <trkpt lat="66.63512" lon="13.3846">
        <ele>12.406138</ele>
        <time>2020-07-15T20:48:00.993Z</time>
      </trkpt>
      <trkpt lat="66.63532" lon="13.38574">
        <ele>15.269348</ele>
        <time>2020-07-15T20:48:19.485Z</time>
      </trkpt>
      <trkpt lat="66.63532" lon="13.38576">
        <ele>15.310248</ele>
        <time>2020-07-15T20:48:20.157Z</time>
      </trkpt>
      <trkpt lat="66.63536" lon="13.38606">
        <ele>16.093088</ele>
        <time>2020-07-15T20:48:26.673Z</time>
      </trkpt>
      <trkpt lat="66.63551" lon="13.3882">
        <ele>21.397145</ele>
        <time>2020-07-15T20:48:59.950Z</time>
      </trkpt>
      <trkpt lat="66.63547" lon="13.39016">
        <ele>25.135776</ele>
        <time>2020-07-15T20:49:26.711Z</time>
      </trkpt>
      <trkpt lat="66.63536" lon="13.39135">
        <ele>26.098699</ele>
        <time>2020-07-15T20:49:39.003Z</time>
      </trkpt>
      <trkpt lat="66.63497" lon="13.39413">
        <ele>28.326267</ele>
        <time>2020-07-15T20:50:02.895Z</time>
      </trkpt>
      <trkpt lat="66.63468" lon="13.3972">
        <ele>29.50916</ele>
        <time>2020-07-15T20:50:26.192Z</time>
      </trkpt>
      <trkpt lat="66.63464" lon="13.39743">
        <ele>29.600793</ele>
        <time>2020-07-15T20:50:27.626Z</time>
      </trkpt>
      <trkpt lat="66.63459" lon="13.39774">
        <ele>29.729149</ele>
        <time>2020-07-15T20:50:31.141Z</time>
      </trkpt>
      <trkpt lat="66.63357" lon="13.4016">
        <ele>35.827565</ele>
        <time>2020-07-15T20:51:23.099Z</time>
      </trkpt>
      <trkpt lat="66.63329" lon="13.4024">
        <ele>38.313455</ele>
        <time>2020-07-15T20:51:39.055Z</time>
      </trkpt>
      <trkpt lat="66.63295" lon="13.40305">
        <ele>41.419277</ele>
        <time>2020-07-15T20:51:55.980Z</time>
      </trkpt>
      <trkpt lat="66.63258" lon="13.40349">
        <ele>44.374114</ele>
        <time>2020-07-15T20:52:13.015Z</time>
      </trkpt>
      <trkpt lat="66.63216" lon="13.40377">
        <ele>47.566234</ele>
        <time>2020-07-15T20:52:32.322Z</time>
      </trkpt>
      <trkpt lat="66.63099" lon="13.40376">
        <ele>56.57974</ele>
        <time>2020-07-15T20:53:26.533Z</time>
      </trkpt>
      <trkpt lat="66.63062" lon="13.40389">
        <ele>59.581296</ele>
        <time>2020-07-15T20:53:44.259Z</time>
      </trkpt>
      <trkpt lat="66.63019" lon="13.40425">
        <ele>63.122156</ele>
        <time>2020-07-15T20:54:02.140Z</time>
      </trkpt>
      <trkpt lat="66.62974" lon="13.40496">
        <ele>64.029602</ele>
        <time>2020-07-15T20:54:19.735Z</time>
      </trkpt>
      <trkpt lat="66.62971" lon="13.40503">
        <ele>64.056517</ele>
        <time>2020-07-15T20:54:23.544Z</time>
      </trkpt>
      <trkpt lat="66.62885" lon="13.4089">
        <ele>60.825285</ele>
        <time>2020-07-15T20:54:50.713Z</time>
      </trkpt>
      <trkpt lat="66.62795" lon="13.41301">
        <ele>45.23041</ele>
        <time>2020-07-15T20:55:11.565Z</time>
      </trkpt>
      <trkpt lat="66.62794" lon="13.41311">
        <ele>44.958033</ele>
        <time>2020-07-15T20:55:11.988Z</time>
      </trkpt>
      <trkpt lat="66.62792" lon="13.41341">
        <ele>44.102307</ele>
        <time>2020-07-15T20:55:13.468Z</time>
      </trkpt>
      <trkpt lat="66.62789" lon="13.41381">
        <ele>43.002469</ele>
        <time>2020-07-15T20:55:15.495Z</time>
      </trkpt>
      <trkpt lat="66.62789" lon="13.41387">
        <ele>42.821788</ele>
        <time>2020-07-15T20:55:15.765Z</time>
      </trkpt>
      <trkpt lat="66.62788" lon="13.41414">
        <ele>42.081062</ele>
        <time>2020-07-15T20:55:16.878Z</time>
      </trkpt>
      <trkpt lat="66.62787" lon="13.41431">
        <ele>41.611709</ele>
        <time>2020-07-15T20:55:17.975Z</time>
      </trkpt>
      <trkpt lat="66.6277" lon="13.41666">
        <ele>37.54832</ele>
        <time>2020-07-15T20:55:30.156Z</time>
      </trkpt>
      <trkpt lat="66.62747" lon="13.41812">
        <ele>41.320048</ele>
        <time>2020-07-15T20:55:52.407Z</time>
      </trkpt>
      <trkpt lat="66.62529" lon="13.42696">
        <ele>65.951063</ele>
        <time>2020-07-15T20:58:42.352Z</time>
      </trkpt>
      <trkpt lat="66.62487" lon="13.42897">
        <ele>68.675226</ele>
        <time>2020-07-15T20:59:04.925Z</time>
      </trkpt>
      <trkpt lat="66.62461" lon="13.43114">
        <ele>68.887578</ele>
        <time>2020-07-15T20:59:19.803Z</time>
      </trkpt>
      <trkpt lat="66.62444" lon="13.43467">
        <ele>69.170944</ele>
        <time>2020-07-15T20:59:41.484Z</time>
      </trkpt>
      <trkpt lat="66.62443" lon="13.43496">
        <ele>69.192843</ele>
        <time>2020-07-15T20:59:43.329Z</time>
      </trkpt>
      <trkpt lat="66.62442" lon="13.43526">
        <ele>69.214855</ele>
        <time>2020-07-15T20:59:45.505Z</time>
      </trkpt>
      <trkpt lat="66.62424" lon="13.44059">
        <ele>73.594842</ele>
        <time>2020-07-15T21:00:38.618Z</time>
      </trkpt>
      <trkpt lat="66.62423" lon="13.44065">
        <ele>73.660821</ele>
        <time>2020-07-15T21:00:39.823Z</time>
      </trkpt>
      <trkpt lat="66.62422" lon="13.44098">
        <ele>74.032921</ele>
        <time>2020-07-15T21:00:43.842Z</time>
      </trkpt>
      <trkpt lat="66.62421" lon="13.44133">
        <ele>74.478919</ele>
        <time>2020-07-15T21:00:47.612Z</time>
      </trkpt>
      <trkpt lat="66.6242" lon="13.44169">
        <ele>75.477871</ele>
        <time>2020-07-15T21:00:52.781Z</time>
      </trkpt>
      <trkpt lat="66.62404" lon="13.44371">
        <ele>81.136055</ele>
        <time>2020-07-15T21:01:22.318Z</time>
      </trkpt>
      <trkpt lat="66.62366" lon="13.44594">
        <ele>88.247038</ele>
        <time>2020-07-15T21:02:06.795Z</time>
      </trkpt>
      <trkpt lat="66.62361" lon="13.4462">
        <ele>89.380769</ele>
        <time>2020-07-15T21:02:11.329Z</time>
      </trkpt>
      <trkpt lat="66.62354" lon="13.44654">
        <ele>90.857278</ele>
        <time>2020-07-15T21:02:21.507Z</time>
      </trkpt>
      <trkpt lat="66.62313" lon="13.44857">
        <ele>99.807408</ele>
        <time>2020-07-15T21:03:05.707Z</time>
      </trkpt>
      <trkpt lat="66.6231" lon="13.44875">
        <ele>100.582029</ele>
        <time>2020-07-15T21:03:11.628Z</time>
      </trkpt>
      <trkpt lat="66.62306" lon="13.44892">
        <ele>101.330705</ele>
        <time>2020-07-15T21:03:16.958Z</time>
      </trkpt>
      <trkpt lat="66.62209" lon="13.4538">
        <ele>119.151491</ele>
        <time>2020-07-15T21:04:53.080Z</time>
      </trkpt>
      <trkpt lat="66.62206" lon="13.45402">
        <ele>119.47287</ele>
        <time>2020-07-15T21:04:56.991Z</time>
      </trkpt>
      <trkpt lat="66.62202" lon="13.45428">
        <ele>119.852444</ele>
        <time>2020-07-15T21:04:59.374Z</time>
      </trkpt>
      <trkpt lat="66.6219" lon="13.4555">
        <ele>121.560566</ele>
        <time>2020-07-15T21:05:13.982Z</time>
      </trkpt>
      <trkpt lat="66.62189" lon="13.45672">
        <ele>123.208818</ele>
        <time>2020-07-15T21:05:28.113Z</time>
      </trkpt>
      <trkpt lat="66.6219" lon="13.45684">
        <ele>123.375708</ele>
        <time>2020-07-15T21:05:28.785Z</time>
      </trkpt>
      <trkpt lat="66.62191" lon="13.45702">
        <ele>123.623923</ele>
        <time>2020-07-15T21:05:30.109Z</time>
      </trkpt>
      <trkpt lat="66.62192" lon="13.45717">
        <ele>123.837474</ele>
        <time>2020-07-15T21:05:31.811Z</time>
      </trkpt>
      <trkpt lat="66.62194" lon="13.45739">
        <ele>124.139141</ele>
        <time>2020-07-15T21:05:34.692Z</time>
      </trkpt>
      <trkpt lat="66.62213" lon="13.45877">
        <ele>125.364546</ele>
        <time>2020-07-15T21:05:46.522Z</time>
      </trkpt>
      <trkpt lat="66.62216" lon="13.45891">
        <ele>125.402414</ele>
        <time>2020-07-15T21:05:48.589Z</time>
      </trkpt>
      <trkpt lat="66.6398" lon="13.51644">
        <ele>129.697855</ele>
        <time>2020-07-15T21:15:39.152Z</time>
      </trkpt>
      <trkpt lat="66.63986" lon="13.51666">
        <ele>127.110138</ele>
        <time>2020-07-15T21:15:40.318Z</time>
      </trkpt>
      <trkpt lat="66.64067" lon="13.51935">
        <ele>94.052645</ele>
        <time>2020-07-15T21:15:54.126Z</time>
      </trkpt>
      <trkpt lat="66.64072" lon="13.51953">
        <ele>91.898491</ele>
        <time>2020-07-15T21:15:55.127Z</time>
      </trkpt>
      <trkpt lat="66.64074" lon="13.5196">
        <ele>90.959216</ele>
        <time>2020-07-15T21:15:55.513Z</time>
      </trkpt>
      <trkpt lat="66.6408" lon="13.51979">
        <ele>88.714689</ele>
        <time>2020-07-15T21:15:56.450Z</time>
      </trkpt>
      <trkpt lat="66.64081" lon="13.51982">
        <ele>88.370484</ele>
        <time>2020-07-15T21:15:56.601Z</time>
      </trkpt>
      <trkpt lat="66.64087" lon="13.52003">
        <ele>85.705868</ele>
        <time>2020-07-15T21:15:57.704Z</time>
      </trkpt>
      <trkpt lat="66.64088" lon="13.52007">
        <ele>85.232559</ele>
        <time>2020-07-15T21:15:57.933Z</time>
      </trkpt>
      <trkpt lat="66.64128" lon="13.52127">
        <ele>70.091638</ele>
        <time>2020-07-15T21:16:04.210Z</time>
      </trkpt>
      <trkpt lat="66.64158" lon="13.52196">
        <ele>60.024908</ele>
        <time>2020-07-15T21:16:08.369Z</time>
      </trkpt>
      <trkpt lat="66.6416" lon="13.52198">
        <ele>59.603395</ele>
        <time>2020-07-15T21:16:08.561Z</time>
      </trkpt>
      <trkpt lat="66.64167" lon="13.52212">
        <ele>57.30224</ele>
        <time>2020-07-15T21:16:09.543Z</time>
      </trkpt>
      <trkpt lat="66.64213" lon="13.52272">
        <ele>49.270246</ele>
        <time>2020-07-15T21:16:15.031Z</time>
      </trkpt>
      <trkpt lat="66.64291" lon="13.52321">
        <ele>44.162914</ele>
        <time>2020-07-15T21:16:24.934Z</time>
      </trkpt>
      <trkpt lat="66.64301" lon="13.52326">
        <ele>43.492912</ele>
        <time>2020-07-15T21:16:26.098Z</time>
      </trkpt>
      <trkpt lat="66.64311" lon="13.52331">
        <ele>42.809404</ele>
        <time>2020-07-15T21:16:27.601Z</time>
      </trkpt>
      <trkpt lat="66.64447" lon="13.52408">
        <ele>36.893203</ele>
        <time>2020-07-15T21:16:47.340Z</time>
      </trkpt>
      <trkpt lat="66.6448" lon="13.52447">
        <ele>35.798662</ele>
        <time>2020-07-15T21:16:52.296Z</time>
      </trkpt>
      <trkpt lat="66.64523" lon="13.52525">
        <ele>34.248427</ele>
        <time>2020-07-15T21:16:58.992Z</time>
      </trkpt>
      <trkpt lat="66.64553" lon="13.52613">
        <ele>31.558216</ele>
        <time>2020-07-15T21:17:04.608Z</time>
      </trkpt>
      <trkpt lat="66.64578" lon="13.52719">
        <ele>28.533587</ele>
        <time>2020-07-15T21:17:10.359Z</time>
      </trkpt>
      <trkpt lat="66.64639" lon="13.531">
        <ele>19.819226</ele>
        <time>2020-07-15T21:17:29.065Z</time>
      </trkpt>
      <trkpt lat="66.64642" lon="13.53123">
        <ele>19.395965</ele>
        <time>2020-07-15T21:17:30.149Z</time>
      </trkpt>
      <trkpt lat="66.64646" lon="13.53153">
        <ele>18.853515</ele>
        <time>2020-07-15T21:17:31.708Z</time>
      </trkpt>
      <trkpt lat="66.64653" lon="13.53241">
        <ele>17.295259</ele>
        <time>2020-07-15T21:17:36.151Z</time>
      </trkpt>
      <trkpt lat="66.64654" lon="13.53356">
        <ele>15.293253</ele>
        <time>2020-07-15T21:17:43.129Z</time>
      </trkpt>
      <trkpt lat="66.64644" lon="13.53487">
        <ele>16.465182</ele>
        <time>2020-07-15T21:17:52.383Z</time>
      </trkpt>
      <trkpt lat="66.64628" lon="13.53578">
        <ele>17.5</ele>
        <time>2020-07-15T21:18:03.323Z</time>
      </trkpt>
      <trkpt lat="66.64625" lon="13.53594">
        <ele>17.698313</ele>
        <time>2020-07-15T21:18:05.520Z</time>
      </trkpt>
      <trkpt lat="66.64619" lon="13.53619">
        <ele>17.99777</ele>
        <time>2020-07-15T21:18:09.520Z</time>
      </trkpt>
      <trkpt lat="66.6452" lon="13.5391">
        <ele>22.237503</ele>
        <time>2020-07-15T21:18:58.348Z</time>
      </trkpt>
      <trkpt lat="66.64494" lon="13.54019">
        <ele>23.687977</ele>
        <time>2020-07-15T21:19:10.674Z</time>
      </trkpt>
      <trkpt lat="66.6448" lon="13.54108">
        <ele>24.789962</ele>
        <time>2020-07-15T21:19:19.535Z</time>
      </trkpt>
      <trkpt lat="66.64474" lon="13.54145">
        <ele>25.17155</ele>
        <time>2020-07-15T21:19:23.606Z</time>
      </trkpt>
      <trkpt lat="66.6447" lon="13.54177">
        <ele>25.294288</ele>
        <time>2020-07-15T21:19:25.805Z</time>
      </trkpt>
      <trkpt lat="66.64453" lon="13.54365">
        <ele>26.002596</ele>
        <time>2020-07-15T21:19:41.217Z</time>
      </trkpt>
      <trkpt lat="66.64443" lon="13.54583">
        <ele>26.819976</ele>
        <time>2020-07-15T21:19:58.235Z</time>
      </trkpt>
      <trkpt lat="66.64445" lon="13.54813">
        <ele>28.381204</ele>
        <time>2020-07-15T21:20:20.474Z</time>
      </trkpt>
      <trkpt lat="66.64457" lon="13.55012">
        <ele>29.746153</ele>
        <time>2020-07-15T21:20:40.262Z</time>
      </trkpt>
      <trkpt lat="66.64473" lon="13.55171">
        <ele>29.481289</ele>
        <time>2020-07-15T21:20:53.958Z</time>
      </trkpt>
      <trkpt lat="66.64495" lon="13.55323">
        <ele>29.035401</ele>
        <time>2020-07-15T21:21:04.542Z</time>
      </trkpt>
      <trkpt lat="66.64613" lon="13.56006">
        <ele>22.68488</ele>
        <time>2020-07-15T21:21:43.808Z</time>
      </trkpt>
      <trkpt lat="66.64614" lon="13.56014">
        <ele>22.639715</ele>
        <time>2020-07-15T21:21:44.189Z</time>
      </trkpt>
      <trkpt lat="66.64616" lon="13.56033">
        <ele>22.523641</ele>
        <time>2020-07-15T21:21:45.403Z</time>
      </trkpt>
      <trkpt lat="66.64618" lon="13.56043">
        <ele>22.463211</ele>
        <time>2020-07-15T21:21:46.304Z</time>
      </trkpt>
      <trkpt lat="66.64622" lon="13.56072">
        <ele>22.289851</ele>
        <time>2020-07-15T21:21:48.480Z</time>
      </trkpt>
      <trkpt lat="66.64631" lon="13.56145">
        <ele>21.859458</ele>
        <time>2020-07-15T21:21:53.688Z</time>
      </trkpt>
      <trkpt lat="66.64631" lon="13.5615">
        <ele>21.830334</ele>
        <time>2020-07-15T21:21:54.003Z</time>
      </trkpt>
      <trkpt lat="66.64635" lon="13.56187">
        <ele>21.613558</ele>
        <time>2020-07-15T21:21:56.441Z</time>
      </trkpt>
      <trkpt lat="66.64648" lon="13.56299">
        <ele>20.956957</ele>
        <time>2020-07-15T21:22:03.604Z</time>
      </trkpt>
      <trkpt lat="66.64649" lon="13.56308">
        <ele>20.873728</ele>
        <time>2020-07-15T21:22:04.880Z</time>
      </trkpt>
      <trkpt lat="66.64651" lon="13.56336">
        <ele>20.546934</ele>
        <time>2020-07-15T21:22:06.453Z</time>
      </trkpt>
      <trkpt lat="66.64676" lon="13.56487">
        <ele>18.664505</ele>
        <time>2020-07-15T21:22:17.014Z</time>
      </trkpt>
      <trkpt lat="66.6468" lon="13.56502">
        <ele>18.462324</ele>
        <time>2020-07-15T21:22:17.966Z</time>
      </trkpt>
      <trkpt lat="66.64683" lon="13.56511">
        <ele>18.335176</ele>
        <time>2020-07-15T21:22:18.458Z</time>
      </trkpt>
      <trkpt lat="66.64695" lon="13.56552">
        <ele>17.739413</ele>
        <time>2020-07-15T21:22:21.248Z</time>
      </trkpt>
      <trkpt lat="66.647" lon="13.56564">
        <ele>17.558351</ele>
        <time>2020-07-15T21:22:22.179Z</time>
      </trkpt>
      <trkpt lat="66.64703" lon="13.56574">
        <ele>17.407926</ele>
        <time>2020-07-15T21:22:22.810Z</time>
      </trkpt>
      <trkpt lat="66.6474" lon="13.56656">
        <ele>15.969961</ele>
        <time>2020-07-15T21:22:28.786Z</time>
      </trkpt>
      <trkpt lat="66.64793" lon="13.56721">
        <ele>12.952842</ele>
        <time>2020-07-15T21:22:35.777Z</time>
      </trkpt>
      <trkpt lat="66.648" lon="13.56725">
        <ele>12.581119</ele>
        <time>2020-07-15T21:22:36.503Z</time>
      </trkpt>
      <trkpt lat="66.64809" lon="13.56731">
        <ele>12.045556</ele>
        <time>2020-07-15T21:22:37.614Z</time>
      </trkpt>
      <trkpt lat="66.64862" lon="13.56741">
        <ele>9.121297</ele>
        <time>2020-07-15T21:22:43.928Z</time>
      </trkpt>
      <trkpt lat="66.64908" lon="13.56715">
        <ele>6.511184</ele>
        <time>2020-07-15T21:22:49.513Z</time>
      </trkpt>
      <trkpt lat="66.64941" lon="13.56676">
        <ele>5.179919</ele>
        <time>2020-07-15T21:22:53.915Z</time>
      </trkpt>
      <trkpt lat="66.65014" lon="13.56553">
        <ele>2.886992</ele>
        <time>2020-07-15T21:23:05.797Z</time>
      </trkpt>
      <trkpt lat="66.65019" lon="13.56544">
        <ele>2.709296</ele>
        <time>2020-07-15T21:23:06.744Z</time>
      </trkpt>
      <trkpt lat="66.65024" lon="13.56536">
        <ele>2.566473</ele>
        <time>2020-07-15T21:23:07.551Z</time>
      </trkpt>
      <trkpt lat="66.65035" lon="13.56516">
        <ele>2.220257</ele>
        <time>2020-07-15T21:23:09.532Z</time>
      </trkpt>
      <trkpt lat="66.65036" lon="13.56514">
        <ele>2.179876</ele>
        <time>2020-07-15T21:23:09.754Z</time>
      </trkpt>
      <trkpt lat="66.65045" lon="13.56499">
        <ele>1.898146</ele>
        <time>2020-07-15T21:23:11.332Z</time>
      </trkpt>
      <trkpt lat="66.65051" lon="13.56488">
        <ele>1.708333</ele>
        <time>2020-07-15T21:23:12.390Z</time>
      </trkpt>
      <trkpt lat="66.65054" lon="13.56481">
        <ele>1.591308</ele>
        <time>2020-07-15T21:23:13.077Z</time>
      </trkpt>
      <trkpt lat="66.65061" lon="13.56468">
        <ele>1.363666</ele>
        <time>2020-07-15T21:23:14.432Z</time>
      </trkpt>
      <trkpt lat="66.65066" lon="13.56456">
        <ele>1.179442</ele>
        <time>2020-07-15T21:23:15.521Z</time>
      </trkpt>
      <trkpt lat="66.65072" lon="13.56443">
        <ele>1.066084</ele>
        <time>2020-07-15T21:23:16.630Z</time>
      </trkpt>
      <trkpt lat="66.65075" lon="13.56435">
        <ele>1.046089</ele>
        <time>2020-07-15T21:23:17.285Z</time>
      </trkpt>
      <trkpt lat="66.65076" lon="13.56432">
        <ele>1.037795</ele>
        <time>2020-07-15T21:23:17.532Z</time>
      </trkpt>
      <trkpt lat="66.65095" lon="13.56364">
        <ele>0.88802</ele>
        <time>2020-07-15T21:23:22.777Z</time>
      </trkpt>
      <trkpt lat="66.65106" lon="13.56299">
        <ele>0.758846</ele>
        <time>2020-07-15T21:23:27.442Z</time>
      </trkpt>
      <trkpt lat="66.6511" lon="13.56277">
        <ele>0.715767</ele>
        <time>2020-07-15T21:23:28.938Z</time>
      </trkpt>
      <trkpt lat="66.65112" lon="13.56257">
        <ele>0.677152</ele>
        <time>2020-07-15T21:23:30.394Z</time>
      </trkpt>
      <trkpt lat="66.65174" lon="13.55687">
        <ele>0.215152</ele>
        <time>2020-07-15T21:24:11.728Z</time>
      </trkpt>
      <trkpt lat="66.65208" lon="13.55519">
        <ele>0.212574</ele>
        <time>2020-07-15T21:24:25.070Z</time>
      </trkpt>
      <trkpt lat="66.65243" lon="13.55393">
        <ele>0.227433</ele>
        <time>2020-07-15T21:24:36.025Z</time>
      </trkpt>
      <trkpt lat="66.65283" lon="13.55289">
        <ele>0.241457</ele>
        <time>2020-07-15T21:24:46.365Z</time>
      </trkpt>
      <trkpt lat="66.65335" lon="13.55186">
        <ele>0.272099</ele>
        <time>2020-07-15T21:24:58.363Z</time>
      </trkpt>
      <trkpt lat="66.65555" lon="13.54834">
        <ele>0.369253</ele>
        <time>2020-07-15T21:25:45.097Z</time>
      </trkpt>
      <trkpt lat="66.65556" lon="13.54832">
        <ele>0.3694</ele>
        <time>2020-07-15T21:25:45.284Z</time>
      </trkpt>
      <trkpt lat="66.65565" lon="13.54813">
        <ele>0.371065</ele>
        <time>2020-07-15T21:25:47.476Z</time>
      </trkpt>
      <trkpt lat="66.65586" lon="13.54772">
        <ele>0.37457</ele>
        <time>2020-07-15T21:25:52.170Z</time>
      </trkpt>
      <trkpt lat="66.65591" lon="13.54762">
        <ele>0.37541</ele>
        <time>2020-07-15T21:25:53.271Z</time>
      </trkpt>
      <trkpt lat="66.65604" lon="13.54736">
        <ele>0.381802</ele>
        <time>2020-07-15T21:25:56.263Z</time>
      </trkpt>
      <trkpt lat="66.65653" lon="13.5464">
        <ele>0.430928</ele>
        <time>2020-07-15T21:26:07.440Z</time>
      </trkpt>
      <trkpt lat="66.65663" lon="13.54622">
        <ele>0.440296</ele>
        <time>2020-07-15T21:26:09.496Z</time>
      </trkpt>
      <trkpt lat="66.65666" lon="13.54616">
        <ele>0.443275</ele>
        <time>2020-07-15T21:26:10.270Z</time>
      </trkpt>
      <trkpt lat="66.65713" lon="13.54537">
        <ele>0.488541</ele>
        <time>2020-07-15T21:26:20.532Z</time>
      </trkpt>
      <trkpt lat="66.65751" lon="13.54491">
        <ele>0.528185</ele>
        <time>2020-07-15T21:26:28.255Z</time>
      </trkpt>
      <trkpt lat="66.65987" lon="13.54311">
        <ele>1.407638</ele>
        <time>2020-07-15T21:27:14.512Z</time>
      </trkpt>
      <trkpt lat="66.66182" lon="13.54041">
        <ele>2.942652</ele>
        <time>2020-07-15T21:27:59.459Z</time>
      </trkpt>
      <trkpt lat="66.66248" lon="13.53973">
        <ele>3.517499</ele>
        <time>2020-07-15T21:28:14.173Z</time>
      </trkpt>
      <trkpt lat="66.6629" lon="13.53949">
        <ele>3.889091</ele>
        <time>2020-07-15T21:28:23.096Z</time>
      </trkpt>
      <trkpt lat="66.66336" lon="13.53941">
        <ele>4.284785</ele>
        <time>2020-07-15T21:28:32.642Z</time>
      </trkpt>
      <trkpt lat="66.66524" lon="13.5399">
        <ele>5.406273</ele>
        <time>2020-07-15T21:29:11.441Z</time>
      </trkpt>
      <trkpt lat="66.66585" lon="13.53989">
        <ele>5.625315</ele>
        <time>2020-07-15T21:29:22.675Z</time>
      </trkpt>
      <trkpt lat="66.66717" lon="13.53915">
        <ele>4.310714</ele>
        <time>2020-07-15T21:29:43.980Z</time>
      </trkpt>
      <trkpt lat="66.6678" lon="13.53856">
        <ele>3.512015</ele>
        <time>2020-07-15T21:29:53.384Z</time>
      </trkpt>
      <trkpt lat="66.66867" lon="13.53756">
        <ele>2.124014</ele>
        <time>2020-07-15T21:30:07.436Z</time>
      </trkpt>
      <trkpt lat="66.66877" lon="13.53746">
        <ele>1.976885</ele>
        <time>2020-07-15T21:30:08.786Z</time>
      </trkpt>
      <trkpt lat="66.66882" lon="13.5374">
        <ele>1.893792</ele>
        <time>2020-07-15T21:30:09.711Z</time>
      </trkpt>
      <trkpt lat="66.6691" lon="13.53709">
        <ele>1.450327</ele>
        <time>2020-07-15T21:30:14.268Z</time>
      </trkpt>
      <trkpt lat="66.6692" lon="13.53697">
        <ele>1.291928</ele>
        <time>2020-07-15T21:30:16.077Z</time>
      </trkpt>
      <trkpt lat="66.66923" lon="13.53693">
        <ele>1.248906</ele>
        <time>2020-07-15T21:30:16.657Z</time>
      </trkpt>
      <trkpt lat="66.66972" lon="13.53616">
        <ele>0.959481</ele>
        <time>2020-07-15T21:30:25.707Z</time>
      </trkpt>
      <trkpt lat="66.66983" lon="13.53594">
        <ele>0.949784</ele>
        <time>2020-07-15T21:30:28.270Z</time>
      </trkpt>
      <trkpt lat="66.66986" lon="13.53589">
        <ele>0.947418</ele>
        <time>2020-07-15T21:30:28.888Z</time>
      </trkpt>
      <trkpt lat="66.67025" lon="13.53493">
        <ele>0.909142</ele>
        <time>2020-07-15T21:30:38.608Z</time>
      </trkpt>
      <trkpt lat="66.67031" lon="13.53478">
        <ele>0.903527</ele>
        <time>2020-07-15T21:30:40.092Z</time>
      </trkpt>
      <trkpt lat="66.67037" lon="13.53462">
        <ele>0.897499</ele>
        <time>2020-07-15T21:30:41.856Z</time>
      </trkpt>
      <trkpt lat="66.67085" lon="13.53343">
        <ele>0.983088</ele>
        <time>2020-07-15T21:30:54.916Z</time>
      </trkpt>
      <trkpt lat="66.67093" lon="13.53318">
        <ele>1.07933</ele>
        <time>2020-07-15T21:30:57.534Z</time>
      </trkpt>
      <trkpt lat="66.67096" lon="13.53309">
        <ele>1.113621</ele>
        <time>2020-07-15T21:30:58.500Z</time>
      </trkpt>
      <trkpt lat="66.67128" lon="13.53205">
        <ele>1.49328</ele>
        <time>2020-07-15T21:31:08.773Z</time>
      </trkpt>
      <trkpt lat="66.67163" lon="13.53047">
        <ele>2.015568</ele>
        <time>2020-07-15T21:31:23.576Z</time>
      </trkpt>
      <trkpt lat="66.67186" lon="13.52892">
        <ele>2.37003</ele>
        <time>2020-07-15T21:31:37.058Z</time>
      </trkpt>
      <trkpt lat="66.672" lon="13.52741">
        <ele>2.645358</ele>
        <time>2020-07-15T21:31:48.953Z</time>
      </trkpt>
      <trkpt lat="66.67201" lon="13.52715">
        <ele>2.691099</ele>
        <time>2020-07-15T21:31:51.085Z</time>
      </trkpt>
      <trkpt lat="66.67202" lon="13.52695">
        <ele>2.726839</ele>
        <time>2020-07-15T21:31:52.552Z</time>
      </trkpt>
      <trkpt lat="66.67205" lon="13.52523">
        <ele>2.956732</ele>
        <time>2020-07-15T21:32:05.369Z</time>
      </trkpt>
      <trkpt lat="66.67205" lon="13.5249">
        <ele>2.930306</ele>
        <time>2020-07-15T21:32:07.647Z</time>
      </trkpt>
      <trkpt lat="66.67205" lon="13.52488">
        <ele>2.928695</ele>
        <time>2020-07-15T21:32:07.770Z</time>
      </trkpt>
      <trkpt lat="66.67203" lon="13.52119">
        <ele>2.631118</ele>
        <time>2020-07-15T21:32:32.564Z</time>
      </trkpt>
      <trkpt lat="66.67202" lon="13.52092">
        <ele>2.608789</ele>
        <time>2020-07-15T21:32:34.353Z</time>
      </trkpt>
      <trkpt lat="66.67202" lon="13.52085">
        <ele>2.601394</ele>
        <time>2020-07-15T21:32:34.889Z</time>
      </trkpt>
      <trkpt lat="66.67202" lon="13.52072">
        <ele>2.58955</ele>
        <time>2020-07-15T21:32:35.746Z</time>
      </trkpt>
      <trkpt lat="66.67202" lon="13.52053">
        <ele>2.571162</ele>
        <time>2020-07-15T21:32:36.935Z</time>
      </trkpt>
      <trkpt lat="66.67203" lon="13.51879">
        <ele>2.407011</ele>
        <time>2020-07-15T21:32:48.531Z</time>
      </trkpt>
      <trkpt lat="66.67204" lon="13.51869">
        <ele>2.397296</ele>
        <time>2020-07-15T21:32:49.133Z</time>
      </trkpt>
      <trkpt lat="66.67206" lon="13.51846">
        <ele>2.374648</ele>
        <time>2020-07-15T21:32:50.824Z</time>
      </trkpt>
      <trkpt lat="66.67241" lon="13.51546">
        <ele>2.739958</ele>
        <time>2020-07-15T21:33:12.427Z</time>
      </trkpt>
      <trkpt lat="66.67266" lon="13.51426">
        <ele>3.41814</ele>
        <time>2020-07-15T21:33:23.331Z</time>
      </trkpt>
      <trkpt lat="66.67296" lon="13.51337">
        <ele>4.002896</ele>
        <time>2020-07-15T21:33:33.707Z</time>
      </trkpt>
      <trkpt lat="66.67386" lon="13.51121">
        <ele>7.577075</ele>
        <time>2020-07-15T21:34:08.530Z</time>
      </trkpt>
      <trkpt lat="66.67469" lon="13.50983">
        <ele>10.95459</ele>
        <time>2020-07-15T21:34:39.882Z</time>
      </trkpt>
      <trkpt lat="66.67495" lon="13.50919">
        <ele>11.718061</ele>
        <time>2020-07-15T21:34:51.128Z</time>
      </trkpt>
      <trkpt lat="66.67588" lon="13.50501">
        <ele>13.556983</ele>
        <time>2020-07-15T21:35:33.488Z</time>
      </trkpt>
      <trkpt lat="66.67617" lon="13.50318">
        <ele>12.09658</ele>
        <time>2020-07-15T21:35:43.944Z</time>
      </trkpt>
      <trkpt lat="66.67629" lon="13.50163">
        <ele>10.619051</ele>
        <time>2020-07-15T21:35:51.749Z</time>
      </trkpt>
      <trkpt lat="66.67653" lon="13.49697">
        <ele>4.088176</ele>
        <time>2020-07-15T21:36:15.025Z</time>
      </trkpt>
      <trkpt lat="66.67781" lon="13.48227">
        <ele>0.395115</ele>
        <time>2020-07-15T21:37:53.783Z</time>
      </trkpt>
      <trkpt lat="66.67783" lon="13.48052">
        <ele>0.331132</ele>
        <time>2020-07-15T21:38:06.055Z</time>
      </trkpt>
      <trkpt lat="66.67771" lon="13.47736">
        <ele>1.269459</ele>
        <time>2020-07-15T21:38:30.671Z</time>
      </trkpt>
      <trkpt lat="66.67762" lon="13.47637">
        <ele>1.687387</ele>
        <time>2020-07-15T21:38:39.366Z</time>
      </trkpt>
      <trkpt lat="66.67738" lon="13.47445">
        <ele>3.127158</ele>
        <time>2020-07-15T21:38:58.356Z</time>
      </trkpt>
      <trkpt lat="66.67734" lon="13.47363">
        <ele>4.082546</ele>
        <time>2020-07-15T21:39:06.884Z</time>
      </trkpt>
      <trkpt lat="66.67737" lon="13.47263">
        <ele>5.236471</ele>
        <time>2020-07-15T21:39:17.692Z</time>
      </trkpt>
      <trkpt lat="66.67754" lon="13.47065">
        <ele>7.621792</ele>
        <time>2020-07-15T21:39:40.276Z</time>
      </trkpt>
      <trkpt lat="66.67757" lon="13.46851">
        <ele>10.808657</ele>
        <time>2020-07-15T21:40:08.270Z</time>
      </trkpt>
      <trkpt lat="66.67779" lon="13.46702">
        <ele>13.15655</ele>
        <time>2020-07-15T21:40:26.484Z</time>
      </trkpt>
      <trkpt lat="66.67779" lon="13.46701">
        <ele>13.177632</ele>
        <time>2020-07-15T21:40:27.006Z</time>
      </trkpt>
      <trkpt lat="66.67784" lon="13.46674">
        <ele>13.616011</ele>
        <time>2020-07-15T21:40:30.679Z</time>
      </trkpt>
      <trkpt lat="66.67817" lon="13.46518">
        <ele>14.568071</ele>
        <time>2020-07-15T21:40:48.066Z</time>
      </trkpt>
      <trkpt lat="66.67821" lon="13.46501">
        <ele>14.624852</ele>
        <time>2020-07-15T21:40:50.188Z</time>
      </trkpt>
      <trkpt lat="66.67823" lon="13.46492">
        <ele>14.655344</ele>
        <time>2020-07-15T21:40:50.747Z</time>
      </trkpt>
      <trkpt lat="66.67858" lon="13.4641">
        <ele>15.004449</ele>
        <time>2020-07-15T21:41:00.361Z</time>
      </trkpt>
      <trkpt lat="66.67897" lon="13.4637">
        <ele>15.313982</ele>
        <time>2020-07-15T21:41:08.137Z</time>
      </trkpt>
      <trkpt lat="66.679" lon="13.46368">
        <ele>15.339445</ele>
        <time>2020-07-15T21:41:08.560Z</time>
      </trkpt>
      <trkpt lat="66.67907" lon="13.46365">
        <ele>15.390267</ele>
        <time>2020-07-15T21:41:09.732Z</time>
      </trkpt>
      <trkpt lat="66.68018" lon="13.46389">
        <ele>13.527789</ele>
        <time>2020-07-15T21:41:25.201Z</time>
      </trkpt>
      <trkpt lat="66.68058" lon="13.46376">
        <ele>12.737686</ele>
        <time>2020-07-15T21:41:30.617Z</time>
      </trkpt>
      <trkpt lat="66.68107" lon="13.46317">
        <ele>11.868044</ele>
        <time>2020-07-15T21:41:38.400Z</time>
      </trkpt>
      <trkpt lat="66.68182" lon="13.46175">
        <ele>11.461411</ele>
        <time>2020-07-15T21:41:52.430Z</time>
      </trkpt>
      <trkpt lat="66.68227" lon="13.46143">
        <ele>11.2604</ele>
        <time>2020-07-15T21:42:01.722Z</time>
      </trkpt>
      <trkpt lat="66.68251" lon="13.46149">
        <ele>11.154769</ele>
        <time>2020-07-15T21:42:06.707Z</time>
      </trkpt>
      <trkpt lat="66.68272" lon="13.46172">
        <ele>11.646572</ele>
        <time>2020-07-15T21:42:12.272Z</time>
      </trkpt>
      <trkpt lat="66.68297" lon="13.46225">
        <ele>12.388314</ele>
        <time>2020-07-15T21:42:20.450Z</time>
      </trkpt>
      <trkpt lat="66.68329" lon="13.46318">
        <ele>13.50673</ele>
        <time>2020-07-15T21:42:32.858Z</time>
      </trkpt>
      <trkpt lat="66.68332" lon="13.46328">
        <ele>13.628619</ele>
        <time>2020-07-15T21:42:34.826Z</time>
      </trkpt>
      <trkpt lat="66.68337" lon="13.46343">
        <ele>13.799827</ele>
        <time>2020-07-15T21:42:37.221Z</time>
      </trkpt>
      <trkpt lat="66.68412" lon="13.46556">
        <ele>16.114596</ele>
        <time>2020-07-15T21:43:06.123Z</time>
      </trkpt>
      <trkpt lat="66.68416" lon="13.46568">
        <ele>16.230065</ele>
        <time>2020-07-15T21:43:08.041Z</time>
      </trkpt>
      <trkpt lat="66.68421" lon="13.4658">
        <ele>16.349911</ele>
        <time>2020-07-15T21:43:09.107Z</time>
      </trkpt>
      <trkpt lat="66.68451" lon="13.46637">
        <ele>16.99085</ele>
        <time>2020-07-15T21:43:18.432Z</time>
      </trkpt>
      <trkpt lat="66.68473" lon="13.4666">
        <ele>17.400991</ele>
        <time>2020-07-15T21:43:23.443Z</time>
      </trkpt>
      <trkpt lat="66.68486" lon="13.46669">
        <ele>17.632998</ele>
        <time>2020-07-15T21:43:26.120Z</time>
      </trkpt>
      <trkpt lat="66.68499" lon="13.46676">
        <ele>17.860444</ele>
        <time>2020-07-15T21:43:28.703Z</time>
      </trkpt>
      <trkpt lat="66.68525" lon="13.46685">
        <ele>18.324398</ele>
        <time>2020-07-15T21:43:34.789Z</time>
      </trkpt>
      <trkpt lat="66.68528" lon="13.46685">
        <ele>18.366012</ele>
        <time>2020-07-15T21:43:35.241Z</time>
      </trkpt>
      <trkpt lat="66.68539" lon="13.46688">
        <ele>18.626522</ele>
        <time>2020-07-15T21:43:37.744Z</time>
      </trkpt>
      <trkpt lat="66.68545" lon="13.46688">
        <ele>18.757366</ele>
        <time>2020-07-15T21:43:39.405Z</time>
      </trkpt>
      <trkpt lat="66.6855" lon="13.46689">
        <ele>18.867944</ele>
        <time>2020-07-15T21:43:40.604Z</time>
      </trkpt>
      <trkpt lat="66.6857" lon="13.46689">
        <ele>19.31652</ele>
        <time>2020-07-15T21:43:44.164Z</time>
      </trkpt>
      <trkpt lat="66.68572" lon="13.4669">
        <ele>19.355004</ele>
        <time>2020-07-15T21:43:44.620Z</time>
      </trkpt>
      <trkpt lat="66.68587" lon="13.46693">
        <ele>19.712669</ele>
        <time>2020-07-15T21:43:48.149Z</time>
      </trkpt>
      <trkpt lat="66.68621" lon="13.46699">
        <ele>20.467058</ele>
        <time>2020-07-15T21:43:55.913Z</time>
      </trkpt>
      <trkpt lat="66.68634" lon="13.46701">
        <ele>20.762774</ele>
        <time>2020-07-15T21:43:59.051Z</time>
      </trkpt>
      <trkpt lat="66.68638" lon="13.46701">
        <ele>20.846293</ele>
        <time>2020-07-15T21:44:00.341Z</time>
      </trkpt>
      <trkpt lat="66.68642" lon="13.46702">
        <ele>20.952536</ele>
        <time>2020-07-15T21:44:01.793Z</time>
      </trkpt>
      <trkpt lat="66.68657" lon="13.46704">
        <ele>21.28436</ele>
        <time>2020-07-15T21:44:05.706Z</time>
      </trkpt>
      <trkpt lat="66.68744" lon="13.46718">
        <ele>23.953829</ele>
        <time>2020-07-15T21:44:31.031Z</time>
      </trkpt>
      <trkpt lat="66.68748" lon="13.46718">
        <ele>24.096323</ele>
        <time>2020-07-15T21:44:32.387Z</time>
      </trkpt>
      <trkpt lat="66.68763" lon="13.4672">
        <ele>24.737696</ele>
        <time>2020-07-15T21:44:36.465Z</time>
      </trkpt>
      <trkpt lat="66.68775" lon="13.46722">
        <ele>25.240555</ele>
        <time>2020-07-15T21:44:39.659Z</time>
      </trkpt>
      <trkpt lat="66.68781" lon="13.46723">
        <ele>25.491939</ele>
        <time>2020-07-15T21:44:42.021Z</time>
      </trkpt>
      <trkpt lat="66.68928" lon="13.46751">
        <ele>31.388137</ele>
        <time>2020-07-15T21:45:30.369Z</time>
      </trkpt>
      <trkpt lat="66.68932" lon="13.46753">
        <ele>31.527151</ele>
        <time>2020-07-15T21:45:32.142Z</time>
      </trkpt>
      <trkpt lat="66.6894" lon="13.46758">
        <ele>31.819682</ele>
        <time>2020-07-15T21:45:34.868Z</time>
      </trkpt>
      <trkpt lat="66.69064" lon="13.46865">
        <ele>36.265044</ele>
        <time>2020-07-15T21:46:10.805Z</time>
      </trkpt>
      <trkpt lat="66.69123" lon="13.46882">
        <ele>36.714882</ele>
        <time>2020-07-15T21:46:25.289Z</time>
      </trkpt>
      <trkpt lat="66.69171" lon="13.46864">
        <ele>37.080835</ele>
        <time>2020-07-15T21:46:34.690Z</time>
      </trkpt>
      <trkpt lat="66.69298" lon="13.46769">
        <ele>36.917158</ele>
        <time>2020-07-15T21:46:56.376Z</time>
      </trkpt>
      <trkpt lat="66.69302" lon="13.46766">
        <ele>36.876254</ele>
        <time>2020-07-15T21:46:56.898Z</time>
      </trkpt>
      <trkpt lat="66.6931" lon="13.4676">
        <ele>36.788909</ele>
        <time>2020-07-15T21:46:58.023Z</time>
      </trkpt>
      <trkpt lat="66.69553" lon="13.46581">
        <ele>34.214122</ele>
        <time>2020-07-15T21:47:36.371Z</time>
      </trkpt>
      <trkpt lat="66.69598" lon="13.46569">
        <ele>33.93874</ele>
        <time>2020-07-15T21:47:44.194Z</time>
      </trkpt>
      <trkpt lat="66.69688" lon="13.46568">
        <ele>34.008001</ele>
        <time>2020-07-15T21:48:01.036Z</time>
      </trkpt>
      <trkpt lat="66.69796" lon="13.46544">
        <ele>33.684108</ele>
        <time>2020-07-15T21:48:20.923Z</time>
      </trkpt>
      <trkpt lat="66.69844" lon="13.46558">
        <ele>33.135141</ele>
        <time>2020-07-15T21:48:28.882Z</time>
      </trkpt>
      <trkpt lat="66.69946" lon="13.46632">
        <ele>31.815762</ele>
        <time>2020-07-15T21:48:44.221Z</time>
      </trkpt>
      <trkpt lat="66.70138" lon="13.46718">
        <ele>27.083802</ele>
        <time>2020-07-15T21:49:10.290Z</time>
      </trkpt>
      <trkpt lat="66.70149" lon="13.46723">
        <ele>26.9427</ele>
        <time>2020-07-15T21:49:11.792Z</time>
      </trkpt>
      <trkpt lat="66.70194" lon="13.46747">
        <ele>26.388691</ele>
        <time>2020-07-15T21:49:18.504Z</time>
      </trkpt>
      <trkpt lat="66.70241" lon="13.46805">
        <ele>25.747211</ele>
        <time>2020-07-15T21:49:26.799Z</time>
      </trkpt>
      <trkpt lat="66.70373" lon="13.47024">
        <ele>24.788178</ele>
        <time>2020-07-15T21:49:54.929Z</time>
      </trkpt>
      <trkpt lat="66.70402" lon="13.47059">
        <ele>24.672861</ele>
        <time>2020-07-15T21:50:00.108Z</time>
      </trkpt>
      <trkpt lat="66.70434" lon="13.4708">
        <ele>24.55462</ele>
        <time>2020-07-15T21:50:05.308Z</time>
      </trkpt>
      <trkpt lat="66.7048" lon="13.47085">
        <ele>24.114851</ele>
        <time>2020-07-15T21:50:12.482Z</time>
      </trkpt>
      <trkpt lat="66.7051" lon="13.47071">
        <ele>23.816282</ele>
        <time>2020-07-15T21:50:17.062Z</time>
      </trkpt>
      <trkpt lat="66.70528" lon="13.4706">
        <ele>23.625451</ele>
        <time>2020-07-15T21:50:19.970Z</time>
      </trkpt>
      <trkpt lat="66.70552" lon="13.47034">
        <ele>23.369523</ele>
        <time>2020-07-15T21:50:23.894Z</time>
      </trkpt>
      <trkpt lat="66.70573" lon="13.47003">
        <ele>23.124398</ele>
        <time>2020-07-15T21:50:27.661Z</time>
      </trkpt>
      <trkpt lat="66.70595" lon="13.46963">
        <ele>22.856738</ele>
        <time>2020-07-15T21:50:31.808Z</time>
      </trkpt>
      <trkpt lat="66.70611" lon="13.46919">
        <ele>22.834861</ele>
        <time>2020-07-15T21:50:35.563Z</time>
      </trkpt>
      <trkpt lat="66.70629" lon="13.46849">
        <ele>23.041627</ele>
        <time>2020-07-15T21:50:40.851Z</time>
      </trkpt>
      <trkpt lat="66.70656" lon="13.46758">
        <ele>23.320677</ele>
        <time>2020-07-15T21:50:48.879Z</time>
      </trkpt>
      <trkpt lat="66.70693" lon="13.46682">
        <ele>23.624501</ele>
        <time>2020-07-15T21:50:58.974Z</time>
      </trkpt>
      <trkpt lat="66.70741" lon="13.46635">
        <ele>24.240152</ele>
        <time>2020-07-15T21:51:11.468Z</time>
      </trkpt>
      <trkpt lat="66.70763" lon="13.46627">
        <ele>24.979659</ele>
        <time>2020-07-15T21:51:17.303Z</time>
      </trkpt>
      <trkpt lat="66.70785" lon="13.46632">
        <ele>25.754386</ele>
        <time>2020-07-15T21:51:23.726Z</time>
      </trkpt>
      <trkpt lat="66.70828" lon="13.46653">
        <ele>27.221451</ele>
        <time>2020-07-15T21:51:36.967Z</time>
      </trkpt>
      <trkpt lat="66.7084" lon="13.4666">
        <ele>27.633839</ele>
        <time>2020-07-15T21:51:40.875Z</time>
      </trkpt>
      <trkpt lat="66.70888" lon="13.46685">
        <ele>29.324616</ele>
        <time>2020-07-15T21:51:55.871Z</time>
      </trkpt>
      <trkpt lat="66.70942" lon="13.46696">
        <ele>30.650146</ele>
        <time>2020-07-15T21:52:11.593Z</time>
      </trkpt>
      <trkpt lat="66.70979" lon="13.46692">
        <ele>31.372959</ele>
        <time>2020-07-15T21:52:21.805Z</time>
      </trkpt>
      <trkpt lat="66.71011" lon="13.46677">
        <ele>32.010316</ele>
        <time>2020-07-15T21:52:29.902Z</time>
      </trkpt>
      <trkpt lat="66.71069" lon="13.46632">
        <ele>33.198534</ele>
        <time>2020-07-15T21:52:42.655Z</time>
      </trkpt>
      <trkpt lat="66.71087" lon="13.4663">
        <ele>33.489581</ele>
        <time>2020-07-15T21:52:46.269Z</time>
      </trkpt>
      <trkpt lat="66.71197" lon="13.46648">
        <ele>33.089805</ele>
        <time>2020-07-15T21:53:04.531Z</time>
      </trkpt>
      <trkpt lat="66.71227" lon="13.46651">
        <ele>32.982394</ele>
        <time>2020-07-15T21:53:09.458Z</time>
      </trkpt>
      <trkpt lat="66.7127" lon="13.46642">
        <ele>32.709038</ele>
        <time>2020-07-15T21:53:16.567Z</time>
      </trkpt>
      <trkpt lat="66.71361" lon="13.46573">
        <ele>30.692104</ele>
        <time>2020-07-15T21:53:31.107Z</time>
      </trkpt>
      <trkpt lat="66.71388" lon="13.46573">
        <ele>30.12281</ele>
        <time>2020-07-15T21:53:34.579Z</time>
      </trkpt>
      <trkpt lat="66.71426" lon="13.46615">
        <ele>29.242585</ele>
        <time>2020-07-15T21:53:39.934Z</time>
      </trkpt>
      <trkpt lat="66.71454" lon="13.46698">
        <ele>27.584529</ele>
        <time>2020-07-15T21:53:45.447Z</time>
      </trkpt>
      <trkpt lat="66.7146" lon="13.46727">
        <ele>27.01378</ele>
        <time>2020-07-15T21:53:46.997Z</time>
      </trkpt>
      <trkpt lat="66.71472" lon="13.46789">
        <ele>25.820747</ele>
        <time>2020-07-15T21:53:50.387Z</time>
      </trkpt>
      <trkpt lat="66.71491" lon="13.46875">
        <ele>24.109935</ele>
        <time>2020-07-15T21:53:55.185Z</time>
      </trkpt>
      <trkpt lat="66.71531" lon="13.46985">
        <ele>21.524886</ele>
        <time>2020-07-15T21:54:02.471Z</time>
      </trkpt>
      <trkpt lat="66.71563" lon="13.4704">
        <ele>20.221997</ele>
        <time>2020-07-15T21:54:07.138Z</time>
      </trkpt>
      <trkpt lat="66.71629" lon="13.47124">
        <ele>17.94712</ele>
        <time>2020-07-15T21:54:16.827Z</time>
      </trkpt>
      <trkpt lat="66.71656" lon="13.47155">
        <ele>17.041999</ele>
        <time>2020-07-15T21:54:20.746Z</time>
      </trkpt>
      <trkpt lat="66.7166" lon="13.4716">
        <ele>16.906003</ele>
        <time>2020-07-15T21:54:21.348Z</time>
      </trkpt>
      <trkpt lat="66.7169" lon="13.47197">
        <ele>15.870255</ele>
        <time>2020-07-15T21:54:25.967Z</time>
      </trkpt>
      <trkpt lat="66.71729" lon="13.47232">
        <ele>15.146978</ele>
        <time>2020-07-15T21:54:32.079Z</time>
      </trkpt>
      <trkpt lat="66.71741" lon="13.47238">
        <ele>14.972203</ele>
        <time>2020-07-15T21:54:33.818Z</time>
      </trkpt>
      <trkpt lat="66.71745" lon="13.4724">
        <ele>14.90578</ele>
        <time>2020-07-15T21:54:34.609Z</time>
      </trkpt>
      <trkpt lat="66.71784" lon="13.47229">
        <ele>14.349956</ele>
        <time>2020-07-15T21:54:40.832Z</time>
      </trkpt>
      <trkpt lat="66.71818" lon="13.47198">
        <ele>13.845213</ele>
        <time>2020-07-15T21:54:46.046Z</time>
      </trkpt>
      <trkpt lat="66.71831" lon="13.47181">
        <ele>13.636648</ele>
        <time>2020-07-15T21:54:48.571Z</time>
      </trkpt>
      <trkpt lat="66.71865" lon="13.47136">
        <ele>13.087034</ele>
        <time>2020-07-15T21:54:54.296Z</time>
      </trkpt>
      <trkpt lat="66.71903" lon="13.47086">
        <ele>11.982531</ele>
        <time>2020-07-15T21:55:00.386Z</time>
      </trkpt>
      <trkpt lat="66.71926" lon="13.47059">
        <ele>11.295528</ele>
        <time>2020-07-15T21:55:04.226Z</time>
      </trkpt>
      <trkpt lat="66.71934" lon="13.47095">
        <ele>10.865625</ele>
        <time>2020-07-15T21:55:06.340Z</time>
      </trkpt>
      <trkpt lat="66.71938" lon="13.47154">
        <ele>10.227957</ele>
        <time>2020-07-15T21:55:09.685Z</time>
      </trkpt>
      <trkpt lat="66.71936" lon="13.47283">
        <ele>8.85767</ele>
        <time>2020-07-15T21:55:16.191Z</time>
      </trkpt>
      <trkpt lat="66.71925" lon="13.4749">
        <ele>6.341241</ele>
        <time>2020-07-15T21:55:26.589Z</time>
      </trkpt>
      <trkpt lat="66.71925" lon="13.47553">
        <ele>5.540824</ele>
        <time>2020-07-15T21:55:29.810Z</time>
      </trkpt>
      <trkpt lat="66.71926" lon="13.47585">
        <ele>5.140277</ele>
        <time>2020-07-15T21:55:31.453Z</time>
      </trkpt>
      <trkpt lat="66.71951" lon="13.4764">
        <ele>4.075656</ele>
        <time>2020-07-15T21:55:35.866Z</time>
      </trkpt>
      <trkpt lat="66.71965" lon="13.4765">
        <ele>3.61644</ele>
        <time>2020-07-15T21:55:37.791Z</time>
      </trkpt>
      <trkpt lat="66.72002" lon="13.47646">
        <ele>2.473759</ele>
        <time>2020-07-15T21:55:42.749Z</time>
      </trkpt>
      <trkpt lat="66.72017" lon="13.4763">
        <ele>2.29262</ele>
        <time>2020-07-15T21:55:45.005Z</time>
      </trkpt>
      <trkpt lat="66.72025" lon="13.4762">
        <ele>2.187946</ele>
        <time>2020-07-15T21:55:46.326Z</time>
      </trkpt>
      <trkpt lat="66.72043" lon="13.47603">
        <ele>1.975049</ele>
        <time>2020-07-15T21:55:49.007Z</time>
      </trkpt>
      <trkpt lat="66.72103" lon="13.47606">
        <ele>1.309885</ele>
        <time>2020-07-15T21:55:57.386Z</time>
      </trkpt>
      <trkpt lat="66.72234" lon="13.47733">
        <ele>0.459233</ele>
        <time>2020-07-15T21:56:16.917Z</time>
      </trkpt>
      <trkpt lat="66.72934" lon="13.49525">
        <ele>0.005821</ele>
        <time>2020-07-15T21:58:35.744Z</time>
      </trkpt>
      <trkpt lat="66.73169" lon="13.5">
        <time>2020-07-15T21:59:17.681Z</time>
      </trkpt>
      <trkpt lat="66.73819" lon="13.51265">
        <time>2020-07-15T22:01:12.017Z</time>
      </trkpt>
      <trkpt lat="66.73857" lon="13.51375">
        <ele>1</ele>
        <time>2020-07-15T22:01:20.045Z</time>
      </trkpt>
      <trkpt lat="66.73857" lon="13.51375">
        <ele>1</ele>
        <time>2020-07-15T22:01:20.046Z</time>
      </trkpt>
      <trkpt lat="66.73872" lon="13.51412">
        <ele>1.5</ele>
        <time>2020-07-15T22:01:23.878Z</time>
      </trkpt>
      <trkpt lat="66.73892" lon="13.51481">
        <ele>2.2</ele>
        <time>2020-07-15T22:01:29.928Z</time>
      </trkpt>
      <trkpt lat="66.73901" lon="13.51562">
        <ele>3.9</ele>
        <time>2020-07-15T22:01:35.810Z</time>
      </trkpt>
      <trkpt lat="66.73899" lon="13.51598">
        <ele>4.3</ele>
        <time>2020-07-15T22:01:38.377Z</time>
      </trkpt>
      <trkpt lat="66.73896" lon="13.51652">
        <ele>5.3</ele>
        <time>2020-07-15T22:01:42.242Z</time>
      </trkpt>
      <trkpt lat="66.73896" lon="13.517">
        <ele>5.3</ele>
        <time>2020-07-15T22:01:45.644Z</time>
      </trkpt>
      <trkpt lat="66.73905" lon="13.51725">
        <ele>6.1</ele>
        <time>2020-07-15T22:01:47.934Z</time>
      </trkpt>
      <trkpt lat="66.73911" lon="13.51734">
        <ele>6.7</ele>
        <time>2020-07-15T22:01:49.280Z</time>
      </trkpt>
      <trkpt lat="66.73918" lon="13.51742">
        <ele>7.8</ele>
        <time>2020-07-15T22:01:50.550Z</time>
      </trkpt>
      <trkpt lat="66.73923" lon="13.51753">
        <ele>8.2</ele>
        <time>2020-07-15T22:01:51.789Z</time>
      </trkpt>
      <trkpt lat="66.73927" lon="13.51768">
        <ele>8.2</ele>
        <time>2020-07-15T22:01:53.011Z</time>
      </trkpt>
      <trkpt lat="66.73946" lon="13.52032">
        <ele>9.3</ele>
        <time>2020-07-15T22:02:11.960Z</time>
      </trkpt>
      <trkpt lat="66.73979" lon="13.52366">
        <ele>7.4</ele>
        <time>2020-07-15T22:02:36.242Z</time>
      </trkpt>
      <trkpt lat="66.7398" lon="13.52408">
        <ele>6.9</ele>
        <time>2020-07-15T22:02:39.234Z</time>
      </trkpt>
      <trkpt lat="66.73982" lon="13.5249">
        <ele>6.8</ele>
        <time>2020-07-15T22:02:45.035Z</time>
      </trkpt>
      <trkpt lat="66.73974" lon="13.52653">
        <ele>9.2</ele>
        <time>2020-07-15T22:02:56.588Z</time>
      </trkpt>
      <trkpt lat="66.73945" lon="13.52941">
        <ele>13.2</ele>
        <time>2020-07-15T22:03:17.551Z</time>
      </trkpt>
      <trkpt lat="66.73921" lon="13.53264">
        <ele>14.6</ele>
        <time>2020-07-15T22:03:40.721Z</time>
      </trkpt>
      <trkpt lat="66.73928" lon="13.53484">
        <ele>11.6</ele>
        <time>2020-07-15T22:03:56.274Z</time>
      </trkpt>
      <trkpt lat="66.73958" lon="13.53798">
        <ele>10.4</ele>
        <time>2020-07-15T22:04:19.113Z</time>
      </trkpt>
      <trkpt lat="66.7398" lon="13.53933">
        <ele>13</ele>
        <time>2020-07-15T22:04:29.352Z</time>
      </trkpt>
      <trkpt lat="66.74009" lon="13.5406">
        <ele>12</ele>
        <time>2020-07-15T22:04:39.739Z</time>
      </trkpt>
      <trkpt lat="66.74066" lon="13.54247">
        <ele>8.7</ele>
        <time>2020-07-15T22:04:56.305Z</time>
      </trkpt>
      <trkpt lat="66.74141" lon="13.54441">
        <ele>5.3</ele>
        <time>2020-07-15T22:05:15.517Z</time>
      </trkpt>
      <trkpt lat="66.74188" lon="13.54566">
        <ele>0.012937</ele>
        <time>2020-07-15T22:05:27.634Z</time>
      </trkpt>
      <trkpt lat="66.74206" lon="13.54634">
        <ele>0.027347</ele>
        <time>2020-07-15T22:05:33.383Z</time>
      </trkpt>
      <trkpt lat="66.74213" lon="13.54664">
        <ele>0.033616</ele>
        <time>2020-07-15T22:05:35.889Z</time>
      </trkpt>
      <trkpt lat="66.74233" lon="13.54748">
        <ele>0.050995</ele>
        <time>2020-07-15T22:05:42.853Z</time>
      </trkpt>
      <trkpt lat="66.7426" lon="13.54876">
        <ele>0.076752</ele>
        <time>2020-07-15T22:05:53.269Z</time>
      </trkpt>
      <trkpt lat="66.74275" lon="13.54946">
        <ele>0.239723</ele>
        <time>2020-07-15T22:05:58.907Z</time>
      </trkpt>
      <trkpt lat="66.74287" lon="13.54996">
        <ele>0.405339</ele>
        <time>2020-07-15T22:06:03.197Z</time>
      </trkpt>
      <trkpt lat="66.74293" lon="13.55026">
        <ele>0.497223</ele>
        <time>2020-07-15T22:06:05.580Z</time>
      </trkpt>
      <trkpt lat="66.74305" lon="13.55085">
        <ele>0.681313</ele>
        <time>2020-07-15T22:06:10.396Z</time>
      </trkpt>
      <trkpt lat="66.74309" lon="13.55134">
        <ele>0.821096</ele>
        <time>2020-07-15T22:06:14.104Z</time>
      </trkpt>
      <trkpt lat="66.74317" lon="13.55247">
        <ele>1.139097</ele>
        <time>2020-07-15T22:06:23.109Z</time>
      </trkpt>
      <trkpt lat="66.74322" lon="13.55356">
        <ele>1.759598</ele>
        <time>2020-07-15T22:06:33.489Z</time>
      </trkpt>
      <trkpt lat="66.74323" lon="13.55366">
        <ele>1.888872</ele>
        <time>2020-07-15T22:06:34.668Z</time>
      </trkpt>
      <trkpt lat="66.74331" lon="13.55499">
        <ele>3.493596</ele>
        <time>2020-07-15T22:06:48.691Z</time>
      </trkpt>
      <trkpt lat="66.74333" lon="13.55538">
        <ele>3.958169</ele>
        <time>2020-07-15T22:06:52.661Z</time>
      </trkpt>
      <trkpt lat="66.74336" lon="13.55597">
        <ele>4.668422</ele>
        <time>2020-07-15T22:06:59.423Z</time>
      </trkpt>
      <trkpt lat="66.74329" lon="13.55601">
        <ele>4.881577</ele>
        <time>2020-07-15T22:07:01.172Z</time>
      </trkpt>
      <trkpt lat="66.74332" lon="13.55646">
        <ele>5.420052</ele>
        <time>2020-07-15T22:07:06.795Z</time>
      </trkpt>
      <trkpt lat="66.74346" lon="13.55952">
        <ele>9.376213</ele>
        <time>2020-07-15T22:07:43.951Z</time>
      </trkpt>
      <trkpt lat="66.74337" lon="13.56374">
        <ele>13.993459</ele>
        <time>2020-07-15T22:08:29.900Z</time>
      </trkpt>
      <trkpt lat="66.74338" lon="13.56461">
        <ele>14.600112</ele>
        <time>2020-07-15T22:08:37.923Z</time>
      </trkpt>
      <trkpt lat="66.74339" lon="13.56506">
        <ele>14.91545</ele>
        <time>2020-07-15T22:08:41.896Z</time>
      </trkpt>
      <trkpt lat="66.74337" lon="13.56639">
        <ele>15.841694</ele>
        <time>2020-07-15T22:08:52.902Z</time>
      </trkpt>
      <trkpt lat="66.74321" lon="13.56827">
        <ele>15.777918</ele>
        <time>2020-07-15T22:09:06.664Z</time>
      </trkpt>
      <trkpt lat="66.74316" lon="13.56891">
        <ele>15.670491</ele>
        <time>2020-07-15T22:09:10.870Z</time>
      </trkpt>
      <trkpt lat="66.74315" lon="13.56937">
        <ele>15.595218</ele>
        <time>2020-07-15T22:09:14.675Z</time>
      </trkpt>
      <trkpt lat="66.74314" lon="13.56956">
        <ele>15.564319</ele>
        <time>2020-07-15T22:09:15.840Z</time>
      </trkpt>
      <trkpt lat="66.74322" lon="13.57072">
        <ele>15.372693</ele>
        <time>2020-07-15T22:09:23.211Z</time>
      </trkpt>
      <trkpt lat="66.74323" lon="13.57087">
        <ele>15.349055</ele>
        <time>2020-07-15T22:09:24.067Z</time>
      </trkpt>
      <trkpt lat="66.74328" lon="13.57121">
        <ele>15.317249</ele>
        <time>2020-07-15T22:09:26.258Z</time>
      </trkpt>
      <trkpt lat="66.74334" lon="13.57182">
        <ele>15.443571</ele>
        <time>2020-07-15T22:09:30.193Z</time>
      </trkpt>
      <trkpt lat="66.74337" lon="13.57203">
        <ele>15.488384</ele>
        <time>2020-07-15T22:09:31.615Z</time>
      </trkpt>
      <trkpt lat="66.74346" lon="13.57286">
        <ele>15.659362</ele>
        <time>2020-07-15T22:09:37.260Z</time>
      </trkpt>
      <trkpt lat="66.74367" lon="13.57472">
        <ele>16.046083</ele>
        <time>2020-07-15T22:09:52.769Z</time>
      </trkpt>
      <trkpt lat="66.74373" lon="13.57518">
        <ele>16.141887</ele>
        <time>2020-07-15T22:09:56.948Z</time>
      </trkpt>
      <trkpt lat="66.74379" lon="13.57518">
        <ele>16.174292</ele>
        <time>2020-07-15T22:09:58.717Z</time>
      </trkpt>
      <trkpt lat="66.74386" lon="13.57573">
        <ele>16.818712</ele>
        <time>2020-07-15T22:10:04.581Z</time>
      </trkpt>
      <trkpt lat="66.74391" lon="13.57623">
        <ele>17.637523</ele>
        <time>2020-07-15T22:10:10.045Z</time>
      </trkpt>
      <trkpt lat="66.74395" lon="13.57657">
        <ele>18.197296</ele>
        <time>2020-07-15T22:10:13.507Z</time>
      </trkpt>
      <trkpt lat="66.74398" lon="13.57655">
        <ele>18.306176</ele>
        <time>2020-07-15T22:10:14.436Z</time>
      </trkpt>
      <trkpt lat="66.74411" lon="13.57766">
        <ele>20.136854</ele>
        <time>2020-07-15T22:10:26.903Z</time>
      </trkpt>
      <trkpt lat="66.74412" lon="13.57777">
        <ele>20.323066</ele>
        <time>2020-07-15T22:10:28.391Z</time>
      </trkpt>
      <trkpt lat="66.74413" lon="13.57786">
        <ele>20.470985</ele>
        <time>2020-07-15T22:10:29.969Z</time>
      </trkpt>
      <trkpt lat="66.7446" lon="13.58187">
        <ele>29.264941</ele>
        <time>2020-07-15T22:11:30.454Z</time>
      </trkpt>
      <trkpt lat="66.74461" lon="13.58195">
        <ele>29.454884</ele>
        <time>2020-07-15T22:11:32.514Z</time>
      </trkpt>
      <trkpt lat="66.74462" lon="13.582">
        <ele>29.586317</ele>
        <time>2020-07-15T22:11:34.317Z</time>
      </trkpt>
      <trkpt lat="66.74479" lon="13.58312">
        <ele>32.599828</ele>
        <time>2020-07-15T22:11:51.573Z</time>
      </trkpt>
      <trkpt lat="66.74516" lon="13.58493">
        <ele>37.932903</ele>
        <time>2020-07-15T22:12:23.097Z</time>
      </trkpt>
      <trkpt lat="66.74634" lon="13.58926">
        <ele>52.571173</ele>
        <time>2020-07-15T22:13:46.518Z</time>
      </trkpt>
      <trkpt lat="66.74638" lon="13.58939">
        <ele>53.062146</ele>
        <time>2020-07-15T22:13:50.274Z</time>
      </trkpt>
      <trkpt lat="66.74636" lon="13.58942">
        <ele>53.248402</ele>
        <time>2020-07-15T22:13:51.126Z</time>
      </trkpt>
      <trkpt lat="66.74654" lon="13.59009">
        <ele>55.602272</ele>
        <time>2020-07-15T22:14:03.905Z</time>
      </trkpt>
      <trkpt lat="66.74684" lon="13.59114">
        <ele>59.380293</ele>
        <time>2020-07-15T22:14:25.462Z</time>
      </trkpt>
      <trkpt lat="66.74686" lon="13.59121">
        <ele>59.639827</ele>
        <time>2020-07-15T22:14:27.642Z</time>
      </trkpt>
      <trkpt lat="66.7474" lon="13.59308">
        <ele>66.065894</ele>
        <time>2020-07-15T22:15:06.360Z</time>
      </trkpt>
      <trkpt lat="66.74771" lon="13.59423">
        <ele>69.885715</ele>
        <time>2020-07-15T22:15:28.769Z</time>
      </trkpt>
      <trkpt lat="66.74804" lon="13.59533">
        <ele>73.332408</ele>
        <time>2020-07-15T22:15:48.570Z</time>
      </trkpt>
      <trkpt lat="66.74856" lon="13.59674">
        <ele>75.961177</ele>
        <time>2020-07-15T22:16:14.313Z</time>
      </trkpt>
      <trkpt lat="66.74888" lon="13.59749">
        <ele>77.466706</ele>
        <time>2020-07-15T22:16:25.955Z</time>
      </trkpt>
      <trkpt lat="66.74905" lon="13.59777">
        <ele>78.176429</ele>
        <time>2020-07-15T22:16:30.801Z</time>
      </trkpt>
      <trkpt lat="66.7494" lon="13.59839">
        <ele>79.201417</ele>
        <time>2020-07-15T22:16:40.270Z</time>
      </trkpt>
      <trkpt lat="66.75089" lon="13.60067">
        <ele>79.221854</ele>
        <time>2020-07-15T22:17:10.386Z</time>
      </trkpt>
      <trkpt lat="66.75116" lon="13.60125">
        <ele>78.957673</ele>
        <time>2020-07-15T22:17:15.931Z</time>
      </trkpt>
      <trkpt lat="66.75154" lon="13.60248">
        <ele>78.495122</ele>
        <time>2020-07-15T22:17:25.526Z</time>
      </trkpt>
      <trkpt lat="66.75188" lon="13.60414">
        <ele>77.938511</ele>
        <time>2020-07-15T22:17:37.193Z</time>
      </trkpt>
      <trkpt lat="66.75201" lon="13.6053">
        <ele>77.895115</ele>
        <time>2020-07-15T22:17:44.734Z</time>
      </trkpt>
      <trkpt lat="66.75323" lon="13.62147">
        <ele>77.803905</ele>
        <time>2020-07-15T22:19:41.288Z</time>
      </trkpt>
      <trkpt lat="66.75348" lon="13.62483">
        <ele>78.800058</ele>
        <time>2020-07-15T22:20:08.097Z</time>
      </trkpt>
      <trkpt lat="66.75374" lon="13.62816">
        <ele>80.595114</ele>
        <time>2020-07-15T22:20:37.485Z</time>
      </trkpt>
      <trkpt lat="66.75423" lon="13.63477">
        <ele>85.91326</ele>
        <time>2020-07-15T22:21:43.502Z</time>
      </trkpt>
      <trkpt lat="66.75436" lon="13.63639">
        <ele>86.749896</ele>
        <time>2020-07-15T22:21:59.579Z</time>
      </trkpt>
      <trkpt lat="66.75456" lon="13.63905">
        <ele>87.394539</ele>
        <time>2020-07-15T22:22:22.189Z</time>
      </trkpt>
      <trkpt lat="66.75497" lon="13.64663">
        <ele>82.239801</ele>
        <time>2020-07-15T22:23:05.609Z</time>
      </trkpt>
      <trkpt lat="66.75528" lon="13.65246">
        <ele>75.512905</ele>
        <time>2020-07-15T22:23:35.284Z</time>
      </trkpt>
      <trkpt lat="66.75534" lon="13.6537">
        <ele>74.279943</ele>
        <time>2020-07-15T22:23:42.154Z</time>
      </trkpt>
      <trkpt lat="66.75557" lon="13.65827">
        <ele>75.435656</ele>
        <time>2020-07-15T22:24:18.324Z</time>
      </trkpt>
      <trkpt lat="66.75582" lon="13.66283">
        <ele>81.680352</ele>
        <time>2020-07-15T22:25:13.198Z</time>
      </trkpt>
      <trkpt lat="66.75619" lon="13.66979">
        <ele>90.555693</ele>
        <time>2020-07-15T22:26:39.352Z</time>
      </trkpt>
      <trkpt lat="66.75621" lon="13.67068">
        <ele>91.185722</ele>
        <time>2020-07-15T22:26:45.029Z</time>
      </trkpt>
      <trkpt lat="66.75616" lon="13.67265">
        <ele>90.661505</ele>
        <time>2020-07-15T22:26:56.089Z</time>
      </trkpt>
      <trkpt lat="66.75611" lon="13.67317">
        <ele>90.055385</ele>
        <time>2020-07-15T22:26:58.776Z</time>
      </trkpt>
      <trkpt lat="66.75611" lon="13.67322">
        <ele>90.002597</ele>
        <time>2020-07-15T22:26:59.028Z</time>
      </trkpt>
      <trkpt lat="66.75602" lon="13.674">
        <ele>89.073638</ele>
        <time>2020-07-15T22:27:03.126Z</time>
      </trkpt>
      <trkpt lat="66.75592" lon="13.67475">
        <ele>88.169228</ele>
        <time>2020-07-15T22:27:07.162Z</time>
      </trkpt>
      <trkpt lat="66.75576" lon="13.67593">
        <ele>86.746943</ele>
        <time>2020-07-15T22:27:13.590Z</time>
      </trkpt>
      <trkpt lat="66.7557" lon="13.67697">
        <ele>85.908406</ele>
        <time>2020-07-15T22:27:19.054Z</time>
      </trkpt>
      <trkpt lat="66.75575" lon="13.6823">
        <ele>83.471002</ele>
        <time>2020-07-15T22:27:50.034Z</time>
      </trkpt>
      <trkpt lat="66.75574" lon="13.68283">
        <ele>83.570542</ele>
        <time>2020-07-15T22:27:53.394Z</time>
      </trkpt>
      <trkpt lat="66.75573" lon="13.68341">
        <ele>83.676889</ele>
        <time>2020-07-15T22:27:57.690Z</time>
      </trkpt>
      <trkpt lat="66.75566" lon="13.68421">
        <ele>83.82866</ele>
        <time>2020-07-15T22:28:04.776Z</time>
      </trkpt>
      <trkpt lat="66.75562" lon="13.68462">
        <ele>83.906424</ele>
        <time>2020-07-15T22:28:08.627Z</time>
      </trkpt>
      <trkpt lat="66.75555" lon="13.68529">
        <ele>84.684906</ele>
        <time>2020-07-15T22:28:16.451Z</time>
      </trkpt>
      <trkpt lat="66.75538" lon="13.68706">
        <ele>90.280384</ele>
        <time>2020-07-15T22:28:42.092Z</time>
      </trkpt>
      <trkpt lat="66.75536" lon="13.68726">
        <ele>90.92581</ele>
        <time>2020-07-15T22:28:45.520Z</time>
      </trkpt>
      <trkpt lat="66.75515" lon="13.68929">
        <ele>97.331417</ele>
        <time>2020-07-15T22:29:26.634Z</time>
      </trkpt>
      <trkpt lat="66.75436" lon="13.69405">
        <ele>120.935811</ele>
        <time>2020-07-15T22:31:26.292Z</time>
      </trkpt>
      <trkpt lat="66.75392" lon="13.69749">
        <ele>131.511565</ele>
        <time>2020-07-15T22:32:31.523Z</time>
      </trkpt>
      <trkpt lat="66.75381" lon="13.69914">
        <ele>129.76084</ele>
        <time>2020-07-15T22:32:41.933Z</time>
      </trkpt>
      <trkpt lat="66.75382" lon="13.69988">
        <ele>127.592909</ele>
        <time>2020-07-15T22:32:45.502Z</time>
      </trkpt>
      <trkpt lat="66.7539" lon="13.70134">
        <ele>123.274747</ele>
        <time>2020-07-15T22:32:51.898Z</time>
      </trkpt>
      <trkpt lat="66.75395" lon="13.70343">
        <ele>113.640454</ele>
        <time>2020-07-15T22:33:00.526Z</time>
      </trkpt>
      <trkpt lat="66.75378" lon="13.70652">
        <ele>92.119614</ele>
        <time>2020-07-15T22:33:13.171Z</time>
      </trkpt>
      <trkpt lat="66.75379" lon="13.70817">
        <ele>80.518254</ele>
        <time>2020-07-15T22:33:19.845Z</time>
      </trkpt>
      <trkpt lat="66.75386" lon="13.70978">
        <ele>69.026406</ele>
        <time>2020-07-15T22:33:26.395Z</time>
      </trkpt>
      <trkpt lat="66.75429" lon="13.7149">
        <ele>35.790836</ele>
        <time>2020-07-15T22:33:47.723Z</time>
      </trkpt>
      <trkpt lat="66.75432" lon="13.71797">
        <ele>22.78845</ele>
        <time>2020-07-15T22:34:00.811Z</time>
      </trkpt>
      <trkpt lat="66.75427" lon="13.71919">
        <ele>18.894623</ele>
        <time>2020-07-15T22:34:06.383Z</time>
      </trkpt>
      <trkpt lat="66.75418" lon="13.72058">
        <ele>14.409859</ele>
        <time>2020-07-15T22:34:13.138Z</time>
      </trkpt>
      <trkpt lat="66.75413" lon="13.72215">
        <ele>12.680629</ele>
        <time>2020-07-15T22:34:20.917Z</time>
      </trkpt>
      <trkpt lat="66.75417" lon="13.72462">
        <ele>9.989349</ele>
        <time>2020-07-15T22:34:34.785Z</time>
      </trkpt>
      <trkpt lat="66.75418" lon="13.72504">
        <ele>9.537824</ele>
        <time>2020-07-15T22:34:37.147Z</time>
      </trkpt>
      <trkpt lat="66.7542" lon="13.72585">
        <ele>9.232269</ele>
        <time>2020-07-15T22:34:42.034Z</time>
      </trkpt>
      <trkpt lat="66.75421" lon="13.72698">
        <ele>8.928323</ele>
        <time>2020-07-15T22:34:49.016Z</time>
      </trkpt>
      <trkpt lat="66.75416" lon="13.72778">
        <ele>8.711978</ele>
        <time>2020-07-15T22:34:54.113Z</time>
      </trkpt>
      <trkpt lat="66.75404" lon="13.72856">
        <ele>8.487025</ele>
        <time>2020-07-15T22:34:59.623Z</time>
      </trkpt>
      <trkpt lat="66.75365" lon="13.72996">
        <ele>8.244576</ele>
        <time>2020-07-15T22:35:11.815Z</time>
      </trkpt>
      <trkpt lat="66.75349" lon="13.7307">
        <ele>8.301122</ele>
        <time>2020-07-15T22:35:17.907Z</time>
      </trkpt>
      <trkpt lat="66.75337" lon="13.73148">
        <ele>8.357219</ele>
        <time>2020-07-15T22:35:23.931Z</time>
      </trkpt>
      <trkpt lat="66.75332" lon="13.73211">
        <ele>8.400159</ele>
        <time>2020-07-15T22:35:28.768Z</time>
      </trkpt>
      <trkpt lat="66.7533" lon="13.73225">
        <ele>8.409925</ele>
        <time>2020-07-15T22:35:29.701Z</time>
      </trkpt>
      <trkpt lat="66.75327" lon="13.73309">
        <ele>8.466266</ele>
        <time>2020-07-15T22:35:35.964Z</time>
      </trkpt>
      <trkpt lat="66.75327" lon="13.7333">
        <ele>8.480629</ele>
        <time>2020-07-15T22:35:37.403Z</time>
      </trkpt>
      <trkpt lat="66.75325" lon="13.73425">
        <ele>8.772022</ele>
        <time>2020-07-15T22:35:44.508Z</time>
      </trkpt>
      <trkpt lat="66.75322" lon="13.7356">
        <ele>9.413213</ele>
        <time>2020-07-15T22:35:54.965Z</time>
      </trkpt>
      <trkpt lat="66.75315" lon="13.73882">
        <ele>11.288531</ele>
        <time>2020-07-15T22:36:24.149Z</time>
      </trkpt>
      <trkpt lat="66.75311" lon="13.7407">
        <ele>13.318212</ele>
        <time>2020-07-15T22:36:45.348Z</time>
      </trkpt>
      <trkpt lat="66.75306" lon="13.74316">
        <ele>15.537699</ele>
        <time>2020-07-15T22:37:12.694Z</time>
      </trkpt>
      <trkpt lat="66.75302" lon="13.74512">
        <ele>15.349047</ele>
        <time>2020-07-15T22:37:28.792Z</time>
      </trkpt>
      <trkpt lat="66.75303" lon="13.74598">
        <ele>15.265809</ele>
        <time>2020-07-15T22:37:34.161Z</time>
      </trkpt>
      <trkpt lat="66.7531" lon="13.74681">
        <ele>15.184628</ele>
        <time>2020-07-15T22:37:38.891Z</time>
      </trkpt>
      <trkpt lat="66.75312" lon="13.74698">
        <ele>15.167364</ele>
        <time>2020-07-15T22:37:39.800Z</time>
      </trkpt>
      <trkpt lat="66.75319" lon="13.74738">
        <ele>15.009578</ele>
        <time>2020-07-15T22:37:41.966Z</time>
      </trkpt>
      <trkpt lat="66.75326" lon="13.74782">
        <ele>14.377253</ele>
        <time>2020-07-15T22:37:44.531Z</time>
      </trkpt>
      <trkpt lat="66.75331" lon="13.74806">
        <ele>14.006731</ele>
        <time>2020-07-15T22:37:45.864Z</time>
      </trkpt>
      <trkpt lat="66.75354" lon="13.74885">
        <ele>12.733845</ele>
        <time>2020-07-15T22:37:50.660Z</time>
      </trkpt>
      <trkpt lat="66.75422" lon="13.75076">
        <ele>9.35521</ele>
        <time>2020-07-15T22:38:03.628Z</time>
      </trkpt>
      <trkpt lat="66.75438" lon="13.75131">
        <ele>8.874636</ele>
        <time>2020-07-15T22:38:07.425Z</time>
      </trkpt>
      <trkpt lat="66.75445" lon="13.75153">
        <ele>8.740221</ele>
        <time>2020-07-15T22:38:09.021Z</time>
      </trkpt>
      <trkpt lat="66.75453" lon="13.75192">
        <ele>8.521093</ele>
        <time>2020-07-15T22:38:11.574Z</time>
      </trkpt>
      <trkpt lat="66.75476" lon="13.75334">
        <ele>7.752718</ele>
        <time>2020-07-15T22:38:20.889Z</time>
      </trkpt>
      <trkpt lat="66.75506" lon="13.75609">
        <ele>6.39295</ele>
        <time>2020-07-15T22:38:39.719Z</time>
      </trkpt>
      <trkpt lat="66.75529" lon="13.75811">
        <ele>5.472279</ele>
        <time>2020-07-15T22:38:52.565Z</time>
      </trkpt>
      <trkpt lat="66.75547" lon="13.7592">
        <ele>4.953811</ele>
        <time>2020-07-15T22:38:59.348Z</time>
      </trkpt>
      <trkpt lat="66.75566" lon="13.75985">
        <ele>4.441643</ele>
        <time>2020-07-15T22:39:03.889Z</time>
      </trkpt>
      <trkpt lat="66.75582" lon="13.76031">
        <ele>4.014157</ele>
        <time>2020-07-15T22:39:07.282Z</time>
      </trkpt>
      <trkpt lat="66.75592" lon="13.76053">
        <ele>3.776382</ele>
        <time>2020-07-15T22:39:09.121Z</time>
      </trkpt>
      <trkpt lat="66.75596" lon="13.76063">
        <ele>3.669923</ele>
        <time>2020-07-15T22:39:09.981Z</time>
      </trkpt>
      <trkpt lat="66.75618" lon="13.76102">
        <ele>3.197343</ele>
        <time>2020-07-15T22:39:13.667Z</time>
      </trkpt>
      <trkpt lat="66.75638" lon="13.76131">
        <ele>2.788341</ele>
        <time>2020-07-15T22:39:16.894Z</time>
      </trkpt>
      <trkpt lat="66.7569" lon="13.76171">
        <ele>1.816011</ele>
        <time>2020-07-15T22:39:24.790Z</time>
      </trkpt>
      <trkpt lat="66.75705" lon="13.76176">
        <ele>1.638244</ele>
        <time>2020-07-15T22:39:26.958Z</time>
      </trkpt>
      <trkpt lat="66.75713" lon="13.76178">
        <ele>1.594577</ele>
        <time>2020-07-15T22:39:28.236Z</time>
      </trkpt>
      <trkpt lat="66.7574" lon="13.76176">
        <ele>1.448836</ele>
        <time>2020-07-15T22:39:32.459Z</time>
      </trkpt>
      <trkpt lat="66.75767" lon="13.7617">
        <ele>1.304611</ele>
        <time>2020-07-15T22:39:37.078Z</time>
      </trkpt>
      <trkpt lat="66.75796" lon="13.76155">
        <ele>1.147232</ele>
        <time>2020-07-15T22:39:42.110Z</time>
      </trkpt>
      <trkpt lat="66.75832" lon="13.76137">
        <ele>0.957493</ele>
        <time>2020-07-15T22:39:48.186Z</time>
      </trkpt>
      <trkpt lat="66.75853" lon="13.7612">
        <ele>0.836706</ele>
        <time>2020-07-15T22:39:51.969Z</time>
      </trkpt>
      <trkpt lat="66.75868" lon="13.76103">
        <ele>0.750316</ele>
        <time>2020-07-15T22:39:54.962Z</time>
      </trkpt>
      <trkpt lat="66.75883" lon="13.76079">
        <ele>0.707515</ele>
        <time>2020-07-15T22:39:58.144Z</time>
      </trkpt>
      <trkpt lat="66.75894" lon="13.76058">
        <ele>0.694435</ele>
        <time>2020-07-15T22:40:00.576Z</time>
      </trkpt>
      <trkpt lat="66.75908" lon="13.7602">
        <ele>0.674456</ele>
        <time>2020-07-15T22:40:04.307Z</time>
      </trkpt>
      <trkpt lat="66.75914" lon="13.76001">
        <ele>0.664679</ele>
        <time>2020-07-15T22:40:06.022Z</time>
      </trkpt>
      <trkpt lat="66.7593" lon="13.7592">
        <ele>0.62951</ele>
        <time>2020-07-15T22:40:12.524Z</time>
      </trkpt>
      <trkpt lat="66.75936" lon="13.75852">
        <ele>0.602898</ele>
        <time>2020-07-15T22:40:17.434Z</time>
      </trkpt>
      <trkpt lat="66.75953" lon="13.75239">
        <ele>0.164321</ele>
        <time>2020-07-15T22:40:59.010Z</time>
      </trkpt>
      <trkpt lat="66.75991" lon="13.74451">
        <ele>0.176078</ele>
        <time>2020-07-15T22:41:55.097Z</time>
      </trkpt>
      <trkpt lat="66.76031" lon="13.73643">
        <ele>0.113947</ele>
        <time>2020-07-15T22:42:52.070Z</time>
      </trkpt>
      <trkpt lat="66.76055" lon="13.73146">
        <ele>0.065892</ele>
        <time>2020-07-15T22:43:27.454Z</time>
      </trkpt>
      <trkpt lat="66.76072" lon="13.7285">
        <ele>0.032861</ele>
        <time>2020-07-15T22:43:48.407Z</time>
      </trkpt>
      <trkpt lat="66.76081" lon="13.72654">
        <ele>0.012785</ele>
        <time>2020-07-15T22:44:02.221Z</time>
      </trkpt>
      <trkpt lat="66.76121" lon="13.71825">
        <ele>13</ele>
        <time>2020-07-15T22:45:01.029Z</time>
      </trkpt>
      <trkpt lat="66.76123" lon="13.71577">
        <ele>10.7</ele>
        <time>2020-07-15T22:45:18.556Z</time>
      </trkpt>
      <trkpt lat="66.76123" lon="13.71432">
        <ele>10</ele>
        <time>2020-07-15T22:45:28.756Z</time>
      </trkpt>
      <trkpt lat="66.76123" lon="13.7111">
        <ele>10.7</ele>
        <time>2020-07-15T22:45:51.439Z</time>
      </trkpt>
      <trkpt lat="66.76124" lon="13.7101">
        <ele>10.5</ele>
        <time>2020-07-15T22:45:58.505Z</time>
      </trkpt>
      <trkpt lat="66.76128" lon="13.70808">
        <ele>10.5</ele>
        <time>2020-07-15T22:46:12.751Z</time>
      </trkpt>
      <trkpt lat="66.76143" lon="13.7061">
        <ele>0.000428</ele>
        <time>2020-07-15T22:46:26.940Z</time>
      </trkpt>
      <trkpt lat="66.76157" lon="13.70493">
        <ele>0.000929</ele>
        <time>2020-07-15T22:46:35.592Z</time>
      </trkpt>
      <trkpt lat="66.76185" lon="13.70326">
        <ele>0.00167</ele>
        <time>2020-07-15T22:46:48.409Z</time>
      </trkpt>
      <trkpt lat="66.7622" lon="13.70182">
        <ele>0.014985</ele>
        <time>2020-07-15T22:47:00.415Z</time>
      </trkpt>
      <trkpt lat="66.76393" lon="13.69693">
        <ele>0.142571</ele>
        <time>2020-07-15T22:47:47.034Z</time>
      </trkpt>
      <trkpt lat="66.76415" lon="13.69579">
        <ele>0.178504</ele>
        <time>2020-07-15T22:47:55.981Z</time>
      </trkpt>
      <trkpt lat="66.76433" lon="13.69219">
        <ele>0.320588</ele>
        <time>2020-07-15T22:48:22.039Z</time>
      </trkpt>
      <trkpt lat="66.7645" lon="13.69038">
        <ele>0.383778</ele>
        <time>2020-07-15T22:48:35.494Z</time>
      </trkpt>
      <trkpt lat="66.76471" lon="13.68883">
        <ele>0.429447</ele>
        <time>2020-07-15T22:48:47.309Z</time>
      </trkpt>
      <trkpt lat="66.76481" lon="13.68755">
        <ele>0.465739</ele>
        <time>2020-07-15T22:48:56.618Z</time>
      </trkpt>
      <trkpt lat="66.7648" lon="13.68622">
        <ele>0.455358</ele>
        <time>2020-07-15T22:49:05.899Z</time>
      </trkpt>
      <trkpt lat="66.76468" lon="13.68384">
        <ele>0.326739</ele>
        <time>2020-07-15T22:49:22.348Z</time>
      </trkpt>
      <trkpt lat="66.76466" lon="13.68093">
        <ele>0.180214</ele>
        <time>2020-07-15T22:49:42.251Z</time>
      </trkpt>
      <trkpt lat="66.76486" lon="13.67645">
        <ele>0.022218</ele>
        <time>2020-07-15T22:50:13.571Z</time>
      </trkpt>
      <trkpt lat="66.76494" lon="13.67571">
        <ele>0.01707</ele>
        <time>2020-07-15T22:50:18.907Z</time>
      </trkpt>
      <trkpt lat="66.76504" lon="13.67505">
        <ele>0.012272</ele>
        <time>2020-07-15T22:50:23.881Z</time>
      </trkpt>
      <trkpt lat="66.76572" lon="13.67205">
        <ele>5.8</ele>
        <time>2020-07-15T22:50:48.277Z</time>
      </trkpt>
      <trkpt lat="66.76575" lon="13.67187">
        <ele>5.9</ele>
        <time>2020-07-15T22:50:49.685Z</time>
      </trkpt>
      <trkpt lat="66.76587" lon="13.67118">
        <ele>5.7</ele>
        <time>2020-07-15T22:50:54.969Z</time>
      </trkpt>
      <trkpt lat="66.766" lon="13.67018">
        <ele>6</ele>
        <time>2020-07-15T22:51:02.364Z</time>
      </trkpt>
      <trkpt lat="66.76625" lon="13.66843">
        <ele>7.2</ele>
        <time>2020-07-15T22:51:15.454Z</time>
      </trkpt>
      <trkpt lat="66.76632" lon="13.66806">
        <ele>6.3</ele>
        <time>2020-07-15T22:51:18.391Z</time>
      </trkpt>
      <trkpt lat="66.7664" lon="13.66773">
        <ele>7</ele>
        <time>2020-07-15T22:51:21.116Z</time>
      </trkpt>
      <trkpt lat="66.76651" lon="13.66739">
        <ele>7.1</ele>
        <time>2020-07-15T22:51:24.219Z</time>
      </trkpt>
      <trkpt lat="66.76692" lon="13.66643">
        <ele>5.2</ele>
        <time>2020-07-15T22:51:34.097Z</time>
      </trkpt>
      <trkpt lat="66.76702" lon="13.6662">
        <ele>4.8</ele>
        <time>2020-07-15T22:51:36.602Z</time>
      </trkpt>
      <trkpt lat="66.76707" lon="13.66608">
        <ele>4.8</ele>
        <time>2020-07-15T22:51:37.836Z</time>
      </trkpt>
      <trkpt lat="66.76724" lon="13.66564">
        <ele>6</ele>
        <time>2020-07-15T22:51:42.137Z</time>
      </trkpt>
      <trkpt lat="66.76801" lon="13.66269">
        <ele>8.6</ele>
        <time>2020-07-15T22:52:07.008Z</time>
      </trkpt>
      <trkpt lat="66.7682" lon="13.6619">
        <ele>0.001324</ele>
        <time>2020-07-15T22:52:13.533Z</time>
      </trkpt>
      <trkpt lat="66.7683" lon="13.66135">
        <ele>0.011529</ele>
        <time>2020-07-15T22:52:17.867Z</time>
      </trkpt>
      <trkpt lat="66.76841" lon="13.66065">
        <ele>0.024041</ele>
        <time>2020-07-15T22:52:23.169Z</time>
      </trkpt>
      <trkpt lat="66.76858" lon="13.65915">
        <ele>0.050173</ele>
        <time>2020-07-15T22:52:34.289Z</time>
      </trkpt>
      <trkpt lat="66.76866" lon="13.65845">
        <ele>0.062307</ele>
        <time>2020-07-15T22:52:39.488Z</time>
      </trkpt>
      <trkpt lat="66.76876" lon="13.65735">
        <ele>0.077572</ele>
        <time>2020-07-15T22:52:47.478Z</time>
      </trkpt>
      <trkpt lat="66.7688" lon="13.65598">
        <ele>0.084832</ele>
        <time>2020-07-15T22:52:57.295Z</time>
      </trkpt>
      <trkpt lat="66.76887" lon="13.65494">
        <ele>0.090392</ele>
        <time>2020-07-15T22:53:04.799Z</time>
      </trkpt>
      <trkpt lat="66.76895" lon="13.65392">
        <ele>0.095867</ele>
        <time>2020-07-15T22:53:12.155Z</time>
      </trkpt>
      <trkpt lat="66.76917" lon="13.65086">
        <ele>0.110326</ele>
        <time>2020-07-15T22:53:33.939Z</time>
      </trkpt>
      <trkpt lat="66.76924" lon="13.64784">
        <ele>0.137418</ele>
        <time>2020-07-15T22:53:55.365Z</time>
      </trkpt>
      <trkpt lat="66.76928" lon="13.64672">
        <ele>0.161751</ele>
        <time>2020-07-15T22:54:03.385Z</time>
      </trkpt>
      <trkpt lat="66.76935" lon="13.64554">
        <ele>0.187406</ele>
        <time>2020-07-15T22:54:11.887Z</time>
      </trkpt>
      <trkpt lat="66.77005" lon="13.63764">
        <ele>0.232541</ele>
        <time>2020-07-15T22:55:09.166Z</time>
      </trkpt>
      <trkpt lat="66.77025" lon="13.63578">
        <ele>0.194233</ele>
        <time>2020-07-15T22:55:22.494Z</time>
      </trkpt>
      <trkpt lat="66.77054" lon="13.6333">
        <ele>0.12822</ele>
        <time>2020-07-15T22:55:40.342Z</time>
      </trkpt>
      <trkpt lat="66.77079" lon="13.6312">
        <ele>0.068762</ele>
        <time>2020-07-15T22:55:55.726Z</time>
      </trkpt>
      <trkpt lat="66.77091" lon="13.62967">
        <ele>0.043736</ele>
        <time>2020-07-15T22:56:06.650Z</time>
      </trkpt>
      <trkpt lat="66.77102" lon="13.62734">
        <ele>0.012978</ele>
        <time>2020-07-15T22:56:23.062Z</time>
      </trkpt>
      <trkpt lat="66.77106" lon="13.62676">
        <ele>0.005214</ele>
        <time>2020-07-15T22:56:27.214Z</time>
      </trkpt>
      <trkpt lat="66.77114" lon="13.62565">
        <ele>13.7</ele>
        <time>2020-07-15T22:56:35.177Z</time>
      </trkpt>
      <trkpt lat="66.77165" lon="13.62091">
        <ele>7.9</ele>
        <time>2020-07-15T22:57:09.724Z</time>
      </trkpt>
      <trkpt lat="66.77166" lon="13.61972">
        <ele>7.9</ele>
        <time>2020-07-15T22:57:18.163Z</time>
      </trkpt>
      <trkpt lat="66.77157" lon="13.61801">
        <ele>7.6</ele>
        <time>2020-07-15T22:57:30.301Z</time>
      </trkpt>
      <trkpt lat="66.77147" lon="13.61631">
        <ele>7</ele>
        <time>2020-07-15T22:57:42.410Z</time>
      </trkpt>
      <trkpt lat="66.77124" lon="13.61159">
        <ele>8.5</ele>
        <time>2020-07-15T22:58:15.876Z</time>
      </trkpt>
      <trkpt lat="66.77115" lon="13.60992">
        <ele>9.8</ele>
        <time>2020-07-15T22:58:27.737Z</time>
      </trkpt>
      <trkpt lat="66.77116" lon="13.60531">
        <ele>7.9</ele>
        <time>2020-07-15T22:59:00.240Z</time>
      </trkpt>
      <trkpt lat="66.77118" lon="13.6033">
        <ele>6.2</ele>
        <time>2020-07-15T22:59:14.408Z</time>
      </trkpt>
      <trkpt lat="66.77118" lon="13.60201">
        <ele>5.6</ele>
        <time>2020-07-15T22:59:23.506Z</time>
      </trkpt>
      <trkpt lat="66.77106" lon="13.59868">
        <ele>6.2</ele>
        <time>2020-07-15T22:59:47.025Z</time>
      </trkpt>
      <trkpt lat="66.77098" lon="13.5974">
        <ele>5.7</ele>
        <time>2020-07-15T22:59:56.170Z</time>
      </trkpt>
      <trkpt lat="66.77096" lon="13.59721">
        <ele>5.3</ele>
        <time>2020-07-15T22:59:57.589Z</time>
      </trkpt>
      <trkpt lat="66.77089" lon="13.59649">
        <ele>5.9</ele>
        <time>2020-07-15T23:00:02.792Z</time>
      </trkpt>
      <trkpt lat="66.77062" lon="13.59417">
        <ele>5.1</ele>
        <time>2020-07-15T23:00:19.820Z</time>
      </trkpt>
      <trkpt lat="66.7705" lon="13.59301">
        <ele>5</ele>
        <time>2020-07-15T23:00:28.288Z</time>
      </trkpt>
      <trkpt lat="66.77021" lon="13.59048">
        <ele>5.5</ele>
        <time>2020-07-15T23:00:46.796Z</time>
      </trkpt>
      <trkpt lat="66.77016" lon="13.58995">
        <ele>9.3E-5</ele>
        <time>2020-07-15T23:00:50.676Z</time>
      </trkpt>
      <trkpt lat="66.76962" lon="13.58512">
        <ele>0.048589</ele>
        <time>2020-07-15T23:01:26.081Z</time>
      </trkpt>
      <trkpt lat="66.76958" lon="13.58415">
        <ele>0.095733</ele>
        <time>2020-07-15T23:01:32.966Z</time>
      </trkpt>
      <trkpt lat="66.76952" lon="13.58274">
        <ele>0.164356</ele>
        <time>2020-07-15T23:01:43.054Z</time>
      </trkpt>
      <trkpt lat="66.76935" lon="13.57966">
        <ele>0.826559</ele>
        <time>2020-07-15T23:02:06.154Z</time>
      </trkpt>
      <trkpt lat="66.76922" lon="13.57713">
        <ele>1.627756</ele>
        <time>2020-07-15T23:02:27.105Z</time>
      </trkpt>
      <trkpt lat="66.7691" lon="13.57462">
        <ele>3.749095</ele>
        <time>2020-07-15T23:02:51.198Z</time>
      </trkpt>
      <trkpt lat="66.76879" lon="13.56907">
        <ele>8.694829</ele>
        <time>2020-07-15T23:03:49.785Z</time>
      </trkpt>
      <trkpt lat="66.76851" lon="13.5635">
        <ele>11.801207</ele>
        <time>2020-07-15T23:04:37.112Z</time>
      </trkpt>
      <trkpt lat="66.76824" lon="13.55825">
        <ele>15.356017</ele>
        <time>2020-07-15T23:05:24.682Z</time>
      </trkpt>
      <trkpt lat="66.76824" lon="13.55662">
        <ele>16.985806</ele>
        <time>2020-07-15T23:05:42.401Z</time>
      </trkpt>
      <trkpt lat="66.76834" lon="13.55408">
        <ele>19.35729</ele>
        <time>2020-07-15T23:06:09.432Z</time>
      </trkpt>
      <trkpt lat="66.76836" lon="13.55353">
        <ele>19.601479</ele>
        <time>2020-07-15T23:06:14.951Z</time>
      </trkpt>
      <trkpt lat="66.76837" lon="13.5534">
        <ele>19.658837</ele>
        <time>2020-07-15T23:06:16.261Z</time>
      </trkpt>
      <trkpt lat="66.76841" lon="13.55245">
        <ele>20.078577</ele>
        <time>2020-07-15T23:06:25.309Z</time>
      </trkpt>
      <trkpt lat="66.76855" lon="13.55108">
        <ele>20.697559</ele>
        <time>2020-07-15T23:06:37.056Z</time>
      </trkpt>
      <trkpt lat="66.76903" lon="13.54779">
        <ele>20.283519</ele>
        <time>2020-07-15T23:06:59.517Z</time>
      </trkpt>
      <trkpt lat="66.76935" lon="13.54559">
        <ele>19.302252</ele>
        <time>2020-07-15T23:07:13.334Z</time>
      </trkpt>
      <trkpt lat="66.76947" lon="13.54508">
        <ele>18.745554</ele>
        <time>2020-07-15T23:07:16.656Z</time>
      </trkpt>
      <trkpt lat="66.76968" lon="13.54489">
        <ele>18.241574</ele>
        <time>2020-07-15T23:07:19.774Z</time>
      </trkpt>
      <trkpt lat="66.77071" lon="13.54563">
        <ele>15.745965</ele>
        <time>2020-07-15T23:07:34.714Z</time>
      </trkpt>
      <trkpt lat="66.77084" lon="13.54577">
        <ele>15.425646</ele>
        <time>2020-07-15T23:07:36.455Z</time>
      </trkpt>
      <trkpt lat="66.77087" lon="13.54581">
        <ele>15.343208</ele>
        <time>2020-07-15T23:07:36.897Z</time>
      </trkpt>
      <trkpt lat="66.77099" lon="13.54601">
        <ele>14.864876</ele>
        <time>2020-07-15T23:07:38.766Z</time>
      </trkpt>
      <trkpt lat="66.77143" lon="13.54707">
        <ele>12.512179</ele>
        <time>2020-07-15T23:07:46.515Z</time>
      </trkpt>
      <trkpt lat="66.77146" lon="13.54716">
        <ele>12.31597</ele>
        <time>2020-07-15T23:07:47.141Z</time>
      </trkpt>
      <trkpt lat="66.77185" lon="13.54809">
        <ele>10.233018</ele>
        <time>2020-07-15T23:07:53.926Z</time>
      </trkpt>
      <trkpt lat="66.77197" lon="13.54833">
        <ele>9.633398</ele>
        <time>2020-07-15T23:07:55.724Z</time>
      </trkpt>
      <trkpt lat="66.77219" lon="13.54847">
        <ele>8.758539</ele>
        <time>2020-07-15T23:07:58.615Z</time>
      </trkpt>
      <trkpt lat="66.7724" lon="13.54831">
        <ele>7.942393</ele>
        <time>2020-07-15T23:08:01.287Z</time>
      </trkpt>
      <trkpt lat="66.7727" lon="13.54704">
        <ele>5.890703</ele>
        <time>2020-07-15T23:08:08.633Z</time>
      </trkpt>
      <trkpt lat="66.77296" lon="13.54605">
        <ele>4.251663</ele>
        <time>2020-07-15T23:08:14.485Z</time>
      </trkpt>
      <trkpt lat="66.77301" lon="13.54583">
        <ele>3.896278</ele>
        <time>2020-07-15T23:08:15.844Z</time>
      </trkpt>
      <trkpt lat="66.77319" lon="13.54522">
        <ele>2.845325</ele>
        <time>2020-07-15T23:08:19.867Z</time>
      </trkpt>
      <trkpt lat="66.77343" lon="13.54445">
        <ele>1.868405</ele>
        <time>2020-07-15T23:08:25.172Z</time>
      </trkpt>
      <trkpt lat="66.77368" lon="13.54372">
        <ele>1.668254</ele>
        <time>2020-07-15T23:08:30.688Z</time>
      </trkpt>
      <trkpt lat="66.77439" lon="13.54163">
        <ele>1.103138</ele>
        <time>2020-07-15T23:08:49.928Z</time>
      </trkpt>
      <trkpt lat="66.77466" lon="13.54082">
        <ele>1.337906</ele>
        <time>2020-07-15T23:08:58.271Z</time>
      </trkpt>
      <trkpt lat="66.77508" lon="13.53967">
        <ele>2.300441</ele>
        <time>2020-07-15T23:09:11.538Z</time>
      </trkpt>
      <trkpt lat="66.77532" lon="13.53897">
        <ele>2.871874</ele>
        <time>2020-07-15T23:09:20.073Z</time>
      </trkpt>
      <trkpt lat="66.77554" lon="13.53819">
        <ele>3.464287</ele>
        <time>2020-07-15T23:09:29.181Z</time>
      </trkpt>
      <trkpt lat="66.77587" lon="13.53696">
        <ele>4.770405</ele>
        <time>2020-07-15T23:09:45.181Z</time>
      </trkpt>
      <trkpt lat="66.77597" lon="13.53663">
        <ele>5.198578</ele>
        <time>2020-07-15T23:09:49.678Z</time>
      </trkpt>
      <trkpt lat="66.77608" lon="13.53636">
        <ele>5.605142</ele>
        <time>2020-07-15T23:09:54.373Z</time>
      </trkpt>
      <trkpt lat="66.77631" lon="13.53601">
        <ele>6.295641</ele>
        <time>2020-07-15T23:10:01.463Z</time>
      </trkpt>
      <trkpt lat="66.77652" lon="13.53584">
        <ele>6.884464</ele>
        <time>2020-07-15T23:10:07.151Z</time>
      </trkpt>
      <trkpt lat="66.77659" lon="13.53582">
        <ele>7.058348</ele>
        <time>2020-07-15T23:10:09.017Z</time>
      </trkpt>
      <trkpt lat="66.77667" lon="13.53579">
        <ele>7.278469</ele>
        <time>2020-07-15T23:10:11.665Z</time>
      </trkpt>
      <trkpt lat="66.777" lon="13.5359">
        <ele>8.132725</ele>
        <time>2020-07-15T23:10:19.865Z</time>
      </trkpt>
      <trkpt lat="66.77719" lon="13.5361">
        <ele>8.599951</ele>
        <time>2020-07-15T23:10:24.927Z</time>
      </trkpt>
      <trkpt lat="66.77734" lon="13.53624">
        <ele>8.794011</ele>
        <time>2020-07-15T23:10:28.720Z</time>
      </trkpt>
      <trkpt lat="66.77747" lon="13.53635">
        <ele>8.966792</ele>
        <time>2020-07-15T23:10:31.994Z</time>
      </trkpt>
      <trkpt lat="66.77757" lon="13.53638">
        <ele>9.102875</ele>
        <time>2020-07-15T23:10:33.906Z</time>
      </trkpt>
      <trkpt lat="66.77777" lon="13.5363">
        <ele>9.355534</ele>
        <time>2020-07-15T23:10:38.572Z</time>
      </trkpt>
      <trkpt lat="66.77807" lon="13.53597">
        <ele>9.764327</ele>
        <time>2020-07-15T23:10:45.566Z</time>
      </trkpt>
      <trkpt lat="66.77866" lon="13.53521">
        <ele>10.601411</ele>
        <time>2020-07-15T23:10:58.797Z</time>
      </trkpt>
      <trkpt lat="66.77869" lon="13.53517">
        <ele>10.645</ele>
        <time>2020-07-15T23:10:59.520Z</time>
      </trkpt>
      <trkpt lat="66.77869" lon="13.53517">
        <ele>10.645</ele>
        <time>2020-07-15T23:10:59.523Z</time>
      </trkpt>
      <trkpt lat="66.77919" lon="13.53467">
        <ele>11.588238</ele>
        <time>2020-07-15T23:11:10.764Z</time>
      </trkpt>
      <trkpt lat="66.77964" lon="13.53426">
        <ele>12.472262</ele>
        <time>2020-07-15T23:11:21.765Z</time>
      </trkpt>
      <trkpt lat="66.78002" lon="13.53391">
        <ele>13.219666</ele>
        <time>2020-07-15T23:11:31.768Z</time>
      </trkpt>
      <trkpt lat="66.78039" lon="13.53357">
        <ele>13.959564</ele>
        <time>2020-07-15T23:11:42.216Z</time>
      </trkpt>
      <trkpt lat="66.78038" lon="13.53347">
        <ele>14.034055</ele>
        <time>2020-07-15T23:11:43.380Z</time>
      </trkpt>
      <trkpt lat="66.78046" lon="13.5334">
        <ele>14.196852</ele>
        <time>2020-07-15T23:11:46.404Z</time>
      </trkpt>
      <trkpt lat="66.78073" lon="13.53315">
        <ele>14.775514</ele>
        <time>2020-07-15T23:11:53.644Z</time>
      </trkpt>
      <trkpt lat="66.78075" lon="13.53313">
        <ele>14.813088</ele>
        <time>2020-07-15T23:11:54.443Z</time>
      </trkpt>
      <trkpt lat="66.7808" lon="13.53309">
        <ele>14.906042</ele>
        <time>2020-07-15T23:11:56.194Z</time>
      </trkpt>
      <trkpt lat="66.78285" lon="13.53141">
        <ele>18.015399</ele>
        <time>2020-07-15T23:12:45.916Z</time>
      </trkpt>
      <trkpt lat="66.78298" lon="13.53131">
        <ele>18.077055</ele>
        <time>2020-07-15T23:12:48.698Z</time>
      </trkpt>
      <trkpt lat="66.78304" lon="13.53126">
        <ele>18.106723</ele>
        <time>2020-07-15T23:12:50.006Z</time>
      </trkpt>
      <trkpt lat="66.78386" lon="13.53068">
        <ele>18.481412</ele>
        <time>2020-07-15T23:13:04.806Z</time>
      </trkpt>
      <trkpt lat="66.78386" lon="13.53073">
        <ele>18.436344</ele>
        <time>2020-07-15T23:13:05.185Z</time>
      </trkpt>
      <trkpt lat="66.78391" lon="13.5307">
        <ele>18.323093</ele>
        <time>2020-07-15T23:13:05.995Z</time>
      </trkpt>
      <trkpt lat="66.78392" lon="13.53078">
        <ele>18.240621</ele>
        <time>2020-07-15T23:13:06.784Z</time>
      </trkpt>
      <trkpt lat="66.78397" lon="13.53075">
        <ele>18.134038</ele>
        <time>2020-07-15T23:13:07.361Z</time>
      </trkpt>
      <trkpt lat="66.7848" lon="13.53009">
        <ele>16.116263</ele>
        <time>2020-07-15T23:13:19.418Z</time>
      </trkpt>
      <trkpt lat="66.78484" lon="13.53003">
        <ele>16.00384</ele>
        <time>2020-07-15T23:13:20.196Z</time>
      </trkpt>
      <trkpt lat="66.78485" lon="13.53001">
        <ele>15.968127</ele>
        <time>2020-07-15T23:13:20.429Z</time>
      </trkpt>
      <trkpt lat="66.78492" lon="13.52984">
        <ele>15.742945</ele>
        <time>2020-07-15T23:13:21.870Z</time>
      </trkpt>
      <trkpt lat="66.78494" lon="13.52978">
        <ele>15.677657</ele>
        <time>2020-07-15T23:13:22.319Z</time>
      </trkpt>
      <trkpt lat="66.78496" lon="13.5297">
        <ele>15.587213</ele>
        <time>2020-07-15T23:13:22.735Z</time>
      </trkpt>
      <trkpt lat="66.78512" lon="13.52881">
        <ele>14.695519</ele>
        <time>2020-07-15T23:13:27.867Z</time>
      </trkpt>
      <trkpt lat="66.78586" lon="13.52211">
        <ele>6.418765</ele>
        <time>2020-07-15T23:14:03.542Z</time>
      </trkpt>
      <trkpt lat="66.78589" lon="13.52183">
        <ele>6.125696</ele>
        <time>2020-07-15T23:14:05.327Z</time>
      </trkpt>
      <trkpt lat="66.78591" lon="13.52168">
        <ele>5.962371</ele>
        <time>2020-07-15T23:14:06.074Z</time>
      </trkpt>
      <trkpt lat="66.78639" lon="13.51869">
        <ele>3.520945</ele>
        <time>2020-07-15T23:14:24.363Z</time>
      </trkpt>
      <trkpt lat="66.78643" lon="13.51849">
        <ele>3.457453</ele>
        <time>2020-07-15T23:14:26.097Z</time>
      </trkpt>
      <trkpt lat="66.78647" lon="13.51827">
        <ele>3.389983</ele>
        <time>2020-07-15T23:14:27.317Z</time>
      </trkpt>
      <trkpt lat="66.78666" lon="13.51744">
        <ele>3.122233</ele>
        <time>2020-07-15T23:14:33.587Z</time>
      </trkpt>
      <trkpt lat="66.78688" lon="13.51678">
        <ele>2.880386</ele>
        <time>2020-07-15T23:14:39.541Z</time>
      </trkpt>
      <trkpt lat="66.7877" lon="13.515">
        <ele>2.505943</ele>
        <time>2020-07-15T23:14:59.090Z</time>
      </trkpt>
      <trkpt lat="66.78778" lon="13.51483">
        <ele>2.497762</ele>
        <time>2020-07-15T23:15:01.251Z</time>
      </trkpt>
      <trkpt lat="66.78786" lon="13.51466">
        <ele>2.490164</ele>
        <time>2020-07-15T23:15:02.973Z</time>
      </trkpt>
      <trkpt lat="66.78846" lon="13.51329">
        <ele>2.428218</ele>
        <time>2020-07-15T23:15:16.937Z</time>
      </trkpt>
      <trkpt lat="66.78869" lon="13.51247">
        <ele>2.597897</ele>
        <time>2020-07-15T23:15:23.348Z</time>
      </trkpt>
      <trkpt lat="66.78877" lon="13.51167">
        <ele>2.858901</ele>
        <time>2020-07-15T23:15:29.477Z</time>
      </trkpt>
      <trkpt lat="66.78879" lon="13.50984">
        <ele>3.437834</ele>
        <time>2020-07-15T23:15:43.192Z</time>
      </trkpt>
      <trkpt lat="66.78877" lon="13.50984">
        <ele>3.45706</ele>
        <time>2020-07-15T23:15:43.499Z</time>
      </trkpt>
      <trkpt lat="66.78877" lon="13.50977">
        <ele>3.479807</ele>
        <time>2020-07-15T23:15:44.109Z</time>
      </trkpt>
      <trkpt lat="66.78877" lon="13.50943">
        <ele>3.585625</ele>
        <time>2020-07-15T23:15:47.352Z</time>
      </trkpt>
      <trkpt lat="66.78886" lon="13.50818">
        <ele>4.643249</ele>
        <time>2020-07-15T23:15:59.765Z</time>
      </trkpt>
      <trkpt lat="66.78907" lon="13.50701">
        <ele>7.070071</ele>
        <time>2020-07-15T23:16:14.327Z</time>
      </trkpt>
      <trkpt lat="66.78929" lon="13.50633">
        <ele>8.767221</ele>
        <time>2020-07-15T23:16:26.120Z</time>
      </trkpt>
      <trkpt lat="66.78956" lon="13.50585">
        <ele>10.332609</ele>
        <time>2020-07-15T23:16:38.330Z</time>
      </trkpt>
      <trkpt lat="66.79007" lon="13.50539">
        <ele>13.077729</ele>
        <time>2020-07-15T23:17:00.217Z</time>
      </trkpt>
      <trkpt lat="66.7916" lon="13.50499">
        <ele>22.349475</ele>
        <time>2020-07-15T23:18:02.308Z</time>
      </trkpt>
      <trkpt lat="66.79177" lon="13.50488">
        <ele>23.362012</ele>
        <time>2020-07-15T23:18:08.180Z</time>
      </trkpt>
      <trkpt lat="66.79182" lon="13.50486">
        <ele>23.215734</ele>
        <time>2020-07-15T23:18:09.347Z</time>
      </trkpt>
      <trkpt lat="66.79261" lon="13.50442">
        <ele>20.878201</ele>
        <time>2020-07-15T23:18:23.494Z</time>
      </trkpt>
      <trkpt lat="66.79435" lon="13.50424">
        <ele>13.682323</ele>
        <time>2020-07-15T23:18:43.402Z</time>
      </trkpt>
      <trkpt lat="66.79496" lon="13.50396">
        <ele>10.174772</ele>
        <time>2020-07-15T23:18:50.593Z</time>
      </trkpt>
      <trkpt lat="66.79526" lon="13.50366">
        <ele>8.403221</ele>
        <time>2020-07-15T23:18:54.737Z</time>
      </trkpt>
      <trkpt lat="66.79546" lon="13.50349">
        <ele>8.61534</ele>
        <time>2020-07-15T23:18:58.379Z</time>
      </trkpt>
      <trkpt lat="66.79571" lon="13.50327">
        <ele>9.544097</ele>
        <time>2020-07-15T23:19:03.107Z</time>
      </trkpt>
      <trkpt lat="66.79594" lon="13.50322">
        <ele>10.319392</ele>
        <time>2020-07-15T23:19:06.685Z</time>
      </trkpt>
      <trkpt lat="66.79604" lon="13.50321">
        <ele>10.663097</ele>
        <time>2020-07-15T23:19:09.094Z</time>
      </trkpt>
      <trkpt lat="66.79616" lon="13.50326">
        <ele>11.083317</ele>
        <time>2020-07-15T23:19:13.132Z</time>
      </trkpt>
      <trkpt lat="66.79639" lon="13.50343">
        <ele>11.870678</ele>
        <time>2020-07-15T23:19:18.573Z</time>
      </trkpt>
      <trkpt lat="66.79642" lon="13.50346">
        <ele>11.983078</ele>
        <time>2020-07-15T23:19:20.947Z</time>
      </trkpt>
      <trkpt lat="66.79801" lon="13.50503">
        <ele>23.337543</ele>
        <time>2020-07-15T23:20:37.892Z</time>
      </trkpt>
      <trkpt lat="66.79871" lon="13.50574">
        <ele>29.874671</ele>
        <time>2020-07-15T23:21:13.740Z</time>
      </trkpt>
      <trkpt lat="66.79929" lon="13.5063">
        <ele>34.099652</ele>
        <time>2020-07-15T23:21:41.520Z</time>
      </trkpt>
      <trkpt lat="66.80001" lon="13.507">
        <ele>39.358768</ele>
        <time>2020-07-15T23:22:12.965Z</time>
      </trkpt>
      <trkpt lat="66.80093" lon="13.50806">
        <ele>41.821118</ele>
        <time>2020-07-15T23:22:43.603Z</time>
      </trkpt>
      <trkpt lat="66.80138" lon="13.50905">
        <ele>41.538194</ele>
        <time>2020-07-15T23:22:53.237Z</time>
      </trkpt>
      <trkpt lat="66.80155" lon="13.50966">
        <ele>41.402418</ele>
        <time>2020-07-15T23:22:56.859Z</time>
      </trkpt>
      <trkpt lat="66.80161" lon="13.50987">
        <ele>41.354546</ele>
        <time>2020-07-15T23:22:58.250Z</time>
      </trkpt>
      <trkpt lat="66.80171" lon="13.51042">
        <ele>40.94223</ele>
        <time>2020-07-15T23:23:01.082Z</time>
      </trkpt>
      <trkpt lat="66.80181" lon="13.51108">
        <ele>39.102418</ele>
        <time>2020-07-15T23:23:04.412Z</time>
      </trkpt>
      <trkpt lat="66.80189" lon="13.51178">
        <ele>37.187719</ele>
        <time>2020-07-15T23:23:07.787Z</time>
      </trkpt>
      <trkpt lat="66.80196" lon="13.51237">
        <ele>35.568223</ele>
        <time>2020-07-15T23:23:10.554Z</time>
      </trkpt>
      <trkpt lat="66.80201" lon="13.51288">
        <ele>34.181273</ele>
        <time>2020-07-15T23:23:12.905Z</time>
      </trkpt>
      <trkpt lat="66.80203" lon="13.51369">
        <ele>32.05504</ele>
        <time>2020-07-15T23:23:16.516Z</time>
      </trkpt>
      <trkpt lat="66.80203" lon="13.514">
        <ele>31.241361</ele>
        <time>2020-07-15T23:23:17.834Z</time>
      </trkpt>
      <trkpt lat="66.80198" lon="13.51452">
        <ele>29.823734</ele>
        <time>2020-07-15T23:23:20.316Z</time>
      </trkpt>
      <trkpt lat="66.80188" lon="13.51523">
        <ele>28.72458</ele>
        <time>2020-07-15T23:23:23.675Z</time>
      </trkpt>
      <trkpt lat="66.80186" lon="13.51538">
        <ele>28.562878</ele>
        <time>2020-07-15T23:23:24.420Z</time>
      </trkpt>
      <trkpt lat="66.80182" lon="13.51567">
        <ele>28.267017</ele>
        <time>2020-07-15T23:23:25.753Z</time>
      </trkpt>
      <trkpt lat="66.80161" lon="13.51715">
        <ele>26.71049</ele>
        <time>2020-07-15T23:23:33.553Z</time>
      </trkpt>
      <trkpt lat="66.80111" lon="13.52074">
        <ele>27.158623</ele>
        <time>2020-07-15T23:24:07.878Z</time>
      </trkpt>
      <trkpt lat="66.80108" lon="13.52119">
        <ele>27.768342</ele>
        <time>2020-07-15T23:24:13.058Z</time>
      </trkpt>
      <trkpt lat="66.80106" lon="13.52154">
        <ele>28.242633</ele>
        <time>2020-07-15T23:24:16.702Z</time>
      </trkpt>
      <trkpt lat="66.80106" lon="13.52166">
        <ele>28.394532</ele>
        <time>2020-07-15T23:24:19.497Z</time>
      </trkpt>
      <trkpt lat="66.80115" lon="13.52281">
        <ele>29.961634</ele>
        <time>2020-07-15T23:24:34.626Z</time>
      </trkpt>
      <trkpt lat="66.8016" lon="13.52501">
        <ele>32.320973</ele>
        <time>2020-07-15T23:25:07.544Z</time>
      </trkpt>
      <trkpt lat="66.80164" lon="13.52541">
        <ele>32.655028</ele>
        <time>2020-07-15T23:25:11.453Z</time>
      </trkpt>
      <trkpt lat="66.80165" lon="13.52562">
        <ele>32.829458</ele>
        <time>2020-07-15T23:25:13.593Z</time>
      </trkpt>
      <trkpt lat="66.80156" lon="13.52699">
        <ele>33.970016</ele>
        <time>2020-07-15T23:25:25.593Z</time>
      </trkpt>
      <trkpt lat="66.80093" lon="13.53202">
        <ele>30.432594</ele>
        <time>2020-07-15T23:25:54.295Z</time>
      </trkpt>
      <trkpt lat="66.80091" lon="13.53229">
        <ele>30.396823</ele>
        <time>2020-07-15T23:25:55.583Z</time>
      </trkpt>
      <trkpt lat="66.8009" lon="13.53269">
        <ele>30.363545</ele>
        <time>2020-07-15T23:25:57.587Z</time>
      </trkpt>
      <trkpt lat="66.8009" lon="13.53304">
        <ele>30.334372</ele>
        <time>2020-07-15T23:25:59.564Z</time>
      </trkpt>
      <trkpt lat="66.80092" lon="13.5334">
        <ele>30.304354</ele>
        <time>2020-07-15T23:26:01.307Z</time>
      </trkpt>
      <trkpt lat="66.80094" lon="13.53366">
        <ele>30.282722</ele>
        <time>2020-07-15T23:26:02.715Z</time>
      </trkpt>
      <trkpt lat="66.80097" lon="13.53387">
        <ele>30.26382</ele>
        <time>2020-07-15T23:26:04.186Z</time>
      </trkpt>
      <trkpt lat="66.801" lon="13.53406">
        <ele>30.247088</ele>
        <time>2020-07-15T23:26:05.130Z</time>
      </trkpt>
      <trkpt lat="66.80109" lon="13.53481">
        <ele>30.181344</ele>
        <time>2020-07-15T23:26:10.256Z</time>
      </trkpt>
      <trkpt lat="66.80127" lon="13.53615">
        <ele>30.064649</ele>
        <time>2020-07-15T23:26:22.092Z</time>
      </trkpt>
      <trkpt lat="66.80146" lon="13.53753">
        <ele>34.051651</ele>
        <time>2020-07-15T23:26:43.650Z</time>
      </trkpt>
      <trkpt lat="66.80164" lon="13.53888">
        <ele>38.940765</ele>
        <time>2020-07-15T23:27:10.228Z</time>
      </trkpt>
      <trkpt lat="66.80185" lon="13.54042">
        <ele>44.555917</ele>
        <time>2020-07-15T23:27:45.612Z</time>
      </trkpt>
      <trkpt lat="66.80209" lon="13.54221">
        <ele>50.418348</ele>
        <time>2020-07-15T23:28:25.173Z</time>
      </trkpt>
      <trkpt lat="66.80223" lon="13.54316">
        <ele>53.487411</ele>
        <time>2020-07-15T23:28:43.025Z</time>
      </trkpt>
      <trkpt lat="66.80237" lon="13.54409">
        <ele>56.508079</ele>
        <time>2020-07-15T23:28:57.835Z</time>
      </trkpt>
      <trkpt lat="66.8025" lon="13.54471">
        <ele>58.634675</ele>
        <time>2020-07-15T23:29:06.649Z</time>
      </trkpt>
      <trkpt lat="66.80266" lon="13.5454">
        <ele>59.542995</ele>
        <time>2020-07-15T23:29:16.427Z</time>
      </trkpt>
      <trkpt lat="66.80287" lon="13.54624">
        <ele>59.462734</ele>
        <time>2020-07-15T23:29:26.534Z</time>
      </trkpt>
      <trkpt lat="66.803" lon="13.54697">
        <ele>59.397211</ele>
        <time>2020-07-15T23:29:32.117Z</time>
      </trkpt>
      <trkpt lat="66.80307" lon="13.5491">
        <ele>59.223628</ele>
        <time>2020-07-15T23:29:43.963Z</time>
      </trkpt>
      <trkpt lat="66.80404" lon="13.56179">
        <ele>35.532147</ele>
        <time>2020-07-15T23:30:45.689Z</time>
      </trkpt>
      <trkpt lat="66.80435" lon="13.56955">
        <ele>29.905342</ele>
        <time>2020-07-15T23:31:30.767Z</time>
      </trkpt>
      <trkpt lat="66.80447" lon="13.58144">
        <ele>25.606298</ele>
        <time>2020-07-15T23:32:46.411Z</time>
      </trkpt>
      <trkpt lat="66.80449" lon="13.58239">
        <ele>24.343079</ele>
        <time>2020-07-15T23:32:51.545Z</time>
      </trkpt>
      <trkpt lat="66.80451" lon="13.58277">
        <ele>23.836677</ele>
        <time>2020-07-15T23:32:53.629Z</time>
      </trkpt>
      <trkpt lat="66.80455" lon="13.58322">
        <ele>23.233902</ele>
        <time>2020-07-15T23:32:55.924Z</time>
      </trkpt>
      <trkpt lat="66.80464" lon="13.584">
        <ele>22.15028</ele>
        <time>2020-07-15T23:33:00.089Z</time>
      </trkpt>
      <trkpt lat="66.80477" lon="13.58461">
        <ele>21.2318</ele>
        <time>2020-07-15T23:33:03.559Z</time>
      </trkpt>
      <trkpt lat="66.80586" lon="13.58791">
        <ele>11.933906</ele>
        <time>2020-07-15T23:33:23.436Z</time>
      </trkpt>
      <trkpt lat="66.80608" lon="13.58861">
        <ele>9.85018</ele>
        <time>2020-07-15T23:33:27.546Z</time>
      </trkpt>
      <trkpt lat="66.80613" lon="13.58872">
        <ele>9.467564</ele>
        <time>2020-07-15T23:33:28.356Z</time>
      </trkpt>
      <trkpt lat="66.80624" lon="13.58895">
        <ele>8.877139</ele>
        <time>2020-07-15T23:33:30.059Z</time>
      </trkpt>
      <trkpt lat="66.80638" lon="13.58904">
        <ele>8.265333</ele>
        <time>2020-07-15T23:33:31.834Z</time>
      </trkpt>
      <trkpt lat="66.8065" lon="13.58897">
        <ele>7.775103</ele>
        <time>2020-07-15T23:33:33.221Z</time>
      </trkpt>
      <trkpt lat="66.80669" lon="13.5887">
        <ele>6.884252</ele>
        <time>2020-07-15T23:33:35.823Z</time>
      </trkpt>
      <trkpt lat="66.80701" lon="13.58848">
        <ele>5.479566</ele>
        <time>2020-07-15T23:33:40.526Z</time>
      </trkpt>
      <trkpt lat="66.80735" lon="13.58847">
        <ele>4.053362</ele>
        <time>2020-07-15T23:33:45.313Z</time>
      </trkpt>
      <trkpt lat="66.80787" lon="13.58902">
        <ele>2.006486</ele>
        <time>2020-07-15T23:33:53.072Z</time>
      </trkpt>
      <trkpt lat="66.80924" lon="13.59145">
        <ele>0.392011</ele>
        <time>2020-07-15T23:34:16.378Z</time>
      </trkpt>
      <trkpt lat="66.81333" lon="13.60177">
        <ele>0.011823</ele>
        <time>2020-07-15T23:35:36.753Z</time>
      </trkpt>
      <trkpt lat="66.81579" lon="13.60986">
        <time>2020-07-15T23:36:32.921Z</time>
      </trkpt>
      <trkpt lat="66.81877" lon="13.61887">
        <time>2020-07-15T23:37:37.586Z</time>
      </trkpt>
      <trkpt lat="66.82859" lon="13.65577">
        <time>2020-07-15T23:41:42.112Z</time>
      </trkpt>
      <trkpt lat="66.83176" lon="13.66494">
        <time>2020-07-15T23:42:49.097Z</time>
      </trkpt>
      <trkpt lat="66.83512" lon="13.67421">
        <time>2020-07-15T23:43:58.221Z</time>
      </trkpt>
      <trkpt lat="66.83791" lon="13.67924">
        <time>2020-07-15T23:44:45.943Z</time>
      </trkpt>
      <trkpt lat="66.83966" lon="13.68139">
        <time>2020-07-15T23:45:13.068Z</time>
      </trkpt>
      <trkpt lat="66.84147" lon="13.6834">
        <time>2020-07-15T23:45:40.652Z</time>
      </trkpt>
      <trkpt lat="66.84328" lon="13.68503">
        <time>2020-07-15T23:46:07.349Z</time>
      </trkpt>
      <trkpt lat="66.84532" lon="13.68655">
        <time>2020-07-15T23:46:37.044Z</time>
      </trkpt>
      <trkpt lat="66.84827" lon="13.68826">
        <time>2020-07-15T23:47:19.227Z</time>
      </trkpt>
      <trkpt lat="66.85152" lon="13.68987">
        <time>2020-07-15T23:48:05.380Z</time>
      </trkpt>
      <trkpt lat="66.8526" lon="13.69029">
        <time>2020-07-15T23:48:20.620Z</time>
      </trkpt>
      <trkpt lat="66.85496" lon="13.69153">
        <time>2020-07-15T23:48:54.162Z</time>
      </trkpt>
      <trkpt lat="66.85787" lon="13.69352">
        <time>2020-07-15T23:49:36.209Z</time>
      </trkpt>
      <trkpt lat="66.86087" lon="13.69627">
        <time>2020-07-15T23:50:20.691Z</time>
      </trkpt>
      <trkpt lat="66.86317" lon="13.69856">
        <time>2020-07-15T23:50:55.043Z</time>
      </trkpt>
      <trkpt lat="66.86564" lon="13.70085">
        <time>2020-07-15T23:51:31.718Z</time>
      </trkpt>
      <trkpt lat="66.86667" lon="13.70289">
        <time>2020-07-15T23:51:49.935Z</time>
      </trkpt>
      <trkpt lat="66.86747" lon="13.70397">
        <ele>0.079397</ele>
        <time>2020-07-15T23:52:02.534Z</time>
      </trkpt>
      <trkpt lat="66.86763" lon="13.70415">
        <ele>0.095665</ele>
        <time>2020-07-15T23:52:05.708Z</time>
      </trkpt>
      <trkpt lat="66.86768" lon="13.70414">
        <ele>0.100088</ele>
        <time>2020-07-15T23:52:06.581Z</time>
      </trkpt>
      <trkpt lat="66.86771" lon="13.70413">
        <ele>0.103127</ele>
        <time>2020-07-15T23:52:07.174Z</time>
      </trkpt>
      <trkpt lat="66.86776" lon="13.70427">
        <ele>0.109747</ele>
        <time>2020-07-15T23:52:08.488Z</time>
      </trkpt>
      <trkpt lat="66.86797" lon="13.70434">
        <ele>0.129658</ele>
        <time>2020-07-15T23:52:12.473Z</time>
      </trkpt>
      <trkpt lat="66.86815" lon="13.70421">
        <ele>0.146212</ele>
        <time>2020-07-15T23:52:15.838Z</time>
      </trkpt>
      <trkpt lat="66.86821" lon="13.70407">
        <ele>0.153968</ele>
        <time>2020-07-15T23:52:17.400Z</time>
      </trkpt>
      <trkpt lat="66.86822" lon="13.70389">
        <ele>0.160446</ele>
        <time>2020-07-15T23:52:19.111Z</time>
      </trkpt>
      <trkpt lat="66.86825" lon="13.70373">
        <ele>0.168872</ele>
        <time>2020-07-15T23:52:20.800Z</time>
      </trkpt>
      <trkpt lat="66.86825" lon="13.70371">
        <ele>0.171158</ele>
        <time>2020-07-15T23:52:21.056Z</time>
      </trkpt>
      <trkpt lat="66.86829" lon="13.70358">
        <ele>0.184824</ele>
        <time>2020-07-15T23:52:22.304Z</time>
      </trkpt>
      <trkpt lat="66.86834" lon="13.7035">
        <ele>0.196836</ele>
        <time>2020-07-15T23:52:23.382Z</time>
      </trkpt>
      <trkpt lat="66.86844" lon="13.7035">
        <ele>0.220343</ele>
        <time>2020-07-15T23:52:25.484Z</time>
      </trkpt>
      <trkpt lat="66.86879" lon="13.70392">
        <ele>0.302944</ele>
        <time>2020-07-15T23:52:32.948Z</time>
      </trkpt>
      <trkpt lat="66.86888" lon="13.70408">
        <ele>0.325762</ele>
        <time>2020-07-15T23:52:35.022Z</time>
      </trkpt>
      <trkpt lat="66.86902" lon="13.7044">
        <ele>0.367576</ele>
        <time>2020-07-15T23:52:38.813Z</time>
      </trkpt>
      <trkpt lat="66.86921" lon="13.70478">
        <ele>0.418764</ele>
        <time>2020-07-15T23:52:43.434Z</time>
      </trkpt>
      <trkpt lat="66.86972" lon="13.70583">
        <ele>0.547961</ele>
        <time>2020-07-15T23:52:56.045Z</time>
      </trkpt>
      <trkpt lat="66.87026" lon="13.70634">
        <ele>0.470915</ele>
        <time>2020-07-15T23:53:06.603Z</time>
      </trkpt>
      <trkpt lat="66.87041" lon="13.70642">
        <ele>0.449951</ele>
        <time>2020-07-15T23:53:09.581Z</time>
      </trkpt>
      <trkpt lat="66.87052" lon="13.70647">
        <ele>0.434014</ele>
        <time>2020-07-15T23:53:11.494Z</time>
      </trkpt>
      <trkpt lat="66.87152" lon="13.70676">
        <ele>0.296691</ele>
        <time>2020-07-15T23:53:28.711Z</time>
      </trkpt>
      <trkpt lat="66.87151" lon="13.70692">
        <ele>0.286701</ele>
        <time>2020-07-15T23:53:29.676Z</time>
      </trkpt>
      <trkpt lat="66.8715" lon="13.70712">
        <ele>0.273888</ele>
        <time>2020-07-15T23:53:31.057Z</time>
      </trkpt>
      <trkpt lat="66.87159" lon="13.70718">
        <ele>0.258136</ele>
        <time>2020-07-15T23:53:32.781Z</time>
      </trkpt>
      <trkpt lat="66.87197" lon="13.70723">
        <ele>0.19788</ele>
        <time>2020-07-15T23:53:39.117Z</time>
      </trkpt>
      <trkpt lat="66.87233" lon="13.70705">
        <ele>0.138154</ele>
        <time>2020-07-15T23:53:45.545Z</time>
      </trkpt>
      <trkpt lat="66.8724" lon="13.70699">
        <ele>0.126305</ele>
        <time>2020-07-15T23:53:46.839Z</time>
      </trkpt>
      <trkpt lat="66.87253" lon="13.70688">
        <ele>0.103777</ele>
        <time>2020-07-15T23:53:49.221Z</time>
      </trkpt>
      <trkpt lat="66.87289" lon="13.7066">
        <ele>0.043991</ele>
        <time>2020-07-15T23:53:55.736Z</time>
      </trkpt>
      <trkpt lat="66.87306" lon="13.7067">
        <ele>0.020976</ele>
        <time>2020-07-15T23:53:58.891Z</time>
      </trkpt>
      <trkpt lat="66.87314" lon="13.70661">
        <ele>0.026947</ele>
        <time>2020-07-15T23:54:00.532Z</time>
      </trkpt>
      <trkpt lat="66.8732" lon="13.70654">
        <ele>0.031103</ele>
        <time>2020-07-15T23:54:01.683Z</time>
      </trkpt>
      <trkpt lat="66.87327" lon="13.70644">
        <ele>0.036175</ele>
        <time>2020-07-15T23:54:03.089Z</time>
      </trkpt>
      <trkpt lat="66.87335" lon="13.70608">
        <ele>0.046869</ele>
        <time>2020-07-15T23:54:06.043Z</time>
      </trkpt>
      <trkpt lat="66.8734" lon="13.70602">
        <ele>0.050077</ele>
        <time>2020-07-15T23:54:06.928Z</time>
      </trkpt>
      <trkpt lat="66.8735" lon="13.70589">
        <ele>0.057521</ele>
        <time>2020-07-15T23:54:08.993Z</time>
      </trkpt>
      <trkpt lat="66.87439" lon="13.70415">
        <ele>0.130336</ele>
        <time>2020-07-15T23:54:29.302Z</time>
      </trkpt>
      <trkpt lat="66.87532" lon="13.70301">
        <ele>0.283012</ele>
        <time>2020-07-15T23:54:48.492Z</time>
      </trkpt>
      <trkpt lat="66.8754" lon="13.7029">
        <ele>0.296495</ele>
        <time>2020-07-15T23:54:50.053Z</time>
      </trkpt>
      <trkpt lat="66.87581" lon="13.70218">
        <ele>0.373978</ele>
        <time>2020-07-15T23:54:59.209Z</time>
      </trkpt>
      <trkpt lat="66.87592" lon="13.70195">
        <ele>0.395787</ele>
        <time>2020-07-15T23:55:01.737Z</time>
      </trkpt>
      <trkpt lat="66.87595" lon="13.70176">
        <ele>0.408867</ele>
        <time>2020-07-15T23:55:03.234Z</time>
      </trkpt>
      <trkpt lat="66.87598" lon="13.70154">
        <ele>0.41393</ele>
        <time>2020-07-15T23:55:04.856Z</time>
      </trkpt>
      <trkpt lat="66.87615" lon="13.70071">
        <ele>0.401764</ele>
        <time>2020-07-15T23:55:11.538Z</time>
      </trkpt>
      <trkpt lat="66.87627" lon="13.6997">
        <ele>0.388237</ele>
        <time>2020-07-15T23:55:18.957Z</time>
      </trkpt>
      <trkpt lat="66.87628" lon="13.69834">
        <ele>0.37067</ele>
        <time>2020-07-15T23:55:28.381Z</time>
      </trkpt>
      <trkpt lat="66.87627" lon="13.69802">
        <ele>0.36663</ele>
        <time>2020-07-15T23:55:30.481Z</time>
      </trkpt>
      <trkpt lat="66.87624" lon="13.69689">
        <ele>0.352182</ele>
        <time>2020-07-15T23:55:38.195Z</time>
      </trkpt>
      <trkpt lat="66.87623" lon="13.69331">
        <ele>0.308047</ele>
        <time>2020-07-15T23:56:03.312Z</time>
      </trkpt>
      <trkpt lat="66.87629" lon="13.6923">
        <ele>0.291945</ele>
        <time>2020-07-15T23:56:10.499Z</time>
      </trkpt>
      <trkpt lat="66.87634" lon="13.6913">
        <ele>0.269986</ele>
        <time>2020-07-15T23:56:17.531Z</time>
      </trkpt>
      <trkpt lat="66.87644" lon="13.68952">
        <ele>0.230924</ele>
        <time>2020-07-15T23:56:30.004Z</time>
      </trkpt>
      <trkpt lat="66.87646" lon="13.68904">
        <ele>0.220195</ele>
        <time>2020-07-15T23:56:33.384Z</time>
      </trkpt>
      <trkpt lat="66.8765" lon="13.68776">
        <ele>0.20336</ele>
        <time>2020-07-15T23:56:42.177Z</time>
      </trkpt>
      <trkpt lat="66.87664" lon="13.68617">
        <ele>0.2178</ele>
        <time>2020-07-15T23:56:53.290Z</time>
      </trkpt>
      <trkpt lat="66.87681" lon="13.68543">
        <ele>0.225397</ele>
        <time>2020-07-15T23:56:59.209Z</time>
      </trkpt>
      <trkpt lat="66.8769" lon="13.68513">
        <ele>0.22884</ele>
        <time>2020-07-15T23:57:01.941Z</time>
      </trkpt>
      <trkpt lat="66.8773" lon="13.68437">
        <ele>0.240044</ele>
        <time>2020-07-15T23:57:10.969Z</time>
      </trkpt>
      <trkpt lat="66.87756" lon="13.68421">
        <ele>0.378409</ele>
        <time>2020-07-15T23:57:16.067Z</time>
      </trkpt>
      <trkpt lat="66.87792" lon="13.68386">
        <ele>0.608076</ele>
        <time>2020-07-15T23:57:23.825Z</time>
      </trkpt>
      <trkpt lat="66.87811" lon="13.68351">
        <ele>0.74285</ele>
        <time>2020-07-15T23:57:28.788Z</time>
      </trkpt>
      <trkpt lat="66.87831" lon="13.68324">
        <ele>0.874979</ele>
        <time>2020-07-15T23:57:33.762Z</time>
      </trkpt>
      <trkpt lat="66.87842" lon="13.68312">
        <ele>0.945565</ele>
        <time>2020-07-15T23:57:36.421Z</time>
      </trkpt>
      <trkpt lat="66.8787" lon="13.68289">
        <ele>1.121636</ele>
        <time>2020-07-15T23:57:42.664Z</time>
      </trkpt>
      <trkpt lat="66.87889" lon="13.68271">
        <ele>1.23621</ele>
        <time>2020-07-15T23:57:46.380Z</time>
      </trkpt>
      <trkpt lat="66.87937" lon="13.68214">
        <ele>1.265437</ele>
        <time>2020-07-15T23:57:56.947Z</time>
      </trkpt>
      <trkpt lat="66.87954" lon="13.68184">
        <ele>1.250914</ele>
        <time>2020-07-15T23:58:00.716Z</time>
      </trkpt>
      <trkpt lat="66.87962" lon="13.68162">
        <ele>1.242525</ele>
        <time>2020-07-15T23:58:03.146Z</time>
      </trkpt>
      <trkpt lat="66.87971" lon="13.68145">
        <ele>1.234625</ele>
        <time>2020-07-15T23:58:05.068Z</time>
      </trkpt>
      <trkpt lat="66.87979" lon="13.6811">
        <ele>1.223117</ele>
        <time>2020-07-15T23:58:08.185Z</time>
      </trkpt>
      <trkpt lat="66.8798" lon="13.68071">
        <ele>1.212323</ele>
        <time>2020-07-15T23:58:10.919Z</time>
      </trkpt>
      <trkpt lat="66.88005" lon="13.67993">
        <ele>1.184141</ele>
        <time>2020-07-15T23:58:17.741Z</time>
      </trkpt>
      <trkpt lat="66.88066" lon="13.67687">
        <ele>0.588813</ele>
        <time>2020-07-15T23:58:39.284Z</time>
      </trkpt>
      <trkpt lat="66.88132" lon="13.67452">
        <ele>0.191205</ele>
        <time>2020-07-15T23:58:58.744Z</time>
      </trkpt>
      <trkpt lat="66.88136" lon="13.67427">
        <ele>0.179645</ele>
        <time>2020-07-15T23:59:00.550Z</time>
      </trkpt>
      <trkpt lat="66.88142" lon="13.67387">
        <ele>0.160477</ele>
        <time>2020-07-15T23:59:03.526Z</time>
      </trkpt>
      <trkpt lat="66.88156" lon="13.67201">
        <ele>0.076837</ele>
        <time>2020-07-15T23:59:16.668Z</time>
      </trkpt>
      <trkpt lat="66.88158" lon="13.67158">
        <ele>0.057532</ele>
        <time>2020-07-15T23:59:19.714Z</time>
      </trkpt>
      <trkpt lat="66.88162" lon="13.6704">
        <ele>0.063514</ele>
        <time>2020-07-15T23:59:27.988Z</time>
      </trkpt>
      <trkpt lat="66.88163" lon="13.66988">
        <ele>0.077808</ele>
        <time>2020-07-15T23:59:31.609Z</time>
      </trkpt>
      <trkpt lat="66.88163" lon="13.6698">
        <ele>0.079968</ele>
        <time>2020-07-15T23:59:32.158Z</time>
      </trkpt>
      <trkpt lat="66.88153" lon="13.66766">
        <ele>0.139679</ele>
        <time>2020-07-15T23:59:47.484Z</time>
      </trkpt>
      <trkpt lat="66.88157" lon="13.66609">
        <ele>0.184024</ele>
        <time>2020-07-15T23:59:58.973Z</time>
      </trkpt>
      <trkpt lat="66.88177" lon="13.66465">
        <ele>0.228121</ele>
        <time>2020-07-16T00:00:09.790Z</time>
      </trkpt>
      <trkpt lat="66.88213" lon="13.66341">
        <ele>0.272635</ele>
        <time>2020-07-16T00:00:20.613Z</time>
      </trkpt>
      <trkpt lat="66.88223" lon="13.66303">
        <ele>0.286132</ele>
        <time>2020-07-16T00:00:24.094Z</time>
      </trkpt>
      <trkpt lat="66.88234" lon="13.66264">
        <ele>0.299913</ele>
        <time>2020-07-16T00:00:27.331Z</time>
      </trkpt>
      <trkpt lat="66.88243" lon="13.66214">
        <ele>0.292567</ele>
        <time>2020-07-16T00:00:31.340Z</time>
      </trkpt>
      <trkpt lat="66.8825" lon="13.66167">
        <ele>0.285702</ele>
        <time>2020-07-16T00:00:34.753Z</time>
      </trkpt>
      <trkpt lat="66.88261" lon="13.66087">
        <ele>0.274158</ele>
        <time>2020-07-16T00:00:40.619Z</time>
      </trkpt>
      <trkpt lat="66.88266" lon="13.66041">
        <ele>0.267635</ele>
        <time>2020-07-16T00:00:44.067Z</time>
      </trkpt>
      <trkpt lat="66.88289" lon="13.65951">
        <ele>0.252915</ele>
        <time>2020-07-16T00:00:51.387Z</time>
      </trkpt>
      <trkpt lat="66.88301" lon="13.65906">
        <ele>0.245457</ele>
        <time>2020-07-16T00:00:55.104Z</time>
      </trkpt>
      <trkpt lat="66.88307" lon="13.65868">
        <ele>0.239786</ele>
        <time>2020-07-16T00:00:58.000Z</time>
      </trkpt>
      <trkpt lat="66.88328" lon="13.65719">
        <ele>0.648653</ele>
        <time>2020-07-16T00:01:09.542Z</time>
      </trkpt>
      <trkpt lat="66.88345" lon="13.6566">
        <ele>0.861783</ele>
        <time>2020-07-16T00:01:15.669Z</time>
      </trkpt>
      <trkpt lat="66.88378" lon="13.65613">
        <ele>1.144538</ele>
        <time>2020-07-16T00:01:23.857Z</time>
      </trkpt>
      <trkpt lat="66.88412" lon="13.65598">
        <ele>1.400225</ele>
        <time>2020-07-16T00:01:31.498Z</time>
      </trkpt>
      <trkpt lat="66.88441" lon="13.65592">
        <ele>1.645889</ele>
        <time>2020-07-16T00:01:38.195Z</time>
      </trkpt>
      <trkpt lat="66.88471" lon="13.65591">
        <ele>2.042437</ele>
        <time>2020-07-16T00:01:44.767Z</time>
      </trkpt>
      <trkpt lat="66.88478" lon="13.6559">
        <ele>2.135045</ele>
        <time>2020-07-16T00:01:46.873Z</time>
      </trkpt>
      <trkpt lat="66.88576" lon="13.65613">
        <ele>3.41301</ele>
        <time>2020-07-16T00:02:09.087Z</time>
      </trkpt>
      <trkpt lat="66.88613" lon="13.65609">
        <ele>3.897242</ele>
        <time>2020-07-16T00:02:17.338Z</time>
      </trkpt>
      <trkpt lat="66.88693" lon="13.65543">
        <ele>3.882146</ele>
        <time>2020-07-16T00:02:32.675Z</time>
      </trkpt>
      <trkpt lat="66.88734" lon="13.65489">
        <ele>3.858497</ele>
        <time>2020-07-16T00:02:40.127Z</time>
      </trkpt>
      <trkpt lat="66.88776" lon="13.65432">
        <ele>3.83365</ele>
        <time>2020-07-16T00:02:48.040Z</time>
      </trkpt>
      <trkpt lat="66.88797" lon="13.65402">
        <ele>3.725105</ele>
        <time>2020-07-16T00:02:52.305Z</time>
      </trkpt>
      <trkpt lat="66.88813" lon="13.65381">
        <ele>3.629806</ele>
        <time>2020-07-16T00:02:55.302Z</time>
      </trkpt>
      <trkpt lat="66.88829" lon="13.6536">
        <ele>3.537136</ele>
        <time>2020-07-16T00:02:58.453Z</time>
      </trkpt>
      <trkpt lat="66.88859" lon="13.65323">
        <ele>3.361428</ele>
        <time>2020-07-16T00:03:03.602Z</time>
      </trkpt>
      <trkpt lat="66.88862" lon="13.65318">
        <ele>3.338592</ele>
        <time>2020-07-16T00:03:04.436Z</time>
      </trkpt>
      <trkpt lat="66.88961" lon="13.65222">
        <ele>2.845782</ele>
        <time>2020-07-16T00:03:21.529Z</time>
      </trkpt>
      <trkpt lat="66.88967" lon="13.65217">
        <ele>2.834379</ele>
        <time>2020-07-16T00:03:22.406Z</time>
      </trkpt>
      <trkpt lat="66.8904" lon="13.65143">
        <ele>2.692047</ele>
        <time>2020-07-16T00:03:36.405Z</time>
      </trkpt>
      <trkpt lat="66.89072" lon="13.65116">
        <ele>2.63074</ele>
        <time>2020-07-16T00:03:42.301Z</time>
      </trkpt>
      <trkpt lat="66.89092" lon="13.65099">
        <ele>2.592876</ele>
        <time>2020-07-16T00:03:46.525Z</time>
      </trkpt>
      <trkpt lat="66.89138" lon="13.65084">
        <ele>2.510335</ele>
        <time>2020-07-16T00:03:54.134Z</time>
      </trkpt>
      <trkpt lat="66.89192" lon="13.65083">
        <ele>2.41317</ele>
        <time>2020-07-16T00:04:03.942Z</time>
      </trkpt>
      <trkpt lat="66.89224" lon="13.65082">
        <ele>2.356446</ele>
        <time>2020-07-16T00:04:09.485Z</time>
      </trkpt>
      <trkpt lat="66.89234" lon="13.65083">
        <ele>2.337655</ele>
        <time>2020-07-16T00:04:11.525Z</time>
      </trkpt>
      <trkpt lat="66.89321" lon="13.65086">
        <ele>1.997856</ele>
        <time>2020-07-16T00:04:26.115Z</time>
      </trkpt>
      <trkpt lat="66.89349" lon="13.65086">
        <ele>1.764718</ele>
        <time>2020-07-16T00:04:30.491Z</time>
      </trkpt>
      <trkpt lat="66.89374" lon="13.65081">
        <ele>1.550301</ele>
        <time>2020-07-16T00:04:34.432Z</time>
      </trkpt>
      <trkpt lat="66.89395" lon="13.65074">
        <ele>1.374373</ele>
        <time>2020-07-16T00:04:37.598Z</time>
      </trkpt>
      <trkpt lat="66.89428" lon="13.65062">
        <ele>1.090481</ele>
        <time>2020-07-16T00:04:42.730Z</time>
      </trkpt>
      <trkpt lat="66.89491" lon="13.65029">
        <ele>0.642465</ele>
        <time>2020-07-16T00:04:52.753Z</time>
      </trkpt>
      <trkpt lat="66.89504" lon="13.65022">
        <ele>0.595605</ele>
        <time>2020-07-16T00:04:54.768Z</time>
      </trkpt>
      <trkpt lat="66.8965" lon="13.64942">
        <ele>0.047338</ele>
        <time>2020-07-16T00:05:20.483Z</time>
      </trkpt>
      <trkpt lat="66.8974" lon="13.64894">
        <ele>0.026905</ele>
        <time>2020-07-16T00:05:36.874Z</time>
      </trkpt>
      <trkpt lat="66.8983" lon="13.64846">
        <ele>0.012371</ele>
        <time>2020-07-16T00:05:53.246Z</time>
      </trkpt>
      <trkpt lat="66.89845" lon="13.64839">
        <ele>0.022653</ele>
        <time>2020-07-16T00:05:56.014Z</time>
      </trkpt>
      <trkpt lat="66.90002" lon="13.64757">
        <ele>0.132385</ele>
        <time>2020-07-16T00:06:25.003Z</time>
      </trkpt>
      <trkpt lat="66.90054" lon="13.64741">
        <ele>0.23552</ele>
        <time>2020-07-16T00:06:34.552Z</time>
      </trkpt>
      <trkpt lat="66.90274" lon="13.64746">
        <ele>0.607718</ele>
        <time>2020-07-16T00:07:15.473Z</time>
      </trkpt>
      <trkpt lat="66.90309" lon="13.64733">
        <ele>0.654249</ele>
        <time>2020-07-16T00:07:22.023Z</time>
      </trkpt>
      <trkpt lat="66.90345" lon="13.64702">
        <ele>0.702883</ele>
        <time>2020-07-16T00:07:28.726Z</time>
      </trkpt>
      <trkpt lat="66.90365" lon="13.64678">
        <ele>0.696677</ele>
        <time>2020-07-16T00:07:32.648Z</time>
      </trkpt>
      <trkpt lat="66.90385" lon="13.64648">
        <ele>0.651225</ele>
        <time>2020-07-16T00:07:36.626Z</time>
      </trkpt>
      <trkpt lat="66.90393" lon="13.64636">
        <ele>0.63302</ele>
        <time>2020-07-16T00:07:38.190Z</time>
      </trkpt>
      <trkpt lat="66.9045" lon="13.64553">
        <ele>0.502276</ele>
        <time>2020-07-16T00:07:49.496Z</time>
      </trkpt>
      <trkpt lat="66.90501" lon="13.64476">
        <ele>0.384057</ele>
        <time>2020-07-16T00:07:59.651Z</time>
      </trkpt>
      <trkpt lat="66.90536" lon="13.64419">
        <ele>0.326054</ele>
        <time>2020-07-16T00:08:06.882Z</time>
      </trkpt>
      <trkpt lat="66.90606" lon="13.64313">
        <ele>0.233682</ele>
        <time>2020-07-16T00:08:20.857Z</time>
      </trkpt>
      <trkpt lat="66.90662" lon="13.64229">
        <ele>0.160157</ele>
        <time>2020-07-16T00:08:32.345Z</time>
      </trkpt>
      <trkpt lat="66.907" lon="13.6417">
        <ele>0.232002</ele>
        <time>2020-07-16T00:08:40.514Z</time>
      </trkpt>
      <trkpt lat="66.90745" lon="13.64102">
        <ele>0.330037</ele>
        <time>2020-07-16T00:08:50.177Z</time>
      </trkpt>
      <trkpt lat="66.9076" lon="13.6408">
        <ele>0.361727</ele>
        <time>2020-07-16T00:08:53.314Z</time>
      </trkpt>
      <trkpt lat="66.90787" lon="13.64041">
        <ele>0.421392</ele>
        <time>2020-07-16T00:08:59.252Z</time>
      </trkpt>
      <trkpt lat="66.90797" lon="13.64025">
        <ele>0.442372</ele>
        <time>2020-07-16T00:09:01.346Z</time>
      </trkpt>
      <trkpt lat="66.90806" lon="13.64009">
        <ele>0.463229</ele>
        <time>2020-07-16T00:09:03.429Z</time>
      </trkpt>
      <trkpt lat="66.90803" lon="13.63997">
        <ele>0.473562</ele>
        <time>2020-07-16T00:09:04.535Z</time>
      </trkpt>
      <trkpt lat="66.90825" lon="13.63959">
        <ele>0.531183</ele>
        <time>2020-07-16T00:09:09.693Z</time>
      </trkpt>
      <trkpt lat="66.90843" lon="13.63935">
        <ele>0.578843</ele>
        <time>2020-07-16T00:09:13.631Z</time>
      </trkpt>
      <trkpt lat="66.90877" lon="13.63886">
        <ele>0.671264</ele>
        <time>2020-07-16T00:09:21.247Z</time>
      </trkpt>
      <trkpt lat="66.90917" lon="13.63824">
        <ele>0.782671</ele>
        <time>2020-07-16T00:09:30.352Z</time>
      </trkpt>
      <trkpt lat="66.90927" lon="13.63811">
        <ele>0.807598</ele>
        <time>2020-07-16T00:09:32.405Z</time>
      </trkpt>
      <trkpt lat="66.90941" lon="13.63788">
        <ele>0.846921</ele>
        <time>2020-07-16T00:09:35.591Z</time>
      </trkpt>
      <trkpt lat="66.90955" lon="13.63754">
        <ele>0.893911</ele>
        <time>2020-07-16T00:09:39.384Z</time>
      </trkpt>
      <trkpt lat="66.9098" lon="13.63687">
        <ele>0.930088</ele>
        <time>2020-07-16T00:09:46.192Z</time>
      </trkpt>
      <trkpt lat="66.90984" lon="13.63674">
        <ele>0.933</ele>
        <time>2020-07-16T00:09:47.412Z</time>
      </trkpt>
      <trkpt lat="66.90989" lon="13.63686">
        <ele>0.93611</ele>
        <time>2020-07-16T00:09:48.704Z</time>
      </trkpt>
      <trkpt lat="66.90996" lon="13.63661">
        <ele>0.941586</ele>
        <time>2020-07-16T00:09:50.877Z</time>
      </trkpt>
      <trkpt lat="66.91003" lon="13.63633">
        <ele>0.947401</ele>
        <time>2020-07-16T00:09:53.191Z</time>
      </trkpt>
      <trkpt lat="66.91023" lon="13.63559">
        <ele>0.963563</ele>
        <time>2020-07-16T00:09:59.590Z</time>
      </trkpt>
      <trkpt lat="66.91032" lon="13.63536">
        <ele>0.969135</ele>
        <time>2020-07-16T00:10:01.771Z</time>
      </trkpt>
      <trkpt lat="66.91047" lon="13.6349">
        <ele>0.97991</ele>
        <time>2020-07-16T00:10:06.029Z</time>
      </trkpt>
      <trkpt lat="66.91074" lon="13.6342">
        <ele>0.9974</ele>
        <time>2020-07-16T00:10:12.922Z</time>
      </trkpt>
      <trkpt lat="66.91128" lon="13.633">
        <ele>1.008841</ele>
        <time>2020-07-16T00:10:25.670Z</time>
      </trkpt>
      <trkpt lat="66.91171" lon="13.63206">
        <ele>1.016525</ele>
        <time>2020-07-16T00:10:35.928Z</time>
      </trkpt>
      <trkpt lat="66.91218" lon="13.63118">
        <ele>1.024571</ele>
        <time>2020-07-16T00:10:46.367Z</time>
      </trkpt>
      <trkpt lat="66.91296" lon="13.62997">
        <ele>1.06295</ele>
        <time>2020-07-16T00:11:02.775Z</time>
      </trkpt>
      <trkpt lat="66.91391" lon="13.62856">
        <ele>1.083957</ele>
        <time>2020-07-16T00:11:22.494Z</time>
      </trkpt>
      <trkpt lat="66.91477" lon="13.6273">
        <ele>1.010331</ele>
        <time>2020-07-16T00:11:40.073Z</time>
      </trkpt>
      <trkpt lat="66.91637" lon="13.62497">
        <ele>0.678232</ele>
        <time>2020-07-16T00:12:11.789Z</time>
      </trkpt>
      <trkpt lat="66.91832" lon="13.62209">
        <ele>0.168494</ele>
        <time>2020-07-16T00:12:50.390Z</time>
      </trkpt>
      <trkpt lat="66.91858" lon="13.62173">
        <ele>0.163664</ele>
        <time>2020-07-16T00:12:55.572Z</time>
      </trkpt>
      <trkpt lat="66.91898" lon="13.62129">
        <ele>0.194704</ele>
        <time>2020-07-16T00:13:03.302Z</time>
      </trkpt>
      <trkpt lat="66.91916" lon="13.62122">
        <ele>0.207164</ele>
        <time>2020-07-16T00:13:06.423Z</time>
      </trkpt>
      <trkpt lat="66.91942" lon="13.6212">
        <ele>0.225978</ele>
        <time>2020-07-16T00:13:11.210Z</time>
      </trkpt>
      <trkpt lat="66.91956" lon="13.62123">
        <ele>0.23541</ele>
        <time>2020-07-16T00:13:13.655Z</time>
      </trkpt>
      <trkpt lat="66.92026" lon="13.62169">
        <ele>0.420556</ele>
        <time>2020-07-16T00:13:27.167Z</time>
      </trkpt>
      <trkpt lat="66.9205" lon="13.62193">
        <ele>0.663631</ele>
        <time>2020-07-16T00:13:31.962Z</time>
      </trkpt>
      <trkpt lat="66.9212" lon="13.62275">
        <ele>1.398011</ele>
        <time>2020-07-16T00:13:47.552Z</time>
      </trkpt>
      <trkpt lat="66.92143" lon="13.62298">
        <ele>1.632826</ele>
        <time>2020-07-16T00:13:53.036Z</time>
      </trkpt>
      <trkpt lat="66.92157" lon="13.62307">
        <ele>1.777482</ele>
        <time>2020-07-16T00:13:56.403Z</time>
      </trkpt>
      <trkpt lat="66.92177" lon="13.62307">
        <ele>1.965228</ele>
        <time>2020-07-16T00:14:01.186Z</time>
      </trkpt>
      <trkpt lat="66.92184" lon="13.62306">
        <ele>2.074652</ele>
        <time>2020-07-16T00:14:02.856Z</time>
      </trkpt>
      <trkpt lat="66.92198" lon="13.62302">
        <ele>2.392797</ele>
        <time>2020-07-16T00:14:06.349Z</time>
      </trkpt>
      <trkpt lat="66.92224" lon="13.62293">
        <ele>2.966198</ele>
        <time>2020-07-16T00:14:13.241Z</time>
      </trkpt>
      <trkpt lat="66.92269" lon="13.62265">
        <ele>3.958024</ele>
        <time>2020-07-16T00:14:24.830Z</time>
      </trkpt>
      <trkpt lat="66.92287" lon="13.62251">
        <ele>4.374576</ele>
        <time>2020-07-16T00:14:30.041Z</time>
      </trkpt>
      <trkpt lat="66.92336" lon="13.6221">
        <ele>5.482418</ele>
        <time>2020-07-16T00:14:43.313Z</time>
      </trkpt>
      <trkpt lat="66.92436" lon="13.62098">
        <ele>7.30668</ele>
        <time>2020-07-16T00:15:11.312Z</time>
      </trkpt>
      <trkpt lat="66.92474" lon="13.62044">
        <ele>8.000734</ele>
        <time>2020-07-16T00:15:21.417Z</time>
      </trkpt>
      <trkpt lat="66.92482" lon="13.62032">
        <ele>8.136085</ele>
        <time>2020-07-16T00:15:23.275Z</time>
      </trkpt>
      <trkpt lat="66.92508" lon="13.61991">
        <ele>8.623825</ele>
        <time>2020-07-16T00:15:29.918Z</time>
      </trkpt>
      <trkpt lat="66.92525" lon="13.61966">
        <ele>8.640314</ele>
        <time>2020-07-16T00:15:33.779Z</time>
      </trkpt>
      <trkpt lat="66.92559" lon="13.61913">
        <ele>8.428839</ele>
        <time>2020-07-16T00:15:41.813Z</time>
      </trkpt>
      <trkpt lat="66.92635" lon="13.61789">
        <ele>7.950411</ele>
        <time>2020-07-16T00:15:57.143Z</time>
      </trkpt>
      <trkpt lat="66.92691" lon="13.61703">
        <ele>7.080147</ele>
        <time>2020-07-16T00:16:06.960Z</time>
      </trkpt>
      <trkpt lat="66.92784" lon="13.61552">
        <ele>4.477252</ele>
        <time>2020-07-16T00:16:22.749Z</time>
      </trkpt>
      <trkpt lat="66.92862" lon="13.61425">
        <ele>2.679295</ele>
        <time>2020-07-16T00:16:35.811Z</time>
      </trkpt>
      <trkpt lat="66.92884" lon="13.61385">
        <ele>2.233751</ele>
        <time>2020-07-16T00:16:39.829Z</time>
      </trkpt>
      <trkpt lat="66.92918" lon="13.61333">
        <ele>1.587723</ele>
        <time>2020-07-16T00:16:45.879Z</time>
      </trkpt>
      <trkpt lat="66.92928" lon="13.6132">
        <ele>1.403836</ele>
        <time>2020-07-16T00:16:47.652Z</time>
      </trkpt>
      <trkpt lat="66.93002" lon="13.61196">
        <ele>0.548179</ele>
        <time>2020-07-16T00:17:02.527Z</time>
      </trkpt>
      <trkpt lat="66.93544" lon="13.60327">
        <ele>0.122003</ele>
        <time>2020-07-16T00:18:56.451Z</time>
      </trkpt>
      <trkpt lat="66.93735" lon="13.60023">
        <ele>0.184233</ele>
        <time>2020-07-16T00:19:36.845Z</time>
      </trkpt>
      <trkpt lat="66.94155" lon="13.59337">
        <ele>0.260628</ele>
        <time>2020-07-16T00:21:05.671Z</time>
      </trkpt>
      <trkpt lat="66.94212" lon="13.59259">
        <ele>0.819115</ele>
        <time>2020-07-16T00:21:17.505Z</time>
      </trkpt>
      <trkpt lat="66.94311" lon="13.59169">
        <ele>2.769678</ele>
        <time>2020-07-16T00:21:40.772Z</time>
      </trkpt>
      <trkpt lat="66.94359" lon="13.59157">
        <ele>3.711381</ele>
        <time>2020-07-16T00:21:53.849Z</time>
      </trkpt>
      <trkpt lat="66.94395" lon="13.59162">
        <ele>5.655927</ele>
        <time>2020-07-16T00:22:06.379Z</time>
      </trkpt>
      <trkpt lat="66.94426" lon="13.59176">
        <ele>7.394055</ele>
        <time>2020-07-16T00:22:18.094Z</time>
      </trkpt>
      <trkpt lat="66.94474" lon="13.59218">
        <ele>10.157666</ele>
        <time>2020-07-16T00:22:37.089Z</time>
      </trkpt>
      <trkpt lat="66.9449" lon="13.59237">
        <ele>11.131236</ele>
        <time>2020-07-16T00:22:44.474Z</time>
      </trkpt>
      <trkpt lat="66.94519" lon="13.59277">
        <ele>12.911141</ele>
        <time>2020-07-16T00:22:57.717Z</time>
      </trkpt>
      <trkpt lat="66.94915" lon="13.59985">
        <ele>32.144857</ele>
        <time>2020-07-16T00:25:30.106Z</time>
      </trkpt>
      <trkpt lat="66.94951" lon="13.6006">
        <ele>33.305297</ele>
        <time>2020-07-16T00:25:38.699Z</time>
      </trkpt>
      <trkpt lat="66.95015" lon="13.60237">
        <ele>32.073305</ele>
        <time>2020-07-16T00:25:52.925Z</time>
      </trkpt>
      <trkpt lat="66.95054" lon="13.60403">
        <ele>30.368558</ele>
        <time>2020-07-16T00:26:02.930Z</time>
      </trkpt>
      <trkpt lat="66.95128" lon="13.60797">
        <ele>25.039027</ele>
        <time>2020-07-16T00:26:24.917Z</time>
      </trkpt>
      <trkpt lat="66.95153" lon="13.60995">
        <ele>23.16868</ele>
        <time>2020-07-16T00:26:35.931Z</time>
      </trkpt>
      <trkpt lat="66.95158" lon="13.61089">
        <ele>22.636269</ele>
        <time>2020-07-16T00:26:41.214Z</time>
      </trkpt>
      <trkpt lat="66.95154" lon="13.61318">
        <ele>21.338711</ele>
        <time>2020-07-16T00:26:55.226Z</time>
      </trkpt>
      <trkpt lat="66.95101" lon="13.62328">
        <ele>22.773373</ele>
        <time>2020-07-16T00:28:08.816Z</time>
      </trkpt>
      <trkpt lat="66.95097" lon="13.6242">
        <ele>23.846571</ele>
        <time>2020-07-16T00:28:18.086Z</time>
      </trkpt>
      <trkpt lat="66.95092" lon="13.62505">
        <ele>24.833716</ele>
        <time>2020-07-16T00:28:27.634Z</time>
      </trkpt>
      <trkpt lat="66.95077" lon="13.62706">
        <ele>27.182238</ele>
        <time>2020-07-16T00:28:53.810Z</time>
      </trkpt>
      <trkpt lat="66.9504" lon="13.63113">
        <ele>32.08633</ele>
        <time>2020-07-16T00:29:42.470Z</time>
      </trkpt>
      <trkpt lat="66.95029" lon="13.63215">
        <ele>32.000869</ele>
        <time>2020-07-16T00:29:50.044Z</time>
      </trkpt>
      <trkpt lat="66.94993" lon="13.63575">
        <ele>28.847517</ele>
        <time>2020-07-16T00:30:09.473Z</time>
      </trkpt>
      <trkpt lat="66.9494" lon="13.64144">
        <ele>20.574059</ele>
        <time>2020-07-16T00:30:37.920Z</time>
      </trkpt>
      <trkpt lat="66.94934" lon="13.64321">
        <ele>19.503728</ele>
        <time>2020-07-16T00:30:46.854Z</time>
      </trkpt>
      <trkpt lat="66.94926" lon="13.64535">
        <ele>19.548168</ele>
        <time>2020-07-16T00:31:01.916Z</time>
      </trkpt>
      <trkpt lat="66.94908" lon="13.6513">
        <ele>41.285309</ele>
        <time>2020-07-16T00:32:53.950Z</time>
      </trkpt>
      <trkpt lat="66.94907" lon="13.65333">
        <ele>51.540143</ele>
        <time>2020-07-16T00:33:46.219Z</time>
      </trkpt>
      <trkpt lat="66.94941" lon="13.6604">
        <ele>88.506783</ele>
        <time>2020-07-16T00:36:55.678Z</time>
      </trkpt>
      <trkpt lat="66.94927" lon="13.66625">
        <ele>89.774487</ele>
        <time>2020-07-16T00:37:55.320Z</time>
      </trkpt>
      <trkpt lat="66.94925" lon="13.6729">
        <ele>45.34548</ele>
        <time>2020-07-16T00:38:21.765Z</time>
      </trkpt>
      <trkpt lat="66.9492" lon="13.67431">
        <ele>37.294159</ele>
        <time>2020-07-16T00:38:27.427Z</time>
      </trkpt>
      <trkpt lat="66.94918" lon="13.67467">
        <ele>35.199744</ele>
        <time>2020-07-16T00:38:28.888Z</time>
      </trkpt>
      <trkpt lat="66.94915" lon="13.67509">
        <ele>32.798134</ele>
        <time>2020-07-16T00:38:30.652Z</time>
      </trkpt>
      <trkpt lat="66.94911" lon="13.6754">
        <ele>30.952735</ele>
        <time>2020-07-16T00:38:31.958Z</time>
      </trkpt>
      <trkpt lat="66.94903" lon="13.67597">
        <ele>27.482356</ele>
        <time>2020-07-16T00:38:34.499Z</time>
      </trkpt>
      <trkpt lat="66.94794" lon="13.68122">
        <ele>13.556702</ele>
        <time>2020-07-16T00:39:03.355Z</time>
      </trkpt>
      <trkpt lat="66.94744" lon="13.68364">
        <ele>11.971172</ele>
        <time>2020-07-16T00:39:20.407Z</time>
      </trkpt>
      <trkpt lat="66.94719" lon="13.68479">
        <ele>11.211015</ele>
        <time>2020-07-16T00:39:28.458Z</time>
      </trkpt>
      <trkpt lat="66.94695" lon="13.68628">
        <ele>10.474472</ele>
        <time>2020-07-16T00:39:38.171Z</time>
      </trkpt>
      <trkpt lat="66.9469" lon="13.68658">
        <ele>10.336005</ele>
        <time>2020-07-16T00:39:40.102Z</time>
      </trkpt>
      <trkpt lat="66.94676" lon="13.6876">
        <ele>9.864642</ele>
        <time>2020-07-16T00:39:46.627Z</time>
      </trkpt>
      <trkpt lat="66.94663" lon="13.68869">
        <ele>9.365665</ele>
        <time>2020-07-16T00:39:53.362Z</time>
      </trkpt>
      <trkpt lat="66.94665" lon="13.68874">
        <ele>9.338099</ele>
        <time>2020-07-16T00:39:53.746Z</time>
      </trkpt>
      <trkpt lat="66.94669" lon="13.68884">
        <ele>9.279122</ele>
        <time>2020-07-16T00:39:54.510Z</time>
      </trkpt>
      <trkpt lat="66.94645" lon="13.69121">
        <ele>7.865363</ele>
        <time>2020-07-16T00:40:09.612Z</time>
      </trkpt>
      <trkpt lat="66.94641" lon="13.69141">
        <ele>7.720024</ele>
        <time>2020-07-16T00:40:11.003Z</time>
      </trkpt>
      <trkpt lat="66.94635" lon="13.69178">
        <ele>7.476785</ele>
        <time>2020-07-16T00:40:13.346Z</time>
      </trkpt>
      <trkpt lat="66.94613" lon="13.69375">
        <ele>6.236864</ele>
        <time>2020-07-16T00:40:25.507Z</time>
      </trkpt>
      <trkpt lat="66.94609" lon="13.69416">
        <ele>6.035219</ele>
        <time>2020-07-16T00:40:27.937Z</time>
      </trkpt>
      <trkpt lat="66.94605" lon="13.69453">
        <ele>5.851478</ele>
        <time>2020-07-16T00:40:30.275Z</time>
      </trkpt>
      <trkpt lat="66.946" lon="13.69493">
        <ele>5.655577</ele>
        <time>2020-07-16T00:40:32.671Z</time>
      </trkpt>
      <trkpt lat="66.94595" lon="13.69535">
        <ele>5.447162</ele>
        <time>2020-07-16T00:40:35.270Z</time>
      </trkpt>
      <trkpt lat="66.94593" lon="13.69555">
        <ele>5.34765</ele>
        <time>2020-07-16T00:40:36.592Z</time>
      </trkpt>
      <trkpt lat="66.94591" lon="13.6957">
        <ele>5.271926</ele>
        <time>2020-07-16T00:40:37.475Z</time>
      </trkpt>
      <trkpt lat="66.94478" lon="13.7056">
        <ele>0.863835</ele>
        <time>2020-07-16T00:41:42.670Z</time>
      </trkpt>
      <trkpt lat="66.94475" lon="13.70703">
        <ele>0.414555</ele>
        <time>2020-07-16T00:41:52.369Z</time>
      </trkpt>
      <trkpt lat="66.94487" lon="13.71313">
        <ele>0.052669</ele>
        <time>2020-07-16T00:42:35.962Z</time>
      </trkpt>
      <trkpt lat="66.94487" lon="13.71348">
        <ele>0.046557</ele>
        <time>2020-07-16T00:42:38.505Z</time>
      </trkpt>
      <trkpt lat="66.94487" lon="13.71352">
        <ele>0.045805</ele>
        <time>2020-07-16T00:42:38.822Z</time>
      </trkpt>
      <trkpt lat="66.9449" lon="13.71474">
        <ele>0.0245</ele>
        <time>2020-07-16T00:42:47.698Z</time>
      </trkpt>
      <trkpt lat="66.94492" lon="13.71488">
        <ele>0.021835</ele>
        <time>2020-07-16T00:42:48.814Z</time>
      </trkpt>
      <trkpt lat="66.94493" lon="13.71493">
        <ele>0.020941</ele>
        <time>2020-07-16T00:42:49.179Z</time>
      </trkpt>
      <trkpt lat="66.94494" lon="13.71498">
        <ele>0.019999</ele>
        <time>2020-07-16T00:42:49.568Z</time>
      </trkpt>
      <trkpt lat="66.94495" lon="13.71503">
        <ele>0.019105</ele>
        <time>2020-07-16T00:42:49.949Z</time>
      </trkpt>
      <trkpt lat="66.94492" lon="13.71603">
        <ele>0.001619</ele>
        <time>2020-07-16T00:42:57.236Z</time>
      </trkpt>
      <trkpt lat="66.94503" lon="13.72212">
        <ele>9.6</ele>
        <time>2020-07-16T00:43:41.668Z</time>
      </trkpt>
      <trkpt lat="66.94504" lon="13.72252">
        <ele>9.9</ele>
        <time>2020-07-16T00:43:44.582Z</time>
      </trkpt>
      <trkpt lat="66.94505" lon="13.72293">
        <ele>9.8</ele>
        <time>2020-07-16T00:43:47.600Z</time>
      </trkpt>
      <trkpt lat="66.9451" lon="13.72617">
        <ele>12</ele>
        <time>2020-07-16T00:44:11.198Z</time>
      </trkpt>
      <trkpt lat="66.9451" lon="13.72619">
        <ele>12</ele>
        <time>2020-07-16T00:44:11.370Z</time>
      </trkpt>
      <trkpt lat="66.94511" lon="13.72656">
        <ele>12</ele>
        <time>2020-07-16T00:44:14.095Z</time>
      </trkpt>
      <trkpt lat="66.94513" lon="13.72818">
        <ele>12.5</ele>
        <time>2020-07-16T00:44:25.905Z</time>
      </trkpt>
      <trkpt lat="66.94513" lon="13.72826">
        <ele>12.5</ele>
        <time>2020-07-16T00:44:26.465Z</time>
      </trkpt>
      <trkpt lat="66.94514" lon="13.7286">
        <ele>12</ele>
        <time>2020-07-16T00:44:28.940Z</time>
      </trkpt>
      <trkpt lat="66.94515" lon="13.72899">
        <ele>11.8</ele>
        <time>2020-07-16T00:44:31.807Z</time>
      </trkpt>
      <trkpt lat="66.94516" lon="13.72945">
        <ele>11.4</ele>
        <time>2020-07-16T00:44:35.146Z</time>
      </trkpt>
      <trkpt lat="66.94517" lon="13.72982">
        <ele>11.4</ele>
        <time>2020-07-16T00:44:37.826Z</time>
      </trkpt>
      <trkpt lat="66.94522" lon="13.73191">
        <ele>11</ele>
        <time>2020-07-16T00:44:53.092Z</time>
      </trkpt>
      <trkpt lat="66.94522" lon="13.73207">
        <ele>10.5</ele>
        <time>2020-07-16T00:44:54.261Z</time>
      </trkpt>
      <trkpt lat="66.94523" lon="13.73231">
        <ele>9.6</ele>
        <time>2020-07-16T00:44:56.005Z</time>
      </trkpt>
      <trkpt lat="66.94524" lon="13.73254">
        <ele>8.6</ele>
        <time>2020-07-16T00:44:57.695Z</time>
      </trkpt>
      <trkpt lat="66.94524" lon="13.7327">
        <ele>7.6</ele>
        <time>2020-07-16T00:44:58.881Z</time>
      </trkpt>
      <trkpt lat="66.94525" lon="13.73284">
        <ele>7.6</ele>
        <time>2020-07-16T00:44:59.925Z</time>
      </trkpt>
      <trkpt lat="66.94525" lon="13.7331">
        <ele>9.3</ele>
        <time>2020-07-16T00:45:01.776Z</time>
      </trkpt>
      <trkpt lat="66.94529" lon="13.73407">
        <ele>9.8</ele>
        <time>2020-07-16T00:45:08.912Z</time>
      </trkpt>
      <trkpt lat="66.94536" lon="13.73463">
        <ele>10.5</ele>
        <time>2020-07-16T00:45:13.174Z</time>
      </trkpt>
      <trkpt lat="66.94575" lon="13.73635">
        <ele>9</ele>
        <time>2020-07-16T00:45:27.609Z</time>
      </trkpt>
      <trkpt lat="66.94577" lon="13.73647">
        <ele>9</ele>
        <time>2020-07-16T00:45:28.538Z</time>
      </trkpt>
      <trkpt lat="66.94573" lon="13.73656">
        <ele>9</ele>
        <time>2020-07-16T00:45:29.472Z</time>
      </trkpt>
      <trkpt lat="66.94572" lon="13.73657">
        <ele>9</ele>
        <time>2020-07-16T00:45:29.620Z</time>
      </trkpt>
      <trkpt lat="66.94572" lon="13.73657">
        <ele>9</ele>
        <time>2020-07-16T00:45:29.742Z</time>
      </trkpt>
      <trkpt lat="66.94568" lon="13.73666">
        <ele>9</ele>
        <time>2020-07-16T00:45:30.653Z</time>
      </trkpt>
      <trkpt lat="66.94563" lon="13.73676">
        <ele>9.2</ele>
        <time>2020-07-16T00:45:31.841Z</time>
      </trkpt>
      <trkpt lat="66.94562" lon="13.73678">
        <ele>9.3</ele>
        <time>2020-07-16T00:45:32.199Z</time>
      </trkpt>
      <trkpt lat="66.94568" lon="13.73691">
        <ele>9.5</ele>
        <time>2020-07-16T00:45:33.645Z</time>
      </trkpt>
      <trkpt lat="66.94606" lon="13.73842">
        <ele>0.006636</ele>
        <time>2020-07-16T00:45:46.756Z</time>
      </trkpt>
      <trkpt lat="66.94612" lon="13.73867">
        <ele>0.016032</ele>
        <time>2020-07-16T00:45:48.913Z</time>
      </trkpt>
      <trkpt lat="66.94615" lon="13.73877">
        <ele>0.019626</ele>
        <time>2020-07-16T00:45:49.736Z</time>
      </trkpt>
      <trkpt lat="66.94656" lon="13.74046">
        <ele>0.082897</ele>
        <time>2020-07-16T00:46:04.281Z</time>
      </trkpt>
      <trkpt lat="66.94664" lon="13.74079">
        <ele>0.095187</ele>
        <time>2020-07-16T00:46:07.108Z</time>
      </trkpt>
      <trkpt lat="66.94672" lon="13.74113">
        <ele>0.107967</ele>
        <time>2020-07-16T00:46:10.039Z</time>
      </trkpt>
      <trkpt lat="66.94706" lon="13.7425">
        <ele>0.195085</ele>
        <time>2020-07-16T00:46:22.287Z</time>
      </trkpt>
      <trkpt lat="66.94709" lon="13.74265">
        <ele>0.215078</ele>
        <time>2020-07-16T00:46:23.556Z</time>
      </trkpt>
      <trkpt lat="66.94714" lon="13.74284">
        <ele>0.241377</ele>
        <time>2020-07-16T00:46:25.210Z</time>
      </trkpt>
      <trkpt lat="66.94748" lon="13.7442">
        <ele>0.429059</ele>
        <time>2020-07-16T00:46:37.687Z</time>
      </trkpt>
      <trkpt lat="66.94753" lon="13.74438">
        <ele>0.453196</ele>
        <time>2020-07-16T00:46:39.211Z</time>
      </trkpt>
      <trkpt lat="66.94757" lon="13.74455">
        <ele>0.476827</ele>
        <time>2020-07-16T00:46:40.718Z</time>
      </trkpt>
      <trkpt lat="66.9476" lon="13.7447">
        <ele>0.495354</ele>
        <time>2020-07-16T00:46:41.940Z</time>
      </trkpt>
      <trkpt lat="66.94761" lon="13.74473">
        <ele>0.500281</ele>
        <time>2020-07-16T00:46:42.428Z</time>
      </trkpt>
      <trkpt lat="66.94774" lon="13.74548">
        <ele>0.596305</ele>
        <time>2020-07-16T00:46:48.618Z</time>
      </trkpt>
      <trkpt lat="66.94779" lon="13.74558">
        <ele>0.613812</ele>
        <time>2020-07-16T00:46:49.980Z</time>
      </trkpt>
      <trkpt lat="66.9478" lon="13.74562">
        <ele>0.620122</ele>
        <time>2020-07-16T00:46:50.398Z</time>
      </trkpt>
      <trkpt lat="66.94845" lon="13.74817">
        <ele>1.184189</ele>
        <time>2020-07-16T00:47:14.244Z</time>
      </trkpt>
      <trkpt lat="66.94846" lon="13.74823">
        <ele>1.196699</ele>
        <time>2020-07-16T00:47:14.755Z</time>
      </trkpt>
      <trkpt lat="66.94849" lon="13.74834">
        <ele>1.225655</ele>
        <time>2020-07-16T00:47:15.877Z</time>
      </trkpt>
      <trkpt lat="66.94863" lon="13.74919">
        <ele>1.408702</ele>
        <time>2020-07-16T00:47:23.158Z</time>
      </trkpt>
      <trkpt lat="66.9487" lon="13.74932">
        <ele>1.45133</ele>
        <time>2020-07-16T00:47:24.778Z</time>
      </trkpt>
      <trkpt lat="66.94875" lon="13.74945">
        <ele>1.489083</ele>
        <time>2020-07-16T00:47:26.327Z</time>
      </trkpt>
      <trkpt lat="66.94899" lon="13.75039">
        <ele>1.803456</ele>
        <time>2020-07-16T00:47:35.187Z</time>
      </trkpt>
      <trkpt lat="66.94903" lon="13.75054">
        <ele>1.869036</ele>
        <time>2020-07-16T00:47:36.751Z</time>
      </trkpt>
      <trkpt lat="66.94907" lon="13.75073">
        <ele>1.947261</ele>
        <time>2020-07-16T00:47:38.537Z</time>
      </trkpt>
      <trkpt lat="66.94917" lon="13.75149">
        <ele>2.234707</ele>
        <time>2020-07-16T00:47:45.212Z</time>
      </trkpt>
      <trkpt lat="66.94927" lon="13.75167">
        <ele>2.343699</ele>
        <time>2020-07-16T00:47:47.737Z</time>
      </trkpt>
      <trkpt lat="66.94933" lon="13.75166">
        <ele>2.395868</ele>
        <time>2020-07-16T00:47:49.036Z</time>
      </trkpt>
      <trkpt lat="66.94938" lon="13.7516">
        <ele>2.451229</ele>
        <time>2020-07-16T00:47:50.567Z</time>
      </trkpt>
      <trkpt lat="66.94955" lon="13.75227">
        <ele>2.735745</ele>
        <time>2020-07-16T00:47:57.435Z</time>
      </trkpt>
      <trkpt lat="66.94959" lon="13.75245">
        <ele>2.810774</ele>
        <time>2020-07-16T00:47:59.226Z</time>
      </trkpt>
      <trkpt lat="66.94964" lon="13.75265">
        <ele>2.896338</ele>
        <time>2020-07-16T00:48:01.311Z</time>
      </trkpt>
      <trkpt lat="66.95004" lon="13.75432">
        <ele>3.953617</ele>
        <time>2020-07-16T00:48:18.305Z</time>
      </trkpt>
      <trkpt lat="66.95012" lon="13.75466">
        <ele>4.238184</ele>
        <time>2020-07-16T00:48:21.927Z</time>
      </trkpt>
      <trkpt lat="66.95021" lon="13.755">
        <ele>4.534546</ele>
        <time>2020-07-16T00:48:25.726Z</time>
      </trkpt>
      <trkpt lat="66.95034" lon="13.75556">
        <ele>5.000035</ele>
        <time>2020-07-16T00:48:31.854Z</time>
      </trkpt>
      <trkpt lat="66.95058" lon="13.75652">
        <ele>5.81895</ele>
        <time>2020-07-16T00:48:42.940Z</time>
      </trkpt>
      <trkpt lat="66.95088" lon="13.75773">
        <ele>7.16876</ele>
        <time>2020-07-16T00:48:57.847Z</time>
      </trkpt>
      <trkpt lat="66.95127" lon="13.75953">
        <ele>10.138991</ele>
        <time>2020-07-16T00:49:21.049Z</time>
      </trkpt>
      <trkpt lat="66.9517" lon="13.76245">
        <ele>15.475504</ele>
        <time>2020-07-16T00:50:01.439Z</time>
      </trkpt>
      <trkpt lat="66.95216" lon="13.76446">
        <ele>20.672816</ele>
        <time>2020-07-16T00:50:35.558Z</time>
      </trkpt>
      <trkpt lat="66.95238" lon="13.76518">
        <ele>22.701218</ele>
        <time>2020-07-16T00:50:49.309Z</time>
      </trkpt>
      <trkpt lat="66.95265" lon="13.76601">
        <ele>25.465877</ele>
        <time>2020-07-16T00:51:05.891Z</time>
      </trkpt>
      <trkpt lat="66.9535" lon="13.76849">
        <ele>34.494171</ele>
        <time>2020-07-16T00:51:59.827Z</time>
      </trkpt>
      <trkpt lat="66.95486" lon="13.77267">
        <ele>48.701066</ele>
        <time>2020-07-16T00:53:27.341Z</time>
      </trkpt>
      <trkpt lat="66.95681" lon="13.78068">
        <ele>64.514946</ele>
        <time>2020-07-16T00:55:24.048Z</time>
      </trkpt>
      <trkpt lat="66.9572" lon="13.78238">
        <ele>67.710592</ele>
        <time>2020-07-16T00:55:48.259Z</time>
      </trkpt>
      <trkpt lat="66.95764" lon="13.78601">
        <ele>73.582173</ele>
        <time>2020-07-16T00:56:36.600Z</time>
      </trkpt>
      <trkpt lat="66.95802" lon="13.78929">
        <ele>78.003143</ele>
        <time>2020-07-16T00:57:17.216Z</time>
      </trkpt>
      <trkpt lat="66.95855" lon="13.79438">
        <ele>78.731256</ele>
        <time>2020-07-16T00:58:23.479Z</time>
      </trkpt>
      <trkpt lat="66.95933" lon="13.80131">
        <ele>69.87538</ele>
        <time>2020-07-16T00:59:28.711Z</time>
      </trkpt>
      <trkpt lat="66.95952" lon="13.80335">
        <ele>67.191995</ele>
        <time>2020-07-16T00:59:48.033Z</time>
      </trkpt>
      <trkpt lat="66.9596" lon="13.80345">
        <ele>66.917034</ele>
        <time>2020-07-16T00:59:50.056Z</time>
      </trkpt>
      <trkpt lat="66.95963" lon="13.8041">
        <ele>66.133157</ele>
        <time>2020-07-16T00:59:53.834Z</time>
      </trkpt>
      <trkpt lat="66.95963" lon="13.80416">
        <ele>66.062955</ele>
        <time>2020-07-16T00:59:54.147Z</time>
      </trkpt>
      <trkpt lat="66.95964" lon="13.80434">
        <ele>65.849973</ele>
        <time>2020-07-16T00:59:55.066Z</time>
      </trkpt>
      <trkpt lat="66.95964" lon="13.80511">
        <ele>64.936832</ele>
        <time>2020-07-16T00:59:59.214Z</time>
      </trkpt>
      <trkpt lat="66.95957" lon="13.80802">
        <ele>61.837936</ele>
        <time>2020-07-16T01:00:14.280Z</time>
      </trkpt>
      <trkpt lat="66.95938" lon="13.8128">
        <ele>58.39662</ele>
        <time>2020-07-16T01:00:40.662Z</time>
      </trkpt>
      <trkpt lat="66.95925" lon="13.81617">
        <ele>57.210453</ele>
        <time>2020-07-16T01:01:05.320Z</time>
      </trkpt>
      <trkpt lat="66.95901" lon="13.8222">
        <ele>54.553862</ele>
        <time>2020-07-16T01:01:39.656Z</time>
      </trkpt>
      <trkpt lat="66.95889" lon="13.82483">
        <ele>54.224686</ele>
        <time>2020-07-16T01:01:54.765Z</time>
      </trkpt>
      <trkpt lat="66.95885" lon="13.82622">
        <ele>62.274233</ele>
        <time>2020-07-16T01:02:14.196Z</time>
      </trkpt>
      <trkpt lat="66.95881" lon="13.82769">
        <ele>70.749937</ele>
        <time>2020-07-16T01:02:50.733Z</time>
      </trkpt>
      <trkpt lat="66.9588" lon="13.82887">
        <ele>77.55361</ele>
        <time>2020-07-16T01:03:32.100Z</time>
      </trkpt>
      <trkpt lat="66.95883" lon="13.83092">
        <ele>98.48191</ele>
        <time>2020-07-16T01:04:46.792Z</time>
      </trkpt>
      <trkpt lat="66.95882" lon="13.83286">
        <ele>121.033479</ele>
        <time>2020-07-16T01:05:58.599Z</time>
      </trkpt>
      <trkpt lat="66.9586" lon="13.8364">
        <ele>146.621405</ele>
        <time>2020-07-16T01:08:07.923Z</time>
      </trkpt>
      <trkpt lat="66.95391" lon="13.89262">
        <ele>115.130216</ele>
        <time>2020-07-16T01:13:53.387Z</time>
      </trkpt>
      <trkpt lat="66.95376" lon="13.89401">
        <ele>97.028566</ele>
        <time>2020-07-16T01:13:59.465Z</time>
      </trkpt>
      <trkpt lat="66.95353" lon="13.89537">
        <ele>78.381123</ele>
        <time>2020-07-16T01:14:05.842Z</time>
      </trkpt>
      <trkpt lat="66.95318" lon="13.89683">
        <ele>57.51468</ele>
        <time>2020-07-16T01:14:13.245Z</time>
      </trkpt>
      <trkpt lat="66.95294" lon="13.89756">
        <ele>47.782355</ele>
        <time>2020-07-16T01:14:17.297Z</time>
      </trkpt>
      <trkpt lat="66.95278" lon="13.8981">
        <ele>40.754843</ele>
        <time>2020-07-16T01:14:20.188Z</time>
      </trkpt>
      <trkpt lat="66.95254" lon="13.89869">
        <ele>32.171825</ele>
        <time>2020-07-16T01:14:23.529Z</time>
      </trkpt>
      <trkpt lat="66.95223" lon="13.89935">
        <ele>21.589504</ele>
        <time>2020-07-16T01:14:27.639Z</time>
      </trkpt>
      <trkpt lat="66.95148" lon="13.9005">
        <ele>9.612526</ele>
        <time>2020-07-16T01:14:37.039Z</time>
      </trkpt>
      <trkpt lat="66.95131" lon="13.90068">
        <ele>8.454378</ele>
        <time>2020-07-16T01:14:39.153Z</time>
      </trkpt>
      <trkpt lat="66.95097" lon="13.90107">
        <ele>6.025566</ele>
        <time>2020-07-16T01:14:44.006Z</time>
      </trkpt>
      <trkpt lat="66.95003" lon="13.90194">
        <ele>1.476501</ele>
        <time>2020-07-16T01:14:57.615Z</time>
      </trkpt>
      <trkpt lat="66.94913" lon="13.90278">
        <ele>1.039921</ele>
        <time>2020-07-16T01:15:14.155Z</time>
      </trkpt>
      <trkpt lat="66.9486" lon="13.90325">
        <ele>0.86076</ele>
        <time>2020-07-16T01:15:24.975Z</time>
      </trkpt>
      <trkpt lat="66.94784" lon="13.9042">
        <ele>2.163175</ele>
        <time>2020-07-16T01:15:43.405Z</time>
      </trkpt>
      <trkpt lat="66.94735" lon="13.90546">
        <ele>3.2275</ele>
        <time>2020-07-16T01:16:00.477Z</time>
      </trkpt>
      <trkpt lat="66.9472" lon="13.90606">
        <ele>3.653038</ele>
        <time>2020-07-16T01:16:07.262Z</time>
      </trkpt>
      <trkpt lat="66.9471" lon="13.90674">
        <ele>4.099706</ele>
        <time>2020-07-16T01:16:14.281Z</time>
      </trkpt>
      <trkpt lat="66.94704" lon="13.90717">
        <ele>4.377012</ele>
        <time>2020-07-16T01:16:18.445Z</time>
      </trkpt>
      <trkpt lat="66.94699" lon="13.90758">
        <ele>4.644167</ele>
        <time>2020-07-16T01:16:22.576Z</time>
      </trkpt>
      <trkpt lat="66.94689" lon="13.90855">
        <ele>5.259647</ele>
        <time>2020-07-16T01:16:31.719Z</time>
      </trkpt>
      <trkpt lat="66.94668" lon="13.91074">
        <ele>6.404279</ele>
        <time>2020-07-16T01:16:51.146Z</time>
      </trkpt>
      <trkpt lat="66.94646" lon="13.91294">
        <ele>6.50262</ele>
        <time>2020-07-16T01:17:07.369Z</time>
      </trkpt>
      <trkpt lat="66.94639" lon="13.91373">
        <ele>6.53781</ele>
        <time>2020-07-16T01:17:12.771Z</time>
      </trkpt>
      <trkpt lat="66.94633" lon="13.91484">
        <ele>6.57898</ele>
        <time>2020-07-16T01:17:20.153Z</time>
      </trkpt>
      <trkpt lat="66.94631" lon="13.91561">
        <ele>6.429121</ele>
        <time>2020-07-16T01:17:25.107Z</time>
      </trkpt>
      <trkpt lat="66.94642" lon="13.91701">
        <ele>6.154197</ele>
        <time>2020-07-16T01:17:34.225Z</time>
      </trkpt>
      <trkpt lat="66.94642" lon="13.91707">
        <ele>6.142684</ele>
        <time>2020-07-16T01:17:34.583Z</time>
      </trkpt>
      <trkpt lat="66.9465" lon="13.91761">
        <ele>6.031163</ele>
        <time>2020-07-16T01:17:38.299Z</time>
      </trkpt>
      <trkpt lat="66.94669" lon="13.91854">
        <ele>5.82812</ele>
        <time>2020-07-16T01:17:45.125Z</time>
      </trkpt>
      <trkpt lat="66.94674" lon="13.91873">
        <ele>5.784389</ele>
        <time>2020-07-16T01:17:46.543Z</time>
      </trkpt>
      <trkpt lat="66.9469" lon="13.91929">
        <ele>5.676463</ele>
        <time>2020-07-16T01:17:51.026Z</time>
      </trkpt>
      <trkpt lat="66.94787" lon="13.92298">
        <ele>5.285084</ele>
        <time>2020-07-16T01:18:20.869Z</time>
      </trkpt>
      <trkpt lat="66.94823" lon="13.92462">
        <ele>5.310173</ele>
        <time>2020-07-16T01:18:34.422Z</time>
      </trkpt>
      <trkpt lat="66.94872" lon="13.92683">
        <ele>5.343924</ele>
        <time>2020-07-16T01:18:52.355Z</time>
      </trkpt>
      <trkpt lat="66.94896" lon="13.92789">
        <ele>5.150521</ele>
        <time>2020-07-16T01:19:00.869Z</time>
      </trkpt>
      <trkpt lat="66.94987" lon="13.93197">
        <ele>4.053274</ele>
        <time>2020-07-16T01:19:30.961Z</time>
      </trkpt>
      <trkpt lat="66.95073" lon="13.93578">
        <ele>2.247282</ele>
        <time>2020-07-16T01:19:56.910Z</time>
      </trkpt>
      <trkpt lat="66.95085" lon="13.93635">
        <ele>1.975067</ele>
        <time>2020-07-16T01:20:00.732Z</time>
      </trkpt>
      <trkpt lat="66.95133" lon="13.9385">
        <ele>0.939383</ele>
        <time>2020-07-16T01:20:15.693Z</time>
      </trkpt>
      <trkpt lat="66.95148" lon="13.93936">
        <ele>0.692943</ele>
        <time>2020-07-16T01:20:21.612Z</time>
      </trkpt>
      <trkpt lat="66.95174" lon="13.94162">
        <ele>0.368992</ele>
        <time>2020-07-16T01:20:36.952Z</time>
      </trkpt>
      <trkpt lat="66.95182" lon="13.94246">
        <ele>0.248792</ele>
        <time>2020-07-16T01:20:42.833Z</time>
      </trkpt>
      <trkpt lat="66.95185" lon="13.94279">
        <ele>0.201968</ele>
        <time>2020-07-16T01:20:45.148Z</time>
      </trkpt>
      <trkpt lat="66.95206" lon="13.94473">
        <ele>0.333721</ele>
        <time>2020-07-16T01:20:59.224Z</time>
      </trkpt>
      <trkpt lat="66.9524" lon="13.94594">
        <ele>0.534569</ele>
        <time>2020-07-16T01:21:10.132Z</time>
      </trkpt>
      <trkpt lat="66.95271" lon="13.94652">
        <ele>0.666089</ele>
        <time>2020-07-16T01:21:17.774Z</time>
      </trkpt>
      <trkpt lat="66.95333" lon="13.94757">
        <ele>1.172708</ele>
        <time>2020-07-16T01:21:33.381Z</time>
      </trkpt>
      <trkpt lat="66.95354" lon="13.94802">
        <ele>1.404072</ele>
        <time>2020-07-16T01:21:38.954Z</time>
      </trkpt>
      <trkpt lat="66.95366" lon="13.94838">
        <ele>1.557983</ele>
        <time>2020-07-16T01:21:42.565Z</time>
      </trkpt>
      <trkpt lat="66.9539" lon="13.94913">
        <ele>1.878247</ele>
        <time>2020-07-16T01:21:50.137Z</time>
      </trkpt>
      <trkpt lat="66.95416" lon="13.95007">
        <ele>2.254914</ele>
        <time>2020-07-16T01:21:59.389Z</time>
      </trkpt>
      <trkpt lat="66.95428" lon="13.95048">
        <ele>2.690918</ele>
        <time>2020-07-16T01:22:03.534Z</time>
      </trkpt>
      <trkpt lat="66.95464" lon="13.95149">
        <ele>3.878515</ele>
        <time>2020-07-16T01:22:15.481Z</time>
      </trkpt>
      <trkpt lat="66.95494" lon="13.95206">
        <ele>4.71835</ele>
        <time>2020-07-16T01:22:24.176Z</time>
      </trkpt>
      <trkpt lat="66.95597" lon="13.95359">
        <ele>9.085452</ele>
        <time>2020-07-16T01:22:58.629Z</time>
      </trkpt>
      <trkpt lat="66.95665" lon="13.95492">
        <ele>14.008664</ele>
        <time>2020-07-16T01:23:32.052Z</time>
      </trkpt>
      <trkpt lat="66.95705" lon="13.95576">
        <ele>16.938002</ele>
        <time>2020-07-16T01:23:52.879Z</time>
      </trkpt>
      <trkpt lat="66.95733" lon="13.95637">
        <ele>19.04718</ele>
        <time>2020-07-16T01:24:07.852Z</time>
      </trkpt>
      <trkpt lat="66.95856" lon="13.95906">
        <ele>27.561437</ele>
        <time>2020-07-16T01:25:04.833Z</time>
      </trkpt>
      <trkpt lat="66.95873" lon="13.95949">
        <ele>28.271247</ele>
        <time>2020-07-16T01:25:11.438Z</time>
      </trkpt>
      <trkpt lat="66.95916" lon="13.96076">
        <ele>30.227688</ele>
        <time>2020-07-16T01:25:28.729Z</time>
      </trkpt>
      <trkpt lat="66.95936" lon="13.96157">
        <ele>31.337193</ele>
        <time>2020-07-16T01:25:38.028Z</time>
      </trkpt>
      <trkpt lat="66.95964" lon="13.96335">
        <ele>32.72853</ele>
        <time>2020-07-16T01:25:55.751Z</time>
      </trkpt>
      <trkpt lat="66.95981" lon="13.9654">
        <ele>33.73146</ele>
        <time>2020-07-16T01:26:13.907Z</time>
      </trkpt>
      <trkpt lat="66.95988" lon="13.96644">
        <ele>34.239779</ele>
        <time>2020-07-16T01:26:22.283Z</time>
      </trkpt>
      <trkpt lat="66.95996" lon="13.96767">
        <ele>33.98102</ele>
        <time>2020-07-16T01:26:31.218Z</time>
      </trkpt>
      <trkpt lat="66.95999" lon="13.96818">
        <ele>33.796975</ele>
        <time>2020-07-16T01:26:34.800Z</time>
      </trkpt>
      <trkpt lat="66.96024" lon="13.97209">
        <ele>31.830246</ele>
        <time>2020-07-16T01:26:57.692Z</time>
      </trkpt>
      <trkpt lat="66.96034" lon="13.97351">
        <ele>30.415471</ele>
        <time>2020-07-16T01:27:05.296Z</time>
      </trkpt>
      <trkpt lat="66.96113" lon="13.98038">
        <ele>23.265948</ele>
        <time>2020-07-16T01:27:42.757Z</time>
      </trkpt>
      <trkpt lat="66.96123" lon="13.98129">
        <ele>22.843587</ele>
        <time>2020-07-16T01:27:48.216Z</time>
      </trkpt>
      <trkpt lat="66.96132" lon="13.98216">
        <ele>22.443337</ele>
        <time>2020-07-16T01:27:53.575Z</time>
      </trkpt>
      <trkpt lat="66.9614" lon="13.98287">
        <ele>22.112191</ele>
        <time>2020-07-16T01:27:58.184Z</time>
      </trkpt>
      <trkpt lat="66.96146" lon="13.98329">
        <ele>21.914136</ele>
        <time>2020-07-16T01:28:01.006Z</time>
      </trkpt>
      <trkpt lat="66.96161" lon="13.98467">
        <ele>21.318022</ele>
        <time>2020-07-16T01:28:10.506Z</time>
      </trkpt>
      <trkpt lat="66.96169" lon="13.98532">
        <ele>21.163428</ele>
        <time>2020-07-16T01:28:15.039Z</time>
      </trkpt>
      <trkpt lat="66.96198" lon="13.98782">
        <ele>20.569909</ele>
        <time>2020-07-16T01:28:31.863Z</time>
      </trkpt>
      <trkpt lat="66.96253" lon="13.99246">
        <ele>19.06823</ele>
        <time>2020-07-16T01:29:01.704Z</time>
      </trkpt>
      <trkpt lat="66.96299" lon="13.99494">
        <ele>18.257467</ele>
        <time>2020-07-16T01:29:18.471Z</time>
      </trkpt>
      <trkpt lat="66.9635" lon="13.99676">
        <ele>17.634496</ele>
        <time>2020-07-16T01:29:32.751Z</time>
      </trkpt>
      <trkpt lat="66.96382" lon="13.99819">
        <ele>16.944252</ele>
        <time>2020-07-16T01:29:43.502Z</time>
      </trkpt>
      <trkpt lat="66.964" lon="13.99971">
        <ele>16.186119</ele>
        <time>2020-07-16T01:29:53.218Z</time>
      </trkpt>
      <trkpt lat="66.96403" lon="14.00051">
        <ele>15.801639</ele>
        <time>2020-07-16T01:29:57.898Z</time>
      </trkpt>
      <trkpt lat="66.96404" lon="14.00126">
        <ele>15.444684</ele>
        <time>2020-07-16T01:30:02.117Z</time>
      </trkpt>
      <trkpt lat="66.96367" lon="14.00717">
        <ele>11.001868</ele>
        <time>2020-07-16T01:30:33.826Z</time>
      </trkpt>
      <trkpt lat="66.96362" lon="14.00776">
        <ele>11.071948</ele>
        <time>2020-07-16T01:30:37.548Z</time>
      </trkpt>
      <trkpt lat="66.96348" lon="14.00867">
        <ele>11.188535</ele>
        <time>2020-07-16T01:30:44.956Z</time>
      </trkpt>
      <trkpt lat="66.96331" lon="14.00933">
        <ele>11.281605</ele>
        <time>2020-07-16T01:30:51.986Z</time>
      </trkpt>
      <trkpt lat="66.963" lon="14.01011">
        <ele>11.41464</ele>
        <time>2020-07-16T01:31:03.502Z</time>
      </trkpt>
      <trkpt lat="66.9619" lon="14.01169">
        <ele>13.899075</ele>
        <time>2020-07-16T01:31:38.774Z</time>
      </trkpt>
      <trkpt lat="66.9618" lon="14.01198">
        <ele>14.195624</ele>
        <time>2020-07-16T01:31:42.262Z</time>
      </trkpt>
      <trkpt lat="66.9617" lon="14.01291">
        <ele>14.93908</ele>
        <time>2020-07-16T01:31:49.678Z</time>
      </trkpt>
      <trkpt lat="66.96178" lon="14.01361">
        <ele>14.097127</ele>
        <time>2020-07-16T01:31:54.107Z</time>
      </trkpt>
      <trkpt lat="66.96186" lon="14.01396">
        <ele>13.580194</ele>
        <time>2020-07-16T01:31:56.372Z</time>
      </trkpt>
      <trkpt lat="66.96209" lon="14.01445">
        <ele>12.604867</ele>
        <time>2020-07-16T01:32:00.166Z</time>
      </trkpt>
      <trkpt lat="66.96317" lon="14.01536">
        <ele>8.939747</ele>
        <time>2020-07-16T01:32:14.267Z</time>
      </trkpt>
      <trkpt lat="66.96344" lon="14.01554">
        <ele>8.104806</ele>
        <time>2020-07-16T01:32:17.591Z</time>
      </trkpt>
      <trkpt lat="66.96356" lon="14.01562">
        <ele>7.723372</ele>
        <time>2020-07-16T01:32:19.281Z</time>
      </trkpt>
      <trkpt lat="66.9639" lon="14.01584">
        <ele>6.654943</ele>
        <time>2020-07-16T01:32:23.732Z</time>
      </trkpt>
      <trkpt lat="66.96461" lon="14.0159">
        <ele>4.509823</ele>
        <time>2020-07-16T01:32:33.223Z</time>
      </trkpt>
      <trkpt lat="66.9652" lon="14.01567">
        <ele>3.573218</ele>
        <time>2020-07-16T01:32:42.366Z</time>
      </trkpt>
      <trkpt lat="66.96693" lon="14.0147">
        <ele>3.22883</ele>
        <time>2020-07-16T01:33:13.239Z</time>
      </trkpt>
      <trkpt lat="66.96717" lon="14.01467">
        <ele>3.457898</ele>
        <time>2020-07-16T01:33:18.146Z</time>
      </trkpt>
      <trkpt lat="66.96761" lon="14.01482">
        <ele>3.86268</ele>
        <time>2020-07-16T01:33:27.225Z</time>
      </trkpt>
      <trkpt lat="66.96879" lon="14.01581">
        <ele>5.60716</ele>
        <time>2020-07-16T01:33:55.361Z</time>
      </trkpt>
      <trkpt lat="66.96914" lon="14.01597">
        <ele>6.442418</ele>
        <time>2020-07-16T01:34:03.860Z</time>
      </trkpt>
      <trkpt lat="66.9693" lon="14.01596">
        <ele>6.801842</ele>
        <time>2020-07-16T01:34:08.176Z</time>
      </trkpt>
      <trkpt lat="66.96945" lon="14.01592">
        <ele>7.153985</ele>
        <time>2020-07-16T01:34:11.473Z</time>
      </trkpt>
      <trkpt lat="66.97044" lon="14.01542">
        <ele>9.992753</ele>
        <time>2020-07-16T01:34:39.228Z</time>
      </trkpt>
      <trkpt lat="66.97091" lon="14.01563">
        <ele>11.875923</ele>
        <time>2020-07-16T01:34:53.431Z</time>
      </trkpt>
      <trkpt lat="66.97243" lon="14.01687">
        <ele>17.295978</ele>
        <time>2020-07-16T01:35:44.838Z</time>
      </trkpt>
      <trkpt lat="66.97323" lon="14.01657">
        <ele>19.304968</ele>
        <time>2020-07-16T01:36:05.961Z</time>
      </trkpt>
      <trkpt lat="66.97364" lon="14.01662">
        <ele>20.306224</ele>
        <time>2020-07-16T01:36:14.315Z</time>
      </trkpt>
      <trkpt lat="66.97595" lon="14.01872">
        <ele>19.642139</ele>
        <time>2020-07-16T01:36:51.007Z</time>
      </trkpt>
      <trkpt lat="66.9762" lon="14.01905">
        <ele>20.117182</ele>
        <time>2020-07-16T01:36:56.433Z</time>
      </trkpt>
      <trkpt lat="66.97654" lon="14.0197">
        <ele>20.840707</ele>
        <time>2020-07-16T01:37:06.928Z</time>
      </trkpt>
      <trkpt lat="66.97678" lon="14.02048">
        <ele>21.496786</ele>
        <time>2020-07-16T01:37:19.505Z</time>
      </trkpt>
      <trkpt lat="66.97687" lon="14.02094">
        <ele>22.788338</ele>
        <time>2020-07-16T01:37:27.639Z</time>
      </trkpt>
      <trkpt lat="66.97701" lon="14.0223">
        <ele>27.190113</ele>
        <time>2020-07-16T01:37:50.827Z</time>
      </trkpt>
      <trkpt lat="66.97714" lon="14.02365">
        <ele>31.526369</ele>
        <time>2020-07-16T01:38:15.617Z</time>
      </trkpt>
      <trkpt lat="66.97726" lon="14.02474">
        <ele>35.078893</ele>
        <time>2020-07-16T01:38:36.870Z</time>
      </trkpt>
      <trkpt lat="66.97742" lon="14.02568">
        <ele>38.120869</ele>
        <time>2020-07-16T01:38:56.033Z</time>
      </trkpt>
      <trkpt lat="66.97768" lon="14.02671">
        <ele>41.707314</ele>
        <time>2020-07-16T01:39:18.808Z</time>
      </trkpt>
      <trkpt lat="66.9781" lon="14.02808">
        <ele>46.728745</ele>
        <time>2020-07-16T01:39:46.256Z</time>
      </trkpt>
      <trkpt lat="66.97861" lon="14.0298">
        <ele>50.908609</ele>
        <time>2020-07-16T01:40:14.602Z</time>
      </trkpt>
      <trkpt lat="66.97914" lon="14.03159">
        <ele>53.682064</ele>
        <time>2020-07-16T01:40:39.029Z</time>
      </trkpt>
      <trkpt lat="66.97954" lon="14.03276">
        <ele>54.995755</ele>
        <time>2020-07-16T01:40:52.855Z</time>
      </trkpt>
      <trkpt lat="66.98103" lon="14.03557">
        <ele>54.020891</ele>
        <time>2020-07-16T01:41:23.263Z</time>
      </trkpt>
      <trkpt lat="66.98154" lon="14.03641">
        <ele>52.420205</ele>
        <time>2020-07-16T01:41:31.753Z</time>
      </trkpt>
      <trkpt lat="66.98472" lon="14.03972">
        <ele>41.329605</ele>
        <time>2020-07-16T01:42:15.710Z</time>
      </trkpt>
      <trkpt lat="66.98501" lon="14.04014">
        <ele>40.331879</ele>
        <time>2020-07-16T01:42:19.851Z</time>
      </trkpt>
      <trkpt lat="66.98542" lon="14.041">
        <ele>38.741724</ele>
        <time>2020-07-16T01:42:26.944Z</time>
      </trkpt>
      <trkpt lat="66.98579" lon="14.04232">
        <ele>38.56142</ele>
        <time>2020-07-16T01:42:36.532Z</time>
      </trkpt>
      <trkpt lat="66.98591" lon="14.04287">
        <ele>38.949033</ele>
        <time>2020-07-16T01:42:40.705Z</time>
      </trkpt>
      <trkpt lat="66.98598" lon="14.0435">
        <ele>39.358375</ele>
        <time>2020-07-16T01:42:46.420Z</time>
      </trkpt>
      <trkpt lat="66.98613" lon="14.0457">
        <ele>40.747927</ele>
        <time>2020-07-16T01:43:10.424Z</time>
      </trkpt>
      <trkpt lat="66.98636" lon="14.05087">
        <ele>50.008336</ele>
        <time>2020-07-16T01:44:21.171Z</time>
      </trkpt>
      <trkpt lat="66.98655" lon="14.05248">
        <ele>51.564316</ele>
        <time>2020-07-16T01:44:38.974Z</time>
      </trkpt>
      <trkpt lat="66.98674" lon="14.0536">
        <ele>52.701091</ele>
        <time>2020-07-16T01:44:49.919Z</time>
      </trkpt>
      <trkpt lat="66.98753" lon="14.05779">
        <ele>55.72901</ele>
        <time>2020-07-16T01:45:26.699Z</time>
      </trkpt>
      <trkpt lat="66.98756" lon="14.05858">
        <ele>56.16484</ele>
        <time>2020-07-16T01:45:34.525Z</time>
      </trkpt>
      <trkpt lat="66.9875" lon="14.0594">
        <ele>57.253899</ele>
        <time>2020-07-16T01:45:43.474Z</time>
      </trkpt>
      <trkpt lat="66.98736" lon="14.06024">
        <ele>59.043073</ele>
        <time>2020-07-16T01:45:54.055Z</time>
      </trkpt>
      <trkpt lat="66.98693" lon="14.06134">
        <ele>62.05826</ele>
        <time>2020-07-16T01:46:13.725Z</time>
      </trkpt>
      <trkpt lat="66.98666" lon="14.06172">
        <ele>63.618694</ele>
        <time>2020-07-16T01:46:24.913Z</time>
      </trkpt>
      <trkpt lat="66.98565" lon="14.06259">
        <ele>73.92765</ele>
        <time>2020-07-16T01:47:10.648Z</time>
      </trkpt>
      <trkpt lat="66.98523" lon="14.06336">
        <ele>80.125684</ele>
        <time>2020-07-16T01:47:39.457Z</time>
      </trkpt>
      <trkpt lat="66.9849" lon="14.06435">
        <ele>86.258872</ele>
        <time>2020-07-16T01:48:14.144Z</time>
      </trkpt>
      <trkpt lat="66.98468" lon="14.0656">
        <ele>96.899553</ele>
        <time>2020-07-16T01:48:57.093Z</time>
      </trkpt>
      <trkpt lat="66.98452" lon="14.06729">
        <ele>111.057341</ele>
        <time>2020-07-16T01:49:58.572Z</time>
      </trkpt>
      <trkpt lat="66.98449" lon="14.06874">
        <ele>122.819799</ele>
        <time>2020-07-16T01:50:50.075Z</time>
      </trkpt>
      <trkpt lat="66.98453" lon="14.06943">
        <ele>127.140752</ele>
        <time>2020-07-16T01:51:13.967Z</time>
      </trkpt>
      <trkpt lat="66.98473" lon="14.07074">
        <ele>134.796717</ele>
        <time>2020-07-16T01:51:56.333Z</time>
      </trkpt>
      <trkpt lat="66.98504" lon="14.07157">
        <ele>141.038573</ele>
        <time>2020-07-16T01:52:24.129Z</time>
      </trkpt>
      <trkpt lat="66.98548" lon="14.07216">
        <ele>147.883415</ele>
        <time>2020-07-16T01:52:47.003Z</time>
      </trkpt>
      <trkpt lat="66.98653" lon="14.07312">
        <ele>153.569676</ele>
        <time>2020-07-16T01:53:18.849Z</time>
      </trkpt>
      <trkpt lat="66.98718" lon="14.07411">
        <ele>156.754369</ele>
        <time>2020-07-16T01:53:37.791Z</time>
      </trkpt>
      <trkpt lat="66.98926" lon="14.0792">
        <ele>178.703232</ele>
        <time>2020-07-16T01:55:40.508Z</time>
      </trkpt>
      <trkpt lat="66.98968" lon="14.08063">
        <ele>184.807668</ele>
        <time>2020-07-16T01:56:16.667Z</time>
      </trkpt>
      <trkpt lat="66.9901" lon="14.08234">
        <ele>188.585014</ele>
        <time>2020-07-16T01:56:53.642Z</time>
      </trkpt>
      <trkpt lat="66.9913" lon="14.08729">
        <ele>191.445414</ele>
        <time>2020-07-16T01:57:42.262Z</time>
      </trkpt>
      <trkpt lat="66.99138" lon="14.08769">
        <ele>191.160959</ele>
        <time>2020-07-16T01:57:44.205Z</time>
      </trkpt>
      <trkpt lat="66.99149" lon="14.08886">
        <ele>190.228115</ele>
        <time>2020-07-16T01:57:49.793Z</time>
      </trkpt>
      <trkpt lat="66.99153" lon="14.09124">
        <ele>186.220142</ele>
        <time>2020-07-16T01:58:00.473Z</time>
      </trkpt>
      <trkpt lat="66.99173" lon="14.09282">
        <ele>183.422034</ele>
        <time>2020-07-16T01:58:09.078Z</time>
      </trkpt>
      <trkpt lat="66.992" lon="14.09409">
        <ele>184.26268</ele>
        <time>2020-07-16T01:58:20.847Z</time>
      </trkpt>
      <trkpt lat="66.99206" lon="14.09442">
        <ele>184.812995</ele>
        <time>2020-07-16T01:58:24.161Z</time>
      </trkpt>
      <trkpt lat="66.99237" lon="14.09601">
        <ele>187.360719</ele>
        <time>2020-07-16T01:58:45.412Z</time>
      </trkpt>
      <trkpt lat="66.99247" lon="14.09661">
        <ele>188.315001</ele>
        <time>2020-07-16T01:58:55.212Z</time>
      </trkpt>
      <trkpt lat="66.9928" lon="14.09879">
        <ele>191.904143</ele>
        <time>2020-07-16T01:59:33.642Z</time>
      </trkpt>
      <trkpt lat="66.99292" lon="14.10013">
        <ele>194.074496</ele>
        <time>2020-07-16T01:59:53.833Z</time>
      </trkpt>
      <trkpt lat="66.99303" lon="14.10191">
        <ele>196.208007</ele>
        <time>2020-07-16T02:00:11.965Z</time>
      </trkpt>
      <trkpt lat="66.99256" lon="14.12452">
        <ele>125.190845</ele>
        <time>2020-07-16T02:01:51.375Z</time>
      </trkpt>
      <trkpt lat="66.99252" lon="14.12551">
        <ele>121.71495</ele>
        <time>2020-07-16T02:01:55.517Z</time>
      </trkpt>
      <trkpt lat="66.99241" lon="14.12638">
        <ele>118.561329</ele>
        <time>2020-07-16T02:01:59.316Z</time>
      </trkpt>
      <trkpt lat="66.99223" lon="14.12721">
        <ele>115.249458</ele>
        <time>2020-07-16T02:02:03.342Z</time>
      </trkpt>
      <trkpt lat="66.992" lon="14.12771">
        <ele>112.587326</ele>
        <time>2020-07-16T02:02:06.641Z</time>
      </trkpt>
      <trkpt lat="66.99164" lon="14.12823">
        <ele>108.948823</ele>
        <time>2020-07-16T02:02:11.210Z</time>
      </trkpt>
      <trkpt lat="66.99082" lon="14.12871">
        <ele>115.941633</ele>
        <time>2020-07-16T02:02:28.041Z</time>
      </trkpt>
      <trkpt lat="66.99053" lon="14.12901">
        <ele>118.976392</ele>
        <time>2020-07-16T02:02:42.084Z</time>
      </trkpt>
      <trkpt lat="66.99025" lon="14.12938">
        <ele>121.947363</ele>
        <time>2020-07-16T02:02:57.761Z</time>
      </trkpt>
      <trkpt lat="66.99" lon="14.1299">
        <ele>125.018783</ele>
        <time>2020-07-16T02:03:22.921Z</time>
      </trkpt>
      <trkpt lat="66.98988" lon="14.13024">
        <ele>130.385801</ele>
        <time>2020-07-16T02:03:39.282Z</time>
      </trkpt>
      <trkpt lat="66.98972" lon="14.1308">
        <ele>141.376316</ele>
        <time>2020-07-16T02:04:05.312Z</time>
      </trkpt>
      <trkpt lat="66.98952" lon="14.13167">
        <ele>157.425801</ele>
        <time>2020-07-16T02:04:43.147Z</time>
      </trkpt>
      <trkpt lat="66.98935" lon="14.13272">
        <ele>175.454511</ele>
        <time>2020-07-16T02:05:25.922Z</time>
      </trkpt>
      <trkpt lat="66.98926" lon="14.13318">
        <ele>183.59754</ele>
        <time>2020-07-16T02:05:45.760Z</time>
      </trkpt>
      <trkpt lat="66.98909" lon="14.13408">
        <ele>199.028304</ele>
        <time>2020-07-16T02:06:23.961Z</time>
      </trkpt>
      <trkpt lat="66.9888" lon="14.13501">
        <ele>210.753347</ele>
        <time>2020-07-16T02:07:09.277Z</time>
      </trkpt>
      <trkpt lat="66.98732" lon="14.13801">
        <ele>228.450474</ele>
        <time>2020-07-16T02:09:28.875Z</time>
      </trkpt>
      <trkpt lat="66.98418" lon="14.14461">
        <ele>118.621542</ele>
        <time>2020-07-16T02:10:13.007Z</time>
      </trkpt>
      <trkpt lat="66.98362" lon="14.14563">
        <ele>97.843798</ele>
        <time>2020-07-16T02:10:20.012Z</time>
      </trkpt>
      <trkpt lat="66.9831" lon="14.14642">
        <ele>85.084968</ele>
        <time>2020-07-16T02:10:26.167Z</time>
      </trkpt>
      <trkpt lat="66.98271" lon="14.14675">
        <ele>77.057706</ele>
        <time>2020-07-16T02:10:30.298Z</time>
      </trkpt>
      <trkpt lat="66.98226" lon="14.14691">
        <ele>67.867443</ele>
        <time>2020-07-16T02:10:35.023Z</time>
      </trkpt>
      <trkpt lat="66.98192" lon="14.1469">
        <ele>61.180954</ele>
        <time>2020-07-16T02:10:38.447Z</time>
      </trkpt>
      <trkpt lat="66.98154" lon="14.14672">
        <ele>53.843012</ele>
        <time>2020-07-16T02:10:42.448Z</time>
      </trkpt>
      <trkpt lat="66.98025" lon="14.14547">
        <ele>28.472396</ele>
        <time>2020-07-16T02:10:56.520Z</time>
      </trkpt>
      <trkpt lat="66.97978" lon="14.14535">
        <ele>22.600515</ele>
        <time>2020-07-16T02:11:01.440Z</time>
      </trkpt>
      <trkpt lat="66.97918" lon="14.14552">
        <ele>15.937796</ele>
        <time>2020-07-16T02:11:07.871Z</time>
      </trkpt>
      <trkpt lat="66.97877" lon="14.14588">
        <ele>11.236607</ele>
        <time>2020-07-16T02:11:12.594Z</time>
      </trkpt>
      <trkpt lat="66.9782" lon="14.14665">
        <ele>6.654157</ele>
        <time>2020-07-16T02:11:20.175Z</time>
      </trkpt>
      <trkpt lat="66.97639" lon="14.14945">
        <ele>10.082331</ele>
        <time>2020-07-16T02:11:56.737Z</time>
      </trkpt>
      <trkpt lat="66.9763" lon="14.14965">
        <ele>11.190459</ele>
        <time>2020-07-16T02:12:01.471Z</time>
      </trkpt>
      <trkpt lat="66.97622" lon="14.14983">
        <ele>12.231131</ele>
        <time>2020-07-16T02:12:07.051Z</time>
      </trkpt>
      <trkpt lat="66.97594" lon="14.15107">
        <ele>17.653467</ele>
        <time>2020-07-16T02:12:38.513Z</time>
      </trkpt>
      <trkpt lat="66.97587" lon="14.15153">
        <ele>19.499035</ele>
        <time>2020-07-16T02:12:52.346Z</time>
      </trkpt>
      <trkpt lat="66.97583" lon="14.15198">
        <ele>21.247258</ele>
        <time>2020-07-16T02:13:05.888Z</time>
      </trkpt>
      <trkpt lat="66.97583" lon="14.15278">
        <ele>26.354989</ele>
        <time>2020-07-16T02:13:33.057Z</time>
      </trkpt>
      <trkpt lat="66.97583" lon="14.15315">
        <ele>28.961075</ele>
        <time>2020-07-16T02:13:46.349Z</time>
      </trkpt>
      <trkpt lat="66.97585" lon="14.15355">
        <ele>31.854466</ele>
        <time>2020-07-16T02:14:00.904Z</time>
      </trkpt>
      <trkpt lat="66.97592" lon="14.15415">
        <ele>36.167513</ele>
        <time>2020-07-16T02:14:22.689Z</time>
      </trkpt>
      <trkpt lat="66.97598" lon="14.15454">
        <ele>39.185559</ele>
        <time>2020-07-16T02:14:35.741Z</time>
      </trkpt>
      <trkpt lat="66.97621" lon="14.15548">
        <ele>46.933209</ele>
        <time>2020-07-16T02:15:10.544Z</time>
      </trkpt>
      <trkpt lat="66.97636" lon="14.15589">
        <ele>50.90058</ele>
        <time>2020-07-16T02:15:24.895Z</time>
      </trkpt>
      <trkpt lat="66.97652" lon="14.15623">
        <ele>54.090583</ele>
        <time>2020-07-16T02:15:38.952Z</time>
      </trkpt>
      <trkpt lat="66.97672" lon="14.15657">
        <ele>54.013243</ele>
        <time>2020-07-16T02:15:51.072Z</time>
      </trkpt>
      <trkpt lat="66.97684" lon="14.15669">
        <ele>53.973158</ele>
        <time>2020-07-16T02:15:57.904Z</time>
      </trkpt>
      <trkpt lat="66.97699" lon="14.1568">
        <ele>53.925143</ele>
        <time>2020-07-16T02:16:02.221Z</time>
      </trkpt>
      <trkpt lat="66.97906" lon="14.15744">
        <ele>49.175977</ele>
        <time>2020-07-16T02:16:26.863Z</time>
      </trkpt>
      <trkpt lat="66.97982" lon="14.15796">
        <ele>45.125172</ele>
        <time>2020-07-16T02:16:35.972Z</time>
      </trkpt>
      <trkpt lat="66.98071" lon="14.15878">
        <ele>46.58295</ele>
        <time>2020-07-16T02:16:51.102Z</time>
      </trkpt>
      <trkpt lat="66.98142" lon="14.15958">
        <ele>48.947762</ele>
        <time>2020-07-16T02:17:18.895Z</time>
      </trkpt>
      <trkpt lat="66.98275" lon="14.16179">
        <ele>59.388168</ele>
        <time>2020-07-16T02:18:32.281Z</time>
      </trkpt>
      <trkpt lat="66.98313" lon="14.16225">
        <ele>62.485186</ele>
        <time>2020-07-16T02:18:48.983Z</time>
      </trkpt>
      <trkpt lat="66.98645" lon="14.16531">
        <ele>68.746495</ele>
        <time>2020-07-16T02:20:02.747Z</time>
      </trkpt>
      <trkpt lat="66.98869" lon="14.16846">
        <ele>85.053082</ele>
        <time>2020-07-16T02:21:37.591Z</time>
      </trkpt>
      <trkpt lat="66.99038" lon="14.17172">
        <ele>100.609156</ele>
        <time>2020-07-16T02:23:32.487Z</time>
      </trkpt>
      <trkpt lat="66.99073" lon="14.17255">
        <ele>102.972552</ele>
        <time>2020-07-16T02:23:44.368Z</time>
      </trkpt>
      <trkpt lat="66.99093" lon="14.17317">
        <ele>104.512232</ele>
        <time>2020-07-16T02:23:48.810Z</time>
      </trkpt>
      <trkpt lat="66.99114" lon="14.17387">
        <ele>100.602279</ele>
        <time>2020-07-16T02:23:52.812Z</time>
      </trkpt>
      <trkpt lat="66.99195" lon="14.17847">
        <ele>73.983246</ele>
        <time>2020-07-16T02:24:13.209Z</time>
      </trkpt>
      <trkpt lat="66.99276" lon="14.18128">
        <ele>56.3619</ele>
        <time>2020-07-16T02:24:27.603Z</time>
      </trkpt>
      <trkpt lat="66.99301" lon="14.18256">
        <ele>55.393509</ele>
        <time>2020-07-16T02:24:34.361Z</time>
      </trkpt>
      <trkpt lat="66.9931" lon="14.18361">
        <ele>54.665948</ele>
        <time>2020-07-16T02:24:40.695Z</time>
      </trkpt>
      <trkpt lat="66.99308" lon="14.18515">
        <ele>53.621908</ele>
        <time>2020-07-16T02:24:56.827Z</time>
      </trkpt>
      <trkpt lat="66.99282" lon="14.18879">
        <ele>55.739016</ele>
        <time>2020-07-16T02:25:41.529Z</time>
      </trkpt>
      <trkpt lat="66.99209" lon="14.19955">
        <ele>46.943392</ele>
        <time>2020-07-16T02:26:39.911Z</time>
      </trkpt>
      <trkpt lat="66.99194" lon="14.20202">
        <ele>41.772047</ele>
        <time>2020-07-16T02:26:51.662Z</time>
      </trkpt>
      <trkpt lat="66.99193" lon="14.20387">
        <ele>37.895425</ele>
        <time>2020-07-16T02:27:00.099Z</time>
      </trkpt>
      <trkpt lat="66.992" lon="14.20501">
        <ele>35.067899</ele>
        <time>2020-07-16T02:27:05.287Z</time>
      </trkpt>
      <trkpt lat="66.99227" lon="14.20785">
        <ele>27.881679</ele>
        <time>2020-07-16T02:27:18.604Z</time>
      </trkpt>
      <trkpt lat="66.99235" lon="14.21031">
        <ele>23.658328</ele>
        <time>2020-07-16T02:27:30.334Z</time>
      </trkpt>
      <trkpt lat="66.99222" lon="14.21295">
        <ele>19.522099</ele>
        <time>2020-07-16T02:27:43.954Z</time>
      </trkpt>
      <trkpt lat="66.99202" lon="14.21526">
        <ele>16.756789</ele>
        <time>2020-07-16T02:27:56.465Z</time>
      </trkpt>
      <trkpt lat="66.99195" lon="14.2168">
        <ele>14.932109</ele>
        <time>2020-07-16T02:28:04.347Z</time>
      </trkpt>
      <trkpt lat="66.992" lon="14.21791">
        <ele>13.906959</ele>
        <time>2020-07-16T02:28:10.075Z</time>
      </trkpt>
      <trkpt lat="66.99209" lon="14.21864">
        <ele>13.416502</ele>
        <time>2020-07-16T02:28:14.026Z</time>
      </trkpt>
      <trkpt lat="66.99221" lon="14.2193">
        <ele>12.944125</ele>
        <time>2020-07-16T02:28:17.858Z</time>
      </trkpt>
      <trkpt lat="66.99232" lon="14.21979">
        <ele>12.576686</ele>
        <time>2020-07-16T02:28:21.012Z</time>
      </trkpt>
      <trkpt lat="66.99239" lon="14.22002">
        <ele>12.381356</ele>
        <time>2020-07-16T02:28:22.644Z</time>
      </trkpt>
      <trkpt lat="66.99256" lon="14.22057">
        <ele>11.929506</ele>
        <time>2020-07-16T02:28:26.687Z</time>
      </trkpt>
      <trkpt lat="66.995" lon="14.22792">
        <ele>13.099752</ele>
        <time>2020-07-16T02:29:43.827Z</time>
      </trkpt>
      <trkpt lat="66.99821" lon="14.23919">
        <ele>5.380655</ele>
        <time>2020-07-16T02:31:04.073Z</time>
      </trkpt>
      <trkpt lat="66.99859" lon="14.24022">
        <ele>4.407122</ele>
        <time>2020-07-16T02:31:11.628Z</time>
      </trkpt>
      <trkpt lat="66.99909" lon="14.24107">
        <ele>3.323773</ele>
        <time>2020-07-16T02:31:20.093Z</time>
      </trkpt>
      <trkpt lat="66.9992" lon="14.24119">
        <ele>3.102466</ele>
        <time>2020-07-16T02:31:21.807Z</time>
      </trkpt>
      <trkpt lat="66.99947" lon="14.24144">
        <ele>2.592945</ele>
        <time>2020-07-16T02:31:25.858Z</time>
      </trkpt>
      <trkpt lat="66.99972" lon="14.24162">
        <ele>2.106783</ele>
        <time>2020-07-16T02:31:29.786Z</time>
      </trkpt>
      <trkpt lat="66.99979" lon="14.24165">
        <ele>1.980994</ele>
        <time>2020-07-16T02:31:30.788Z</time>
      </trkpt>
      <trkpt lat="66.99987" lon="14.2417">
        <ele>1.848583</ele>
        <time>2020-07-16T02:31:31.937Z</time>
      </trkpt>
      <trkpt lat="66.99995" lon="14.24174">
        <ele>1.796006</ele>
        <time>2020-07-16T02:31:33.115Z</time>
      </trkpt>
      <trkpt lat="67.00005" lon="14.24178">
        <ele>1.729842</ele>
        <time>2020-07-16T02:31:34.667Z</time>
      </trkpt>
      <trkpt lat="67.00029" lon="14.24181">
        <ele>1.569383</ele>
        <time>2020-07-16T02:31:38.432Z</time>
      </trkpt>
      <trkpt lat="67.00043" lon="14.2418">
        <ele>1.479084</ele>
        <time>2020-07-16T02:31:40.621Z</time>
      </trkpt>
      <trkpt lat="67.00058" lon="14.24176">
        <ele>1.382494</ele>
        <time>2020-07-16T02:31:42.972Z</time>
      </trkpt>
      <trkpt lat="67.00069" lon="14.24172">
        <ele>1.309591</ele>
        <time>2020-07-16T02:31:44.691Z</time>
      </trkpt>
      <trkpt lat="67.00119" lon="14.24137">
        <ele>0.967147</ele>
        <time>2020-07-16T02:31:53.511Z</time>
      </trkpt>
      <trkpt lat="67.00173" lon="14.24064">
        <ele>0.679802</ele>
        <time>2020-07-16T02:32:04.178Z</time>
      </trkpt>
      <trkpt lat="67.00371" lon="14.23615">
        <ele>1.706405</ele>
        <time>2020-07-16T02:32:51.846Z</time>
      </trkpt>
      <trkpt lat="67.00397" lon="14.23555">
        <ele>2.046603</ele>
        <time>2020-07-16T02:32:59.570Z</time>
      </trkpt>
      <trkpt lat="67.00437" lon="14.23464">
        <ele>2.890356</ele>
        <time>2020-07-16T02:33:12.431Z</time>
      </trkpt>
      <trkpt lat="67.00552" lon="14.23197">
        <ele>9.337651</ele>
        <time>2020-07-16T02:34:00.841Z</time>
      </trkpt>
      <trkpt lat="67.00588" lon="14.23141">
        <ele>11.363259</ele>
        <time>2020-07-16T02:34:16.591Z</time>
      </trkpt>
      <trkpt lat="67.0061" lon="14.23118">
        <ele>12.624916</ele>
        <time>2020-07-16T02:34:25.772Z</time>
      </trkpt>
      <trkpt lat="67.00647" lon="14.23104">
        <ele>14.603126</ele>
        <time>2020-07-16T02:34:40.027Z</time>
      </trkpt>
      <trkpt lat="67.00699" lon="14.23123">
        <ele>17.339648</ele>
        <time>2020-07-16T02:34:58.705Z</time>
      </trkpt>
      <trkpt lat="67.00732" lon="14.23161">
        <ele>19.267129</ele>
        <time>2020-07-16T02:35:10.805Z</time>
      </trkpt>
      <trkpt lat="67.00764" lon="14.23233">
        <ele>19.694005</ele>
        <time>2020-07-16T02:35:23.574Z</time>
      </trkpt>
      <trkpt lat="67.00962" lon="14.23911">
        <ele>18.978071</ele>
        <time>2020-07-16T02:36:17.657Z</time>
      </trkpt>
      <trkpt lat="67.00985" lon="14.2398">
        <ele>18.046091</ele>
        <time>2020-07-16T02:36:22.407Z</time>
      </trkpt>
      <trkpt lat="67.01032" lon="14.2408">
        <ele>16.46626</ele>
        <time>2020-07-16T02:36:30.350Z</time>
      </trkpt>
      <trkpt lat="67.01085" lon="14.2415">
        <ele>14.903606</ele>
        <time>2020-07-16T02:36:38.170Z</time>
      </trkpt>
      <trkpt lat="67.01119" lon="14.24174">
        <ele>14.204723</ele>
        <time>2020-07-16T02:36:42.773Z</time>
      </trkpt>
      <trkpt lat="67.0137" lon="14.24301">
        <ele>11.949475</ele>
        <time>2020-07-16T02:37:21.408Z</time>
      </trkpt>
      <trkpt lat="67.01517" lon="14.24414">
        <ele>13.598606</ele>
        <time>2020-07-16T02:37:59.487Z</time>
      </trkpt>
      <trkpt lat="67.01542" lon="14.24437">
        <ele>14.118422</ele>
        <time>2020-07-16T02:38:06.437Z</time>
      </trkpt>
      <trkpt lat="67.01551" lon="14.24448">
        <ele>14.305785</ele>
        <time>2020-07-16T02:38:08.682Z</time>
      </trkpt>
      <trkpt lat="67.0157" lon="14.2447">
        <ele>14.70258</ele>
        <time>2020-07-16T02:38:13.836Z</time>
      </trkpt>
      <trkpt lat="67.01624" lon="14.24522">
        <ele>15.672098</ele>
        <time>2020-07-16T02:38:27.219Z</time>
      </trkpt>
      <trkpt lat="67.01677" lon="14.24586">
        <ele>15.604927</ele>
        <time>2020-07-16T02:38:39.420Z</time>
      </trkpt>
      <trkpt lat="67.01699" lon="14.24612">
        <ele>15.577363</ele>
        <time>2020-07-16T02:38:43.307Z</time>
      </trkpt>
      <trkpt lat="67.01718" lon="14.24637">
        <ele>15.552587</ele>
        <time>2020-07-16T02:38:46.877Z</time>
      </trkpt>
      <trkpt lat="67.01757" lon="14.24687">
        <ele>15.503014</ele>
        <time>2020-07-16T02:38:53.899Z</time>
      </trkpt>
      <trkpt lat="67.02254" lon="14.25306">
        <ele>6.794488</ele>
        <time>2020-07-16T02:40:14.540Z</time>
      </trkpt>
      <trkpt lat="67.02287" lon="14.25348">
        <ele>6.102572</ele>
        <time>2020-07-16T02:40:19.480Z</time>
      </trkpt>
      <trkpt lat="67.02296" lon="14.2536">
        <ele>5.919715</ele>
        <time>2020-07-16T02:40:20.676Z</time>
      </trkpt>
      <trkpt lat="67.02305" lon="14.2537">
        <ele>5.725421</ele>
        <time>2020-07-16T02:40:22.150Z</time>
      </trkpt>
      <trkpt lat="67.02358" lon="14.25427">
        <ele>4.622709</ele>
        <time>2020-07-16T02:40:29.957Z</time>
      </trkpt>
      <trkpt lat="67.02479" lon="14.25532">
        <ele>2.966303</ele>
        <time>2020-07-16T02:40:49.151Z</time>
      </trkpt>
      <trkpt lat="67.02601" lon="14.25604">
        <ele>2.543551</ele>
        <time>2020-07-16T02:41:11.652Z</time>
      </trkpt>
      <trkpt lat="67.02615" lon="14.25611">
        <ele>2.573358</ele>
        <time>2020-07-16T02:41:14.172Z</time>
      </trkpt>
      <trkpt lat="67.02671" lon="14.25652">
        <ele>2.844135</ele>
        <time>2020-07-16T02:41:25.455Z</time>
      </trkpt>
      <trkpt lat="67.0279" lon="14.25762">
        <ele>3.398787</ele>
        <time>2020-07-16T02:41:50.340Z</time>
      </trkpt>
      <trkpt lat="67.02905" lon="14.25898">
        <ele>3.769046</ele>
        <time>2020-07-16T02:42:14.520Z</time>
      </trkpt>
      <trkpt lat="67.02938" lon="14.25932">
        <ele>3.870679</ele>
        <time>2020-07-16T02:42:20.782Z</time>
      </trkpt>
      <trkpt lat="67.02999" lon="14.25982">
        <ele>3.95338</ele>
        <time>2020-07-16T02:42:32.056Z</time>
      </trkpt>
      <trkpt lat="67.03155" lon="14.26086">
        <ele>4.612039</ele>
        <time>2020-07-16T02:43:01.473Z</time>
      </trkpt>
      <trkpt lat="67.03207" lon="14.26125">
        <ele>5.26244</ele>
        <time>2020-07-16T02:43:12.671Z</time>
      </trkpt>
      <trkpt lat="67.03256" lon="14.26178">
        <ele>5.90388</ele>
        <time>2020-07-16T02:43:24.816Z</time>
      </trkpt>
      <trkpt lat="67.03333" lon="14.26305">
        <ele>7.996804</ele>
        <time>2020-07-16T02:43:48.773Z</time>
      </trkpt>
      <trkpt lat="67.03562" lon="14.2682">
        <ele>15.980611</ele>
        <time>2020-07-16T02:45:12.678Z</time>
      </trkpt>
      <trkpt lat="67.03616" lon="14.26905">
        <ele>15.018978</ele>
        <time>2020-07-16T02:45:22.933Z</time>
      </trkpt>
      <trkpt lat="67.03646" lon="14.26932">
        <ele>14.53515</ele>
        <time>2020-07-16T02:45:27.477Z</time>
      </trkpt>
      <trkpt lat="67.03704" lon="14.2695">
        <ele>13.656203</ele>
        <time>2020-07-16T02:45:35.104Z</time>
      </trkpt>
      <trkpt lat="67.03917" lon="14.26934">
        <ele>7.343016</ele>
        <time>2020-07-16T02:46:02.571Z</time>
      </trkpt>
      <trkpt lat="67.03977" lon="14.26952">
        <ele>6.653123</ele>
        <time>2020-07-16T02:46:11.582Z</time>
      </trkpt>
      <trkpt lat="67.04015" lon="14.26967">
        <ele>6.22222</ele>
        <time>2020-07-16T02:46:17.598Z</time>
      </trkpt>
      <trkpt lat="67.04023" lon="14.26969">
        <ele>6.135015</ele>
        <time>2020-07-16T02:46:18.840Z</time>
      </trkpt>
      <trkpt lat="67.04053" lon="14.2698">
        <ele>5.792783</ele>
        <time>2020-07-16T02:46:23.984Z</time>
      </trkpt>
      <trkpt lat="67.04373" lon="14.27093">
        <ele>5.956281</ele>
        <time>2020-07-16T02:47:22.602Z</time>
      </trkpt>
      <trkpt lat="67.04421" lon="14.27109">
        <ele>6.136758</ele>
        <time>2020-07-16T02:47:32.384Z</time>
      </trkpt>
      <trkpt lat="67.04523" lon="14.27144">
        <ele>6.846117</ele>
        <time>2020-07-16T02:47:54.012Z</time>
      </trkpt>
      <trkpt lat="67.04552" lon="14.27154">
        <ele>7.065778</ele>
        <time>2020-07-16T02:48:00.357Z</time>
      </trkpt>
      <trkpt lat="67.04699" lon="14.27205">
        <ele>7.488439</ele>
        <time>2020-07-16T02:48:28.041Z</time>
      </trkpt>
      <trkpt lat="67.0485" lon="14.27259">
        <ele>7.828739</ele>
        <time>2020-07-16T02:48:53.415Z</time>
      </trkpt>
      <trkpt lat="67.0502" lon="14.27318">
        <ele>10.384871</ele>
        <time>2020-07-16T02:49:30.743Z</time>
      </trkpt>
      <trkpt lat="67.05158" lon="14.27392">
        <ele>15.508923</ele>
        <time>2020-07-16T02:50:13.768Z</time>
      </trkpt>
      <trkpt lat="67.05487" lon="14.27669">
        <ele>38.237859</ele>
        <time>2020-07-16T02:52:29.827Z</time>
      </trkpt>
      <trkpt lat="67.0555" lon="14.2771">
        <ele>41.811289</ele>
        <time>2020-07-16T02:52:57.817Z</time>
      </trkpt>
      <trkpt lat="67.05584" lon="14.27713">
        <ele>43.612259</ele>
        <time>2020-07-16T02:53:11.039Z</time>
      </trkpt>
      <trkpt lat="67.05617" lon="14.27701">
        <ele>45.435904</ele>
        <time>2020-07-16T02:53:23.082Z</time>
      </trkpt>
      <trkpt lat="67.0565" lon="14.2767">
        <ele>47.297659</ele>
        <time>2020-07-16T02:53:33.731Z</time>
      </trkpt>
      <trkpt lat="67.05683" lon="14.27614">
        <ele>47.713063</ele>
        <time>2020-07-16T02:53:43.253Z</time>
      </trkpt>
      <trkpt lat="67.05695" lon="14.2758">
        <ele>47.295432</ele>
        <time>2020-07-16T02:53:46.636Z</time>
      </trkpt>
      <trkpt lat="67.0572" lon="14.27493">
        <ele>46.343312</ele>
        <time>2020-07-16T02:53:52.904Z</time>
      </trkpt>
      <trkpt lat="67.05812" lon="14.27018">
        <ele>39.574443</ele>
        <time>2020-07-16T02:54:18.162Z</time>
      </trkpt>
      <trkpt lat="67.05849" lon="14.2683">
        <ele>36.609271</ele>
        <time>2020-07-16T02:54:28.485Z</time>
      </trkpt>
      <trkpt lat="67.05897" lon="14.26581">
        <ele>36.395105</ele>
        <time>2020-07-16T02:54:45.807Z</time>
      </trkpt>
      <trkpt lat="67.05926" lon="14.26469">
        <ele>36.291109</ele>
        <time>2020-07-16T02:54:57.904Z</time>
      </trkpt>
      <trkpt lat="67.05962" lon="14.26377">
        <ele>37.535616</ele>
        <time>2020-07-16T02:55:11.662Z</time>
      </trkpt>
      <trkpt lat="67.06026" lon="14.26278">
        <ele>39.726053</ele>
        <time>2020-07-16T02:55:37.074Z</time>
      </trkpt>
      <trkpt lat="67.06096" lon="14.26224">
        <ele>40.681488</ele>
        <time>2020-07-16T02:55:58.123Z</time>
      </trkpt>
      <trkpt lat="67.06163" lon="14.2622">
        <ele>35.598684</ele>
        <time>2020-07-16T02:56:06.321Z</time>
      </trkpt>
      <trkpt lat="67.06208" lon="14.26237">
        <ele>32.192595</ele>
        <time>2020-07-16T02:56:11.245Z</time>
      </trkpt>
      <trkpt lat="67.06268" lon="14.26269">
        <ele>27.511112</ele>
        <time>2020-07-16T02:56:17.663Z</time>
      </trkpt>
      <trkpt lat="67.06305" lon="14.26287">
        <ele>23.700867</ele>
        <time>2020-07-16T02:56:21.721Z</time>
      </trkpt>
      <trkpt lat="67.06344" lon="14.26308">
        <ele>19.765313</ele>
        <time>2020-07-16T02:56:25.909Z</time>
      </trkpt>
      <trkpt lat="67.06348" lon="14.26309">
        <ele>19.414068</ele>
        <time>2020-07-16T02:56:26.284Z</time>
      </trkpt>
      <trkpt lat="67.0637" lon="14.26319">
        <ele>17.24621</ele>
        <time>2020-07-16T02:56:28.592Z</time>
      </trkpt>
      <trkpt lat="67.06437" lon="14.26343">
        <ele>10.507342</ele>
        <time>2020-07-16T02:56:36.294Z</time>
      </trkpt>
      <trkpt lat="67.06503" lon="14.26328">
        <ele>12.621736</ele>
        <time>2020-07-16T02:56:51.747Z</time>
      </trkpt>
      <trkpt lat="67.06518" lon="14.26318">
        <ele>13.19168</ele>
        <time>2020-07-16T02:56:57.942Z</time>
      </trkpt>
      <trkpt lat="67.06532" lon="14.26308">
        <ele>13.756248</ele>
        <time>2020-07-16T02:57:03.176Z</time>
      </trkpt>
      <trkpt lat="67.06558" lon="14.26281">
        <ele>14.829005</ele>
        <time>2020-07-16T02:57:14.426Z</time>
      </trkpt>
      <trkpt lat="67.06573" lon="14.26263">
        <ele>15.486987</ele>
        <time>2020-07-16T02:57:20.270Z</time>
      </trkpt>
      <trkpt lat="67.06587" lon="14.26245">
        <ele>16.090165</ele>
        <time>2020-07-16T02:57:27.968Z</time>
      </trkpt>
      <trkpt lat="67.06901" lon="14.2587">
        <ele>38.746145</ele>
        <time>2020-07-16T02:59:45.239Z</time>
      </trkpt>
      <trkpt lat="67.06936" lon="14.25831">
        <ele>41.250816</ele>
        <time>2020-07-16T02:59:59.593Z</time>
      </trkpt>
      <trkpt lat="67.06955" lon="14.25807">
        <ele>42.432973</ele>
        <time>2020-07-16T03:00:08.560Z</time>
      </trkpt>
      <trkpt lat="67.07013" lon="14.2574">
        <ele>45.806524</ele>
        <time>2020-07-16T03:00:31.093Z</time>
      </trkpt>
      <trkpt lat="67.07057" lon="14.25717">
        <ele>48.207406</ele>
        <time>2020-07-16T03:00:47.020Z</time>
      </trkpt>
      <trkpt lat="67.07106" lon="14.25736">
        <ele>50.86279</ele>
        <time>2020-07-16T03:01:03.502Z</time>
      </trkpt>
      <trkpt lat="67.07144" lon="14.2579">
        <ele>53.526131</ele>
        <time>2020-07-16T03:01:16.009Z</time>
      </trkpt>
      <trkpt lat="67.07169" lon="14.2586">
        <ele>55.772594</ele>
        <time>2020-07-16T03:01:26.080Z</time>
      </trkpt>
      <trkpt lat="67.0719" lon="14.25981">
        <ele>58.927692</ele>
        <time>2020-07-16T03:01:46.855Z</time>
      </trkpt>
      <trkpt lat="67.07202" lon="14.26221">
        <ele>65.586483</ele>
        <time>2020-07-16T03:02:31.000Z</time>
      </trkpt>
      <trkpt lat="67.0721" lon="14.2629">
        <ele>67.891035</ele>
        <time>2020-07-16T03:02:42.182Z</time>
      </trkpt>
      <trkpt lat="67.07213" lon="14.26303">
        <ele>68.362686</ele>
        <time>2020-07-16T03:02:46.846Z</time>
      </trkpt>
      <trkpt lat="67.07218" lon="14.26328">
        <ele>69.262545</ele>
        <time>2020-07-16T03:02:53.272Z</time>
      </trkpt>
      <trkpt lat="67.07241" lon="14.26412">
        <ele>72.502586</ele>
        <time>2020-07-16T03:03:10.996Z</time>
      </trkpt>
      <trkpt lat="67.07278" lon="14.2649">
        <ele>76.468306</ele>
        <time>2020-07-16T03:03:30.167Z</time>
      </trkpt>
      <trkpt lat="67.07371" lon="14.26584">
        <ele>79.607277</ele>
        <time>2020-07-16T03:04:03.934Z</time>
      </trkpt>
      <trkpt lat="67.07395" lon="14.26618">
        <ele>80.431527</ele>
        <time>2020-07-16T03:04:08.578Z</time>
      </trkpt>
      <trkpt lat="67.0742" lon="14.26676">
        <ele>81.454951</ele>
        <time>2020-07-16T03:04:14.222Z</time>
      </trkpt>
      <trkpt lat="67.07433" lon="14.26729">
        <ele>82.178068</ele>
        <time>2020-07-16T03:04:18.325Z</time>
      </trkpt>
      <trkpt lat="67.07472" lon="14.26978">
        <ele>85.239501</ele>
        <time>2020-07-16T03:04:42.747Z</time>
      </trkpt>
      <trkpt lat="67.07498" lon="14.27066">
        <ele>86.486506</ele>
        <time>2020-07-16T03:04:56.356Z</time>
      </trkpt>
      <trkpt lat="67.07543" lon="14.27153">
        <ele>87.554453</ele>
        <time>2020-07-16T03:05:19.616Z</time>
      </trkpt>
      <trkpt lat="67.07621" lon="14.27276">
        <ele>88.239449</ele>
        <time>2020-07-16T03:05:46.086Z</time>
      </trkpt>
      <trkpt lat="67.07643" lon="14.27327">
        <ele>88.459842</ele>
        <time>2020-07-16T03:05:51.273Z</time>
      </trkpt>
      <trkpt lat="67.07658" lon="14.27365">
        <ele>88.614945</ele>
        <time>2020-07-16T03:05:53.904Z</time>
      </trkpt>
      <trkpt lat="67.07688" lon="14.27464">
        <ele>83.252442</ele>
        <time>2020-07-16T03:05:59.593Z</time>
      </trkpt>
      <trkpt lat="67.07708" lon="14.27579">
        <ele>76.175757</ele>
        <time>2020-07-16T03:06:04.885Z</time>
      </trkpt>
      <trkpt lat="67.07719" lon="14.27724">
        <ele>67.814516</ele>
        <time>2020-07-16T03:06:11.092Z</time>
      </trkpt>
      <trkpt lat="67.07721" lon="14.27863">
        <ele>60.457854</ele>
        <time>2020-07-16T03:06:16.905Z</time>
      </trkpt>
      <trkpt lat="67.07717" lon="14.28037">
        <ele>52.396518</ele>
        <time>2020-07-16T03:06:24.009Z</time>
      </trkpt>
      <trkpt lat="67.07708" lon="14.28424">
        <ele>38.698774</ele>
        <time>2020-07-16T03:06:40.941Z</time>
      </trkpt>
      <trkpt lat="67.07708" lon="14.28444">
        <ele>38.341795</ele>
        <time>2020-07-16T03:06:41.871Z</time>
      </trkpt>
      <trkpt lat="67.07706" lon="14.28512">
        <ele>37.132661</ele>
        <time>2020-07-16T03:06:45.651Z</time>
      </trkpt>
      <trkpt lat="67.07706" lon="14.2856">
        <ele>36.299595</ele>
        <time>2020-07-16T03:06:48.016Z</time>
      </trkpt>
      <trkpt lat="67.07706" lon="14.28658">
        <ele>34.566367</ele>
        <time>2020-07-16T03:06:54.356Z</time>
      </trkpt>
      <trkpt lat="67.07713" lon="14.28875">
        <ele>30.363738</ele>
        <time>2020-07-16T03:07:05.213Z</time>
      </trkpt>
      <trkpt lat="67.07724" lon="14.29022">
        <ele>27.353778</ele>
        <time>2020-07-16T03:07:12.626Z</time>
      </trkpt>
      <trkpt lat="67.07741" lon="14.29212">
        <ele>23.21977</ele>
        <time>2020-07-16T03:07:21.312Z</time>
      </trkpt>
      <trkpt lat="67.07758" lon="14.29395">
        <ele>17.660091</ele>
        <time>2020-07-16T03:07:29.350Z</time>
      </trkpt>
      <trkpt lat="67.07776" lon="14.29574">
        <ele>12.177736</ele>
        <time>2020-07-16T03:07:37.266Z</time>
      </trkpt>
      <trkpt lat="67.0788" lon="14.30629">
        <ele>4.68681</ele>
        <time>2020-07-16T03:08:38.940Z</time>
      </trkpt>
      <trkpt lat="67.07899" lon="14.30883">
        <ele>7.371544</ele>
        <time>2020-07-16T03:09:06.896Z</time>
      </trkpt>
      <trkpt lat="67.079" lon="14.30979">
        <ele>8.364579</ele>
        <time>2020-07-16T03:09:19.807Z</time>
      </trkpt>
      <trkpt lat="67.07901" lon="14.31067">
        <ele>10.427079</ele>
        <time>2020-07-16T03:09:32.876Z</time>
      </trkpt>
      <trkpt lat="67.07903" lon="14.31151">
        <ele>12.547271</ele>
        <time>2020-07-16T03:09:45.770Z</time>
      </trkpt>
      <trkpt lat="67.07913" lon="14.31317">
        <ele>16.800919</ele>
        <time>2020-07-16T03:10:13.021Z</time>
      </trkpt>
      <trkpt lat="67.07921" lon="14.31414">
        <ele>19.294001</ele>
        <time>2020-07-16T03:10:29.483Z</time>
      </trkpt>
      <trkpt lat="67.0801" lon="14.32262">
        <ele>35.082968</ele>
        <time>2020-07-16T03:12:22.787Z</time>
      </trkpt>
      <trkpt lat="67.08053" lon="14.32478">
        <ele>35.607407</ele>
        <time>2020-07-16T03:12:43.615Z</time>
      </trkpt>
      <trkpt lat="67.0811" lon="14.32705">
        <ele>34.495947</ele>
        <time>2020-07-16T03:12:58.564Z</time>
      </trkpt>
      <trkpt lat="67.08143" lon="14.3277">
        <ele>31.984923</ele>
        <time>2020-07-16T03:13:03.733Z</time>
      </trkpt>
      <trkpt lat="67.08164" lon="14.32795">
        <ele>30.164142</ele>
        <time>2020-07-16T03:13:06.414Z</time>
      </trkpt>
      <trkpt lat="67.08196" lon="14.32814">
        <ele>27.566343</ele>
        <time>2020-07-16T03:13:10.063Z</time>
      </trkpt>
      <trkpt lat="67.08221" lon="14.32815">
        <ele>25.531054</ele>
        <time>2020-07-16T03:13:12.855Z</time>
      </trkpt>
      <trkpt lat="67.08247" lon="14.328">
        <ele>23.495405</ele>
        <time>2020-07-16T03:13:15.651Z</time>
      </trkpt>
      <trkpt lat="67.08294" lon="14.32736">
        <ele>19.494957</ele>
        <time>2020-07-16T03:13:21.665Z</time>
      </trkpt>
      <trkpt lat="67.08303" lon="14.32716">
        <ele>18.810963</ele>
        <time>2020-07-16T03:13:22.925Z</time>
      </trkpt>
      <trkpt lat="67.08311" lon="14.32696">
        <ele>18.200675</ele>
        <time>2020-07-16T03:13:24.063Z</time>
      </trkpt>
      <trkpt lat="67.08333" lon="14.32611">
        <ele>15.898779</ele>
        <time>2020-07-16T03:13:28.560Z</time>
      </trkpt>
      <trkpt lat="67.08346" lon="14.32527">
        <ele>13.860804</ele>
        <time>2020-07-16T03:13:32.560Z</time>
      </trkpt>
      <trkpt lat="67.08464" lon="14.31672">
        <ele>7.800692</ele>
        <time>2020-07-16T03:14:25.256Z</time>
      </trkpt>
      <trkpt lat="67.08485" lon="14.31561">
        <ele>8.033903</ele>
        <time>2020-07-16T03:14:37.590Z</time>
      </trkpt>
      <trkpt lat="67.0852" lon="14.31461">
        <ele>9.096939</ele>
        <time>2020-07-16T03:14:52.136Z</time>
      </trkpt>
      <trkpt lat="67.08567" lon="14.31393">
        <ele>11.170215</ele>
        <time>2020-07-16T03:15:09.087Z</time>
      </trkpt>
      <trkpt lat="67.08611" lon="14.31366">
        <ele>12.939151</ele>
        <time>2020-07-16T03:15:23.902Z</time>
      </trkpt>
      <trkpt lat="67.0867" lon="14.31358">
        <ele>15.23064</ele>
        <time>2020-07-16T03:15:40.920Z</time>
      </trkpt>
      <trkpt lat="67.08687" lon="14.31357">
        <ele>15.946212</ele>
        <time>2020-07-16T03:15:46.230Z</time>
      </trkpt>
      <trkpt lat="67.08699" lon="14.31355">
        <ele>16.492938</ele>
        <time>2020-07-16T03:15:49.775Z</time>
      </trkpt>
      <trkpt lat="67.08725" lon="14.31353">
        <ele>17.621184</ele>
        <time>2020-07-16T03:15:58.054Z</time>
      </trkpt>
      <trkpt lat="67.08748" lon="14.3135">
        <ele>18.627927</ele>
        <time>2020-07-16T03:16:05.058Z</time>
      </trkpt>
      <trkpt lat="67.08826" lon="14.31342">
        <ele>22.008261</ele>
        <time>2020-07-16T03:16:30.323Z</time>
      </trkpt>
      <trkpt lat="67.08859" lon="14.31339">
        <ele>23.558937</ele>
        <time>2020-07-16T03:16:40.941Z</time>
      </trkpt>
      <trkpt lat="67.09104" lon="14.31304">
        <ele>34.68028</ele>
        <time>2020-07-16T03:18:07.522Z</time>
      </trkpt>
      <trkpt lat="67.0915" lon="14.31282">
        <ele>36.031859</ele>
        <time>2020-07-16T03:18:20.258Z</time>
      </trkpt>
      <trkpt lat="67.09243" lon="14.31215">
        <ele>36.284093</ele>
        <time>2020-07-16T03:18:37.567Z</time>
      </trkpt>
      <trkpt lat="67.09337" lon="14.3111">
        <ele>32.833997</ele>
        <time>2020-07-16T03:18:50.466Z</time>
      </trkpt>
      <trkpt lat="67.09356" lon="14.31086">
        <ele>32.131428</ele>
        <time>2020-07-16T03:18:52.941Z</time>
      </trkpt>
      <trkpt lat="67.09376" lon="14.31063">
        <ele>31.370454</ele>
        <time>2020-07-16T03:18:55.517Z</time>
      </trkpt>
      <trkpt lat="67.09396" lon="14.31036">
        <ele>30.452055</ele>
        <time>2020-07-16T03:18:58.158Z</time>
      </trkpt>
      <trkpt lat="67.09485" lon="14.30949">
        <ele>26.584189</ele>
        <time>2020-07-16T03:19:09.721Z</time>
      </trkpt>
      <trkpt lat="67.0951" lon="14.30941">
        <ele>25.554249</ele>
        <time>2020-07-16T03:19:12.998Z</time>
      </trkpt>
      <trkpt lat="67.09535" lon="14.30934">
        <ele>24.533796</ele>
        <time>2020-07-16T03:19:16.345Z</time>
      </trkpt>
      <trkpt lat="67.09762" lon="14.30907">
        <ele>24.208112</ele>
        <time>2020-07-16T03:19:57.886Z</time>
      </trkpt>
      <trkpt lat="67.09969" lon="14.30903">
        <ele>26.31876</ele>
        <time>2020-07-16T03:20:41.259Z</time>
      </trkpt>
      <trkpt lat="67.09995" lon="14.30903">
        <ele>26.718277</ele>
        <time>2020-07-16T03:20:46.599Z</time>
      </trkpt>
      <trkpt lat="67.1002" lon="14.30904">
        <ele>27.113162</ele>
        <time>2020-07-16T03:20:52.241Z</time>
      </trkpt>
      <trkpt lat="67.10121" lon="14.30909">
        <ele>29.501461</ele>
        <time>2020-07-16T03:21:18.012Z</time>
      </trkpt>
      <trkpt lat="67.10155" lon="14.3091">
        <ele>30.722721</ele>
        <time>2020-07-16T03:21:27.474Z</time>
      </trkpt>
      <trkpt lat="67.10177" lon="14.30911">
        <ele>31.495516</ele>
        <time>2020-07-16T03:21:33.694Z</time>
      </trkpt>
      <trkpt lat="67.10188" lon="14.30912">
        <ele>31.887204</ele>
        <time>2020-07-16T03:21:37.199Z</time>
      </trkpt>
      <trkpt lat="67.10203" lon="14.30914">
        <ele>32.436787</ele>
        <time>2020-07-16T03:21:42.022Z</time>
      </trkpt>
      <trkpt lat="67.10265" lon="14.30931">
        <ele>34.686348</ele>
        <time>2020-07-16T03:22:01.731Z</time>
      </trkpt>
      <trkpt lat="67.10289" lon="14.3096">
        <ele>35.939425</ele>
        <time>2020-07-16T03:22:10.847Z</time>
      </trkpt>
      <trkpt lat="67.1032" lon="14.31018">
        <ele>37.665375</ele>
        <time>2020-07-16T03:22:23.477Z</time>
      </trkpt>
      <trkpt lat="67.10346" lon="14.311">
        <ele>39.557965</ele>
        <time>2020-07-16T03:22:37.107Z</time>
      </trkpt>
      <trkpt lat="67.10516" lon="14.31767">
        <ele>52.396149</ele>
        <time>2020-07-16T03:24:16.110Z</time>
      </trkpt>
      <trkpt lat="67.10547" lon="14.31842">
        <ele>53.670809</ele>
        <time>2020-07-16T03:24:27.690Z</time>
      </trkpt>
      <trkpt lat="67.10597" lon="14.31908">
        <ele>55.328989</ele>
        <time>2020-07-16T03:24:41.618Z</time>
      </trkpt>
      <trkpt lat="67.10632" lon="14.31929">
        <ele>55.997925</ele>
        <time>2020-07-16T03:24:50.082Z</time>
      </trkpt>
      <trkpt lat="67.10672" lon="14.31933">
        <ele>56.204302</ele>
        <time>2020-07-16T03:24:58.596Z</time>
      </trkpt>
      <trkpt lat="67.11268" lon="14.31687">
        <ele>58.108041</ele>
        <time>2020-07-16T03:26:53.899Z</time>
      </trkpt>
      <trkpt lat="67.11345" lon="14.3166">
        <ele>57.216403</ele>
        <time>2020-07-16T03:27:04.844Z</time>
      </trkpt>
      <trkpt lat="67.11402" lon="14.31663">
        <ele>55.393186</ele>
        <time>2020-07-16T03:27:12.442Z</time>
      </trkpt>
      <trkpt lat="67.11449" lon="14.31678">
        <ele>53.905539</ele>
        <time>2020-07-16T03:27:18.425Z</time>
      </trkpt>
      <trkpt lat="67.11944" lon="14.3199">
        <ele>37.117325</ele>
        <time>2020-07-16T03:28:23.513Z</time>
      </trkpt>
      <trkpt lat="67.11976" lon="14.32032">
        <ele>36.483943</ele>
        <time>2020-07-16T03:28:29.037Z</time>
      </trkpt>
      <trkpt lat="67.12028" lon="14.32124">
        <ele>35.885177</ele>
        <time>2020-07-16T03:28:41.474Z</time>
      </trkpt>
      <trkpt lat="67.12096" lon="14.32261">
        <ele>37.919269</ele>
        <time>2020-07-16T03:29:03.751Z</time>
      </trkpt>
      <trkpt lat="67.12106" lon="14.32284">
        <ele>38.234139</ele>
        <time>2020-07-16T03:29:07.972Z</time>
      </trkpt>
      <trkpt lat="67.12136" lon="14.32359">
        <ele>39.2041</ele>
        <time>2020-07-16T03:29:19.373Z</time>
      </trkpt>
      <trkpt lat="67.12159" lon="14.32426">
        <ele>39.877404</ele>
        <time>2020-07-16T03:29:28.711Z</time>
      </trkpt>
      <trkpt lat="67.12201" lon="14.32566">
        <ele>40.399262</ele>
        <time>2020-07-16T03:29:46.040Z</time>
      </trkpt>
      <trkpt lat="67.12303" lon="14.32941">
        <ele>41.450959</ele>
        <time>2020-07-16T03:30:14.962Z</time>
      </trkpt>
      <trkpt lat="67.12317" lon="14.32984">
        <ele>41.530658</ele>
        <time>2020-07-16T03:30:18.416Z</time>
      </trkpt>
      <trkpt lat="67.12362" lon="14.33147">
        <ele>41.820094</ele>
        <time>2020-07-16T03:30:35.197Z</time>
      </trkpt>
      <trkpt lat="67.12384" lon="14.33242">
        <ele>43.513109</ele>
        <time>2020-07-16T03:30:46.076Z</time>
      </trkpt>
      <trkpt lat="67.12385" lon="14.33251">
        <ele>43.678599</ele>
        <time>2020-07-16T03:30:46.960Z</time>
      </trkpt>
      <trkpt lat="67.12392" lon="14.33321">
        <ele>44.912575</ele>
        <time>2020-07-16T03:30:54.951Z</time>
      </trkpt>
      <trkpt lat="67.12396" lon="14.33468">
        <ele>47.410103</ele>
        <time>2020-07-16T03:31:14.392Z</time>
      </trkpt>
      <trkpt lat="67.12379" lon="14.33691">
        <ele>52.520344</ele>
        <time>2020-07-16T03:31:48.180Z</time>
      </trkpt>
      <trkpt lat="67.12379" lon="14.33758">
        <ele>54.575856</ele>
        <time>2020-07-16T03:31:58.165Z</time>
      </trkpt>
      <trkpt lat="67.12393" lon="14.33925">
        <ele>59.761438</ele>
        <time>2020-07-16T03:32:25.592Z</time>
      </trkpt>
      <trkpt lat="67.12404" lon="14.33999">
        <ele>62.179378</ele>
        <time>2020-07-16T03:32:39.477Z</time>
      </trkpt>
      <trkpt lat="67.12425" lon="14.34084">
        <ele>66.36662</ele>
        <time>2020-07-16T03:32:58.088Z</time>
      </trkpt>
      <trkpt lat="67.12512" lon="14.34364">
        <ele>85.863529</ele>
        <time>2020-07-16T03:34:24.669Z</time>
      </trkpt>
      <trkpt lat="67.12526" lon="14.34434">
        <ele>90.795662</ele>
        <time>2020-07-16T03:34:48.502Z</time>
      </trkpt>
      <trkpt lat="67.12539" lon="14.34524">
        <ele>98.469371</ele>
        <time>2020-07-16T03:35:18.522Z</time>
      </trkpt>
      <trkpt lat="67.12568" lon="14.34892">
        <ele>128.187774</ele>
        <time>2020-07-16T03:37:29.228Z</time>
      </trkpt>
      <trkpt lat="67.1259" lon="14.35028">
        <ele>136.778751</ele>
        <time>2020-07-16T03:38:17.225Z</time>
      </trkpt>
      <trkpt lat="67.12624" lon="14.35151">
        <ele>145.663895</ele>
        <time>2020-07-16T03:38:57.080Z</time>
      </trkpt>
      <trkpt lat="67.12683" lon="14.35286">
        <ele>153.339226</ele>
        <time>2020-07-16T03:39:33.747Z</time>
      </trkpt>
      <trkpt lat="67.1297" lon="14.35782">
        <ele>148.773275</ele>
        <time>2020-07-16T03:40:20.024Z</time>
      </trkpt>
      <trkpt lat="67.13033" lon="14.35944">
        <ele>150.356951</ele>
        <time>2020-07-16T03:40:35.743Z</time>
      </trkpt>
      <trkpt lat="67.13208" lon="14.36499">
        <ele>162.151276</ele>
        <time>2020-07-16T03:42:11.684Z</time>
      </trkpt>
      <trkpt lat="67.13229" lon="14.36551">
        <ele>163.594486</ele>
        <time>2020-07-16T03:42:22.395Z</time>
      </trkpt>
      <trkpt lat="67.13292" lon="14.3669">
        <ele>167.756271</ele>
        <time>2020-07-16T03:42:52.413Z</time>
      </trkpt>
      <trkpt lat="67.13724" lon="14.37544">
        <ele>183.718599</ele>
        <time>2020-07-16T03:45:29.849Z</time>
      </trkpt>
      <trkpt lat="67.1377" lon="14.37611">
        <ele>183.424403</ele>
        <time>2020-07-16T03:45:36.106Z</time>
      </trkpt>
      <trkpt lat="67.13814" lon="14.37653">
        <ele>180.576526</ele>
        <time>2020-07-16T03:45:41.453Z</time>
      </trkpt>
      <trkpt lat="67.13914" lon="14.37746">
        <ele>174.178024</ele>
        <time>2020-07-16T03:45:53.524Z</time>
      </trkpt>
      <trkpt lat="67.13963" lon="14.37843">
        <ele>174.24778</ele>
        <time>2020-07-16T03:46:01.663Z</time>
      </trkpt>
      <trkpt lat="67.14144" lon="14.38309">
        <ele>184.092688</ele>
        <time>2020-07-16T03:47:26.964Z</time>
      </trkpt>
      <trkpt lat="67.1421" lon="14.38462">
        <ele>189.967576</ele>
        <time>2020-07-16T03:48:03.224Z</time>
      </trkpt>
      <trkpt lat="67.14274" lon="14.3858">
        <ele>196.61046</ele>
        <time>2020-07-16T03:48:37.682Z</time>
      </trkpt>
      <trkpt lat="67.14345" lon="14.3869">
        <ele>203.913214</ele>
        <time>2020-07-16T03:49:17.077Z</time>
      </trkpt>
      <trkpt lat="67.14378" lon="14.38756">
        <ele>208.471282</ele>
        <time>2020-07-16T03:49:37.914Z</time>
      </trkpt>
      <trkpt lat="67.14426" lon="14.38892">
        <ele>216.305455</ele>
        <time>2020-07-16T03:50:18.372Z</time>
      </trkpt>
      <trkpt lat="67.14482" lon="14.39107">
        <ele>225.40629</ele>
        <time>2020-07-16T03:51:13.000Z</time>
      </trkpt>
      <trkpt lat="67.14503" lon="14.39186">
        <ele>227.92299</ele>
        <time>2020-07-16T03:51:29.939Z</time>
      </trkpt>
      <trkpt lat="67.14515" lon="14.39232">
        <ele>229.383784</ele>
        <time>2020-07-16T03:51:38.576Z</time>
      </trkpt>
      <trkpt lat="67.14556" lon="14.39415">
        <ele>234.250713</ele>
        <time>2020-07-16T03:52:05.164Z</time>
      </trkpt>
      <trkpt lat="67.14615" lon="14.39741">
        <ele>230.529747</ele>
        <time>2020-07-16T03:52:23.960Z</time>
      </trkpt>
      <trkpt lat="67.14681" lon="14.40013">
        <ele>223.363423</ele>
        <time>2020-07-16T03:52:38.301Z</time>
      </trkpt>
      <trkpt lat="67.14745" lon="14.40187">
        <ele>217.037446</ele>
        <time>2020-07-16T03:52:48.893Z</time>
      </trkpt>
      <trkpt lat="67.1479" lon="14.40285">
        <ele>213.79741</ele>
        <time>2020-07-16T03:52:55.714Z</time>
      </trkpt>
      <trkpt lat="67.14887" lon="14.40443">
        <ele>207.52778</ele>
        <time>2020-07-16T03:53:09.849Z</time>
      </trkpt>
      <trkpt lat="67.14903" lon="14.40464">
        <ele>206.479719</ele>
        <time>2020-07-16T03:53:12.017Z</time>
      </trkpt>
      <trkpt lat="67.14915" lon="14.4048">
        <ele>205.722136</ele>
        <time>2020-07-16T03:53:13.835Z</time>
      </trkpt>
      <trkpt lat="67.14976" lon="14.40538">
        <ele>202.034704</ele>
        <time>2020-07-16T03:53:21.639Z</time>
      </trkpt>
      <trkpt lat="67.14996" lon="14.40555">
        <ele>200.82858</ele>
        <time>2020-07-16T03:53:24.213Z</time>
      </trkpt>
      <trkpt lat="67.15041" lon="14.40587">
        <ele>198.122918</ele>
        <time>2020-07-16T03:53:29.721Z</time>
      </trkpt>
      <trkpt lat="67.15153" lon="14.40622">
        <ele>188.939908</ele>
        <time>2020-07-16T03:53:42.404Z</time>
      </trkpt>
      <trkpt lat="67.15385" lon="14.40634">
        <ele>170.143829</ele>
        <time>2020-07-16T03:54:07.901Z</time>
      </trkpt>
      <trkpt lat="67.15458" lon="14.40673">
        <ele>167.251098</ele>
        <time>2020-07-16T03:54:17.551Z</time>
      </trkpt>
      <trkpt lat="67.15506" lon="14.40734">
        <ele>166.805992</ele>
        <time>2020-07-16T03:54:26.245Z</time>
      </trkpt>
      <trkpt lat="67.15557" lon="14.40839">
        <ele>166.2612</ele>
        <time>2020-07-16T03:54:41.556Z</time>
      </trkpt>
      <trkpt lat="67.15672" lon="14.41129">
        <ele>164.474428</ele>
        <time>2020-07-16T03:55:12.331Z</time>
      </trkpt>
      <trkpt lat="67.15849" lon="14.41485">
        <ele>152.995329</ele>
        <time>2020-07-16T03:55:38.644Z</time>
      </trkpt>
      <trkpt lat="67.16198" lon="14.42321">
        <ele>129.591078</ele>
        <time>2020-07-16T03:56:35.517Z</time>
      </trkpt>
      <trkpt lat="67.16245" lon="14.42451">
        <ele>128.191317</ele>
        <time>2020-07-16T03:56:52.351Z</time>
      </trkpt>
      <trkpt lat="67.16255" lon="14.42492">
        <ele>128.572079</ele>
        <time>2020-07-16T03:56:55.856Z</time>
      </trkpt>
      <trkpt lat="67.16262" lon="14.42525">
        <ele>128.862995</ele>
        <time>2020-07-16T03:57:01.154Z</time>
      </trkpt>
      <trkpt lat="67.1627" lon="14.4258">
        <ele>129.334378</ele>
        <time>2020-07-16T03:57:05.863Z</time>
      </trkpt>
      <trkpt lat="67.16273" lon="14.42615">
        <ele>129.619224</ele>
        <time>2020-07-16T03:57:11.231Z</time>
      </trkpt>
      <trkpt lat="67.16276" lon="14.42669">
        <ele>130.054291</ele>
        <time>2020-07-16T03:57:15.741Z</time>
      </trkpt>
      <trkpt lat="67.16274" lon="14.42798">
        <ele>131.072416</ele>
        <time>2020-07-16T03:57:30.996Z</time>
      </trkpt>
      <trkpt lat="67.16253" lon="14.43091">
        <ele>130.99534</ele>
        <time>2020-07-16T03:57:51.112Z</time>
      </trkpt>
      <trkpt lat="67.16261" lon="14.43222">
        <ele>130.658313</ele>
        <time>2020-07-16T03:57:58.250Z</time>
      </trkpt>
      <trkpt lat="67.16272" lon="14.43295">
        <ele>130.461008</ele>
        <time>2020-07-16T03:58:02.646Z</time>
      </trkpt>
      <trkpt lat="67.16298" lon="14.43394">
        <ele>130.774879</ele>
        <time>2020-07-16T03:58:09.944Z</time>
      </trkpt>
      <trkpt lat="67.16339" lon="14.43484">
        <ele>131.278241</ele>
        <time>2020-07-16T03:58:19.839Z</time>
      </trkpt>
      <trkpt lat="67.16451" lon="14.43612">
        <ele>132.302662</ele>
        <time>2020-07-16T03:58:51.781Z</time>
      </trkpt>
      <trkpt lat="67.16492" lon="14.43689">
        <ele>132.608585</ele>
        <time>2020-07-16T03:59:03.404Z</time>
      </trkpt>
      <trkpt lat="67.16503" lon="14.43724">
        <ele>132.713248</ele>
        <time>2020-07-16T03:59:07.647Z</time>
      </trkpt>
      <trkpt lat="67.16514" lon="14.43769">
        <ele>132.838803</ele>
        <time>2020-07-16T03:59:11.155Z</time>
      </trkpt>
      <trkpt lat="67.16521" lon="14.43807">
        <ele>132.93736</ele>
        <time>2020-07-16T03:59:14.532Z</time>
      </trkpt>
      <trkpt lat="67.16524" lon="14.43829">
        <ele>132.992092</ele>
        <time>2020-07-16T03:59:15.862Z</time>
      </trkpt>
      <trkpt lat="67.16531" lon="14.43932">
        <ele>132.802388</ele>
        <time>2020-07-16T03:59:21.959Z</time>
      </trkpt>
      <trkpt lat="67.16527" lon="14.44287">
        <ele>127.69564</ele>
        <time>2020-07-16T03:59:39.276Z</time>
      </trkpt>
      <trkpt lat="67.16535" lon="14.44433">
        <ele>126.105158</ele>
        <time>2020-07-16T03:59:46.183Z</time>
      </trkpt>
      <trkpt lat="67.16546" lon="14.44514">
        <ele>125.550494</ele>
        <time>2020-07-16T03:59:50.608Z</time>
      </trkpt>
      <trkpt lat="67.16572" lon="14.44634">
        <ele>124.665299</ele>
        <time>2020-07-16T03:59:58.198Z</time>
      </trkpt>
      <trkpt lat="67.1661" lon="14.44741">
        <ele>123.734125</ele>
        <time>2020-07-16T04:00:08.532Z</time>
      </trkpt>
      <trkpt lat="67.16622" lon="14.44767">
        <ele>123.593993</ele>
        <time>2020-07-16T04:00:11.428Z</time>
      </trkpt>
      <trkpt lat="67.16635" lon="14.44792">
        <ele>123.801839</ele>
        <time>2020-07-16T04:00:15.541Z</time>
      </trkpt>
      <trkpt lat="67.16691" lon="14.44863">
        <ele>124.581058</ele>
        <time>2020-07-16T04:00:30.183Z</time>
      </trkpt>
      <trkpt lat="67.16761" lon="14.44899">
        <ele>125.484328</ele>
        <time>2020-07-16T04:00:48.049Z</time>
      </trkpt>
      <trkpt lat="67.16816" lon="14.44891">
        <ele>125.268304</ele>
        <time>2020-07-16T04:00:58.077Z</time>
      </trkpt>
      <trkpt lat="67.16914" lon="14.44851">
        <ele>123.454797</ele>
        <time>2020-07-16T04:01:11.799Z</time>
      </trkpt>
      <trkpt lat="67.16979" lon="14.44827">
        <ele>122.4545</ele>
        <time>2020-07-16T04:01:20.397Z</time>
      </trkpt>
      <trkpt lat="67.17015" lon="14.44818">
        <ele>122.289108</ele>
        <time>2020-07-16T04:01:25.245Z</time>
      </trkpt>
      <trkpt lat="67.17046" lon="14.44817">
        <ele>122.145255</ele>
        <time>2020-07-16T04:01:29.661Z</time>
      </trkpt>
      <trkpt lat="67.17077" lon="14.44818">
        <ele>122.003708</ele>
        <time>2020-07-16T04:01:34.321Z</time>
      </trkpt>
      <trkpt lat="67.17116" lon="14.44833">
        <ele>121.821156</ele>
        <time>2020-07-16T04:01:42.194Z</time>
      </trkpt>
      <trkpt lat="67.17134" lon="14.44845">
        <ele>121.733875</ele>
        <time>2020-07-16T04:01:47.140Z</time>
      </trkpt>
      <trkpt lat="67.17145" lon="14.44854">
        <ele>121.809491</ele>
        <time>2020-07-16T04:01:50.065Z</time>
      </trkpt>
      <trkpt lat="67.17157" lon="14.44865">
        <ele>122.469504</ele>
        <time>2020-07-16T04:01:54.166Z</time>
      </trkpt>
      <trkpt lat="67.17185" lon="14.44897">
        <ele>124.080151</ele>
        <time>2020-07-16T04:02:03.447Z</time>
      </trkpt>
      <trkpt lat="67.1724" lon="14.44987">
        <ele>127.518247</ele>
        <time>2020-07-16T04:02:26.126Z</time>
      </trkpt>
      <trkpt lat="67.17497" lon="14.45535">
        <ele>145.033135</ele>
        <time>2020-07-16T04:04:40.670Z</time>
      </trkpt>
      <trkpt lat="67.17604" lon="14.45708">
        <ele>143.419484</ele>
        <time>2020-07-16T04:04:57.648Z</time>
      </trkpt>
      <trkpt lat="67.17658" lon="14.45789">
        <ele>137.382246</ele>
        <time>2020-07-16T04:05:04.421Z</time>
      </trkpt>
      <trkpt lat="67.17694" lon="14.45843">
        <ele>133.274139</ele>
        <time>2020-07-16T04:05:08.898Z</time>
      </trkpt>
      <trkpt lat="67.17781" lon="14.45978">
        <ele>121.976681</ele>
        <time>2020-07-16T04:05:19.557Z</time>
      </trkpt>
      <trkpt lat="67.17839" lon="14.46093">
        <ele>113.051112</ele>
        <time>2020-07-16T04:05:27.280Z</time>
      </trkpt>
      <trkpt lat="67.17952" lon="14.46371">
        <ele>97.862825</ele>
        <time>2020-07-16T04:05:44.446Z</time>
      </trkpt>
      <trkpt lat="67.17985" lon="14.46471">
        <ele>93.506445</ele>
        <time>2020-07-16T04:05:50.282Z</time>
      </trkpt>
      <trkpt lat="67.18012" lon="14.46584">
        <ele>90.231843</ele>
        <time>2020-07-16T04:05:56.289Z</time>
      </trkpt>
      <trkpt lat="67.18029" lon="14.46692">
        <ele>88.100734</ele>
        <time>2020-07-16T04:06:01.756Z</time>
      </trkpt>
      <trkpt lat="67.1804" lon="14.46818">
        <ele>85.737414</ele>
        <time>2020-07-16T04:06:08.038Z</time>
      </trkpt>
      <trkpt lat="67.18041" lon="14.46944">
        <ele>83.439444</ele>
        <time>2020-07-16T04:06:14.332Z</time>
      </trkpt>
      <trkpt lat="67.18029" lon="14.47204">
        <ele>78.481162</ele>
        <time>2020-07-16T04:06:27.300Z</time>
      </trkpt>
      <trkpt lat="67.18031" lon="14.47316">
        <ele>76.341359</ele>
        <time>2020-07-16T04:06:32.568Z</time>
      </trkpt>
      <trkpt lat="67.1804" lon="14.47424">
        <ele>74.24347</ele>
        <time>2020-07-16T04:06:37.459Z</time>
      </trkpt>
      <trkpt lat="67.18064" lon="14.47606">
        <ele>69.933185</ele>
        <time>2020-07-16T04:06:46.034Z</time>
      </trkpt>
      <trkpt lat="67.18092" lon="14.47815">
        <ele>64.952471</ele>
        <time>2020-07-16T04:06:56.313Z</time>
      </trkpt>
      <trkpt lat="67.18116" lon="14.47994">
        <ele>61.172181</ele>
        <time>2020-07-16T04:07:05.604Z</time>
      </trkpt>
      <trkpt lat="67.18161" lon="14.48327">
        <ele>53.98708</ele>
        <time>2020-07-16T04:07:22.376Z</time>
      </trkpt>
      <trkpt lat="67.18175" lon="14.48426">
        <ele>50.34417</ele>
        <time>2020-07-16T04:07:26.990Z</time>
      </trkpt>
      <trkpt lat="67.18197" lon="14.48651">
        <ele>42.29947</ele>
        <time>2020-07-16T04:07:36.863Z</time>
      </trkpt>
      <trkpt lat="67.18217" lon="14.48913">
        <ele>33.278295</ele>
        <time>2020-07-16T04:07:48.033Z</time>
      </trkpt>
      <trkpt lat="67.1823" lon="14.4902">
        <ele>29.528392</ele>
        <time>2020-07-16T04:07:52.871Z</time>
      </trkpt>
      <trkpt lat="67.18252" lon="14.49124">
        <ele>25.589117</ele>
        <time>2020-07-16T04:07:58.089Z</time>
      </trkpt>
      <trkpt lat="67.18262" lon="14.49164">
        <ele>23.98339</ele>
        <time>2020-07-16T04:08:00.208Z</time>
      </trkpt>
      <trkpt lat="67.18281" lon="14.49237">
        <ele>22.70738</ele>
        <time>2020-07-16T04:08:04.288Z</time>
      </trkpt>
      <trkpt lat="67.18294" lon="14.49301">
        <ele>21.933501</ele>
        <time>2020-07-16T04:08:07.839Z</time>
      </trkpt>
      <trkpt lat="67.18308" lon="14.49413">
        <ele>20.66678</ele>
        <time>2020-07-16T04:08:13.838Z</time>
      </trkpt>
      <trkpt lat="67.18314" lon="14.49513">
        <ele>19.590079</ele>
        <time>2020-07-16T04:08:19.474Z</time>
      </trkpt>
      <trkpt lat="67.18313" lon="14.49588">
        <ele>18.788586</ele>
        <time>2020-07-16T04:08:24.630Z</time>
      </trkpt>
      <trkpt lat="67.18307" lon="14.49701">
        <ele>18.909494</ele>
        <time>2020-07-16T04:08:33.939Z</time>
      </trkpt>
      <trkpt lat="67.18273" lon="14.50033">
        <ele>20.352916</ele>
        <time>2020-07-16T04:09:03.671Z</time>
      </trkpt>
      <trkpt lat="67.18266" lon="14.50161">
        <ele>20.955669</ele>
        <time>2020-07-16T04:09:14.413Z</time>
      </trkpt>
      <trkpt lat="67.18265" lon="14.50205">
        <ele>21.173412</ele>
        <time>2020-07-16T04:09:18.236Z</time>
      </trkpt>
      <trkpt lat="67.18263" lon="14.50253">
        <ele>21.404582</ele>
        <time>2020-07-16T04:09:22.344Z</time>
      </trkpt>
      <trkpt lat="67.1826" lon="14.50326">
        <ele>21.758025</ele>
        <time>2020-07-16T04:09:28.638Z</time>
      </trkpt>
      <trkpt lat="67.18255" lon="14.50507">
        <ele>22.637017</ele>
        <time>2020-07-16T04:09:44.016Z</time>
      </trkpt>
      <trkpt lat="67.18253" lon="14.50557">
        <ele>23.029512</ele>
        <time>2020-07-16T04:09:48.084Z</time>
      </trkpt>
      <trkpt lat="67.18248" lon="14.5061">
        <ele>23.544526</ele>
        <time>2020-07-16T04:09:52.815Z</time>
      </trkpt>
      <trkpt lat="67.18234" lon="14.50712">
        <ele>24.558962</ele>
        <time>2020-07-16T04:10:01.843Z</time>
      </trkpt>
      <trkpt lat="67.18213" lon="14.50812">
        <ele>25.633398</ele>
        <time>2020-07-16T04:10:12.147Z</time>
      </trkpt>
      <trkpt lat="67.18156" lon="14.51019">
        <ele>29.083582</ele>
        <time>2020-07-16T04:10:43.382Z</time>
      </trkpt>
      <trkpt lat="67.18135" lon="14.5109">
        <ele>30.882056</ele>
        <time>2020-07-16T04:10:55.304Z</time>
      </trkpt>
      <trkpt lat="67.18115" lon="14.5116">
        <ele>32.635508</ele>
        <time>2020-07-16T04:11:07.615Z</time>
      </trkpt>
      <trkpt lat="67.18091" lon="14.51252">
        <ele>34.852327</ele>
        <time>2020-07-16T04:11:23.762Z</time>
      </trkpt>
      <trkpt lat="67.18073" lon="14.51356">
        <ele>36.701743</ele>
        <time>2020-07-16T04:11:39.183Z</time>
      </trkpt>
      <trkpt lat="67.18064" lon="14.51439">
        <ele>37.402291</ele>
        <time>2020-07-16T04:11:50.217Z</time>
      </trkpt>
      <trkpt lat="67.18061" lon="14.51532">
        <ele>38.161684</ele>
        <time>2020-07-16T04:12:00.896Z</time>
      </trkpt>
      <trkpt lat="67.18061" lon="14.51581">
        <ele>38.562252</ele>
        <time>2020-07-16T04:12:05.798Z</time>
      </trkpt>
      <trkpt lat="67.18065" lon="14.51655">
        <ele>39.171525</ele>
        <time>2020-07-16T04:12:11.381Z</time>
      </trkpt>
      <trkpt lat="67.1808" lon="14.51878">
        <ele>39.313135</ele>
        <time>2020-07-16T04:12:25.089Z</time>
      </trkpt>
      <trkpt lat="67.18081" lon="14.51987">
        <ele>38.389497</ele>
        <time>2020-07-16T04:12:30.613Z</time>
      </trkpt>
      <trkpt lat="67.18073" lon="14.52095">
        <ele>37.46087</ele>
        <time>2020-07-16T04:12:36.127Z</time>
      </trkpt>
      <trkpt lat="67.18044" lon="14.52292">
        <ele>35.837073</ele>
        <time>2020-07-16T04:12:47.605Z</time>
      </trkpt>
      <trkpt lat="67.1803" lon="14.52376">
        <ele>35.281124</ele>
        <time>2020-07-16T04:12:52.886Z</time>
      </trkpt>
      <trkpt lat="67.18016" lon="14.52463">
        <ele>34.720485</ele>
        <time>2020-07-16T04:12:58.344Z</time>
      </trkpt>
      <trkpt lat="67.17987" lon="14.52692">
        <ele>33.246402</ele>
        <time>2020-07-16T04:13:12.344Z</time>
      </trkpt>
      <trkpt lat="67.17974" lon="14.52868">
        <ele>32.031881</ele>
        <time>2020-07-16T04:13:22.682Z</time>
      </trkpt>
      <trkpt lat="67.17965" lon="14.53091">
        <ele>30.517932</ele>
        <time>2020-07-16T04:13:34.670Z</time>
      </trkpt>
      <trkpt lat="67.17932" lon="14.53926">
        <ele>26.471292</ele>
        <time>2020-07-16T04:14:23.484Z</time>
      </trkpt>
      <trkpt lat="67.17887" lon="14.54529">
        <ele>24.914894</ele>
        <time>2020-07-16T04:15:05.250Z</time>
      </trkpt>
      <trkpt lat="67.17883" lon="14.5459">
        <ele>24.226298</ele>
        <time>2020-07-16T04:15:08.435Z</time>
      </trkpt>
      <trkpt lat="67.1788" lon="14.54687">
        <ele>23.140037</ele>
        <time>2020-07-16T04:15:13.299Z</time>
      </trkpt>
      <trkpt lat="67.17879" lon="14.5487">
        <ele>21.11146</ele>
        <time>2020-07-16T04:15:22.279Z</time>
      </trkpt>
      <trkpt lat="67.1788" lon="14.54962">
        <ele>20.129189</ele>
        <time>2020-07-16T04:15:26.913Z</time>
      </trkpt>
      <trkpt lat="67.17881" lon="14.55118">
        <ele>20.694668</ele>
        <time>2020-07-16T04:15:35.208Z</time>
      </trkpt>
      <trkpt lat="67.17882" lon="14.55206">
        <ele>21.016344</ele>
        <time>2020-07-16T04:15:40.995Z</time>
      </trkpt>
      <trkpt lat="67.17883" lon="14.55297">
        <ele>21.346626</ele>
        <time>2020-07-16T04:15:48.844Z</time>
      </trkpt>
      <trkpt lat="67.17873" lon="14.55575">
        <ele>26.818632</ele>
        <time>2020-07-16T04:16:28.252Z</time>
      </trkpt>
      <trkpt lat="67.17831" lon="14.56086">
        <ele>44.085243</ele>
        <time>2020-07-16T04:18:09.370Z</time>
      </trkpt>
      <trkpt lat="67.1782" lon="14.56465">
        <ele>53.801976</ele>
        <time>2020-07-16T04:19:12.886Z</time>
      </trkpt>
      <trkpt lat="67.17777" lon="14.56963">
        <ele>51.419516</ele>
        <time>2020-07-16T04:19:50.455Z</time>
      </trkpt>
      <trkpt lat="67.17779" lon="14.57168">
        <ele>44.796569</ele>
        <time>2020-07-16T04:19:58.932Z</time>
      </trkpt>
      <trkpt lat="67.17794" lon="14.57314">
        <ele>38.207538</ele>
        <time>2020-07-16T04:20:05.018Z</time>
      </trkpt>
      <trkpt lat="67.17806" lon="14.5738">
        <ele>34.008682</ele>
        <time>2020-07-16T04:20:07.913Z</time>
      </trkpt>
      <trkpt lat="67.17817" lon="14.57427">
        <ele>30.816853</ele>
        <time>2020-07-16T04:20:10.121Z</time>
      </trkpt>
      <trkpt lat="67.17831" lon="14.57476">
        <ele>27.365833</ele>
        <time>2020-07-16T04:20:12.545Z</time>
      </trkpt>
      <trkpt lat="67.17844" lon="14.57516">
        <ele>24.285787</ele>
        <time>2020-07-16T04:20:14.670Z</time>
      </trkpt>
      <trkpt lat="67.17859" lon="14.57561">
        <ele>20.927986</ele>
        <time>2020-07-16T04:20:17.039Z</time>
      </trkpt>
      <trkpt lat="67.17867" lon="14.57582">
        <ele>19.253346</ele>
        <time>2020-07-16T04:20:18.202Z</time>
      </trkpt>
      <trkpt lat="67.17895" lon="14.5766">
        <ele>15.027144</ele>
        <time>2020-07-16T04:20:22.551Z</time>
      </trkpt>
      <trkpt lat="67.17969" lon="14.57863">
        <ele>12.488306</ele>
        <time>2020-07-16T04:20:36.846Z</time>
      </trkpt>
      <trkpt lat="67.18004" lon="14.57957">
        <ele>11.307031</ele>
        <time>2020-07-16T04:20:52.329Z</time>
      </trkpt>
      <trkpt lat="67.18029" lon="14.58026">
        <ele>12.991419</ele>
        <time>2020-07-16T04:21:05.555Z</time>
      </trkpt>
      <trkpt lat="67.18063" lon="14.58132">
        <ele>16.118788</ele>
        <time>2020-07-16T04:21:25.930Z</time>
      </trkpt>
      <trkpt lat="67.18087" lon="14.58233">
        <ele>18.820611</ele>
        <time>2020-07-16T04:21:44.580Z</time>
      </trkpt>
      <trkpt lat="67.18098" lon="14.58314">
        <ele>20.780082</ele>
        <time>2020-07-16T04:21:57.789Z</time>
      </trkpt>
      <trkpt lat="67.18104" lon="14.5841">
        <ele>22.577481</ele>
        <time>2020-07-16T04:22:11.260Z</time>
      </trkpt>
      <trkpt lat="67.18104" lon="14.58492">
        <ele>23.789297</ele>
        <time>2020-07-16T04:22:21.601Z</time>
      </trkpt>
      <trkpt lat="67.18096" lon="14.58599">
        <ele>25.402211</ele>
        <time>2020-07-16T04:22:34.612Z</time>
      </trkpt>
      <trkpt lat="67.18024" lon="14.5919">
        <ele>32.859173</ele>
        <time>2020-07-16T04:23:37.090Z</time>
      </trkpt>
      <trkpt lat="67.18014" lon="14.59307">
        <ele>34.738539</ele>
        <time>2020-07-16T04:23:49.299Z</time>
      </trkpt>
      <trkpt lat="67.18016" lon="14.5949">
        <ele>38.669403</ele>
        <time>2020-07-16T04:24:12.911Z</time>
      </trkpt>
      <trkpt lat="67.18039" lon="14.59743">
        <ele>44.360693</ele>
        <time>2020-07-16T04:24:54.348Z</time>
      </trkpt>
      <trkpt lat="67.18048" lon="14.59793">
        <ele>45.727726</ele>
        <time>2020-07-16T04:25:02.308Z</time>
      </trkpt>
      <trkpt lat="67.18055" lon="14.59825">
        <ele>46.620611</ele>
        <time>2020-07-16T04:25:09.345Z</time>
      </trkpt>
      <trkpt lat="67.18085" lon="14.59935">
        <ele>49.953974</ele>
        <time>2020-07-16T04:25:30.255Z</time>
      </trkpt>
      <trkpt lat="67.18124" lon="14.60027">
        <ele>53.257793</ele>
        <time>2020-07-16T04:25:51.247Z</time>
      </trkpt>
      <trkpt lat="67.18175" lon="14.60103">
        <ele>54.84193</ele>
        <time>2020-07-16T04:26:10.070Z</time>
      </trkpt>
      <trkpt lat="67.18224" lon="14.60142">
        <ele>54.777675</ele>
        <time>2020-07-16T04:26:19.685Z</time>
      </trkpt>
      <trkpt lat="67.18252" lon="14.60152">
        <ele>54.741699</ele>
        <time>2020-07-16T04:26:24.077Z</time>
      </trkpt>
      <trkpt lat="67.18303" lon="14.60149">
        <ele>54.677825</ele>
        <time>2020-07-16T04:26:31.040Z</time>
      </trkpt>
      <trkpt lat="67.18406" lon="14.6009">
        <ele>50.847512</ele>
        <time>2020-07-16T04:26:44.172Z</time>
      </trkpt>
      <trkpt lat="67.1848" lon="14.60085">
        <ele>47.73028</ele>
        <time>2020-07-16T04:26:53.169Z</time>
      </trkpt>
      <trkpt lat="67.1852" lon="14.60107">
        <ele>46.28008</ele>
        <time>2020-07-16T04:26:58.270Z</time>
      </trkpt>
      <trkpt lat="67.18876" lon="14.60376">
        <ele>35.588571</ele>
        <time>2020-07-16T04:27:48.144Z</time>
      </trkpt>
      <trkpt lat="67.19003" lon="14.60403">
        <ele>31.72549</ele>
        <time>2020-07-16T04:28:05.392Z</time>
      </trkpt>
      <trkpt lat="67.19165" lon="14.6041">
        <ele>24.511391</ele>
        <time>2020-07-16T04:28:25.339Z</time>
      </trkpt>
      <trkpt lat="67.19184" lon="14.6041">
        <ele>23.651299</ele>
        <time>2020-07-16T04:28:27.568Z</time>
      </trkpt>
      <trkpt lat="67.19202" lon="14.60412">
        <ele>22.893992</ele>
        <time>2020-07-16T04:28:29.674Z</time>
      </trkpt>
      <trkpt lat="67.19265" lon="14.60414">
        <ele>21.174734</ele>
        <time>2020-07-16T04:28:37.424Z</time>
      </trkpt>
      <trkpt lat="67.19338" lon="14.6042">
        <ele>19.202672</ele>
        <time>2020-07-16T04:28:46.952Z</time>
      </trkpt>
      <trkpt lat="67.19423" lon="14.60451">
        <ele>20.073528</ele>
        <time>2020-07-16T04:29:03.977Z</time>
      </trkpt>
      <trkpt lat="67.19475" lon="14.60501">
        <ele>22.53919</ele>
        <time>2020-07-16T04:29:21.244Z</time>
      </trkpt>
      <trkpt lat="67.1951" lon="14.60554">
        <ele>24.322111</ele>
        <time>2020-07-16T04:29:36.507Z</time>
      </trkpt>
      <trkpt lat="67.19541" lon="14.60616">
        <ele>26.064587</ele>
        <time>2020-07-16T04:29:52.877Z</time>
      </trkpt>
      <trkpt lat="67.19572" lon="14.60699">
        <ele>29.679569</ele>
        <time>2020-07-16T04:30:13.455Z</time>
      </trkpt>
      <trkpt lat="67.19591" lon="14.60765">
        <ele>32.227206</ele>
        <time>2020-07-16T04:30:28.393Z</time>
      </trkpt>
      <trkpt lat="67.19616" lon="14.60894">
        <ele>36.718851</ele>
        <time>2020-07-16T04:30:54.139Z</time>
      </trkpt>
      <trkpt lat="67.19635" lon="14.61079">
        <ele>41.413129</ele>
        <time>2020-07-16T04:31:25.957Z</time>
      </trkpt>
      <trkpt lat="67.19638" lon="14.6146">
        <ele>46.332227</ele>
        <time>2020-07-16T04:32:06.867Z</time>
      </trkpt>
      <trkpt lat="67.19643" lon="14.61564">
        <ele>45.298098</ele>
        <time>2020-07-16T04:32:12.665Z</time>
      </trkpt>
      <trkpt lat="67.19652" lon="14.61649">
        <ele>44.153134</ele>
        <time>2020-07-16T04:32:17.154Z</time>
      </trkpt>
      <trkpt lat="67.19691" lon="14.61889">
        <ele>40.780449</ele>
        <time>2020-07-16T04:32:29.435Z</time>
      </trkpt>
      <trkpt lat="67.19699" lon="14.61987">
        <ele>38.805275</ele>
        <time>2020-07-16T04:32:34.128Z</time>
      </trkpt>
      <trkpt lat="67.19701" lon="14.62089">
        <ele>36.574452</ele>
        <time>2020-07-16T04:32:38.992Z</time>
      </trkpt>
      <trkpt lat="67.19695" lon="14.62185">
        <ele>34.468238</ele>
        <time>2020-07-16T04:32:43.623Z</time>
      </trkpt>
      <trkpt lat="67.19651" lon="14.62463">
        <ele>26.811167</ele>
        <time>2020-07-16T04:32:57.103Z</time>
      </trkpt>
      <trkpt lat="67.19643" lon="14.62527">
        <ele>24.644151</ele>
        <time>2020-07-16T04:33:00.070Z</time>
      </trkpt>
      <trkpt lat="67.19639" lon="14.6257">
        <ele>23.231323</ele>
        <time>2020-07-16T04:33:02.036Z</time>
      </trkpt>
      <trkpt lat="67.19636" lon="14.62614">
        <ele>21.830061</ele>
        <time>2020-07-16T04:33:03.931Z</time>
      </trkpt>
      <trkpt lat="67.19636" lon="14.62647">
        <ele>20.774063</ele>
        <time>2020-07-16T04:33:05.397Z</time>
      </trkpt>
      <trkpt lat="67.19635" lon="14.62659">
        <ele>20.387975</ele>
        <time>2020-07-16T04:33:05.921Z</time>
      </trkpt>
      <trkpt lat="67.19636" lon="14.62668">
        <ele>20.091044</ele>
        <time>2020-07-16T04:33:06.325Z</time>
      </trkpt>
      <trkpt lat="67.19636" lon="14.6269">
        <ele>19.386084</ele>
        <time>2020-07-16T04:33:07.213Z</time>
      </trkpt>
      <trkpt lat="67.19641" lon="14.62766">
        <ele>16.927229</ele>
        <time>2020-07-16T04:33:10.544Z</time>
      </trkpt>
      <trkpt lat="67.19652" lon="14.6284">
        <ele>14.635517</ele>
        <time>2020-07-16T04:33:13.896Z</time>
      </trkpt>
      <trkpt lat="67.19673" lon="14.62919">
        <ele>12.153117</ele>
        <time>2020-07-16T04:33:17.967Z</time>
      </trkpt>
      <trkpt lat="67.19699" lon="14.62983">
        <ele>9.724538</ele>
        <time>2020-07-16T04:33:22.005Z</time>
      </trkpt>
      <trkpt lat="67.19714" lon="14.6301">
        <ele>8.482246</ele>
        <time>2020-07-16T04:33:24.016Z</time>
      </trkpt>
      <trkpt lat="67.19863" lon="14.6327">
        <ele>1.649915</ele>
        <time>2020-07-16T04:33:47.928Z</time>
      </trkpt>
      <trkpt lat="67.19909" lon="14.63346">
        <ele>0.697751</ele>
        <time>2020-07-16T04:33:57.304Z</time>
      </trkpt>
      <trkpt lat="67.19944" lon="14.63394">
        <ele>0.360124</ele>
        <time>2020-07-16T04:34:04.467Z</time>
      </trkpt>
      <trkpt lat="67.19957" lon="14.63406">
        <ele>0.368476</ele>
        <time>2020-07-16T04:34:06.910Z</time>
      </trkpt>
      <trkpt lat="67.19971" lon="14.63414">
        <ele>0.377074</ele>
        <time>2020-07-16T04:34:09.539Z</time>
      </trkpt>
      <trkpt lat="67.19993" lon="14.6342">
        <ele>0.390302</ele>
        <time>2020-07-16T04:34:13.471Z</time>
      </trkpt>
      <trkpt lat="67.20026" lon="14.6342">
        <ele>0.410785</ele>
        <time>2020-07-16T04:34:19.688Z</time>
      </trkpt>
      <trkpt lat="67.20048" lon="14.6341">
        <ele>0.423769</ele>
        <time>2020-07-16T04:34:23.679Z</time>
      </trkpt>
      <trkpt lat="67.20084" lon="14.63366">
        <ele>0.448423</ele>
        <time>2020-07-16T04:34:31.074Z</time>
      </trkpt>
      <trkpt lat="67.20111" lon="14.63312">
        <ele>0.454032</ele>
        <time>2020-07-16T04:34:37.189Z</time>
      </trkpt>
      <trkpt lat="67.20189" lon="14.63051">
        <ele>0.436161</ele>
        <time>2020-07-16T04:34:59.794Z</time>
      </trkpt>
      <trkpt lat="67.20206" lon="14.6299">
        <ele>0.432062</ele>
        <time>2020-07-16T04:35:04.945Z</time>
      </trkpt>
      <trkpt lat="67.20262" lon="14.62779">
        <ele>0.613818</ele>
        <time>2020-07-16T04:35:22.712Z</time>
      </trkpt>
      <trkpt lat="67.20367" lon="14.62388">
        <ele>1.748471</ele>
        <time>2020-07-16T04:35:57.612Z</time>
      </trkpt>
      <trkpt lat="67.20429" lon="14.62111">
        <ele>4.086389</ele>
        <time>2020-07-16T04:36:26.390Z</time>
      </trkpt>
      <trkpt lat="67.20489" lon="14.61801">
        <ele>8.782669</ele>
        <time>2020-07-16T04:37:07.610Z</time>
      </trkpt>
      <trkpt lat="67.20577" lon="14.61478">
        <ele>16.124948</ele>
        <time>2020-07-16T04:38:00.580Z</time>
      </trkpt>
      <trkpt lat="67.20601" lon="14.61339">
        <ele>18.600386</ele>
        <time>2020-07-16T04:38:18.704Z</time>
      </trkpt>
      <trkpt lat="67.2061" lon="14.61198">
        <ele>20.637799</ele>
        <time>2020-07-16T04:38:34.928Z</time>
      </trkpt>
      <trkpt lat="67.20611" lon="14.61081">
        <ele>22.291837</ele>
        <time>2020-07-16T04:38:47.444Z</time>
      </trkpt>
      <trkpt lat="67.20613" lon="14.60993">
        <ele>23.549961</ele>
        <time>2020-07-16T04:38:57.159Z</time>
      </trkpt>
      <trkpt lat="67.20621" lon="14.60902">
        <ele>25.293931</ele>
        <time>2020-07-16T04:39:07.623Z</time>
      </trkpt>
      <trkpt lat="67.20635" lon="14.60834">
        <ele>26.985725</ele>
        <time>2020-07-16T04:39:17.022Z</time>
      </trkpt>
      <trkpt lat="67.2067" lon="14.60737">
        <ele>29.894601</ele>
        <time>2020-07-16T04:39:34.772Z</time>
      </trkpt>
      <trkpt lat="67.20719" lon="14.60686">
        <ele>32.872517</ele>
        <time>2020-07-16T04:39:55.700Z</time>
      </trkpt>
      <trkpt lat="67.20767" lon="14.60678">
        <ele>36.202138</ele>
        <time>2020-07-16T04:40:16.102Z</time>
      </trkpt>
      <trkpt lat="67.20812" lon="14.60715">
        <ele>40.129898</ele>
        <time>2020-07-16T04:40:37.130Z</time>
      </trkpt>
      <trkpt lat="67.20882" lon="14.60838">
        <ele>47.060727</ele>
        <time>2020-07-16T04:41:14.963Z</time>
      </trkpt>
      <trkpt lat="67.21019" lon="14.61004">
        <ele>60.852699</ele>
        <time>2020-07-16T04:42:24.714Z</time>
      </trkpt>
      <trkpt lat="67.21059" lon="14.61081">
        <ele>65.439835</ele>
        <time>2020-07-16T04:42:48.554Z</time>
      </trkpt>
      <trkpt lat="67.21064" lon="14.61097">
        <ele>66.304907</ele>
        <time>2020-07-16T04:42:53.301Z</time>
      </trkpt>
      <trkpt lat="67.21071" lon="14.61121">
        <ele>67.583434</ele>
        <time>2020-07-16T04:42:59.508Z</time>
      </trkpt>
      <trkpt lat="67.21077" lon="14.61147">
        <ele>68.910312</ele>
        <time>2020-07-16T04:43:05.226Z</time>
      </trkpt>
      <trkpt lat="67.21091" lon="14.61206">
        <ele>71.901738</ele>
        <time>2020-07-16T04:43:20.890Z</time>
      </trkpt>
      <trkpt lat="67.21118" lon="14.61394">
        <ele>80.566221</ele>
        <time>2020-07-16T04:44:04.787Z</time>
      </trkpt>
      <trkpt lat="67.21147" lon="14.61601">
        <ele>87.866943</ele>
        <time>2020-07-16T04:44:49.468Z</time>
      </trkpt>
      <trkpt lat="67.21165" lon="14.61722">
        <ele>90.604389</ele>
        <time>2020-07-16T04:45:09.368Z</time>
      </trkpt>
      <trkpt lat="67.21186" lon="14.61831">
        <ele>93.168996</ele>
        <time>2020-07-16T04:45:25.072Z</time>
      </trkpt>
      <trkpt lat="67.21236" lon="14.62023">
        <ele>93.699035</ele>
        <time>2020-07-16T04:45:42.325Z</time>
      </trkpt>
      <trkpt lat="67.21272" lon="14.62137">
        <ele>91.387451</ele>
        <time>2020-07-16T04:45:49.272Z</time>
      </trkpt>
      <trkpt lat="67.21318" lon="14.62255">
        <ele>88.767698</ele>
        <time>2020-07-16T04:45:56.842Z</time>
      </trkpt>
      <trkpt lat="67.21338" lon="14.623">
        <ele>87.020351</ele>
        <time>2020-07-16T04:45:59.948Z</time>
      </trkpt>
      <trkpt lat="67.21358" lon="14.6234">
        <ele>84.950303</ele>
        <time>2020-07-16T04:46:02.690Z</time>
      </trkpt>
      <trkpt lat="67.21408" lon="14.62429">
        <ele>79.788653</ele>
        <time>2020-07-16T04:46:09.524Z</time>
      </trkpt>
      <trkpt lat="67.21447" lon="14.62483">
        <ele>76.089328</ele>
        <time>2020-07-16T04:46:14.347Z</time>
      </trkpt>
      <trkpt lat="67.21537" lon="14.62584">
        <ele>67.566746</ele>
        <time>2020-07-16T04:46:25.400Z</time>
      </trkpt>
      <trkpt lat="67.21587" lon="14.62609">
        <ele>63.192259</ele>
        <time>2020-07-16T04:46:30.917Z</time>
      </trkpt>
      <trkpt lat="67.2161" lon="14.62609">
        <ele>61.148713</ele>
        <time>2020-07-16T04:46:33.534Z</time>
      </trkpt>
      <trkpt lat="67.21635" lon="14.62604">
        <ele>58.92272</ele>
        <time>2020-07-16T04:46:36.361Z</time>
      </trkpt>
      <trkpt lat="67.21677" lon="14.62572">
        <ele>55.240174</ele>
        <time>2020-07-16T04:46:41.170Z</time>
      </trkpt>
      <trkpt lat="67.21694" lon="14.62549">
        <ele>53.578726</ele>
        <time>2020-07-16T04:46:43.347Z</time>
      </trkpt>
      <trkpt lat="67.21711" lon="14.62523">
        <ele>51.927156</ele>
        <time>2020-07-16T04:46:45.538Z</time>
      </trkpt>
      <trkpt lat="67.21736" lon="14.62475">
        <ele>49.275741</ele>
        <time>2020-07-16T04:46:49.064Z</time>
      </trkpt>
      <trkpt lat="67.21767" lon="14.62405">
        <ele>45.810373</ele>
        <time>2020-07-16T04:46:53.646Z</time>
      </trkpt>
      <trkpt lat="67.21875" lon="14.62161">
        <ele>34.331353</ele>
        <time>2020-07-16T04:47:09.757Z</time>
      </trkpt>
      <trkpt lat="67.21923" lon="14.62054">
        <ele>29.399887</ele>
        <time>2020-07-16T04:47:16.942Z</time>
      </trkpt>
      <trkpt lat="67.21945" lon="14.62005">
        <ele>27.284942</ele>
        <time>2020-07-16T04:47:20.293Z</time>
      </trkpt>
      <trkpt lat="67.21956" lon="14.61977">
        <ele>26.240988</ele>
        <time>2020-07-16T04:47:22.069Z</time>
      </trkpt>
      <trkpt lat="67.21967" lon="14.61951">
        <ele>25.249507</ele>
        <time>2020-07-16T04:47:23.816Z</time>
      </trkpt>
      <trkpt lat="67.21976" lon="14.61924">
        <ele>24.315464</ele>
        <time>2020-07-16T04:47:25.370Z</time>
      </trkpt>
      <trkpt lat="67.22014" lon="14.61788">
        <ele>19.966008</ele>
        <time>2020-07-16T04:47:32.858Z</time>
      </trkpt>
      <trkpt lat="67.22054" lon="14.61616">
        <ele>15.260207</ele>
        <time>2020-07-16T04:47:41.962Z</time>
      </trkpt>
      <trkpt lat="67.22056" lon="14.6161">
        <ele>15.132202</ele>
        <time>2020-07-16T04:47:42.283Z</time>
      </trkpt>
      <trkpt lat="67.22081" lon="14.61513">
        <ele>13.246105</ele>
        <time>2020-07-16T04:47:47.734Z</time>
      </trkpt>
      <trkpt lat="67.22103" lon="14.6145">
        <ele>11.879327</ele>
        <time>2020-07-16T04:47:51.730Z</time>
      </trkpt>
      <trkpt lat="67.22162" lon="14.61352">
        <ele>8.984913</ele>
        <time>2020-07-16T04:48:00.603Z</time>
      </trkpt>
      <trkpt lat="67.22184" lon="14.61328">
        <ele>8.968688</ele>
        <time>2020-07-16T04:48:03.979Z</time>
      </trkpt>
      <trkpt lat="67.22482" lon="14.61031">
        <ele>19.160111</ele>
        <time>2020-07-16T04:49:35.291Z</time>
      </trkpt>
      <trkpt lat="67.22555" lon="14.60957">
        <ele>22.769788</ele>
        <time>2020-07-16T04:50:08.283Z</time>
      </trkpt>
      <trkpt lat="67.22612" lon="14.60881">
        <ele>25.842319</ele>
        <time>2020-07-16T04:50:31.961Z</time>
      </trkpt>
      <trkpt lat="67.2263" lon="14.60843">
        <ele>26.984291</ele>
        <time>2020-07-16T04:50:41.056Z</time>
      </trkpt>
      <trkpt lat="67.22643" lon="14.60808">
        <ele>27.880613</ele>
        <time>2020-07-16T04:50:45.853Z</time>
      </trkpt>
      <trkpt lat="67.2271" lon="14.6055">
        <ele>26.629242</ele>
        <time>2020-07-16T04:51:06.058Z</time>
      </trkpt>
      <trkpt lat="67.22715" lon="14.60535">
        <ele>26.457434</ele>
        <time>2020-07-16T04:51:07.035Z</time>
      </trkpt>
      <trkpt lat="67.22709" lon="14.6052">
        <ele>26.274387</ele>
        <time>2020-07-16T04:51:09.002Z</time>
      </trkpt>
      <trkpt lat="67.22717" lon="14.60498">
        <ele>26.015326</ele>
        <time>2020-07-16T04:51:10.438Z</time>
      </trkpt>
      <trkpt lat="67.22753" lon="14.60428">
        <ele>25.022884</ele>
        <time>2020-07-16T04:51:16.103Z</time>
      </trkpt>
      <trkpt lat="67.22802" lon="14.60368">
        <ele>21.841725</ele>
        <time>2020-07-16T04:51:22.874Z</time>
      </trkpt>
      <trkpt lat="67.22824" lon="14.60356">
        <ele>20.391567</ele>
        <time>2020-07-16T04:51:25.548Z</time>
      </trkpt>
      <trkpt lat="67.22851" lon="14.60358">
        <ele>18.655232</ele>
        <time>2020-07-16T04:51:28.774Z</time>
      </trkpt>
      <trkpt lat="67.22865" lon="14.60364">
        <ele>17.740421</ele>
        <time>2020-07-16T04:51:30.490Z</time>
      </trkpt>
      <trkpt lat="67.22868" lon="14.60366">
        <ele>17.535615</ele>
        <time>2020-07-16T04:51:30.901Z</time>
      </trkpt>
      <trkpt lat="67.22869" lon="14.60367">
        <ele>17.488929</ele>
        <time>2020-07-16T04:51:30.990Z</time>
      </trkpt>
      <trkpt lat="67.22871" lon="14.60369">
        <ele>17.327572</ele>
        <time>2020-07-16T04:51:31.317Z</time>
      </trkpt>
      <trkpt lat="67.2289" lon="14.60385">
        <ele>16.035312</ele>
        <time>2020-07-16T04:51:33.698Z</time>
      </trkpt>
      <trkpt lat="67.2291" lon="14.60411">
        <ele>14.590459</ele>
        <time>2020-07-16T04:51:36.456Z</time>
      </trkpt>
      <trkpt lat="67.22934" lon="14.60464">
        <ele>12.844971</ele>
        <time>2020-07-16T04:51:40.306Z</time>
      </trkpt>
      <trkpt lat="67.22958" lon="14.60533">
        <ele>11.395757</ele>
        <time>2020-07-16T04:51:44.676Z</time>
      </trkpt>
      <trkpt lat="67.22964" lon="14.60552">
        <ele>11.017301</ele>
        <time>2020-07-16T04:51:45.764Z</time>
      </trkpt>
      <trkpt lat="67.2309" lon="14.6107">
        <ele>4.813168</ele>
        <time>2020-07-16T04:52:19.166Z</time>
      </trkpt>
      <trkpt lat="67.23318" lon="14.62078">
        <ele>10.758627</ele>
        <time>2020-07-16T04:54:08.383Z</time>
      </trkpt>
      <trkpt lat="67.23323" lon="14.62097">
        <ele>10.924226</ele>
        <time>2020-07-16T04:54:10.387Z</time>
      </trkpt>
      <trkpt lat="67.2335" lon="14.62189">
        <ele>11.793309</ele>
        <time>2020-07-16T04:54:21.190Z</time>
      </trkpt>
      <trkpt lat="67.23359" lon="14.6222">
        <ele>12.080873</ele>
        <time>2020-07-16T04:54:24.826Z</time>
      </trkpt>
      <trkpt lat="67.23357" lon="14.62224">
        <ele>12.120502</ele>
        <time>2020-07-16T04:54:25.269Z</time>
      </trkpt>
      <trkpt lat="67.23352" lon="14.62231">
        <ele>12.238572</ele>
        <time>2020-07-16T04:54:26.591Z</time>
      </trkpt>
      <trkpt lat="67.23346" lon="14.62241">
        <ele>12.371968</ele>
        <time>2020-07-16T04:54:28.404Z</time>
      </trkpt>
      <trkpt lat="67.23344" lon="14.62244">
        <ele>12.413431</ele>
        <time>2020-07-16T04:54:28.943Z</time>
      </trkpt>
      <trkpt lat="67.23339" lon="14.62255">
        <ele>12.54258</ele>
        <time>2020-07-16T04:54:30.503Z</time>
      </trkpt>
      <trkpt lat="67.23337" lon="14.62268">
        <ele>12.646441</ele>
        <time>2020-07-16T04:54:31.721Z</time>
      </trkpt>
      <trkpt lat="67.23342" lon="14.62286">
        <ele>12.818873</ele>
        <time>2020-07-16T04:54:34.194Z</time>
      </trkpt>
      <trkpt lat="67.23385" lon="14.62459">
        <ele>15.130065</ele>
        <time>2020-07-16T04:54:54.653Z</time>
      </trkpt>
      <trkpt lat="67.23389" lon="14.62481">
        <ele>15.555041</ele>
        <time>2020-07-16T04:54:57.380Z</time>
      </trkpt>
      <trkpt lat="67.23384" lon="14.62487">
        <ele>15.776355</ele>
        <time>2020-07-16T04:54:58.776Z</time>
      </trkpt>
      <trkpt lat="67.23379" lon="14.62487">
        <ele>15.999987</ele>
        <time>2020-07-16T04:55:00.323Z</time>
      </trkpt>
      <trkpt lat="67.23364" lon="14.62484">
        <ele>16.672518</ele>
        <time>2020-07-16T04:55:04.947Z</time>
      </trkpt>
      <trkpt lat="67.23374" lon="14.62625">
        <ele>19.099181</ele>
        <time>2020-07-16T04:55:23.713Z</time>
      </trkpt>
      <trkpt lat="67.23384" lon="14.62744">
        <ele>21.172565</ele>
        <time>2020-07-16T04:55:40.638Z</time>
      </trkpt>
      <trkpt lat="67.23404" lon="14.62731">
        <ele>22.398006</ele>
        <time>2020-07-16T04:55:49.283Z</time>
      </trkpt>
      <trkpt lat="67.23413" lon="14.62722">
        <ele>23.120778</ele>
        <time>2020-07-16T04:55:53.555Z</time>
      </trkpt>
      <trkpt lat="67.23423" lon="14.62712">
        <ele>23.969958</ele>
        <time>2020-07-16T04:55:58.028Z</time>
      </trkpt>
      <trkpt lat="67.23428" lon="14.62778">
        <ele>25.953952</ele>
        <time>2020-07-16T04:56:10.024Z</time>
      </trkpt>
      <trkpt lat="67.23436" lon="14.62944">
        <ele>30.881496</ele>
        <time>2020-07-16T04:56:38.608Z</time>
      </trkpt>
      <trkpt lat="67.23441" lon="14.63096">
        <ele>35.327152</ele>
        <time>2020-07-16T04:57:03.986Z</time>
      </trkpt>
      <trkpt lat="67.23444" lon="14.63211">
        <ele>37.425057</ele>
        <time>2020-07-16T04:57:22.141Z</time>
      </trkpt>
      <trkpt lat="67.23445" lon="14.63236">
        <ele>37.89008</ele>
        <time>2020-07-16T04:57:26.006Z</time>
      </trkpt>
      <trkpt lat="67.23453" lon="14.63516">
        <ele>43.007057</ele>
        <time>2020-07-16T04:58:00.445Z</time>
      </trkpt>
      <trkpt lat="67.23457" lon="14.63611">
        <ele>43.647588</ele>
        <time>2020-07-16T04:58:08.431Z</time>
      </trkpt>
      <trkpt lat="67.23462" lon="14.63686">
        <ele>43.477236</ele>
        <time>2020-07-16T04:58:13.991Z</time>
      </trkpt>
      <trkpt lat="67.23469" lon="14.63739">
        <ele>43.354434</ele>
        <time>2020-07-16T04:58:17.920Z</time>
      </trkpt>
      <trkpt lat="67.23476" lon="14.6379">
        <ele>43.232256</ele>
        <time>2020-07-16T04:58:21.510Z</time>
      </trkpt>
      <trkpt lat="67.23489" lon="14.6387">
        <ele>43.039835</ele>
        <time>2020-07-16T04:58:27.029Z</time>
      </trkpt>
      <trkpt lat="67.23602" lon="14.64516">
        <ele>34.224261</ele>
        <time>2020-07-16T04:59:03.032Z</time>
      </trkpt>
      <trkpt lat="67.23648" lon="14.64782">
        <ele>26.88758</ele>
        <time>2020-07-16T04:59:15.857Z</time>
      </trkpt>
      <trkpt lat="67.23674" lon="14.64974">
        <ele>22.820746</ele>
        <time>2020-07-16T04:59:24.735Z</time>
      </trkpt>
      <trkpt lat="67.23677" lon="14.65054">
        <ele>21.417804</ele>
        <time>2020-07-16T04:59:28.389Z</time>
      </trkpt>
      <trkpt lat="67.23672" lon="14.65191">
        <ele>19.007948</ele>
        <time>2020-07-16T04:59:35.231Z</time>
      </trkpt>
      <trkpt lat="67.23661" lon="14.65371">
        <ele>17.288562</ele>
        <time>2020-07-16T04:59:45.984Z</time>
      </trkpt>
      <trkpt lat="67.23648" lon="14.6557">
        <ele>17.903482</ele>
        <time>2020-07-16T05:00:01.919Z</time>
      </trkpt>
      <trkpt lat="67.23627" lon="14.65929">
        <ele>19.762943</ele>
        <time>2020-07-16T05:00:35.867Z</time>
      </trkpt>
      <trkpt lat="67.23627" lon="14.66068">
        <ele>20.800188</ele>
        <time>2020-07-16T05:00:48.931Z</time>
      </trkpt>
      <trkpt lat="67.23629" lon="14.66109">
        <ele>21.106215</ele>
        <time>2020-07-16T05:00:52.347Z</time>
      </trkpt>
      <trkpt lat="67.23631" lon="14.66129">
        <ele>21.263501</ele>
        <time>2020-07-16T05:00:54.824Z</time>
      </trkpt>
      <trkpt lat="67.23651" lon="14.66369">
        <ele>22.435059</ele>
        <time>2020-07-16T05:01:17.167Z</time>
      </trkpt>
      <trkpt lat="67.23647" lon="14.66518">
        <ele>22.905917</ele>
        <time>2020-07-16T05:01:30.102Z</time>
      </trkpt>
      <trkpt lat="67.23639" lon="14.6661">
        <ele>23.203581</ele>
        <time>2020-07-16T05:01:37.053Z</time>
      </trkpt>
      <trkpt lat="67.23592" lon="14.67132">
        <ele>20.970395</ele>
        <time>2020-07-16T05:02:07.980Z</time>
      </trkpt>
      <trkpt lat="67.23576" lon="14.67391">
        <ele>19.296826</ele>
        <time>2020-07-16T05:02:22.223Z</time>
      </trkpt>
      <trkpt lat="67.23574" lon="14.67653">
        <ele>17.752869</ele>
        <time>2020-07-16T05:02:37.330Z</time>
      </trkpt>
      <trkpt lat="67.23577" lon="14.67756">
        <ele>17.318245</ele>
        <time>2020-07-16T05:02:43.476Z</time>
      </trkpt>
      <trkpt lat="67.23581" lon="14.67833">
        <ele>16.991935</ele>
        <time>2020-07-16T05:02:48.146Z</time>
      </trkpt>
      <trkpt lat="67.23588" lon="14.67947">
        <ele>16.507278</ele>
        <time>2020-07-16T05:02:55.166Z</time>
      </trkpt>
      <trkpt lat="67.23643" lon="14.68773">
        <ele>13.120311</ele>
        <time>2020-07-16T05:03:45.123Z</time>
      </trkpt>
      <trkpt lat="67.23663" lon="14.69083">
        <ele>11.805476</ele>
        <time>2020-07-16T05:04:03.981Z</time>
      </trkpt>
      <trkpt lat="67.23663" lon="14.69088">
        <ele>11.780226</ele>
        <time>2020-07-16T05:04:04.312Z</time>
      </trkpt>
      <trkpt lat="67.23678" lon="14.69304">
        <ele>10.785401</ele>
        <time>2020-07-16T05:04:17.147Z</time>
      </trkpt>
      <trkpt lat="67.2369" lon="14.69494">
        <ele>9.935625</ele>
        <time>2020-07-16T05:04:28.391Z</time>
      </trkpt>
      <trkpt lat="67.23701" lon="14.69658">
        <ele>9.243268</ele>
        <time>2020-07-16T05:04:38.094Z</time>
      </trkpt>
      <trkpt lat="67.23703" lon="14.69678">
        <ele>9.159997</ele>
        <time>2020-07-16T05:04:39.263Z</time>
      </trkpt>
      <trkpt lat="67.2372" lon="14.69946">
        <ele>8.261434</ele>
        <time>2020-07-16T05:04:55.597Z</time>
      </trkpt>
      <trkpt lat="67.2374" lon="14.70251">
        <ele>8.128006</ele>
        <time>2020-07-16T05:05:17.130Z</time>
      </trkpt>
      <trkpt lat="67.23741" lon="14.70258">
        <ele>8.125194</ele>
        <time>2020-07-16T05:05:17.606Z</time>
      </trkpt>
      <trkpt lat="67.23745" lon="14.70327">
        <ele>8.09485</ele>
        <time>2020-07-16T05:05:22.808Z</time>
      </trkpt>
      <trkpt lat="67.23761" lon="14.70489">
        <ele>7.660652</ele>
        <time>2020-07-16T05:05:34.713Z</time>
      </trkpt>
      <trkpt lat="67.23768" lon="14.70533">
        <ele>7.529043</ele>
        <time>2020-07-16T05:05:37.905Z</time>
      </trkpt>
      <trkpt lat="67.23769" lon="14.70539">
        <ele>7.510348</ele>
        <time>2020-07-16T05:05:38.328Z</time>
      </trkpt>
      <trkpt lat="67.23784" lon="14.70627">
        <ele>7.237028</ele>
        <time>2020-07-16T05:05:44.558Z</time>
      </trkpt>
      <trkpt lat="67.23812" lon="14.70776">
        <ele>6.758589</ele>
        <time>2020-07-16T05:05:53.987Z</time>
      </trkpt>
      <trkpt lat="67.23826" lon="14.70844">
        <ele>6.036221</ele>
        <time>2020-07-16T05:05:58.046Z</time>
      </trkpt>
      <trkpt lat="67.23847" lon="14.70918">
        <ele>5.172928</ele>
        <time>2020-07-16T05:06:02.841Z</time>
      </trkpt>
      <trkpt lat="67.23868" lon="14.70966">
        <ele>4.499282</ele>
        <time>2020-07-16T05:06:06.634Z</time>
      </trkpt>
      <trkpt lat="67.23884" lon="14.70997">
        <ele>4.007043</ele>
        <time>2020-07-16T05:06:09.296Z</time>
      </trkpt>
      <trkpt lat="67.23918" lon="14.71058">
        <ele>3.006748</ele>
        <time>2020-07-16T05:06:14.853Z</time>
      </trkpt>
      <trkpt lat="67.23931" lon="14.71081">
        <ele>2.630023</ele>
        <time>2020-07-16T05:06:16.957Z</time>
      </trkpt>
      <trkpt lat="67.23932" lon="14.71084">
        <ele>2.579532</ele>
        <time>2020-07-16T05:06:17.205Z</time>
      </trkpt>
      <trkpt lat="67.23964" lon="14.71138">
        <ele>2.048467</ele>
        <time>2020-07-16T05:06:22.458Z</time>
      </trkpt>
      <trkpt lat="67.24006" lon="14.71212">
        <ele>1.442852</ele>
        <time>2020-07-16T05:06:29.811Z</time>
      </trkpt>
      <trkpt lat="67.24011" lon="14.71222">
        <ele>1.365785</ele>
        <time>2020-07-16T05:06:30.807Z</time>
      </trkpt>
      <trkpt lat="67.24022" lon="14.71241">
        <ele>1.211137</ele>
        <time>2020-07-16T05:06:32.741Z</time>
      </trkpt>
      <trkpt lat="67.24027" lon="14.7125">
        <ele>1.138037</ele>
        <time>2020-07-16T05:06:33.797Z</time>
      </trkpt>
      <trkpt lat="67.24045" lon="14.7128">
        <ele>0.888189</ele>
        <time>2020-07-16T05:06:37.243Z</time>
      </trkpt>
      <trkpt lat="67.24046" lon="14.71282">
        <ele>0.869278</ele>
        <time>2020-07-16T05:06:37.503Z</time>
      </trkpt>
      <trkpt lat="67.24065" lon="14.71317">
        <ele>0.59468</ele>
        <time>2020-07-16T05:06:41.440Z</time>
      </trkpt>
      <trkpt lat="67.24093" lon="14.71366">
        <ele>0.287151</ele>
        <time>2020-07-16T05:06:47.721Z</time>
      </trkpt>
      <trkpt lat="67.24111" lon="14.71395">
        <ele>0.300989</ele>
        <time>2020-07-16T05:06:51.384Z</time>
      </trkpt>
      <trkpt lat="67.24117" lon="14.71409">
        <ele>0.306836</ele>
        <time>2020-07-16T05:06:53.040Z</time>
      </trkpt>
      <trkpt lat="67.24202" lon="14.71515">
        <ele>0.370398</ele>
        <time>2020-07-16T05:07:09.994Z</time>
      </trkpt>
      <trkpt lat="67.24232" lon="14.71538">
        <ele>0.391096</ele>
        <time>2020-07-16T05:07:15.757Z</time>
      </trkpt>
      <trkpt lat="67.24231" lon="14.71542">
        <ele>0.392269</ele>
        <time>2020-07-16T05:07:16.198Z</time>
      </trkpt>
      <trkpt lat="67.24229" lon="14.71565">
        <ele>0.398381</ele>
        <time>2020-07-16T05:07:18.961Z</time>
      </trkpt>
      <trkpt lat="67.24228" lon="14.71609">
        <ele>0.419841</ele>
        <time>2020-07-16T05:07:24.250Z</time>
      </trkpt>
      <trkpt lat="67.24228" lon="14.71614">
        <ele>0.422843</ele>
        <time>2020-07-16T05:07:24.566Z</time>
      </trkpt>
      <trkpt lat="67.24227" lon="14.71638">
        <ele>0.437991</ele>
        <time>2020-07-16T05:07:26.179Z</time>
      </trkpt>
      <trkpt lat="67.24228" lon="14.7166">
        <ele>0.452013</ele>
        <time>2020-07-16T05:07:27.751Z</time>
      </trkpt>
      <trkpt lat="67.24231" lon="14.71682">
        <ele>0.467002</ele>
        <time>2020-07-16T05:07:29.480Z</time>
      </trkpt>
      <trkpt lat="67.24236" lon="14.71706">
        <ele>0.484625</ele>
        <time>2020-07-16T05:07:31.446Z</time>
      </trkpt>
      <trkpt lat="67.24314" lon="14.71948">
        <ele>0.685354</ele>
        <time>2020-07-16T05:07:53.568Z</time>
      </trkpt>
      <trkpt lat="67.24328" lon="14.7199">
        <ele>0.737089</ele>
        <time>2020-07-16T05:07:57.658Z</time>
      </trkpt>
      <trkpt lat="67.24358" lon="14.72105">
        <ele>0.892933</ele>
        <time>2020-07-16T05:08:07.930Z</time>
      </trkpt>
      <trkpt lat="67.24366" lon="14.72125">
        <ele>0.925725</ele>
        <time>2020-07-16T05:08:10.165Z</time>
      </trkpt>
      <trkpt lat="67.24372" lon="14.72136">
        <ele>0.944873</ele>
        <time>2020-07-16T05:08:11.412Z</time>
      </trkpt>
      <trkpt lat="67.24396" lon="14.72166">
        <ele>1.022709</ele>
        <time>2020-07-16T05:08:16.549Z</time>
      </trkpt>
      <trkpt lat="67.24419" lon="14.72174">
        <ele>1.089798</ele>
        <time>2020-07-16T05:08:20.868Z</time>
      </trkpt>
      <trkpt lat="67.24443" lon="14.72171">
        <ele>1.161551</ele>
        <time>2020-07-16T05:08:25.485Z</time>
      </trkpt>
      <trkpt lat="67.24505" lon="14.72163">
        <ele>1.275085</ele>
        <time>2020-07-16T05:08:36.715Z</time>
      </trkpt>
      <trkpt lat="67.24521" lon="14.7216">
        <ele>1.296203</ele>
        <time>2020-07-16T05:08:39.553Z</time>
      </trkpt>
      <trkpt lat="67.24562" lon="14.72117">
        <ele>1.354378</ele>
        <time>2020-07-16T05:08:47.328Z</time>
      </trkpt>
      <trkpt lat="67.24593" lon="14.72035">
        <ele>1.413179</ele>
        <time>2020-07-16T05:08:55.360Z</time>
      </trkpt>
      <trkpt lat="67.24606" lon="14.71949">
        <ele>1.471792</ele>
        <time>2020-07-16T05:09:02.063Z</time>
      </trkpt>
      <trkpt lat="67.2461" lon="14.71788">
        <ele>1.980165</ele>
        <time>2020-07-16T05:09:14.320Z</time>
      </trkpt>
      <trkpt lat="67.24613" lon="14.71742">
        <ele>2.125365</ele>
        <time>2020-07-16T05:09:17.607Z</time>
      </trkpt>
      <trkpt lat="67.24616" lon="14.71711">
        <ele>2.225036</ele>
        <time>2020-07-16T05:09:20.480Z</time>
      </trkpt>
      <trkpt lat="67.24637" lon="14.71527">
        <ele>2.826889</ele>
        <time>2020-07-16T05:09:36.194Z</time>
      </trkpt>
      <trkpt lat="67.24676" lon="14.71341">
        <ele>3.826122</ele>
        <time>2020-07-16T05:09:54.397Z</time>
      </trkpt>
      <trkpt lat="67.24751" lon="14.70802">
        <ele>7.337726</ele>
        <time>2020-07-16T05:10:43.204Z</time>
      </trkpt>
      <trkpt lat="67.24766" lon="14.70719">
        <ele>8.000744</ele>
        <time>2020-07-16T05:10:51.763Z</time>
      </trkpt>
      <trkpt lat="67.24788" lon="14.70678">
        <ele>8.510058</ele>
        <time>2020-07-16T05:10:58.586Z</time>
      </trkpt>
      <trkpt lat="67.24873" lon="14.70615">
        <ele>12.59515</ele>
        <time>2020-07-16T05:11:25.703Z</time>
      </trkpt>
      <trkpt lat="67.24967" lon="14.7061">
        <ele>17.065865</ele>
        <time>2020-07-16T05:11:57.673Z</time>
      </trkpt>
      <trkpt lat="67.24973" lon="14.70612">
        <ele>17.504116</ele>
        <time>2020-07-16T05:12:00.480Z</time>
      </trkpt>
      <trkpt lat="67.2499" lon="14.70619">
        <ele>18.945811</ele>
        <time>2020-07-16T05:12:07.367Z</time>
      </trkpt>
      <trkpt lat="67.25117" lon="14.70743">
        <ele>30.379436</ele>
        <time>2020-07-16T05:13:10.347Z</time>
      </trkpt>
      <trkpt lat="67.2513" lon="14.70753">
        <ele>31.471938</ele>
        <time>2020-07-16T05:13:17.799Z</time>
      </trkpt>
      <trkpt lat="67.25161" lon="14.70788">
        <ele>34.339222</ele>
        <time>2020-07-16T05:13:33.321Z</time>
      </trkpt>
      <trkpt lat="67.25177" lon="14.70803">
        <ele>35.803125</ele>
        <time>2020-07-16T05:13:39.741Z</time>
      </trkpt>
      <trkpt lat="67.25185" lon="14.70808">
        <ele>36.49722</ele>
        <time>2020-07-16T05:13:43.957Z</time>
      </trkpt>
      <trkpt lat="67.25193" lon="14.70812">
        <ele>37.190998</ele>
        <time>2020-07-16T05:13:48.912Z</time>
      </trkpt>
      <trkpt lat="67.25208" lon="14.70802">
        <ele>38.567729</ele>
        <time>2020-07-16T05:13:55.274Z</time>
      </trkpt>
      <trkpt lat="67.25236" lon="14.70757">
        <ele>41.331311</ele>
        <time>2020-07-16T05:14:10.958Z</time>
      </trkpt>
      <trkpt lat="67.25249" lon="14.70761">
        <ele>42.487211</ele>
        <time>2020-07-16T05:14:17.033Z</time>
      </trkpt>
      <trkpt lat="67.2527" lon="14.70807">
        <ele>44.802548</ele>
        <time>2020-07-16T05:14:29.825Z</time>
      </trkpt>
      <trkpt lat="67.25284" lon="14.70865">
        <ele>47.07394</ele>
        <time>2020-07-16T05:14:41.969Z</time>
      </trkpt>
      <trkpt lat="67.25298" lon="14.70931">
        <ele>48.512017</ele>
        <time>2020-07-16T05:14:54.056Z</time>
      </trkpt>
      <trkpt lat="67.25315" lon="14.71066">
        <ele>50.698824</ele>
        <time>2020-07-16T05:15:11.714Z</time>
      </trkpt>
      <trkpt lat="67.25329" lon="14.71121">
        <ele>51.696603</ele>
        <time>2020-07-16T05:15:19.117Z</time>
      </trkpt>
      <trkpt lat="67.25355" lon="14.71195">
        <ele>53.250089</ele>
        <time>2020-07-16T05:15:29.581Z</time>
      </trkpt>
      <trkpt lat="67.25375" lon="14.71216">
        <ele>54.113467</ele>
        <time>2020-07-16T05:15:34.854Z</time>
      </trkpt>
      <trkpt lat="67.2542" lon="14.71227">
        <ele>54.826155</ele>
        <time>2020-07-16T05:15:44.612Z</time>
      </trkpt>
      <trkpt lat="67.25474" lon="14.71278">
        <ele>54.95525</ele>
        <time>2020-07-16T05:15:55.480Z</time>
      </trkpt>
      <trkpt lat="67.25515" lon="14.71303">
        <ele>55.049399</ele>
        <time>2020-07-16T05:16:02.589Z</time>
      </trkpt>
      <trkpt lat="67.25549" lon="14.71356">
        <ele>55.138332</ele>
        <time>2020-07-16T05:16:09.074Z</time>
      </trkpt>
      <trkpt lat="67.25593" lon="14.71502">
        <ele>55.056839</ele>
        <time>2020-07-16T05:16:21.041Z</time>
      </trkpt>
      <trkpt lat="67.2561" lon="14.71577">
        <ele>54.996535</ele>
        <time>2020-07-16T05:16:26.829Z</time>
      </trkpt>
      <trkpt lat="67.25656" lon="14.71937">
        <ele>54.398905</ele>
        <time>2020-07-16T05:16:53.168Z</time>
      </trkpt>
      <trkpt lat="67.25693" lon="14.72112">
        <ele>53.835143</ele>
        <time>2020-07-16T05:17:05.598Z</time>
      </trkpt>
      <trkpt lat="67.25747" lon="14.72251">
        <ele>52.739651</ele>
        <time>2020-07-16T05:17:16.717Z</time>
      </trkpt>
      <trkpt lat="67.25904" lon="14.72614">
        <ele>47.476706</ele>
        <time>2020-07-16T05:17:45.096Z</time>
      </trkpt>
      <trkpt lat="67.25963" lon="14.72804">
        <ele>44.881167</ele>
        <time>2020-07-16T05:17:58.150Z</time>
      </trkpt>
      <trkpt lat="67.25968" lon="14.72818">
        <ele>44.682746</ele>
        <time>2020-07-16T05:17:58.997Z</time>
      </trkpt>
      <trkpt lat="67.25977" lon="14.72842">
        <ele>44.316779</ele>
        <time>2020-07-16T05:18:00.870Z</time>
      </trkpt>
      <trkpt lat="67.26" lon="14.72884">
        <ele>42.910276</ele>
        <time>2020-07-16T05:18:04.412Z</time>
      </trkpt>
      <trkpt lat="67.26031" lon="14.72928">
        <ele>41.124345</ele>
        <time>2020-07-16T05:18:08.821Z</time>
      </trkpt>
      <trkpt lat="67.26054" lon="14.72961">
        <ele>39.783256</ele>
        <time>2020-07-16T05:18:12.128Z</time>
      </trkpt>
      <trkpt lat="67.26071" lon="14.7299">
        <ele>38.763347</ele>
        <time>2020-07-16T05:18:14.651Z</time>
      </trkpt>
      <trkpt lat="67.26091" lon="14.7303">
        <ele>37.497625</ele>
        <time>2020-07-16T05:18:17.598Z</time>
      </trkpt>
      <trkpt lat="67.26125" lon="14.73131">
        <ele>34.777566</ele>
        <time>2020-07-16T05:18:23.530Z</time>
      </trkpt>
      <trkpt lat="67.26158" lon="14.73286">
        <ele>30.215133</ele>
        <time>2020-07-16T05:18:31.370Z</time>
      </trkpt>
      <trkpt lat="67.26178" lon="14.73356">
        <ele>27.961038</ele>
        <time>2020-07-16T05:18:35.227Z</time>
      </trkpt>
      <trkpt lat="67.26183" lon="14.73369">
        <ele>27.505853</ele>
        <time>2020-07-16T05:18:35.946Z</time>
      </trkpt>
      <trkpt lat="67.26187" lon="14.73379">
        <ele>27.148945</ele>
        <time>2020-07-16T05:18:36.586Z</time>
      </trkpt>
      <trkpt lat="67.26196" lon="14.73402">
        <ele>26.290774</ele>
        <time>2020-07-16T05:18:38.237Z</time>
      </trkpt>
      <trkpt lat="67.26201" lon="14.73412">
        <ele>25.857049</ele>
        <time>2020-07-16T05:18:39.028Z</time>
      </trkpt>
      <trkpt lat="67.26209" lon="14.73428">
        <ele>25.177812</ele>
        <time>2020-07-16T05:18:40.139Z</time>
      </trkpt>
      <trkpt lat="67.26217" lon="14.73443">
        <ele>24.549159</ele>
        <time>2020-07-16T05:18:41.272Z</time>
      </trkpt>
      <trkpt lat="67.26238" lon="14.73482">
        <ele>22.984269</ele>
        <time>2020-07-16T05:18:44.376Z</time>
      </trkpt>
      <trkpt lat="67.26292" lon="14.73582">
        <ele>20.799922</ele>
        <time>2020-07-16T05:18:52.703Z</time>
      </trkpt>
      <trkpt lat="67.26325" lon="14.73639">
        <ele>19.509723</ele>
        <time>2020-07-16T05:18:57.732Z</time>
      </trkpt>
      <trkpt lat="67.26332" lon="14.73651">
        <ele>19.235491</ele>
        <time>2020-07-16T05:18:58.912Z</time>
      </trkpt>
      <trkpt lat="67.26349" lon="14.73676">
        <ele>18.572757</ele>
        <time>2020-07-16T05:19:01.987Z</time>
      </trkpt>
      <trkpt lat="67.26381" lon="14.73718">
        <ele>17.392524</ele>
        <time>2020-07-16T05:19:07.317Z</time>
      </trkpt>
      <trkpt lat="67.26411" lon="14.73756">
        <ele>16.913815</ele>
        <time>2020-07-16T05:19:12.252Z</time>
      </trkpt>
      <trkpt lat="67.26428" lon="14.73774">
        <ele>16.706519</ele>
        <time>2020-07-16T05:19:14.863Z</time>
      </trkpt>
      <trkpt lat="67.26447" lon="14.73792">
        <ele>16.467244</ele>
        <time>2020-07-16T05:19:17.973Z</time>
      </trkpt>
      <trkpt lat="67.26461" lon="14.73801">
        <ele>16.307687</ele>
        <time>2020-07-16T05:19:19.992Z</time>
      </trkpt>
      <trkpt lat="67.26475" lon="14.73804">
        <ele>16.145134</ele>
        <time>2020-07-16T05:19:22.132Z</time>
      </trkpt>
      <trkpt lat="67.26487" lon="14.73805">
        <ele>16.009843</ele>
        <time>2020-07-16T05:19:23.901Z</time>
      </trkpt>
      <trkpt lat="67.26546" lon="14.73804">
        <ele>15.318716</ele>
        <time>2020-07-16T05:19:33.242Z</time>
      </trkpt>
      <trkpt lat="67.26593" lon="14.73806">
        <ele>15.103912</ele>
        <time>2020-07-16T05:19:40.812Z</time>
      </trkpt>
      <trkpt lat="67.26619" lon="14.73804">
        <ele>15.054375</ele>
        <time>2020-07-16T05:19:45.079Z</time>
      </trkpt>
      <trkpt lat="67.26628" lon="14.73802">
        <ele>15.037034</ele>
        <time>2020-07-16T05:19:46.552Z</time>
      </trkpt>
      <trkpt lat="67.2666" lon="14.73794">
        <ele>14.974193</ele>
        <time>2020-07-16T05:19:52.119Z</time>
      </trkpt>
      <trkpt lat="67.26705" lon="14.73773">
        <ele>14.88487</ele>
        <time>2020-07-16T05:20:00.325Z</time>
      </trkpt>
      <trkpt lat="67.26816" lon="14.73703">
        <ele>15.36344</ele>
        <time>2020-07-16T05:20:22.365Z</time>
      </trkpt>
      <trkpt lat="67.26859" lon="14.73675">
        <ele>15.656241</ele>
        <time>2020-07-16T05:20:31.279Z</time>
      </trkpt>
      <trkpt lat="67.26923" lon="14.73634">
        <ele>16.146769</ele>
        <time>2020-07-16T05:20:44.954Z</time>
      </trkpt>
      <trkpt lat="67.26927" lon="14.73631">
        <ele>16.197903</ele>
        <time>2020-07-16T05:20:45.939Z</time>
      </trkpt>
      <trkpt lat="67.26962" lon="14.73608">
        <ele>16.605962</ele>
        <time>2020-07-16T05:20:53.592Z</time>
      </trkpt>
      <trkpt lat="67.26994" lon="14.73572">
        <ele>16.996623</ele>
        <time>2020-07-16T05:21:00.983Z</time>
      </trkpt>
      <trkpt lat="67.27018" lon="14.73525">
        <ele>17.337548</ele>
        <time>2020-07-16T05:21:07.530Z</time>
      </trkpt>
      <trkpt lat="67.27029" lon="14.73496">
        <ele>17.511481</ele>
        <time>2020-07-16T05:21:11.026Z</time>
      </trkpt>
      <trkpt lat="67.2704" lon="14.73457">
        <ele>17.726778</ele>
        <time>2020-07-16T05:21:15.199Z</time>
      </trkpt>
      <trkpt lat="67.27074" lon="14.73334">
        <ele>18.231512</ele>
        <time>2020-07-16T05:21:28.086Z</time>
      </trkpt>
      <trkpt lat="67.27129" lon="14.73136">
        <ele>18.804693</ele>
        <time>2020-07-16T05:21:47.134Z</time>
      </trkpt>
      <trkpt lat="67.27161" lon="14.73017">
        <ele>19.146495</ele>
        <time>2020-07-16T05:21:57.480Z</time>
      </trkpt>
      <trkpt lat="67.27171" lon="14.72981">
        <ele>19.088594</ele>
        <time>2020-07-16T05:22:00.386Z</time>
      </trkpt>
      <trkpt lat="67.27187" lon="14.72921">
        <ele>18.993263</ele>
        <time>2020-07-16T05:22:05.302Z</time>
      </trkpt>
      <trkpt lat="67.2719" lon="14.72913">
        <ele>18.9802</ele>
        <time>2020-07-16T05:22:05.842Z</time>
      </trkpt>
      <trkpt lat="67.27223" lon="14.72803">
        <ele>18.797255</ele>
        <time>2020-07-16T05:22:14.505Z</time>
      </trkpt>
      <trkpt lat="67.27309" lon="14.72595">
        <ele>18.887267</ele>
        <time>2020-07-16T05:22:34.393Z</time>
      </trkpt>
      <trkpt lat="67.27323" lon="14.72571">
        <ele>19.028189</ele>
        <time>2020-07-16T05:22:37.242Z</time>
      </trkpt>
      <trkpt lat="67.27336" lon="14.72554">
        <ele>19.155257</ele>
        <time>2020-07-16T05:22:40.454Z</time>
      </trkpt>
      <trkpt lat="67.2737" lon="14.7254">
        <ele>19.440407</ele>
        <time>2020-07-16T05:22:47.426Z</time>
      </trkpt>
      <trkpt lat="67.27411" lon="14.72563">
        <ele>19.79787</ele>
        <time>2020-07-16T05:22:57.109Z</time>
      </trkpt>
      <trkpt lat="67.27444" lon="14.72611">
        <ele>20.0138</ele>
        <time>2020-07-16T05:23:06.164Z</time>
      </trkpt>
      <trkpt lat="67.27473" lon="14.72689">
        <ele>19.786421</ele>
        <time>2020-07-16T05:23:16.662Z</time>
      </trkpt>
      <trkpt lat="67.27503" lon="14.72802">
        <ele>19.496374</ele>
        <time>2020-07-16T05:23:28.102Z</time>
      </trkpt>
      <trkpt lat="67.27555" lon="14.72998">
        <ele>18.316866</ele>
        <time>2020-07-16T05:23:40.293Z</time>
      </trkpt>
      <trkpt lat="67.27565" lon="14.73018">
        <ele>17.596392</ele>
        <time>2020-07-16T05:23:41.929Z</time>
      </trkpt>
      <trkpt lat="67.27569" lon="14.7302">
        <ele>17.368714</ele>
        <time>2020-07-16T05:23:42.501Z</time>
      </trkpt>
      <trkpt lat="67.27575" lon="14.73019">
        <ele>17.055711</ele>
        <time>2020-07-16T05:23:43.115Z</time>
      </trkpt>
      <trkpt lat="67.27588" lon="14.73006">
        <ele>16.287943</ele>
        <time>2020-07-16T05:23:44.874Z</time>
      </trkpt>
      <trkpt lat="67.27623" lon="14.72953">
        <ele>14.086045</ele>
        <time>2020-07-16T05:23:49.602Z</time>
      </trkpt>
      <trkpt lat="67.27691" lon="14.72845">
        <ele>9.664031</ele>
        <time>2020-07-16T05:23:58.878Z</time>
      </trkpt>
      <trkpt lat="67.2781" lon="14.72658">
        <ele>4.51101</ele>
        <time>2020-07-16T05:24:15.835Z</time>
      </trkpt>
      <trkpt lat="67.27836" lon="14.72616">
        <ele>3.410375</ele>
        <time>2020-07-16T05:24:20.711Z</time>
      </trkpt>
      <trkpt lat="67.27871" lon="14.7256">
        <ele>3.052857</ele>
        <time>2020-07-16T05:24:27.718Z</time>
      </trkpt>
      <trkpt lat="67.27887" lon="14.72534">
        <ele>3.344557</ele>
        <time>2020-07-16T05:24:31.694Z</time>
      </trkpt>
      <trkpt lat="67.27901" lon="14.72511">
        <ele>3.588101</ele>
        <time>2020-07-16T05:24:35.177Z</time>
      </trkpt>
      <trkpt lat="67.27922" lon="14.72479">
        <ele>3.949454</ele>
        <time>2020-07-16T05:24:40.715Z</time>
      </trkpt>
      <trkpt lat="67.27938" lon="14.72461">
        <ele>4.201714</ele>
        <time>2020-07-16T05:24:44.521Z</time>
      </trkpt>
      <trkpt lat="67.27957" lon="14.72456">
        <ele>4.490703</ele>
        <time>2020-07-16T05:24:49.395Z</time>
      </trkpt>
      <trkpt lat="67.27997" lon="14.72491">
        <ele>5.119775</ele>
        <time>2020-07-16T05:25:00.208Z</time>
      </trkpt>
      <trkpt lat="67.28015" lon="14.72512">
        <ele>5.439934</ele>
        <time>2020-07-16T05:25:05.497Z</time>
      </trkpt>
      <trkpt lat="67.28027" lon="14.72527">
        <ele>5.875862</ele>
        <time>2020-07-16T05:25:09.794Z</time>
      </trkpt>
      <trkpt lat="67.28072" lon="14.7262">
        <ele>7.773946</ele>
        <time>2020-07-16T05:25:25.756Z</time>
      </trkpt>
      <trkpt lat="67.28093" lon="14.72707">
        <ele>9.101044</ele>
        <time>2020-07-16T05:25:37.404Z</time>
      </trkpt>
      <trkpt lat="67.28103" lon="14.72764">
        <ele>9.90807</ele>
        <time>2020-07-16T05:25:44.926Z</time>
      </trkpt>
      <trkpt lat="67.28114" lon="14.72819">
        <ele>10.697482</ele>
        <time>2020-07-16T05:25:52.308Z</time>
      </trkpt>
      <trkpt lat="67.2814" lon="14.72921">
        <ele>11.716672</ele>
        <time>2020-07-16T05:26:05.158Z</time>
      </trkpt>
      <trkpt lat="67.28153" lon="14.72939">
        <ele>11.904258</ele>
        <time>2020-07-16T05:26:08.872Z</time>
      </trkpt>
      <trkpt lat="67.28182" lon="14.72949">
        <ele>12.272303</ele>
        <time>2020-07-16T05:26:16.164Z</time>
      </trkpt>
      <trkpt lat="67.28196" lon="14.72986">
        <ele>12.529859</ele>
        <time>2020-07-16T05:26:21.317Z</time>
      </trkpt>
      <trkpt lat="67.28227" lon="14.73124">
        <ele>13.316843</ele>
        <time>2020-07-16T05:26:33.795Z</time>
      </trkpt>
      <trkpt lat="67.28247" lon="14.73313">
        <ele>12.445338</ele>
        <time>2020-07-16T05:26:45.480Z</time>
      </trkpt>
      <trkpt lat="67.28257" lon="14.73362">
        <ele>11.904349</ele>
        <time>2020-07-16T05:26:48.085Z</time>
      </trkpt>
      <trkpt lat="67.2829" lon="14.734">
        <ele>10.964227</ele>
        <time>2020-07-16T05:26:52.790Z</time>
      </trkpt>
      <trkpt lat="67.28343" lon="14.73409">
        <ele>9.618496</ele>
        <time>2020-07-16T05:26:59.737Z</time>
      </trkpt>
      <trkpt lat="67.28355" lon="14.73397">
        <ele>9.298414</ele>
        <time>2020-07-16T05:27:01.280Z</time>
      </trkpt>
      <trkpt lat="67.28365" lon="14.73378">
        <ele>9.048868</ele>
        <time>2020-07-16T05:27:02.934Z</time>
      </trkpt>
      <trkpt lat="67.28369" lon="14.73368">
        <ele>9.013773</ele>
        <time>2020-07-16T05:27:03.943Z</time>
      </trkpt>
      <trkpt lat="67.28376" lon="14.73341">
        <ele>8.938131</ele>
        <time>2020-07-16T05:27:05.577Z</time>
      </trkpt>
      <trkpt lat="67.2838" lon="14.73321">
        <ele>8.88499</ele>
        <time>2020-07-16T05:27:06.733Z</time>
      </trkpt>
      <trkpt lat="67.28385" lon="14.73293">
        <ele>8.813414</ele>
        <time>2020-07-16T05:27:08.404Z</time>
      </trkpt>
      <trkpt lat="67.28389" lon="14.73272">
        <ele>8.761302</ele>
        <time>2020-07-16T05:27:09.782Z</time>
      </trkpt>
      <trkpt lat="67.28414" lon="14.73143">
        <ele>8.426473</ele>
        <time>2020-07-16T05:27:18.619Z</time>
      </trkpt>
      <trkpt lat="67.28435" lon="14.73081">
        <ele>8.233946</ele>
        <time>2020-07-16T05:27:24.013Z</time>
      </trkpt>
      <trkpt lat="67.28453" lon="14.73063">
        <ele>8.118084</ele>
        <time>2020-07-16T05:27:27.838Z</time>
      </trkpt>
      <trkpt lat="67.28496" lon="14.73071">
        <ele>8.448276</ele>
        <time>2020-07-16T05:27:38.208Z</time>
      </trkpt>
      <trkpt lat="67.28509" lon="14.73067">
        <ele>8.739007</ele>
        <time>2020-07-16T05:27:42.522Z</time>
      </trkpt>
      <trkpt lat="67.28529" lon="14.73053">
        <ele>9.157661</ele>
        <time>2020-07-16T05:27:47.477Z</time>
      </trkpt>
      <trkpt lat="67.28554" lon="14.73029">
        <ele>9.728227</ele>
        <time>2020-07-16T05:27:55.052Z</time>
      </trkpt>
      <trkpt lat="67.28613" lon="14.72974">
        <ele>11.048151</ele>
        <time>2020-07-16T05:28:11.549Z</time>
      </trkpt>
      <trkpt lat="67.28655" lon="14.72932">
        <ele>11.729295</ele>
        <time>2020-07-16T05:28:22.219Z</time>
      </trkpt>
      <trkpt lat="67.28689" lon="14.72899">
        <ele>11.529015</ele>
        <time>2020-07-16T05:28:28.818Z</time>
      </trkpt>
      <trkpt lat="67.28739" lon="14.7285">
        <ele>11.233295</ele>
        <time>2020-07-16T05:28:37.302Z</time>
      </trkpt>
      <trkpt lat="67.28777" lon="14.72811">
        <ele>11.010922</ele>
        <time>2020-07-16T05:28:43.458Z</time>
      </trkpt>
      <trkpt lat="67.288" lon="14.7278">
        <ele>10.866748</ele>
        <time>2020-07-16T05:28:47.355Z</time>
      </trkpt>
      <trkpt lat="67.2885" lon="14.72683">
        <ele>9.820735</ele>
        <time>2020-07-16T05:28:56.316Z</time>
      </trkpt>
      <trkpt lat="67.28881" lon="14.72644">
        <ele>9.13763</ele>
        <time>2020-07-16T05:29:00.975Z</time>
      </trkpt>
      <trkpt lat="67.28941" lon="14.72606">
        <ele>7.913514</ele>
        <time>2020-07-16T05:29:09.473Z</time>
      </trkpt>
      <trkpt lat="67.28988" lon="14.72599">
        <ele>7.226552</ele>
        <time>2020-07-16T05:29:16.362Z</time>
      </trkpt>
      <trkpt lat="67.29005" lon="14.72601">
        <ele>7.20905</ele>
        <time>2020-07-16T05:29:18.855Z</time>
      </trkpt>
      <trkpt lat="67.29005" lon="14.72568">
        <ele>7.195734</ele>
        <time>2020-07-16T05:29:21.011Z</time>
      </trkpt>
      <trkpt lat="67.29006" lon="14.72552">
        <ele>7.189418</ele>
        <time>2020-07-16T05:29:22.052Z</time>
      </trkpt>
      <trkpt lat="67.29027" lon="14.72556">
        <ele>7.167586</ele>
        <time>2020-07-16T05:29:25.535Z</time>
      </trkpt>
      <trkpt lat="67.29037" lon="14.72586">
        <ele>7.151527</ele>
        <time>2020-07-16T05:29:28.374Z</time>
      </trkpt>
      <trkpt lat="67.29071" lon="14.72596">
        <ele>7.11528</ele>
        <time>2020-07-16T05:29:34.795Z</time>
      </trkpt>
      <trkpt lat="67.29088" lon="14.72605">
        <ele>7.096899</ele>
        <time>2020-07-16T05:29:38.136Z</time>
      </trkpt>
      <trkpt lat="67.29148" lon="14.72647">
        <ele>7.296968</ele>
        <time>2020-07-16T05:29:52.122Z</time>
      </trkpt>
      <trkpt lat="67.29225" lon="14.72717">
        <ele>8.338119</ele>
        <time>2020-07-16T05:30:11.911Z</time>
      </trkpt>
      <trkpt lat="67.29256" lon="14.72733">
        <ele>8.744588</ele>
        <time>2020-07-16T05:30:19.469Z</time>
      </trkpt>
      <trkpt lat="67.29315" lon="14.72744">
        <ele>9.312395</ele>
        <time>2020-07-16T05:30:32.098Z</time>
      </trkpt>
      <trkpt lat="67.2936" lon="14.72765">
        <ele>9.172398</ele>
        <time>2020-07-16T05:30:40.994Z</time>
      </trkpt>
      <trkpt lat="67.2938" lon="14.72781">
        <ele>9.106941</ele>
        <time>2020-07-16T05:30:44.855Z</time>
      </trkpt>
      <trkpt lat="67.29442" lon="14.72805">
        <ele>8.915551</ele>
        <time>2020-07-16T05:30:55.408Z</time>
      </trkpt>
      <trkpt lat="67.29456" lon="14.72811">
        <ele>8.87314</ele>
        <time>2020-07-16T05:30:57.660Z</time>
      </trkpt>
      <trkpt lat="67.29486" lon="14.72824">
        <ele>8.731755</ele>
        <time>2020-07-16T05:31:02.419Z</time>
      </trkpt>
      <trkpt lat="67.29691" lon="14.72891">
        <ele>6.246153</ele>
        <time>2020-07-16T05:31:34.835Z</time>
      </trkpt>
      <trkpt lat="67.29753" lon="14.72944">
        <ele>5.638728</ele>
        <time>2020-07-16T05:31:45.511Z</time>
      </trkpt>
      <trkpt lat="67.29773" lon="14.72972">
        <ele>5.429029</ele>
        <time>2020-07-16T05:31:49.214Z</time>
      </trkpt>
      <trkpt lat="67.29808" lon="14.73031">
        <ele>5.050451</ele>
        <time>2020-07-16T05:31:56.160Z</time>
      </trkpt>
      <trkpt lat="67.29855" lon="14.73152">
        <ele>4.808052</ele>
        <time>2020-07-16T05:32:07.789Z</time>
      </trkpt>
      <trkpt lat="67.29892" lon="14.73271">
        <ele>4.713964</ele>
        <time>2020-07-16T05:32:18.594Z</time>
      </trkpt>
      <trkpt lat="67.29911" lon="14.73334">
        <ele>4.666041</ele>
        <time>2020-07-16T05:32:24.179Z</time>
      </trkpt>
      <trkpt lat="67.29906" lon="14.73345">
        <ele>4.655717</ele>
        <time>2020-07-16T05:32:25.469Z</time>
      </trkpt>
      <trkpt lat="67.29902" lon="14.73351">
        <ele>4.64923</ele>
        <time>2020-07-16T05:32:26.154Z</time>
      </trkpt>
      <trkpt lat="67.2999" lon="14.73632">
        <ele>4.251615</ele>
        <time>2020-07-16T05:32:51.241Z</time>
      </trkpt>
      <trkpt lat="67.29995" lon="14.7366">
        <ele>4.213452</ele>
        <time>2020-07-16T05:32:53.245Z</time>
      </trkpt>
      <trkpt lat="67.30017" lon="14.73731">
        <ele>4.099838</ele>
        <time>2020-07-16T05:32:58.949Z</time>
      </trkpt>
      <trkpt lat="67.30026" lon="14.73802">
        <ele>3.974954</ele>
        <time>2020-07-16T05:33:03.287Z</time>
      </trkpt>
      <trkpt lat="67.30031" lon="14.73782">
        <ele>3.871638</ele>
        <time>2020-07-16T05:33:04.802Z</time>
      </trkpt>
      <trkpt lat="67.30037" lon="14.73772">
        <ele>3.793206</ele>
        <time>2020-07-16T05:33:05.865Z</time>
      </trkpt>
      <trkpt lat="67.30042" lon="14.73762">
        <ele>3.726086</ele>
        <time>2020-07-16T05:33:06.693Z</time>
      </trkpt>
      <trkpt lat="67.3006" lon="14.73822">
        <ele>3.399614</ele>
        <time>2020-07-16T05:33:11.403Z</time>
      </trkpt>
      <trkpt lat="67.30063" lon="14.73824">
        <ele>3.37458</ele>
        <time>2020-07-16T05:33:11.677Z</time>
      </trkpt>
      <trkpt lat="67.30086" lon="14.73806">
        <ele>3.103779</ele>
        <time>2020-07-16T05:33:15.574Z</time>
      </trkpt>
      <trkpt lat="67.30105" lon="14.73792">
        <ele>2.887258</ele>
        <time>2020-07-16T05:33:18.420Z</time>
      </trkpt>
      <trkpt lat="67.30128" lon="14.73784">
        <ele>2.627524</ele>
        <time>2020-07-16T05:33:22.198Z</time>
      </trkpt>
      <trkpt lat="67.30134" lon="14.73777">
        <ele>2.559045</ele>
        <time>2020-07-16T05:33:23.009Z</time>
      </trkpt>
      <trkpt lat="67.30154" lon="14.73758">
        <ele>2.32335</ele>
        <time>2020-07-16T05:33:26.405Z</time>
      </trkpt>
      <trkpt lat="67.30157" lon="14.73754">
        <ele>2.282261</ele>
        <time>2020-07-16T05:33:26.961Z</time>
      </trkpt>
      <trkpt lat="67.30168" lon="14.73737">
        <ele>2.139777</ele>
        <time>2020-07-16T05:33:28.764Z</time>
      </trkpt>
      <trkpt lat="67.30183" lon="14.73687">
        <ele>1.921779</ele>
        <time>2020-07-16T05:33:32.594Z</time>
      </trkpt>
      <trkpt lat="67.30305" lon="14.73545">
        <ele>0.917823</ele>
        <time>2020-07-16T05:33:53.711Z</time>
      </trkpt>
      <trkpt lat="67.3033" lon="14.73498">
        <ele>0.680793</ele>
        <time>2020-07-16T05:33:59.112Z</time>
      </trkpt>
      <trkpt lat="67.30346" lon="14.73453">
        <ele>0.628995</ele>
        <time>2020-07-16T05:34:03.147Z</time>
      </trkpt>
      <trkpt lat="67.30358" lon="14.73398">
        <ele>0.576152</ele>
        <time>2020-07-16T05:34:07.263Z</time>
      </trkpt>
      <trkpt lat="67.30372" lon="14.7326">
        <ele>0.455799</ele>
        <time>2020-07-16T05:34:16.717Z</time>
      </trkpt>
      <trkpt lat="67.30399" lon="14.73105">
        <ele>0.312522</ele>
        <time>2020-07-16T05:34:28.054Z</time>
      </trkpt>
      <trkpt lat="67.30402" lon="14.73079">
        <ele>0.289787</ele>
        <time>2020-07-16T05:34:29.880Z</time>
      </trkpt>
      <trkpt lat="67.30404" lon="14.73052">
        <ele>0.317508</ele>
        <time>2020-07-16T05:34:31.761Z</time>
      </trkpt>
      <trkpt lat="67.30406" lon="14.73024">
        <ele>0.350387</ele>
        <time>2020-07-16T05:34:33.639Z</time>
      </trkpt>
      <trkpt lat="67.30437" lon="14.72551">
        <ele>1.262422</ele>
        <time>2020-07-16T05:35:08.304Z</time>
      </trkpt>
      <trkpt lat="67.305" lon="14.71727">
        <ele>7.04376</ele>
        <time>2020-07-16T05:36:27.215Z</time>
      </trkpt>
      <trkpt lat="67.30506" lon="14.71498">
        <ele>7.488917</ele>
        <time>2020-07-16T05:36:46.146Z</time>
      </trkpt>
      <trkpt lat="67.30505" lon="14.71459">
        <ele>7.538665</ele>
        <time>2020-07-16T05:36:50.565Z</time>
      </trkpt>
      <trkpt lat="67.30503" lon="14.71424">
        <ele>7.584108</ele>
        <time>2020-07-16T05:36:52.125Z</time>
      </trkpt>
      <trkpt lat="67.30489" lon="14.71271">
        <ele>7.788021</ele>
        <time>2020-07-16T05:37:03.956Z</time>
      </trkpt>
      <trkpt lat="67.30466" lon="14.71102">
        <ele>7.412117</ele>
        <time>2020-07-16T05:37:15.400Z</time>
      </trkpt>
      <trkpt lat="67.30459" lon="14.71067">
        <ele>7.305449</ele>
        <time>2020-07-16T05:37:17.101Z</time>
      </trkpt>
      <trkpt lat="67.30454" lon="14.71037">
        <ele>7.214561</ele>
        <time>2020-07-16T05:37:19.764Z</time>
      </trkpt>
      <trkpt lat="67.30396" lon="14.70755">
        <ele>6.654029</ele>
        <time>2020-07-16T05:37:40.088Z</time>
      </trkpt>
      <trkpt lat="67.30322" lon="14.70447">
        <ele>7.244557</ele>
        <time>2020-07-16T05:38:09.946Z</time>
      </trkpt>
      <trkpt lat="67.30281" lon="14.70322">
        <ele>6.866913</ele>
        <time>2020-07-16T05:38:19.977Z</time>
      </trkpt>
      <trkpt lat="67.30216" lon="14.70165">
        <ele>6.14286</ele>
        <time>2020-07-16T05:38:34.108Z</time>
      </trkpt>
      <trkpt lat="67.30213" lon="14.70158">
        <ele>6.10884</ele>
        <time>2020-07-16T05:38:34.589Z</time>
      </trkpt>
      <trkpt lat="67.30207" lon="14.70148">
        <ele>6.051882</ele>
        <time>2020-07-16T05:38:35.484Z</time>
      </trkpt>
      <trkpt lat="67.30198" lon="14.70136">
        <ele>5.973418</ele>
        <time>2020-07-16T05:38:37.587Z</time>
      </trkpt>
      <trkpt lat="67.3018" lon="14.70087">
        <ele>5.811534</ele>
        <time>2020-07-16T05:38:41.228Z</time>
      </trkpt>
      <trkpt lat="67.30162" lon="14.70029">
        <ele>5.751364</ele>
        <time>2020-07-16T05:38:45.893Z</time>
      </trkpt>
      <trkpt lat="67.30159" lon="14.70018">
        <ele>5.740815</ele>
        <time>2020-07-16T05:38:46.523Z</time>
      </trkpt>
      <trkpt lat="67.30087" lon="14.69825">
        <ele>5.523793</ele>
        <time>2020-07-16T05:39:04.957Z</time>
      </trkpt>
      <trkpt lat="67.30037" lon="14.69648">
        <ele>6.238692</ele>
        <time>2020-07-16T05:39:21.939Z</time>
      </trkpt>
      <trkpt lat="67.30022" lon="14.69548">
        <ele>6.877918</ele>
        <time>2020-07-16T05:39:32.091Z</time>
      </trkpt>
      <trkpt lat="67.30018" lon="14.69378">
        <ele>7.889565</ele>
        <time>2020-07-16T05:39:47.534Z</time>
      </trkpt>
      <trkpt lat="67.30018" lon="14.69353">
        <ele>8.040763</ele>
        <time>2020-07-16T05:39:50.600Z</time>
      </trkpt>
      <trkpt lat="67.30018" lon="14.69304">
        <ele>8.340788</ele>
        <time>2020-07-16T05:39:54.716Z</time>
      </trkpt>
      <trkpt lat="67.30018" lon="14.69283">
        <ele>8.470331</ele>
        <time>2020-07-16T05:39:56.577Z</time>
      </trkpt>
      <trkpt lat="67.30018" lon="14.69265">
        <ele>8.584043</ele>
        <time>2020-07-16T05:39:58.824Z</time>
      </trkpt>
      <trkpt lat="67.30006" lon="14.69112">
        <ele>9.567419</ele>
        <time>2020-07-16T05:40:12.818Z</time>
      </trkpt>
      <trkpt lat="67.29988" lon="14.68966">
        <ele>10.538282</ele>
        <time>2020-07-16T05:40:26.756Z</time>
      </trkpt>
      <trkpt lat="67.29938" lon="14.68709">
        <ele>11.781466</ele>
        <time>2020-07-16T05:40:50.248Z</time>
      </trkpt>
      <trkpt lat="67.29917" lon="14.68625">
        <ele>12.106639</ele>
        <time>2020-07-16T05:40:58.057Z</time>
      </trkpt>
      <trkpt lat="67.299" lon="14.68543">
        <ele>12.409855</ele>
        <time>2020-07-16T05:41:05.238Z</time>
      </trkpt>
      <trkpt lat="67.2988" lon="14.68462">
        <ele>12.69278</ele>
        <time>2020-07-16T05:41:12.535Z</time>
      </trkpt>
      <trkpt lat="67.29856" lon="14.68393">
        <ele>12.746126</ele>
        <time>2020-07-16T05:41:19.705Z</time>
      </trkpt>
      <trkpt lat="67.29754" lon="14.68189">
        <ele>12.934984</ele>
        <time>2020-07-16T05:41:43.587Z</time>
      </trkpt>
      <trkpt lat="67.29654" lon="14.67932">
        <ele>11.65308</ele>
        <time>2020-07-16T05:42:05.818Z</time>
      </trkpt>
      <trkpt lat="67.29518" lon="14.67442">
        <ele>7.731761</ele>
        <time>2020-07-16T05:42:39.295Z</time>
      </trkpt>
      <trkpt lat="67.29496" lon="14.67328">
        <ele>6.746874</ele>
        <time>2020-07-16T05:42:45.949Z</time>
      </trkpt>
      <trkpt lat="67.29479" lon="14.67163">
        <ele>5.426024</ele>
        <time>2020-07-16T05:42:55.082Z</time>
      </trkpt>
      <trkpt lat="67.29475" lon="14.67097">
        <ele>4.904912</ele>
        <time>2020-07-16T05:42:58.711Z</time>
      </trkpt>
      <trkpt lat="67.2947" lon="14.67019">
        <ele>4.298407</ele>
        <time>2020-07-16T05:43:03.024Z</time>
      </trkpt>
      <trkpt lat="67.29437" lon="14.6642">
        <ele>3.236357</ele>
        <time>2020-07-16T05:43:41.363Z</time>
      </trkpt>
      <trkpt lat="67.29422" lon="14.65913">
        <ele>4.265478</ele>
        <time>2020-07-16T05:44:21.776Z</time>
      </trkpt>
      <trkpt lat="67.2942" lon="14.65886">
        <ele>4.334065</ele>
        <time>2020-07-16T05:44:24.096Z</time>
      </trkpt>
      <trkpt lat="67.29419" lon="14.65859">
        <ele>4.40325</ele>
        <time>2020-07-16T05:44:26.213Z</time>
      </trkpt>
      <trkpt lat="67.29385" lon="14.65544">
        <ele>5.11215</ele>
        <time>2020-07-16T05:44:50.661Z</time>
      </trkpt>
      <trkpt lat="67.2937" lon="14.65414">
        <ele>5.260932</ele>
        <time>2020-07-16T05:45:00.364Z</time>
      </trkpt>
      <trkpt lat="67.29369" lon="14.65396">
        <ele>5.281601</ele>
        <time>2020-07-16T05:45:01.670Z</time>
      </trkpt>
      <trkpt lat="67.29359" lon="14.65304">
        <ele>5.385872</ele>
        <time>2020-07-16T05:45:08.392Z</time>
      </trkpt>
      <trkpt lat="67.29357" lon="14.65287">
        <ele>5.405834</ele>
        <time>2020-07-16T05:45:09.887Z</time>
      </trkpt>
      <trkpt lat="67.29348" lon="14.65174">
        <ele>5.532793</ele>
        <time>2020-07-16T05:45:18.157Z</time>
      </trkpt>
      <trkpt lat="67.2933" lon="14.65004">
        <ele>5.886376</ele>
        <time>2020-07-16T05:45:31.135Z</time>
      </trkpt>
      <trkpt lat="67.29326" lon="14.64958">
        <ele>5.981579</ele>
        <time>2020-07-16T05:45:34.436Z</time>
      </trkpt>
      <trkpt lat="67.29323" lon="14.64927">
        <ele>6.044653</ele>
        <time>2020-07-16T05:45:37.028Z</time>
      </trkpt>
      <trkpt lat="67.29316" lon="14.64817">
        <ele>6.268477</ele>
        <time>2020-07-16T05:45:45.575Z</time>
      </trkpt>
      <trkpt lat="67.29308" lon="14.64718">
        <ele>6.470753</ele>
        <time>2020-07-16T05:45:53.494Z</time>
      </trkpt>
      <trkpt lat="67.29306" lon="14.64699">
        <ele>6.50686</ele>
        <time>2020-07-16T05:45:54.952Z</time>
      </trkpt>
      <trkpt lat="67.29303" lon="14.64672">
        <ele>6.560057</ele>
        <time>2020-07-16T05:45:57.206Z</time>
      </trkpt>
      <trkpt lat="67.293" lon="14.64661">
        <ele>6.583555</ele>
        <time>2020-07-16T05:45:58.321Z</time>
      </trkpt>
      <trkpt lat="67.29299" lon="14.64653">
        <ele>6.599569</ele>
        <time>2020-07-16T05:45:58.900Z</time>
      </trkpt>
      <trkpt lat="67.29295" lon="14.64636">
        <ele>6.636535</ele>
        <time>2020-07-16T05:46:00.454Z</time>
      </trkpt>
      <trkpt lat="67.29286" lon="14.64607">
        <ele>6.705182</ele>
        <time>2020-07-16T05:46:03.227Z</time>
      </trkpt>
      <trkpt lat="67.29283" lon="14.64596">
        <ele>6.731257</ele>
        <time>2020-07-16T05:46:04.323Z</time>
      </trkpt>
      <trkpt lat="67.29282" lon="14.64591">
        <ele>6.740965</ele>
        <time>2020-07-16T05:46:04.872Z</time>
      </trkpt>
      <trkpt lat="67.29282" lon="14.64569">
        <ele>6.781673</ele>
        <time>2020-07-16T05:46:06.473Z</time>
      </trkpt>
      <trkpt lat="67.29285" lon="14.6453">
        <ele>6.855728</ele>
        <time>2020-07-16T05:46:09.552Z</time>
      </trkpt>
      <trkpt lat="67.29284" lon="14.64508">
        <ele>6.897455</ele>
        <time>2020-07-16T05:46:11.295Z</time>
      </trkpt>
      <trkpt lat="67.29279" lon="14.64428">
        <ele>7.048513</ele>
        <time>2020-07-16T05:46:17.299Z</time>
      </trkpt>
      <trkpt lat="67.29274" lon="14.6435">
        <ele>7.195382</ele>
        <time>2020-07-16T05:46:23.015Z</time>
      </trkpt>
      <trkpt lat="67.29266" lon="14.64242">
        <ele>7.250044</ele>
        <time>2020-07-16T05:46:30.893Z</time>
      </trkpt>
      <trkpt lat="67.29258" lon="14.64144">
        <ele>7.017635</ele>
        <time>2020-07-16T05:46:38.228Z</time>
      </trkpt>
      <trkpt lat="67.29249" lon="14.64037">
        <ele>6.76276</ele>
        <time>2020-07-16T05:46:45.261Z</time>
      </trkpt>
      <trkpt lat="67.29221" lon="14.63777">
        <ele>6.095034</ele>
        <time>2020-07-16T05:47:01.029Z</time>
      </trkpt>
      <trkpt lat="67.29217" lon="14.63746">
        <ele>5.993743</ele>
        <time>2020-07-16T05:47:03.017Z</time>
      </trkpt>
      <trkpt lat="67.29215" lon="14.63732">
        <ele>5.949002</ele>
        <time>2020-07-16T05:47:03.783Z</time>
      </trkpt>
      <trkpt lat="67.29201" lon="14.63632">
        <ele>5.620772</ele>
        <time>2020-07-16T05:47:10.009Z</time>
      </trkpt>
      <trkpt lat="67.29196" lon="14.6361">
        <ele>5.542674</ele>
        <time>2020-07-16T05:47:11.437Z</time>
      </trkpt>
      <trkpt lat="67.29193" lon="14.63598">
        <ele>5.499548</ele>
        <time>2020-07-16T05:47:12.286Z</time>
      </trkpt>
      <trkpt lat="67.29182" lon="14.63558">
        <ele>5.348612</ele>
        <time>2020-07-16T05:47:15.269Z</time>
      </trkpt>
      <trkpt lat="67.29178" lon="14.63537">
        <ele>5.272433</ele>
        <time>2020-07-16T05:47:16.701Z</time>
      </trkpt>
      <trkpt lat="67.2916" lon="14.63415">
        <ele>4.869818</ele>
        <time>2020-07-16T05:47:25.120Z</time>
      </trkpt>
      <trkpt lat="67.29142" lon="14.63297">
        <ele>5.24731</ele>
        <time>2020-07-16T05:47:34.305Z</time>
      </trkpt>
      <trkpt lat="67.2913" lon="14.63228">
        <ele>5.554345</ele>
        <time>2020-07-16T05:47:40.190Z</time>
      </trkpt>
      <trkpt lat="67.29119" lon="14.63161">
        <ele>5.852988</ele>
        <time>2020-07-16T05:47:47.044Z</time>
      </trkpt>
      <trkpt lat="67.29104" lon="14.63084">
        <ele>6.207921</ele>
        <time>2020-07-16T05:47:55.109Z</time>
      </trkpt>
      <trkpt lat="67.29082" lon="14.6298">
        <ele>6.690866</ele>
        <time>2020-07-16T05:48:05.165Z</time>
      </trkpt>
      <trkpt lat="67.29079" lon="14.62965">
        <ele>6.709874</ele>
        <time>2020-07-16T05:48:06.957Z</time>
      </trkpt>
      <trkpt lat="67.29077" lon="14.62948">
        <ele>6.708576</ele>
        <time>2020-07-16T05:48:08.236Z</time>
      </trkpt>
      <trkpt lat="67.29075" lon="14.62926">
        <ele>6.70696</ele>
        <time>2020-07-16T05:48:10.189Z</time>
      </trkpt>
      <trkpt lat="67.29071" lon="14.62855">
        <ele>6.70175</ele>
        <time>2020-07-16T05:48:15.584Z</time>
      </trkpt>
      <trkpt lat="67.29057" lon="14.62792">
        <ele>6.696464</ele>
        <time>2020-07-16T05:48:21.296Z</time>
      </trkpt>
      <trkpt lat="67.29045" lon="14.62723">
        <ele>6.691011</ele>
        <time>2020-07-16T05:48:26.432Z</time>
      </trkpt>
      <trkpt lat="67.29041" lon="14.62705">
        <ele>6.689507</ele>
        <time>2020-07-16T05:48:27.948Z</time>
      </trkpt>
      <trkpt lat="67.29036" lon="14.62683">
        <ele>6.687656</ele>
        <time>2020-07-16T05:48:29.534Z</time>
      </trkpt>
      <trkpt lat="67.29033" lon="14.62668">
        <ele>6.686514</ele>
        <time>2020-07-16T05:48:30.583Z</time>
      </trkpt>
      <trkpt lat="67.29025" lon="14.62588">
        <ele>6.680489</ele>
        <time>2020-07-16T05:48:35.792Z</time>
      </trkpt>
      <trkpt lat="67.2902" lon="14.6255">
        <ele>6.677641</ele>
        <time>2020-07-16T05:48:38.074Z</time>
      </trkpt>
      <trkpt lat="67.29018" lon="14.62526">
        <ele>6.57191</ele>
        <time>2020-07-16T05:48:39.490Z</time>
      </trkpt>
      <trkpt lat="67.29008" lon="14.62236">
        <ele>4.693766</ele>
        <time>2020-07-16T05:48:55.377Z</time>
      </trkpt>
      <trkpt lat="67.29007" lon="14.62195">
        <ele>4.429235</ele>
        <time>2020-07-16T05:48:57.614Z</time>
      </trkpt>
      <trkpt lat="67.29006" lon="14.62122">
        <ele>3.959499</ele>
        <time>2020-07-16T05:49:01.697Z</time>
      </trkpt>
      <trkpt lat="67.28995" lon="14.61922">
        <ele>3.107898</ele>
        <time>2020-07-16T05:49:13.427Z</time>
      </trkpt>
      <trkpt lat="67.28961" lon="14.61574">
        <ele>2.156086</ele>
        <time>2020-07-16T05:49:35.467Z</time>
      </trkpt>
      <trkpt lat="67.28957" lon="14.61475">
        <ele>2.457006</ele>
        <time>2020-07-16T05:49:42.460Z</time>
      </trkpt>
      <trkpt lat="67.28961" lon="14.61403">
        <ele>2.674933</ele>
        <time>2020-07-16T05:49:48.699Z</time>
      </trkpt>
      <trkpt lat="67.28961" lon="14.61385">
        <ele>2.729251</ele>
        <time>2020-07-16T05:49:49.846Z</time>
      </trkpt>
      <trkpt lat="67.28961" lon="14.61369">
        <ele>2.778148</ele>
        <time>2020-07-16T05:49:50.995Z</time>
      </trkpt>
      <trkpt lat="67.2896" lon="14.61333">
        <ele>2.886722</ele>
        <time>2020-07-16T05:49:54.513Z</time>
      </trkpt>
      <trkpt lat="67.2896" lon="14.61318">
        <ele>2.931068</ele>
        <time>2020-07-16T05:49:55.889Z</time>
      </trkpt>
      <trkpt lat="67.28971" lon="14.61282">
        <ele>3.06804</ele>
        <time>2020-07-16T05:49:59.327Z</time>
      </trkpt>
      <trkpt lat="67.28973" lon="14.6127">
        <ele>3.112394</ele>
        <time>2020-07-16T05:50:00.633Z</time>
      </trkpt>
      <trkpt lat="67.28976" lon="14.61248">
        <ele>3.181317</ele>
        <time>2020-07-16T05:50:02.746Z</time>
      </trkpt>
      <trkpt lat="67.2898" lon="14.61208">
        <ele>3.304819</ele>
        <time>2020-07-16T05:50:06.020Z</time>
      </trkpt>
      <trkpt lat="67.28985" lon="14.61167">
        <ele>3.521773</ele>
        <time>2020-07-16T05:50:09.668Z</time>
      </trkpt>
      <trkpt lat="67.28987" lon="14.61101">
        <ele>4.392932</ele>
        <time>2020-07-16T05:50:15.554Z</time>
      </trkpt>
      <trkpt lat="67.28987" lon="14.61087">
        <ele>4.590327</ele>
        <time>2020-07-16T05:50:17.102Z</time>
      </trkpt>
      <trkpt lat="67.28988" lon="14.61065">
        <ele>4.87118</ele>
        <time>2020-07-16T05:50:19.299Z</time>
      </trkpt>
      <trkpt lat="67.28993" lon="14.60991">
        <ele>5.868409</ele>
        <time>2020-07-16T05:50:27.348Z</time>
      </trkpt>
      <trkpt lat="67.28989" lon="14.60945">
        <ele>6.497959</ele>
        <time>2020-07-16T05:50:32.641Z</time>
      </trkpt>
      <trkpt lat="67.28985" lon="14.60935">
        <ele>6.667031</ele>
        <time>2020-07-16T05:50:34.379Z</time>
      </trkpt>
      <trkpt lat="67.28982" lon="14.60928">
        <ele>6.830747</ele>
        <time>2020-07-16T05:50:35.686Z</time>
      </trkpt>
      <trkpt lat="67.2898" lon="14.60925">
        <ele>6.904349</ele>
        <time>2020-07-16T05:50:36.303Z</time>
      </trkpt>
      <trkpt lat="67.28974" lon="14.60912">
        <ele>7.168084</ele>
        <time>2020-07-16T05:50:38.928Z</time>
      </trkpt>
      <trkpt lat="67.28971" lon="14.60903">
        <ele>7.319153</ele>
        <time>2020-07-16T05:50:40.174Z</time>
      </trkpt>
      <trkpt lat="67.28968" lon="14.60888">
        <ele>7.552712</ele>
        <time>2020-07-16T05:50:42.274Z</time>
      </trkpt>
      <trkpt lat="67.28961" lon="14.6085">
        <ele>8.1026</ele>
        <time>2020-07-16T05:50:47.216Z</time>
      </trkpt>
      <trkpt lat="67.28955" lon="14.60818">
        <ele>8.568444</ele>
        <time>2020-07-16T05:50:51.470Z</time>
      </trkpt>
      <trkpt lat="67.28952" lon="14.60796">
        <ele>8.880705</ele>
        <time>2020-07-16T05:50:54.272Z</time>
      </trkpt>
      <trkpt lat="67.28944" lon="14.60742">
        <ele>9.688273</ele>
        <time>2020-07-16T05:51:02.148Z</time>
      </trkpt>
      <trkpt lat="67.28932" lon="14.60657">
        <ele>11.442551</ele>
        <time>2020-07-16T05:51:13.496Z</time>
      </trkpt>
      <trkpt lat="67.28924" lon="14.60597">
        <ele>12.685571</ele>
        <time>2020-07-16T05:51:21.385Z</time>
      </trkpt>
      <trkpt lat="67.28923" lon="14.60591">
        <ele>12.805702</ele>
        <time>2020-07-16T05:51:22.411Z</time>
      </trkpt>
      <trkpt lat="67.28919" lon="14.6056">
        <ele>13.446692</ele>
        <time>2020-07-16T05:51:27.643Z</time>
      </trkpt>
      <trkpt lat="67.28917" lon="14.60546">
        <ele>13.7343</ele>
        <time>2020-07-16T05:51:29.395Z</time>
      </trkpt>
      <trkpt lat="67.28909" lon="14.60487">
        <ele>14.966334</ele>
        <time>2020-07-16T05:51:37.775Z</time>
      </trkpt>
      <trkpt lat="67.28907" lon="14.60475">
        <ele>15.211994</ele>
        <time>2020-07-16T05:51:40.314Z</time>
      </trkpt>
      <trkpt lat="67.28901" lon="14.60443">
        <ele>15.895208</ele>
        <time>2020-07-16T05:51:44.526Z</time>
      </trkpt>
      <trkpt lat="67.28898" lon="14.60423">
        <ele>16.32954</ele>
        <time>2020-07-16T05:51:47.097Z</time>
      </trkpt>
      <trkpt lat="67.28903" lon="14.60404">
        <ele>16.792868</ele>
        <time>2020-07-16T05:51:51.069Z</time>
      </trkpt>
      <trkpt lat="67.28905" lon="14.60393">
        <ele>17.022311</ele>
        <time>2020-07-16T05:51:53.494Z</time>
      </trkpt>
      <trkpt lat="67.28906" lon="14.60356">
        <ele>17.744631</ele>
        <time>2020-07-16T05:51:57.490Z</time>
      </trkpt>
      <trkpt lat="67.28891" lon="14.6025">
        <ele>19.276509</ele>
        <time>2020-07-16T05:52:11.281Z</time>
      </trkpt>
      <trkpt lat="67.28889" lon="14.60229">
        <ele>19.477997</ele>
        <time>2020-07-16T05:52:14.467Z</time>
      </trkpt>
      <trkpt lat="67.28888" lon="14.60217">
        <ele>19.599157</ele>
        <time>2020-07-16T05:52:16.869Z</time>
      </trkpt>
      <trkpt lat="67.28883" lon="14.60069">
        <ele>20.983103</ele>
        <time>2020-07-16T05:52:32.010Z</time>
      </trkpt>
      <trkpt lat="67.28831" lon="14.59658">
        <ele>23.248269</ele>
        <time>2020-07-16T05:53:05.481Z</time>
      </trkpt>
      <trkpt lat="67.28824" lon="14.59614">
        <ele>23.303985</ele>
        <time>2020-07-16T05:53:08.500Z</time>
      </trkpt>
      <trkpt lat="67.28822" lon="14.59598">
        <ele>23.323644</ele>
        <time>2020-07-16T05:53:09.656Z</time>
      </trkpt>
      <trkpt lat="67.28818" lon="14.59572">
        <ele>23.3559</ele>
        <time>2020-07-16T05:53:11.316Z</time>
      </trkpt>
      <trkpt lat="67.28814" lon="14.59541">
        <ele>23.395002</ele>
        <time>2020-07-16T05:53:13.380Z</time>
      </trkpt>
      <trkpt lat="67.28793" lon="14.5942">
        <ele>23.629942</ele>
        <time>2020-07-16T05:53:21.934Z</time>
      </trkpt>
      <trkpt lat="67.28793" lon="14.59415">
        <ele>23.69734</ele>
        <time>2020-07-16T05:53:22.231Z</time>
      </trkpt>
      <trkpt lat="67.28784" lon="14.59362">
        <ele>24.400472</ele>
        <time>2020-07-16T05:53:26.887Z</time>
      </trkpt>
      <trkpt lat="67.28779" lon="14.59333">
        <ele>24.78773</ele>
        <time>2020-07-16T05:53:29.508Z</time>
      </trkpt>
      <trkpt lat="67.28776" lon="14.59307">
        <ele>25.128325</ele>
        <time>2020-07-16T05:53:33.030Z</time>
      </trkpt>
      <trkpt lat="67.2877" lon="14.59268">
        <ele>25.626673</ele>
        <time>2020-07-16T05:53:36.621Z</time>
      </trkpt>
      <trkpt lat="67.28754" lon="14.59133">
        <ele>27.362127</ele>
        <time>2020-07-16T05:53:53.081Z</time>
      </trkpt>
      <trkpt lat="67.28735" lon="14.5909">
        <ele>28.149659</ele>
        <time>2020-07-16T05:54:00.560Z</time>
      </trkpt>
      <trkpt lat="67.28735" lon="14.59081">
        <ele>28.266313</ele>
        <time>2020-07-16T05:54:02.132Z</time>
      </trkpt>
      <trkpt lat="67.28734" lon="14.59061">
        <ele>28.506389</ele>
        <time>2020-07-16T05:54:05.294Z</time>
      </trkpt>
      <trkpt lat="67.28733" lon="14.59054">
        <ele>28.600302</ele>
        <time>2020-07-16T05:54:06.357Z</time>
      </trkpt>
      <trkpt lat="67.28735" lon="14.59043">
        <ele>28.739788</ele>
        <time>2020-07-16T05:54:07.547Z</time>
      </trkpt>
      <trkpt lat="67.28737" lon="14.59035">
        <ele>28.865031</ele>
        <time>2020-07-16T05:54:08.827Z</time>
      </trkpt>
      <trkpt lat="67.28738" lon="14.59033">
        <ele>28.903851</ele>
        <time>2020-07-16T05:54:09.501Z</time>
      </trkpt>
      <trkpt lat="67.28739" lon="14.59001">
        <ele>29.325779</ele>
        <time>2020-07-16T05:54:12.795Z</time>
      </trkpt>
      <trkpt lat="67.28739" lon="14.58999">
        <ele>29.369768</ele>
        <time>2020-07-16T05:54:13.404Z</time>
      </trkpt>
      <trkpt lat="67.28736" lon="14.58972">
        <ele>29.884123</ele>
        <time>2020-07-16T05:54:17.924Z</time>
      </trkpt>
      <trkpt lat="67.28722" lon="14.58846">
        <ele>32.360189</ele>
        <time>2020-07-16T05:54:35.383Z</time>
      </trkpt>
      <trkpt lat="67.28711" lon="14.58753">
        <ele>34.199835</ele>
        <time>2020-07-16T05:54:48.717Z</time>
      </trkpt>
      <trkpt lat="67.28708" lon="14.58734">
        <ele>34.580652</ele>
        <time>2020-07-16T05:54:50.826Z</time>
      </trkpt>
      <trkpt lat="67.28698" lon="14.5865">
        <ele>36.248048</ele>
        <time>2020-07-16T05:55:03.326Z</time>
      </trkpt>
      <trkpt lat="67.28688" lon="14.58615">
        <ele>37.051354</ele>
        <time>2020-07-16T05:55:09.652Z</time>
      </trkpt>
      <trkpt lat="67.28687" lon="14.58608">
        <ele>37.202922</ele>
        <time>2020-07-16T05:55:10.447Z</time>
      </trkpt>
      <trkpt lat="67.28685" lon="14.58589">
        <ele>37.561464</ele>
        <time>2020-07-16T05:55:12.679Z</time>
      </trkpt>
      <trkpt lat="67.28683" lon="14.58533">
        <ele>38.262123</ele>
        <time>2020-07-16T05:55:18.533Z</time>
      </trkpt>
      <trkpt lat="67.28676" lon="14.58468">
        <ele>38.777149</ele>
        <time>2020-07-16T05:55:25.727Z</time>
      </trkpt>
      <trkpt lat="67.28655" lon="14.58286">
        <ele>40.209895</ele>
        <time>2020-07-16T05:55:43.206Z</time>
      </trkpt>
      <trkpt lat="67.28631" lon="14.58069">
        <ele>41.232954</ele>
        <time>2020-07-16T05:56:01.671Z</time>
      </trkpt>
      <trkpt lat="67.28624" lon="14.58014">
        <ele>40.869686</ele>
        <time>2020-07-16T05:56:06.259Z</time>
      </trkpt>
      <trkpt lat="67.28599" lon="14.57806">
        <ele>39.52019</ele>
        <time>2020-07-16T05:56:18.987Z</time>
      </trkpt>
      <trkpt lat="67.28591" lon="14.57734">
        <ele>39.056315</ele>
        <time>2020-07-16T05:56:22.782Z</time>
      </trkpt>
      <trkpt lat="67.2858" lon="14.57647">
        <ele>38.225033</ele>
        <time>2020-07-16T05:56:27.190Z</time>
      </trkpt>
      <trkpt lat="67.28569" lon="14.57582">
        <ele>37.088006</ele>
        <time>2020-07-16T05:56:30.461Z</time>
      </trkpt>
      <trkpt lat="67.28565" lon="14.57568">
        <ele>36.830482</ele>
        <time>2020-07-16T05:56:31.227Z</time>
      </trkpt>
      <trkpt lat="67.28563" lon="14.5756">
        <ele>36.660728</ele>
        <time>2020-07-16T05:56:31.752Z</time>
      </trkpt>
      <trkpt lat="67.28561" lon="14.57549">
        <ele>36.479857</ele>
        <time>2020-07-16T05:56:32.300Z</time>
      </trkpt>
      <trkpt lat="67.28561" lon="14.57543">
        <ele>36.37354</ele>
        <time>2020-07-16T05:56:32.561Z</time>
      </trkpt>
      <trkpt lat="67.28561" lon="14.57473">
        <ele>35.255148</ele>
        <time>2020-07-16T05:56:35.972Z</time>
      </trkpt>
      <trkpt lat="67.28541" lon="14.57302">
        <ele>32.396717</ele>
        <time>2020-07-16T05:56:44.475Z</time>
      </trkpt>
      <trkpt lat="67.28523" lon="14.57148">
        <ele>31.239282</ele>
        <time>2020-07-16T05:56:52.663Z</time>
      </trkpt>
      <trkpt lat="67.28512" lon="14.57047">
        <ele>31.298734</ele>
        <time>2020-07-16T05:56:59.893Z</time>
      </trkpt>
      <trkpt lat="67.28494" lon="14.569">
        <ele>31.384909</ele>
        <time>2020-07-16T05:57:14.570Z</time>
      </trkpt>
      <trkpt lat="67.28478" lon="14.56761">
        <ele>31.392437</ele>
        <time>2020-07-16T05:57:27.445Z</time>
      </trkpt>
      <trkpt lat="67.28463" lon="14.56697">
        <ele>31.198041</ele>
        <time>2020-07-16T05:57:32.681Z</time>
      </trkpt>
      <trkpt lat="67.28458" lon="14.56679">
        <ele>31.141365</ele>
        <time>2020-07-16T05:57:35.197Z</time>
      </trkpt>
      <trkpt lat="67.28457" lon="14.56657">
        <ele>31.084884</ele>
        <time>2020-07-16T05:57:36.681Z</time>
      </trkpt>
      <trkpt lat="67.28457" lon="14.56645">
        <ele>31.055304</ele>
        <time>2020-07-16T05:57:37.524Z</time>
      </trkpt>
      <trkpt lat="67.28459" lon="14.56614">
        <ele>30.974687</ele>
        <time>2020-07-16T05:57:39.109Z</time>
      </trkpt>
      <trkpt lat="67.28447" lon="14.56491">
        <ele>30.651553</ele>
        <time>2020-07-16T05:57:47.224Z</time>
      </trkpt>
      <trkpt lat="67.28421" lon="14.56268">
        <ele>30.577379</ele>
        <time>2020-07-16T05:57:59.541Z</time>
      </trkpt>
      <trkpt lat="67.2841" lon="14.56177">
        <ele>30.944183</ele>
        <time>2020-07-16T05:58:05.065Z</time>
      </trkpt>
      <trkpt lat="67.28379" lon="14.55908">
        <ele>32.036491</ele>
        <time>2020-07-16T05:58:32.349Z</time>
      </trkpt>
      <trkpt lat="67.2837" lon="14.55835">
        <ele>33.278482</ele>
        <time>2020-07-16T05:58:41.317Z</time>
      </trkpt>
      <trkpt lat="67.28369" lon="14.5582">
        <ele>33.554179</ele>
        <time>2020-07-16T05:58:44.150Z</time>
      </trkpt>
      <trkpt lat="67.28362" lon="14.55767">
        <ele>34.553583</ele>
        <time>2020-07-16T05:58:51.115Z</time>
      </trkpt>
      <trkpt lat="67.28355" lon="14.5571">
        <ele>35.622444</ele>
        <time>2020-07-16T05:58:59.600Z</time>
      </trkpt>
      <trkpt lat="67.28353" lon="14.55697">
        <ele>35.857575</ele>
        <time>2020-07-16T05:59:01.383Z</time>
      </trkpt>
      <trkpt lat="67.28345" lon="14.55637">
        <ele>36.999589</ele>
        <time>2020-07-16T05:59:10.222Z</time>
      </trkpt>
      <trkpt lat="67.28338" lon="14.55572">
        <ele>38.19798</ele>
        <time>2020-07-16T05:59:18.631Z</time>
      </trkpt>
      <trkpt lat="67.28335" lon="14.55542">
        <ele>38.756691</ele>
        <time>2020-07-16T05:59:23.629Z</time>
      </trkpt>
      <trkpt lat="67.28326" lon="14.55469">
        <ele>40.119082</ele>
        <time>2020-07-16T05:59:33.828Z</time>
      </trkpt>
      <trkpt lat="67.28323" lon="14.55443">
        <ele>40.469845</ele>
        <time>2020-07-16T05:59:37.173Z</time>
      </trkpt>
      <trkpt lat="67.2832" lon="14.55419">
        <ele>40.650002</ele>
        <time>2020-07-16T05:59:39.988Z</time>
      </trkpt>
      <trkpt lat="67.28306" lon="14.55346">
        <ele>41.222614</ele>
        <time>2020-07-16T05:59:48.890Z</time>
      </trkpt>
      <trkpt lat="67.28299" lon="14.55305">
        <ele>41.528998</ele>
        <time>2020-07-16T05:59:52.618Z</time>
      </trkpt>
      <trkpt lat="67.28287" lon="14.5522">
        <ele>42.167832</ele>
        <time>2020-07-16T06:00:00.309Z</time>
      </trkpt>
      <trkpt lat="67.2828" lon="14.55166">
        <ele>42.559752</ele>
        <time>2020-07-16T06:00:05.026Z</time>
      </trkpt>
      <trkpt lat="67.28279" lon="14.55153">
        <ele>42.657097</ele>
        <time>2020-07-16T06:00:06.039Z</time>
      </trkpt>
      <trkpt lat="67.2825" lon="14.54988">
        <ele>43.637175</ele>
        <time>2020-07-16T06:00:19.834Z</time>
      </trkpt>
      <trkpt lat="67.28244" lon="14.54958">
        <ele>43.635353</ele>
        <time>2020-07-16T06:00:22.218Z</time>
      </trkpt>
      <trkpt lat="67.28239" lon="14.54933">
        <ele>43.633888</ele>
        <time>2020-07-16T06:00:24.339Z</time>
      </trkpt>
      <trkpt lat="67.28211" lon="14.54808">
        <ele>43.626271</ele>
        <time>2020-07-16T06:00:34.244Z</time>
      </trkpt>
      <trkpt lat="67.28198" lon="14.54745">
        <ele>43.62243</ele>
        <time>2020-07-16T06:00:39.124Z</time>
      </trkpt>
      <trkpt lat="67.28187" lon="14.54694">
        <ele>43.619379</ele>
        <time>2020-07-16T06:00:42.853Z</time>
      </trkpt>
      <trkpt lat="67.28151" lon="14.54474">
        <ele>42.755433</ele>
        <time>2020-07-16T06:00:58.196Z</time>
      </trkpt>
      <trkpt lat="67.28133" lon="14.5438">
        <ele>42.147163</ele>
        <time>2020-07-16T06:01:04.491Z</time>
      </trkpt>
      <trkpt lat="67.28082" lon="14.54121">
        <ele>39.403053</ele>
        <time>2020-07-16T06:01:20.303Z</time>
      </trkpt>
      <trkpt lat="67.2808" lon="14.54111">
        <ele>39.193349</ele>
        <time>2020-07-16T06:01:20.777Z</time>
      </trkpt>
      <trkpt lat="67.28055" lon="14.5398">
        <ele>36.346812</ele>
        <time>2020-07-16T06:01:27.601Z</time>
      </trkpt>
      <trkpt lat="67.28045" lon="14.53918">
        <ele>35.057187</ele>
        <time>2020-07-16T06:01:30.551Z</time>
      </trkpt>
      <trkpt lat="67.28039" lon="14.53877">
        <ele>34.213938</ele>
        <time>2020-07-16T06:01:32.694Z</time>
      </trkpt>
      <trkpt lat="67.28038" lon="14.5387">
        <ele>34.050599</ele>
        <time>2020-07-16T06:01:33.078Z</time>
      </trkpt>
      <trkpt lat="67.28035" lon="14.53854">
        <ele>33.712886</ele>
        <time>2020-07-16T06:01:33.832Z</time>
      </trkpt>
      <trkpt lat="67.28029" lon="14.53804">
        <ele>32.68966</ele>
        <time>2020-07-16T06:01:36.218Z</time>
      </trkpt>
      <trkpt lat="67.28028" lon="14.53792">
        <ele>32.458465</ele>
        <time>2020-07-16T06:01:36.808Z</time>
      </trkpt>
      <trkpt lat="67.28026" lon="14.53771">
        <ele>32.028513</ele>
        <time>2020-07-16T06:01:37.794Z</time>
      </trkpt>
      <trkpt lat="67.28024" lon="14.53759">
        <ele>31.80674</ele>
        <time>2020-07-16T06:01:38.319Z</time>
      </trkpt>
      <trkpt lat="67.28023" lon="14.53748">
        <ele>31.588699</ele>
        <time>2020-07-16T06:01:38.807Z</time>
      </trkpt>
      <trkpt lat="67.28015" lon="14.53687">
        <ele>30.406569</ele>
        <time>2020-07-16T06:01:41.937Z</time>
      </trkpt>
      <trkpt lat="67.28009" lon="14.53639">
        <ele>29.50537</ele>
        <time>2020-07-16T06:01:44.123Z</time>
      </trkpt>
      <trkpt lat="67.28005" lon="14.53602">
        <ele>28.802838</ele>
        <time>2020-07-16T06:01:46.000Z</time>
      </trkpt>
      <trkpt lat="67.27985" lon="14.53441">
        <ele>25.729387</ele>
        <time>2020-07-16T06:01:53.790Z</time>
      </trkpt>
      <trkpt lat="67.27955" lon="14.53189">
        <ele>22.840015</ele>
        <time>2020-07-16T06:02:07.595Z</time>
      </trkpt>
      <trkpt lat="67.27939" lon="14.5302">
        <ele>22.100672</ele>
        <time>2020-07-16T06:02:18.695Z</time>
      </trkpt>
      <trkpt lat="67.27895" lon="14.5255">
        <ele>21.388795</ele>
        <time>2020-07-16T06:02:51.430Z</time>
      </trkpt>
      <trkpt lat="67.27885" lon="14.52434">
        <ele>21.368401</ele>
        <time>2020-07-16T06:02:59.818Z</time>
      </trkpt>
      <trkpt lat="67.27881" lon="14.52397">
        <ele>21.38674</ele>
        <time>2020-07-16T06:03:02.515Z</time>
      </trkpt>
      <trkpt lat="67.27873" lon="14.52331">
        <ele>21.453164</ele>
        <time>2020-07-16T06:03:07.400Z</time>
      </trkpt>
      <trkpt lat="67.2784" lon="14.51973">
        <ele>21.808314</ele>
        <time>2020-07-16T06:03:34.062Z</time>
      </trkpt>
      <trkpt lat="67.27817" lon="14.51732">
        <ele>22.268371</ele>
        <time>2020-07-16T06:03:52.364Z</time>
      </trkpt>
      <trkpt lat="67.27817" lon="14.51725">
        <ele>22.281464</ele>
        <time>2020-07-16T06:03:52.967Z</time>
      </trkpt>
      <trkpt lat="67.27817" lon="14.51711">
        <ele>22.307741</ele>
        <time>2020-07-16T06:03:54.079Z</time>
      </trkpt>
      <trkpt lat="67.27814" lon="14.51693">
        <ele>22.345756</ele>
        <time>2020-07-16T06:03:55.592Z</time>
      </trkpt>
      <trkpt lat="67.27804" lon="14.51541">
        <ele>22.634181</ele>
        <time>2020-07-16T06:04:07.375Z</time>
      </trkpt>
      <trkpt lat="67.27801" lon="14.51502">
        <ele>22.700385</ele>
        <time>2020-07-16T06:04:10.410Z</time>
      </trkpt>
      <trkpt lat="67.27798" lon="14.51465">
        <ele>22.744271</ele>
        <time>2020-07-16T06:04:13.296Z</time>
      </trkpt>
      <trkpt lat="67.27798" lon="14.51459">
        <ele>22.75091</ele>
        <time>2020-07-16T06:04:13.765Z</time>
      </trkpt>
      <trkpt lat="67.2779" lon="14.51363">
        <ele>22.863178</ele>
        <time>2020-07-16T06:04:21.440Z</time>
      </trkpt>
      <trkpt lat="67.27746" lon="14.5088">
        <ele>22.581756</ele>
        <time>2020-07-16T06:04:56.250Z</time>
      </trkpt>
      <trkpt lat="67.27742" lon="14.5085">
        <ele>22.473524</ele>
        <time>2020-07-16T06:04:58.308Z</time>
      </trkpt>
      <trkpt lat="67.27739" lon="14.50816">
        <ele>22.351071</ele>
        <time>2020-07-16T06:05:00.255Z</time>
      </trkpt>
      <trkpt lat="67.27727" lon="14.50698">
        <ele>21.924971</ele>
        <time>2020-07-16T06:05:07.372Z</time>
      </trkpt>
      <trkpt lat="67.27722" lon="14.50642">
        <ele>21.724342</ele>
        <time>2020-07-16T06:05:10.588Z</time>
      </trkpt>
      <trkpt lat="67.27718" lon="14.50603">
        <ele>21.573348</ele>
        <time>2020-07-16T06:05:12.732Z</time>
      </trkpt>
      <trkpt lat="67.27716" lon="14.50572">
        <ele>21.339265</ele>
        <time>2020-07-16T06:05:14.634Z</time>
      </trkpt>
      <trkpt lat="67.27715" lon="14.50558">
        <ele>21.225565</ele>
        <time>2020-07-16T06:05:15.428Z</time>
      </trkpt>
      <trkpt lat="67.27712" lon="14.50521">
        <ele>20.953549</ele>
        <time>2020-07-16T06:05:17.268Z</time>
      </trkpt>
      <trkpt lat="67.27692" lon="14.50293">
        <ele>19.211882</ele>
        <time>2020-07-16T06:05:29.954Z</time>
      </trkpt>
      <trkpt lat="67.2769" lon="14.50266">
        <ele>19.012701</ele>
        <time>2020-07-16T06:05:31.286Z</time>
      </trkpt>
      <trkpt lat="67.27689" lon="14.50246">
        <ele>18.861003</ele>
        <time>2020-07-16T06:05:32.361Z</time>
      </trkpt>
      <trkpt lat="67.27692" lon="14.50215">
        <ele>18.624514</ele>
        <time>2020-07-16T06:05:34.342Z</time>
      </trkpt>
      <trkpt lat="67.27695" lon="14.50204">
        <ele>18.52991</ele>
        <time>2020-07-16T06:05:35.134Z</time>
      </trkpt>
      <trkpt lat="67.277" lon="14.50189">
        <ele>18.38614</ele>
        <time>2020-07-16T06:05:36.170Z</time>
      </trkpt>
      <trkpt lat="67.27702" lon="14.50176">
        <ele>18.282386</ele>
        <time>2020-07-16T06:05:36.841Z</time>
      </trkpt>
      <trkpt lat="67.27692" lon="14.50014">
        <ele>18.51003</ele>
        <time>2020-07-16T06:05:47.032Z</time>
      </trkpt>
      <trkpt lat="67.27691" lon="14.49958">
        <ele>18.648848</ele>
        <time>2020-07-16T06:05:50.512Z</time>
      </trkpt>
      <trkpt lat="67.27693" lon="14.49906">
        <ele>18.780237</ele>
        <time>2020-07-16T06:05:54.259Z</time>
      </trkpt>
      <trkpt lat="67.27703" lon="14.49725">
        <ele>19.234162</ele>
        <time>2020-07-16T06:06:10.602Z</time>
      </trkpt>
      <trkpt lat="67.27716" lon="14.49586">
        <ele>21.443774</ele>
        <time>2020-07-16T06:06:26.040Z</time>
      </trkpt>
      <trkpt lat="67.27806" lon="14.4911">
        <ele>31.415418</ele>
        <time>2020-07-16T06:07:40.349Z</time>
      </trkpt>
      <trkpt lat="67.27816" lon="14.49023">
        <ele>33.131155</ele>
        <time>2020-07-16T06:07:52.625Z</time>
      </trkpt>
      <trkpt lat="67.27818" lon="14.49004">
        <ele>33.505564</ele>
        <time>2020-07-16T06:07:56.287Z</time>
      </trkpt>
      <trkpt lat="67.27822" lon="14.48978">
        <ele>34.007355</ele>
        <time>2020-07-16T06:07:59.533Z</time>
      </trkpt>
      <trkpt lat="67.27828" lon="14.4884">
        <ele>36.633298</ele>
        <time>2020-07-16T06:08:15.071Z</time>
      </trkpt>
      <trkpt lat="67.27828" lon="14.48782">
        <ele>36.956918</ele>
        <time>2020-07-16T06:08:21.953Z</time>
      </trkpt>
      <trkpt lat="67.2783" lon="14.48715">
        <ele>37.14682</ele>
        <time>2020-07-16T06:08:28.801Z</time>
      </trkpt>
      <trkpt lat="67.27825" lon="14.48552">
        <ele>37.614838</ele>
        <time>2020-07-16T06:08:41.745Z</time>
      </trkpt>
      <trkpt lat="67.27785" lon="14.48067">
        <ele>36.205467</ele>
        <time>2020-07-16T06:09:10.895Z</time>
      </trkpt>
      <trkpt lat="67.27774" lon="14.47811">
        <ele>34.039978</ele>
        <time>2020-07-16T06:09:24.565Z</time>
      </trkpt>
      <trkpt lat="67.27774" lon="14.47804">
        <ele>33.959834</ele>
        <time>2020-07-16T06:09:24.890Z</time>
      </trkpt>
      <trkpt lat="67.27773" lon="14.47785">
        <ele>33.736253</ele>
        <time>2020-07-16T06:09:25.849Z</time>
      </trkpt>
      <trkpt lat="67.27773" lon="14.47769">
        <ele>33.556876</ele>
        <time>2020-07-16T06:09:26.668Z</time>
      </trkpt>
      <trkpt lat="67.27772" lon="14.47754">
        <ele>33.379813</ele>
        <time>2020-07-16T06:09:27.441Z</time>
      </trkpt>
      <trkpt lat="67.27772" lon="14.47725">
        <ele>33.03973</ele>
        <time>2020-07-16T06:09:29.062Z</time>
      </trkpt>
      <trkpt lat="67.2777" lon="14.47679">
        <ele>32.501613</ele>
        <time>2020-07-16T06:09:31.367Z</time>
      </trkpt>
      <trkpt lat="67.27769" lon="14.47663">
        <ele>32.324274</ele>
        <time>2020-07-16T06:09:32.130Z</time>
      </trkpt>
      <trkpt lat="67.27765" lon="14.47639">
        <ele>32.020882</ele>
        <time>2020-07-16T06:09:33.591Z</time>
      </trkpt>
      <trkpt lat="67.27763" lon="14.47632">
        <ele>31.908781</ele>
        <time>2020-07-16T06:09:34.069Z</time>
      </trkpt>
      <trkpt lat="67.27755" lon="14.47607">
        <ele>31.53464</ele>
        <time>2020-07-16T06:09:35.700Z</time>
      </trkpt>
      <trkpt lat="67.27742" lon="14.47515">
        <ele>30.392352</ele>
        <time>2020-07-16T06:09:40.885Z</time>
      </trkpt>
      <trkpt lat="67.27744" lon="14.47411">
        <ele>29.223921</ele>
        <time>2020-07-16T06:09:46.279Z</time>
      </trkpt>
      <trkpt lat="67.2773" lon="14.47159">
        <ele>26.475577</ele>
        <time>2020-07-16T06:09:59.904Z</time>
      </trkpt>
      <trkpt lat="67.27734" lon="14.47108">
        <ele>25.909963</ele>
        <time>2020-07-16T06:10:02.784Z</time>
      </trkpt>
      <trkpt lat="67.27737" lon="14.4707">
        <ele>25.489338</ele>
        <time>2020-07-16T06:10:05.142Z</time>
      </trkpt>
      <trkpt lat="67.27738" lon="14.4705">
        <ele>25.276535</ele>
        <time>2020-07-16T06:10:06.219Z</time>
      </trkpt>
      <trkpt lat="67.27734" lon="14.46859">
        <ele>23.692505</ele>
        <time>2020-07-16T06:10:17.150Z</time>
      </trkpt>
      <trkpt lat="67.27725" lon="14.46712">
        <ele>22.581558</ele>
        <time>2020-07-16T06:10:25.849Z</time>
      </trkpt>
      <trkpt lat="67.27724" lon="14.46682">
        <ele>22.358277</ele>
        <time>2020-07-16T06:10:27.622Z</time>
      </trkpt>
      <trkpt lat="67.27721" lon="14.46634">
        <ele>21.992132</ele>
        <time>2020-07-16T06:10:30.495Z</time>
      </trkpt>
      <trkpt lat="67.27716" lon="14.46549">
        <ele>21.357386</ele>
        <time>2020-07-16T06:10:35.359Z</time>
      </trkpt>
      <trkpt lat="67.27706" lon="14.4644">
        <ele>20.4202</ele>
        <time>2020-07-16T06:10:41.695Z</time>
      </trkpt>
      <trkpt lat="67.27679" lon="14.46318">
        <ele>19.246858</ele>
        <time>2020-07-16T06:10:49.584Z</time>
      </trkpt>
      <trkpt lat="67.27671" lon="14.46269">
        <ele>18.788656</ele>
        <time>2020-07-16T06:10:52.566Z</time>
      </trkpt>
      <trkpt lat="67.27662" lon="14.46214">
        <ele>18.287932</ele>
        <time>2020-07-16T06:10:55.850Z</time>
      </trkpt>
      <trkpt lat="67.27653" lon="14.46156">
        <ele>17.759216</ele>
        <time>2020-07-16T06:10:59.375Z</time>
      </trkpt>
      <trkpt lat="67.27655" lon="14.4615">
        <ele>17.679008</ele>
        <time>2020-07-16T06:10:59.917Z</time>
      </trkpt>
      <trkpt lat="67.27679" lon="14.45992">
        <ele>16.983292</ele>
        <time>2020-07-16T06:11:09.298Z</time>
      </trkpt>
      <trkpt lat="67.27679" lon="14.45986">
        <ele>16.965445</ele>
        <time>2020-07-16T06:11:09.660Z</time>
      </trkpt>
      <trkpt lat="67.27678" lon="14.45962">
        <ele>16.893445</ele>
        <time>2020-07-16T06:11:11.056Z</time>
      </trkpt>
      <trkpt lat="67.27676" lon="14.45942">
        <ele>16.833225</ele>
        <time>2020-07-16T06:11:12.183Z</time>
      </trkpt>
      <trkpt lat="67.27671" lon="14.45872">
        <ele>16.617204</ele>
        <time>2020-07-16T06:11:16.536Z</time>
      </trkpt>
      <trkpt lat="67.27666" lon="14.4582">
        <ele>16.458756</ele>
        <time>2020-07-16T06:11:19.845Z</time>
      </trkpt>
      <trkpt lat="67.27662" lon="14.45754">
        <ele>16.257181</ele>
        <time>2020-07-16T06:11:24.481Z</time>
      </trkpt>
      <trkpt lat="67.27637" lon="14.45359">
        <ele>16.962881</ele>
        <time>2020-07-16T06:11:55.470Z</time>
      </trkpt>
      <trkpt lat="67.276" lon="14.44904">
        <ele>18.690823</ele>
        <time>2020-07-16T06:12:34.545Z</time>
      </trkpt>
      <trkpt lat="67.27581" lon="14.44714">
        <ele>19.351578</ele>
        <time>2020-07-16T06:12:49.881Z</time>
      </trkpt>
      <trkpt lat="67.27563" lon="14.44685">
        <ele>19.405794</ele>
        <time>2020-07-16T06:12:53.959Z</time>
      </trkpt>
      <trkpt lat="67.2756" lon="14.44676">
        <ele>19.416908</ele>
        <time>2020-07-16T06:12:54.877Z</time>
      </trkpt>
      <trkpt lat="67.27554" lon="14.44643">
        <ele>19.45287</ele>
        <time>2020-07-16T06:12:57.646Z</time>
      </trkpt>
      <trkpt lat="67.27548" lon="14.44602">
        <ele>19.497374</ele>
        <time>2020-07-16T06:13:01.012Z</time>
      </trkpt>
      <trkpt lat="67.27547" lon="14.44594">
        <ele>19.505643</ele>
        <time>2020-07-16T06:13:01.681Z</time>
      </trkpt>
      <trkpt lat="67.27533" lon="14.44492">
        <ele>19.613136</ele>
        <time>2020-07-16T06:13:09.750Z</time>
      </trkpt>
      <trkpt lat="67.27515" lon="14.44312">
        <ele>19.730473</ele>
        <time>2020-07-16T06:13:23.045Z</time>
      </trkpt>
      <trkpt lat="67.27514" lon="14.443">
        <ele>19.708926</ele>
        <time>2020-07-16T06:13:23.897Z</time>
      </trkpt>
      <trkpt lat="67.2751" lon="14.44253">
        <ele>19.622638</ele>
        <time>2020-07-16T06:13:27.192Z</time>
      </trkpt>
      <trkpt lat="67.27516" lon="14.44249">
        <ele>19.596356</ele>
        <time>2020-07-16T06:13:28.126Z</time>
      </trkpt>
      <trkpt lat="67.27559" lon="14.44154">
        <ele>19.334298</ele>
        <time>2020-07-16T06:13:37.703Z</time>
      </trkpt>
      <trkpt lat="67.27572" lon="14.4411">
        <ele>19.236064</ele>
        <time>2020-07-16T06:13:41.219Z</time>
      </trkpt>
      <trkpt lat="67.27577" lon="14.44091">
        <ele>19.19506</ele>
        <time>2020-07-16T06:13:42.728Z</time>
      </trkpt>
      <trkpt lat="67.27586" lon="14.44056">
        <ele>19.119922</ele>
        <time>2020-07-16T06:13:45.355Z</time>
      </trkpt>
      <trkpt lat="67.27662" lon="14.43788">
        <ele>18.112573</ele>
        <time>2020-07-16T06:14:05.708Z</time>
      </trkpt>
      <trkpt lat="67.27685" lon="14.43705">
        <ele>17.755182</ele>
        <time>2020-07-16T06:14:11.715Z</time>
      </trkpt>
      <trkpt lat="67.27718" lon="14.43581">
        <ele>17.227605</ele>
        <time>2020-07-16T06:14:20.783Z</time>
      </trkpt>
      <trkpt lat="67.27724" lon="14.43558">
        <ele>17.138512</ele>
        <time>2020-07-16T06:14:22.400Z</time>
      </trkpt>
      <trkpt lat="67.27728" lon="14.43539">
        <ele>17.067395</ele>
        <time>2020-07-16T06:14:23.642Z</time>
      </trkpt>
      <trkpt lat="67.2775" lon="14.43384">
        <ele>16.541125</ele>
        <time>2020-07-16T06:14:33.482Z</time>
      </trkpt>
      <trkpt lat="67.27753" lon="14.43377">
        <ele>16.510713</ele>
        <time>2020-07-16T06:14:34.000Z</time>
      </trkpt>
      <trkpt lat="67.27755" lon="14.43371">
        <ele>16.480621</ele>
        <time>2020-07-16T06:14:34.566Z</time>
      </trkpt>
      <trkpt lat="67.27758" lon="14.43365">
        <ele>16.454481</ele>
        <time>2020-07-16T06:14:35.071Z</time>
      </trkpt>
      <trkpt lat="67.27778" lon="14.43321">
        <ele>16.236358</ele>
        <time>2020-07-16T06:14:39.307Z</time>
      </trkpt>
      <trkpt lat="67.27786" lon="14.43286">
        <ele>16.104479</ele>
        <time>2020-07-16T06:14:41.890Z</time>
      </trkpt>
      <trkpt lat="67.27789" lon="14.43266">
        <ele>16.034663</ele>
        <time>2020-07-16T06:14:43.307Z</time>
      </trkpt>
      <trkpt lat="67.27791" lon="14.43257">
        <ele>16.002626</ele>
        <time>2020-07-16T06:14:43.894Z</time>
      </trkpt>
      <trkpt lat="67.27794" lon="14.43246">
        <ele>15.959041</ele>
        <time>2020-07-16T06:14:44.767Z</time>
      </trkpt>
      <trkpt lat="67.27816" lon="14.43174">
        <ele>15.818997</ele>
        <time>2020-07-16T06:14:50.642Z</time>
      </trkpt>
      <trkpt lat="67.2782" lon="14.43161">
        <ele>15.825045</ele>
        <time>2020-07-16T06:14:51.763Z</time>
      </trkpt>
      <trkpt lat="67.27859" lon="14.4308">
        <ele>15.869894</ele>
        <time>2020-07-16T06:15:00.649Z</time>
      </trkpt>
      <trkpt lat="67.27883" lon="14.43011">
        <ele>15.901662</ele>
        <time>2020-07-16T06:15:07.181Z</time>
      </trkpt>
      <trkpt lat="67.27953" lon="14.42715">
        <ele>16.185714</ele>
        <time>2020-07-16T06:15:32.910Z</time>
      </trkpt>
      <trkpt lat="67.28032" lon="14.42422">
        <ele>16.592721</ele>
        <time>2020-07-16T06:15:59.065Z</time>
      </trkpt>
      <trkpt lat="67.28064" lon="14.42256">
        <ele>16.591116</ele>
        <time>2020-07-16T06:16:12.157Z</time>
      </trkpt>
      <trkpt lat="67.28093" lon="14.4219">
        <ele>16.590252</ele>
        <time>2020-07-16T06:16:18.918Z</time>
      </trkpt>
      <trkpt lat="67.2811" lon="14.42119">
        <ele>16.58954</ele>
        <time>2020-07-16T06:16:24.413Z</time>
      </trkpt>
      <trkpt lat="67.28127" lon="14.42045">
        <ele>16.486749</ele>
        <time>2020-07-16T06:16:30.029Z</time>
      </trkpt>
      <trkpt lat="67.2815" lon="14.41951">
        <ele>16.230334</ele>
        <time>2020-07-16T06:16:37.189Z</time>
      </trkpt>
      <trkpt lat="67.2822" lon="14.417">
        <ele>15.514725</ele>
        <time>2020-07-16T06:16:56.584Z</time>
      </trkpt>
      <trkpt lat="67.28255" lon="14.4155">
        <ele>14.761537</ele>
        <time>2020-07-16T06:17:07.009Z</time>
      </trkpt>
      <trkpt lat="67.28263" lon="14.41491">
        <ele>14.494092</ele>
        <time>2020-07-16T06:17:10.704Z</time>
      </trkpt>
      <trkpt lat="67.28266" lon="14.4148">
        <ele>14.435538</ele>
        <time>2020-07-16T06:17:11.452Z</time>
      </trkpt>
      <trkpt lat="67.28279" lon="14.41438">
        <ele>14.202614</ele>
        <time>2020-07-16T06:17:14.730Z</time>
      </trkpt>
      <trkpt lat="67.28283" lon="14.41426">
        <ele>14.135637</ele>
        <time>2020-07-16T06:17:15.639Z</time>
      </trkpt>
      <trkpt lat="67.28287" lon="14.4142">
        <ele>14.081656</ele>
        <time>2020-07-16T06:17:16.359Z</time>
      </trkpt>
      <trkpt lat="67.28292" lon="14.41413">
        <ele>14.016945</ele>
        <time>2020-07-16T06:17:17.217Z</time>
      </trkpt>
      <trkpt lat="67.28296" lon="14.41407">
        <ele>13.970934</ele>
        <time>2020-07-16T06:17:17.867Z</time>
      </trkpt>
      <trkpt lat="67.28304" lon="14.41381">
        <ele>13.827431</ele>
        <time>2020-07-16T06:17:19.862Z</time>
      </trkpt>
      <trkpt lat="67.28325" lon="14.41296">
        <ele>13.340973</ele>
        <time>2020-07-16T06:17:25.776Z</time>
      </trkpt>
      <trkpt lat="67.28334" lon="14.41272">
        <ele>13.134067</ele>
        <time>2020-07-16T06:17:27.583Z</time>
      </trkpt>
      <trkpt lat="67.28408" lon="14.41006">
        <ele>11.086951</ele>
        <time>2020-07-16T06:17:46.000Z</time>
      </trkpt>
      <trkpt lat="67.28416" lon="14.40971">
        <ele>10.82874</ele>
        <time>2020-07-16T06:17:48.202Z</time>
      </trkpt>
      <trkpt lat="67.28422" lon="14.40935">
        <ele>10.580202</ele>
        <time>2020-07-16T06:17:50.460Z</time>
      </trkpt>
      <trkpt lat="67.28427" lon="14.4091">
        <ele>10.378476</ele>
        <time>2020-07-16T06:17:52.014Z</time>
      </trkpt>
      <trkpt lat="67.2843" lon="14.40891">
        <ele>10.230178</ele>
        <time>2020-07-16T06:17:53.121Z</time>
      </trkpt>
      <trkpt lat="67.28438" lon="14.40864">
        <ele>9.985219</ele>
        <time>2020-07-16T06:17:55.099Z</time>
      </trkpt>
      <trkpt lat="67.28442" lon="14.40854">
        <ele>9.887818</ele>
        <time>2020-07-16T06:17:55.848Z</time>
      </trkpt>
      <trkpt lat="67.2845" lon="14.40833">
        <ele>9.668996</ele>
        <time>2020-07-16T06:17:57.522Z</time>
      </trkpt>
      <trkpt lat="67.28453" lon="14.40822">
        <ele>9.577953</ele>
        <time>2020-07-16T06:17:58.199Z</time>
      </trkpt>
      <trkpt lat="67.28455" lon="14.40817">
        <ele>9.527363</ele>
        <time>2020-07-16T06:17:58.591Z</time>
      </trkpt>
      <trkpt lat="67.28481" lon="14.40679">
        <ele>8.420426</ele>
        <time>2020-07-16T06:18:07.133Z</time>
      </trkpt>
      <trkpt lat="67.28504" lon="14.40574">
        <ele>7.55539</ele>
        <time>2020-07-16T06:18:14.009Z</time>
      </trkpt>
      <trkpt lat="67.28528" lon="14.40434">
        <ele>6.605677</ele>
        <time>2020-07-16T06:18:22.844Z</time>
      </trkpt>
      <trkpt lat="67.28541" lon="14.40359">
        <ele>6.12384</ele>
        <time>2020-07-16T06:18:27.657Z</time>
      </trkpt>
      <trkpt lat="67.28564" lon="14.40212">
        <ele>5.193585</ele>
        <time>2020-07-16T06:18:37.178Z</time>
      </trkpt>
      <trkpt lat="67.28567" lon="14.40193">
        <ele>5.080087</ele>
        <time>2020-07-16T06:18:38.305Z</time>
      </trkpt>
      <trkpt lat="67.28566" lon="14.40174">
        <ele>4.963685</ele>
        <time>2020-07-16T06:18:39.532Z</time>
      </trkpt>
      <trkpt lat="67.28562" lon="14.40129">
        <ele>4.697209</ele>
        <time>2020-07-16T06:18:42.400Z</time>
      </trkpt>
      <trkpt lat="67.28563" lon="14.40119">
        <ele>4.637377</ele>
        <time>2020-07-16T06:18:42.985Z</time>
      </trkpt>
      <trkpt lat="67.28565" lon="14.40112">
        <ele>4.584929</ele>
        <time>2020-07-16T06:18:45.404Z</time>
      </trkpt>
      <trkpt lat="67.28569" lon="14.40099">
        <ele>4.511563</ele>
        <time>2020-07-16T06:18:49.711Z</time>
      </trkpt>
      <trkpt lat="67.28563" lon="14.40095">
        <ele>4.467357</ele>
        <time>2020-07-16T06:18:50.608Z</time>
      </trkpt>
      <trkpt lat="67.28556" lon="14.40092">
        <ele>4.410653</ele>
        <time>2020-07-16T06:18:51.811Z</time>
      </trkpt>
      <trkpt lat="67.28558" lon="14.40069">
        <ele>4.339835</ele>
        <time>2020-07-16T06:18:53.232Z</time>
      </trkpt>
      <trkpt lat="67.28526" lon="14.39741">
        <ele>3.295899</ele>
        <time>2020-07-16T06:19:14.807Z</time>
      </trkpt>
      <trkpt lat="67.2851" lon="14.39578">
        <ele>3.026188</ele>
        <time>2020-07-16T06:19:26.360Z</time>
      </trkpt>
      <trkpt lat="67.28495" lon="14.39415">
        <ele>2.912334</ele>
        <time>2020-07-16T06:19:38.164Z</time>
      </trkpt>
      <trkpt lat="67.28479" lon="14.39248">
        <ele>2.795476</ele>
        <time>2020-07-16T06:19:50.594Z</time>
      </trkpt>
      <trkpt lat="67.28447" lon="14.38918">
        <ele>2.662931</ele>
        <time>2020-07-16T06:20:14.719Z</time>
      </trkpt>
      <trkpt lat="67.28444" lon="14.38886">
        <ele>2.650767</ele>
        <time>2020-07-16T06:20:17.117Z</time>
      </trkpt>
      <trkpt lat="67.28441" lon="14.38855">
        <ele>2.639072</ele>
        <time>2020-07-16T06:20:19.284Z</time>
      </trkpt>
      <trkpt lat="67.28439" lon="14.38832">
        <ele>2.630015</ele>
        <time>2020-07-16T06:20:21.007Z</time>
      </trkpt>
      <trkpt lat="67.28438" lon="14.38815">
        <ele>2.623814</ele>
        <time>2020-07-16T06:20:22.179Z</time>
      </trkpt>
      <trkpt lat="67.28435" lon="14.3878">
        <ele>2.610294</ele>
        <time>2020-07-16T06:20:24.754Z</time>
      </trkpt>
      <trkpt lat="67.28434" lon="14.38762">
        <ele>2.608009</ele>
        <time>2020-07-16T06:20:25.976Z</time>
      </trkpt>
      <trkpt lat="67.28432" lon="14.38744">
        <ele>2.608009</ele>
        <time>2020-07-16T06:20:27.254Z</time>
      </trkpt>
      <trkpt lat="67.28427" lon="14.38702">
        <ele>2.608009</ele>
        <time>2020-07-16T06:20:30.313Z</time>
      </trkpt>
      <trkpt lat="67.28421" lon="14.38647">
        <ele>2.608009</ele>
        <time>2020-07-16T06:20:34.110Z</time>
      </trkpt>
      <trkpt lat="67.2841" lon="14.38544">
        <ele>2.608009</ele>
        <time>2020-07-16T06:20:41.316Z</time>
      </trkpt>
      <trkpt lat="67.28409" lon="14.38528">
        <ele>2.608009</ele>
        <time>2020-07-16T06:20:42.509Z</time>
      </trkpt>
      <trkpt lat="67.28406" lon="14.38511">
        <ele>2.608009</ele>
        <time>2020-07-16T06:20:43.659Z</time>
      </trkpt>
      <trkpt lat="67.28391" lon="14.38404">
        <ele>2.608009</ele>
        <time>2020-07-16T06:20:51.376Z</time>
      </trkpt>
      <trkpt lat="67.2839" lon="14.38397">
        <ele>2.608009</ele>
        <time>2020-07-16T06:20:51.865Z</time>
      </trkpt>
      <trkpt lat="67.28385" lon="14.38359">
        <ele>2.608009</ele>
        <time>2020-07-16T06:20:54.729Z</time>
      </trkpt>
      <trkpt lat="67.28383" lon="14.38344">
        <ele>2.608009</ele>
        <time>2020-07-16T06:20:55.851Z</time>
      </trkpt>
      <trkpt lat="67.28388" lon="14.38336">
        <ele>2.608009</ele>
        <time>2020-07-16T06:20:56.911Z</time>
      </trkpt>
      <trkpt lat="67.28406" lon="14.38313">
        <ele>2.608009</ele>
        <time>2020-07-16T06:21:00.610Z</time>
      </trkpt>
      <trkpt lat="67.28397" lon="14.38256">
        <ele>2.608009</ele>
        <time>2020-07-16T06:21:06.029Z</time>
      </trkpt>
    </trkseg>
  </trk>
</gpx>